<?xml version="1.0" encoding="UTF-8" standalone="no" ?>
<gpx xmlns="http://www.topografix.com/GPX/1/1" xmlns:xsi="http://www.w3.org/2001/XMLSchema-instance" xsi:schemaLocation="http://www.topografix.com/GPX/1/1 http://www.topografix.com/GPX/1/1/gpx.xsd" version="1.1" creator="VisuGPX - https://www.visugpx.com">
  <metadata>
    <name>2018-05-20 Bike ride-Amberieux-Savigneux O 33k</name>
    <desc><![CDATA[2018-05-20 Bike ride-Amberieux-Savigneux O 33k]]></desc>
  </metadata>
  <wpt lat="45.92458" lon="4.73731">
    <ele>174</ele>
    <name><![CDATA[2018-05-20 09:50 (Start)]]></name>
  </wpt>
  <wpt lat="45.92463" lon="4.73708">
    <ele>174</ele>
    <name><![CDATA[2018-05-20 09:50 (End)]]></name>
  </wpt>
  <trk>
    <name><![CDATA[2018-05-20 09:50]]></name>
    <trkseg>
      <trkpt lat="45.92458" lon="4.73731">
        <ele>174</ele>
        <time>2018-05-20T07:50:34.99Z</time>
      </trkpt>
      <trkpt lat="45.9246" lon="4.7372">
        <ele>174</ele>
        <time>2018-05-20T07:50:42.765Z</time>
      </trkpt>
      <trkpt lat="45.92461" lon="4.73718">
        <ele>174</ele>
        <time>2018-05-20T07:50:43.765Z</time>
      </trkpt>
      <trkpt lat="45.92461" lon="4.73717">
        <ele>174</ele>
        <time>2018-05-20T07:50:45.765Z</time>
      </trkpt>
      <trkpt lat="45.9246" lon="4.73716">
        <ele>174</ele>
        <time>2018-05-20T07:50:46.765Z</time>
      </trkpt>
      <trkpt lat="45.92459" lon="4.73715">
        <ele>174</ele>
        <time>2018-05-20T07:50:47.765Z</time>
      </trkpt>
      <trkpt lat="45.92462" lon="4.73714">
        <ele>174</ele>
        <time>2018-05-20T07:50:49.749Z</time>
      </trkpt>
      <trkpt lat="45.92464" lon="4.73715">
        <ele>174</ele>
        <time>2018-05-20T07:50:50Z</time>
      </trkpt>
      <trkpt lat="45.92463" lon="4.73722">
        <ele>174</ele>
        <time>2018-05-20T07:50:54Z</time>
      </trkpt>
      <trkpt lat="45.92463" lon="4.7372">
        <ele>174</ele>
        <time>2018-05-20T07:50:55Z</time>
      </trkpt>
      <trkpt lat="45.92467" lon="4.73709">
        <ele>174</ele>
        <time>2018-05-20T07:51:01Z</time>
      </trkpt>
      <trkpt lat="45.92468" lon="4.73706">
        <ele>174</ele>
        <time>2018-05-20T07:51:02Z</time>
      </trkpt>
      <trkpt lat="45.9247" lon="4.73695">
        <ele>174</ele>
        <time>2018-05-20T07:51:05Z</time>
      </trkpt>
      <trkpt lat="45.9247" lon="4.73692">
        <ele>174</ele>
        <time>2018-05-20T07:51:06Z</time>
      </trkpt>
      <trkpt lat="45.92472" lon="4.73681">
        <ele>174</ele>
        <time>2018-05-20T07:51:09Z</time>
      </trkpt>
      <trkpt lat="45.92473" lon="4.73678">
        <ele>174</ele>
        <time>2018-05-20T07:51:10Z</time>
      </trkpt>
      <trkpt lat="45.92475" lon="4.73666">
        <ele>174</ele>
        <time>2018-05-20T07:51:13Z</time>
      </trkpt>
      <trkpt lat="45.92476" lon="4.73662">
        <ele>174</ele>
        <time>2018-05-20T07:51:14Z</time>
      </trkpt>
      <trkpt lat="45.92478" lon="4.7365">
        <ele>174</ele>
        <time>2018-05-20T07:51:17Z</time>
      </trkpt>
      <trkpt lat="45.9248" lon="4.73647">
        <ele>174</ele>
        <time>2018-05-20T07:51:18Z</time>
      </trkpt>
      <trkpt lat="45.92488" lon="4.73641">
        <ele>174</ele>
        <time>2018-05-20T07:51:21Z</time>
      </trkpt>
      <trkpt lat="45.9249" lon="4.7364">
        <ele>174</ele>
        <time>2018-05-20T07:51:22Z</time>
      </trkpt>
      <trkpt lat="45.92499" lon="4.73639">
        <ele>174</ele>
        <time>2018-05-20T07:51:23Z</time>
      </trkpt>
      <trkpt lat="45.92503" lon="4.73639">
        <ele>174</ele>
        <time>2018-05-20T07:51:24Z</time>
      </trkpt>
      <trkpt lat="45.92512" lon="4.73639">
        <ele>174</ele>
        <time>2018-05-20T07:51:26Z</time>
      </trkpt>
      <trkpt lat="45.92516" lon="4.73639">
        <ele>173</ele>
        <time>2018-05-20T07:51:27Z</time>
      </trkpt>
      <trkpt lat="45.92524" lon="4.73639">
        <ele>173</ele>
        <time>2018-05-20T07:51:29Z</time>
      </trkpt>
      <trkpt lat="45.92527" lon="4.73637">
        <ele>173</ele>
        <time>2018-05-20T07:51:30Z</time>
      </trkpt>
      <trkpt lat="45.92532" lon="4.73637">
        <ele>173</ele>
        <time>2018-05-20T07:51:31Z</time>
      </trkpt>
      <trkpt lat="45.92537" lon="4.73636">
        <ele>173</ele>
        <time>2018-05-20T07:51:32Z</time>
      </trkpt>
      <trkpt lat="45.92542" lon="4.73635">
        <ele>173</ele>
        <time>2018-05-20T07:51:33Z</time>
      </trkpt>
      <trkpt lat="45.92547" lon="4.73634">
        <ele>173</ele>
        <time>2018-05-20T07:51:34Z</time>
      </trkpt>
      <trkpt lat="45.92555" lon="4.73634">
        <ele>173</ele>
        <time>2018-05-20T07:51:36Z</time>
      </trkpt>
      <trkpt lat="45.92559" lon="4.73633">
        <ele>173</ele>
        <time>2018-05-20T07:51:37Z</time>
      </trkpt>
      <trkpt lat="45.92564" lon="4.73631">
        <ele>173</ele>
        <time>2018-05-20T07:51:38Z</time>
      </trkpt>
      <trkpt lat="45.92569" lon="4.73628">
        <ele>173</ele>
        <time>2018-05-20T07:51:39Z</time>
      </trkpt>
      <trkpt lat="45.92575" lon="4.73626">
        <ele>173</ele>
        <time>2018-05-20T07:51:40Z</time>
      </trkpt>
      <trkpt lat="45.92578" lon="4.73625">
        <ele>173</ele>
        <time>2018-05-20T07:51:41Z</time>
      </trkpt>
      <trkpt lat="45.92582" lon="4.73624">
        <ele>173</ele>
        <time>2018-05-20T07:51:42Z</time>
      </trkpt>
      <trkpt lat="45.92587" lon="4.73624">
        <ele>172</ele>
        <time>2018-05-20T07:51:43Z</time>
      </trkpt>
      <trkpt lat="45.92592" lon="4.73623">
        <ele>173</ele>
        <time>2018-05-20T07:51:44Z</time>
      </trkpt>
      <trkpt lat="45.92597" lon="4.73624">
        <ele>173</ele>
        <time>2018-05-20T07:51:45Z</time>
      </trkpt>
      <trkpt lat="45.92602" lon="4.73624">
        <ele>173</ele>
        <time>2018-05-20T07:51:46Z</time>
      </trkpt>
      <trkpt lat="45.92608" lon="4.73625">
        <ele>173</ele>
        <time>2018-05-20T07:51:47Z</time>
      </trkpt>
      <trkpt lat="45.92614" lon="4.73627">
        <ele>173</ele>
        <time>2018-05-20T07:51:48Z</time>
      </trkpt>
      <trkpt lat="45.92619" lon="4.73631">
        <ele>173</ele>
        <time>2018-05-20T07:51:49Z</time>
      </trkpt>
      <trkpt lat="45.92622" lon="4.73634">
        <ele>173</ele>
        <time>2018-05-20T07:51:50Z</time>
      </trkpt>
      <trkpt lat="45.92626" lon="4.73641">
        <ele>173</ele>
        <time>2018-05-20T07:51:51Z</time>
      </trkpt>
      <trkpt lat="45.92629" lon="4.73648">
        <ele>173</ele>
        <time>2018-05-20T07:51:52Z</time>
      </trkpt>
      <trkpt lat="45.92632" lon="4.73655">
        <ele>173</ele>
        <time>2018-05-20T07:51:53Z</time>
      </trkpt>
      <trkpt lat="45.92635" lon="4.73661">
        <ele>173</ele>
        <time>2018-05-20T07:51:54Z</time>
      </trkpt>
      <trkpt lat="45.92638" lon="4.73669">
        <ele>173</ele>
        <time>2018-05-20T07:51:55Z</time>
      </trkpt>
      <trkpt lat="45.92641" lon="4.73675">
        <ele>173</ele>
        <time>2018-05-20T07:51:56Z</time>
      </trkpt>
      <trkpt lat="45.92645" lon="4.73681">
        <ele>173</ele>
        <time>2018-05-20T07:51:57Z</time>
      </trkpt>
      <trkpt lat="45.92649" lon="4.73687">
        <ele>173</ele>
        <time>2018-05-20T07:51:58Z</time>
      </trkpt>
      <trkpt lat="45.92653" lon="4.73692">
        <ele>173</ele>
        <time>2018-05-20T07:51:59Z</time>
      </trkpt>
      <trkpt lat="45.92658" lon="4.73696">
        <ele>173</ele>
        <time>2018-05-20T07:52:00Z</time>
      </trkpt>
      <trkpt lat="45.92662" lon="4.737">
        <ele>173</ele>
        <time>2018-05-20T07:52:01Z</time>
      </trkpt>
      <trkpt lat="45.92666" lon="4.73702">
        <ele>173</ele>
        <time>2018-05-20T07:52:02Z</time>
      </trkpt>
      <trkpt lat="45.92672" lon="4.73705">
        <ele>174</ele>
        <time>2018-05-20T07:52:03Z</time>
      </trkpt>
      <trkpt lat="45.92677" lon="4.73707">
        <ele>173</ele>
        <time>2018-05-20T07:52:04Z</time>
      </trkpt>
      <trkpt lat="45.92683" lon="4.73709">
        <ele>173</ele>
        <time>2018-05-20T07:52:05Z</time>
      </trkpt>
      <trkpt lat="45.92689" lon="4.73711">
        <ele>173</ele>
        <time>2018-05-20T07:52:06Z</time>
      </trkpt>
      <trkpt lat="45.92694" lon="4.73713">
        <ele>173</ele>
        <time>2018-05-20T07:52:07Z</time>
      </trkpt>
      <trkpt lat="45.927" lon="4.73714">
        <ele>173</ele>
        <time>2018-05-20T07:52:08Z</time>
      </trkpt>
      <trkpt lat="45.92706" lon="4.73716">
        <ele>173</ele>
        <time>2018-05-20T07:52:09Z</time>
      </trkpt>
      <trkpt lat="45.92711" lon="4.73716">
        <ele>173</ele>
        <time>2018-05-20T07:52:10Z</time>
      </trkpt>
      <trkpt lat="45.92716" lon="4.73718">
        <ele>173</ele>
        <time>2018-05-20T07:52:11Z</time>
      </trkpt>
      <trkpt lat="45.92722" lon="4.73718">
        <ele>173</ele>
        <time>2018-05-20T07:52:12Z</time>
      </trkpt>
      <trkpt lat="45.92728" lon="4.73719">
        <ele>173</ele>
        <time>2018-05-20T07:52:13Z</time>
      </trkpt>
      <trkpt lat="45.92733" lon="4.73721">
        <ele>173</ele>
        <time>2018-05-20T07:52:14Z</time>
      </trkpt>
      <trkpt lat="45.92738" lon="4.73722">
        <ele>173</ele>
        <time>2018-05-20T07:52:15Z</time>
      </trkpt>
      <trkpt lat="45.92743" lon="4.73723">
        <ele>173</ele>
        <time>2018-05-20T07:52:16Z</time>
      </trkpt>
      <trkpt lat="45.92748" lon="4.73722">
        <ele>173</ele>
        <time>2018-05-20T07:52:17Z</time>
      </trkpt>
      <trkpt lat="45.92754" lon="4.73726">
        <ele>172</ele>
        <time>2018-05-20T07:52:18Z</time>
      </trkpt>
      <trkpt lat="45.92757" lon="4.73727">
        <ele>172</ele>
        <time>2018-05-20T07:52:19Z</time>
      </trkpt>
      <trkpt lat="45.92766" lon="4.7373">
        <ele>172</ele>
        <time>2018-05-20T07:52:21Z</time>
      </trkpt>
      <trkpt lat="45.92769" lon="4.73732">
        <ele>172</ele>
        <time>2018-05-20T07:52:22Z</time>
      </trkpt>
      <trkpt lat="45.92775" lon="4.73735">
        <ele>172</ele>
        <time>2018-05-20T07:52:24Z</time>
      </trkpt>
      <trkpt lat="45.9278" lon="4.73736">
        <ele>172</ele>
        <time>2018-05-20T07:52:25Z</time>
      </trkpt>
      <trkpt lat="45.92784" lon="4.73745">
        <ele>172</ele>
        <time>2018-05-20T07:52:29Z</time>
      </trkpt>
      <trkpt lat="45.92789" lon="4.73754">
        <ele>173</ele>
        <time>2018-05-20T07:52:30Z</time>
      </trkpt>
      <trkpt lat="45.92795" lon="4.73761">
        <ele>173</ele>
        <time>2018-05-20T07:52:32Z</time>
      </trkpt>
      <trkpt lat="45.928" lon="4.73761">
        <ele>173</ele>
        <time>2018-05-20T07:52:33Z</time>
      </trkpt>
      <trkpt lat="45.92804" lon="4.73763">
        <ele>173</ele>
        <time>2018-05-20T07:52:34Z</time>
      </trkpt>
      <trkpt lat="45.92809" lon="4.73765">
        <ele>173</ele>
        <time>2018-05-20T07:52:35Z</time>
      </trkpt>
      <trkpt lat="45.92813" lon="4.73768">
        <ele>173</ele>
        <time>2018-05-20T07:52:36Z</time>
      </trkpt>
      <trkpt lat="45.92818" lon="4.73771">
        <ele>173</ele>
        <time>2018-05-20T07:52:37Z</time>
      </trkpt>
      <trkpt lat="45.92823" lon="4.73775">
        <ele>173</ele>
        <time>2018-05-20T07:52:38Z</time>
      </trkpt>
      <trkpt lat="45.92827" lon="4.73779">
        <ele>173</ele>
        <time>2018-05-20T07:52:39Z</time>
      </trkpt>
      <trkpt lat="45.92832" lon="4.73783">
        <ele>173</ele>
        <time>2018-05-20T07:52:40Z</time>
      </trkpt>
      <trkpt lat="45.92838" lon="4.73787">
        <ele>173</ele>
        <time>2018-05-20T07:52:41Z</time>
      </trkpt>
      <trkpt lat="45.92843" lon="4.7379">
        <ele>173</ele>
        <time>2018-05-20T07:52:42Z</time>
      </trkpt>
      <trkpt lat="45.92848" lon="4.73796">
        <ele>173</ele>
        <time>2018-05-20T07:52:43Z</time>
      </trkpt>
      <trkpt lat="45.92852" lon="4.73802">
        <ele>173</ele>
        <time>2018-05-20T07:52:44Z</time>
      </trkpt>
      <trkpt lat="45.92854" lon="4.73809">
        <ele>173</ele>
        <time>2018-05-20T07:52:45Z</time>
      </trkpt>
      <trkpt lat="45.92856" lon="4.73817">
        <ele>173</ele>
        <time>2018-05-20T07:52:46Z</time>
      </trkpt>
      <trkpt lat="45.92859" lon="4.73824">
        <ele>173</ele>
        <time>2018-05-20T07:52:47Z</time>
      </trkpt>
      <trkpt lat="45.92861" lon="4.73832">
        <ele>173</ele>
        <time>2018-05-20T07:52:48Z</time>
      </trkpt>
      <trkpt lat="45.92863" lon="4.7384">
        <ele>173</ele>
        <time>2018-05-20T07:52:49Z</time>
      </trkpt>
      <trkpt lat="45.92866" lon="4.73846">
        <ele>173</ele>
        <time>2018-05-20T07:52:50Z</time>
      </trkpt>
      <trkpt lat="45.92868" lon="4.73854">
        <ele>173</ele>
        <time>2018-05-20T07:52:51Z</time>
      </trkpt>
      <trkpt lat="45.9287" lon="4.73862">
        <ele>173</ele>
        <time>2018-05-20T07:52:52Z</time>
      </trkpt>
      <trkpt lat="45.92873" lon="4.73869">
        <ele>173</ele>
        <time>2018-05-20T07:52:53Z</time>
      </trkpt>
      <trkpt lat="45.9288" lon="4.73875">
        <ele>173</ele>
        <time>2018-05-20T07:52:54Z</time>
      </trkpt>
      <trkpt lat="45.92882" lon="4.73885">
        <ele>173</ele>
        <time>2018-05-20T07:52:55Z</time>
      </trkpt>
      <trkpt lat="45.9288" lon="4.73891">
        <ele>173</ele>
        <time>2018-05-20T07:52:56Z</time>
      </trkpt>
      <trkpt lat="45.9288" lon="4.73897">
        <ele>173</ele>
        <time>2018-05-20T07:52:57Z</time>
      </trkpt>
      <trkpt lat="45.9288" lon="4.73906">
        <ele>173</ele>
        <time>2018-05-20T07:52:58Z</time>
      </trkpt>
      <trkpt lat="45.9288" lon="4.73913">
        <ele>173</ele>
        <time>2018-05-20T07:52:59Z</time>
      </trkpt>
      <trkpt lat="45.92881" lon="4.7392">
        <ele>172</ele>
        <time>2018-05-20T07:53:00Z</time>
      </trkpt>
      <trkpt lat="45.92882" lon="4.73928">
        <ele>172</ele>
        <time>2018-05-20T07:53:01Z</time>
      </trkpt>
      <trkpt lat="45.9288" lon="4.73936">
        <ele>172</ele>
        <time>2018-05-20T07:53:02Z</time>
      </trkpt>
      <trkpt lat="45.92879" lon="4.73943">
        <ele>172</ele>
        <time>2018-05-20T07:53:03Z</time>
      </trkpt>
      <trkpt lat="45.92879" lon="4.73951">
        <ele>172</ele>
        <time>2018-05-20T07:53:04Z</time>
      </trkpt>
      <trkpt lat="45.92879" lon="4.73958">
        <ele>172</ele>
        <time>2018-05-20T07:53:05Z</time>
      </trkpt>
      <trkpt lat="45.9288" lon="4.73965">
        <ele>172</ele>
        <time>2018-05-20T07:53:06Z</time>
      </trkpt>
      <trkpt lat="45.92879" lon="4.73972">
        <ele>172</ele>
        <time>2018-05-20T07:53:07Z</time>
      </trkpt>
      <trkpt lat="45.92879" lon="4.73979">
        <ele>172</ele>
        <time>2018-05-20T07:53:08Z</time>
      </trkpt>
      <trkpt lat="45.92878" lon="4.73986">
        <ele>172</ele>
        <time>2018-05-20T07:53:09Z</time>
      </trkpt>
      <trkpt lat="45.92877" lon="4.73993">
        <ele>172</ele>
        <time>2018-05-20T07:53:10Z</time>
      </trkpt>
      <trkpt lat="45.92875" lon="4.74">
        <ele>172</ele>
        <time>2018-05-20T07:53:11Z</time>
      </trkpt>
      <trkpt lat="45.92874" lon="4.74007">
        <ele>172</ele>
        <time>2018-05-20T07:53:12Z</time>
      </trkpt>
      <trkpt lat="45.92873" lon="4.74013">
        <ele>172</ele>
        <time>2018-05-20T07:53:13Z</time>
      </trkpt>
      <trkpt lat="45.92871" lon="4.7402">
        <ele>172</ele>
        <time>2018-05-20T07:53:14Z</time>
      </trkpt>
      <trkpt lat="45.9287" lon="4.74028">
        <ele>172</ele>
        <time>2018-05-20T07:53:15Z</time>
      </trkpt>
      <trkpt lat="45.92868" lon="4.74035">
        <ele>172</ele>
        <time>2018-05-20T07:53:16Z</time>
      </trkpt>
      <trkpt lat="45.92866" lon="4.74042">
        <ele>172</ele>
        <time>2018-05-20T07:53:17Z</time>
      </trkpt>
      <trkpt lat="45.92862" lon="4.74049">
        <ele>172</ele>
        <time>2018-05-20T07:53:18Z</time>
      </trkpt>
      <trkpt lat="45.92858" lon="4.74054">
        <ele>172</ele>
        <time>2018-05-20T07:53:19Z</time>
      </trkpt>
      <trkpt lat="45.92854" lon="4.74061">
        <ele>172</ele>
        <time>2018-05-20T07:53:20Z</time>
      </trkpt>
      <trkpt lat="45.9285" lon="4.74067">
        <ele>172</ele>
        <time>2018-05-20T07:53:21Z</time>
      </trkpt>
      <trkpt lat="45.92845" lon="4.74072">
        <ele>172</ele>
        <time>2018-05-20T07:53:22Z</time>
      </trkpt>
      <trkpt lat="45.92841" lon="4.74076">
        <ele>171</ele>
        <time>2018-05-20T07:53:23Z</time>
      </trkpt>
      <trkpt lat="45.92836" lon="4.74081">
        <ele>171</ele>
        <time>2018-05-20T07:53:24Z</time>
      </trkpt>
      <trkpt lat="45.92832" lon="4.74086">
        <ele>171</ele>
        <time>2018-05-20T07:53:25Z</time>
      </trkpt>
      <trkpt lat="45.92827" lon="4.74091">
        <ele>171</ele>
        <time>2018-05-20T07:53:26Z</time>
      </trkpt>
      <trkpt lat="45.92823" lon="4.74096">
        <ele>171</ele>
        <time>2018-05-20T07:53:27Z</time>
      </trkpt>
      <trkpt lat="45.92819" lon="4.74101">
        <ele>171</ele>
        <time>2018-05-20T07:53:28Z</time>
      </trkpt>
      <trkpt lat="45.92815" lon="4.74105">
        <ele>172</ele>
        <time>2018-05-20T07:53:29Z</time>
      </trkpt>
      <trkpt lat="45.9281" lon="4.74111">
        <ele>172</ele>
        <time>2018-05-20T07:53:30Z</time>
      </trkpt>
      <trkpt lat="45.92806" lon="4.74118">
        <ele>172</ele>
        <time>2018-05-20T07:53:31Z</time>
      </trkpt>
      <trkpt lat="45.92801" lon="4.74123">
        <ele>172</ele>
        <time>2018-05-20T07:53:32Z</time>
      </trkpt>
      <trkpt lat="45.92795" lon="4.74128">
        <ele>172</ele>
        <time>2018-05-20T07:53:33Z</time>
      </trkpt>
      <trkpt lat="45.92791" lon="4.74131">
        <ele>172</ele>
        <time>2018-05-20T07:53:34Z</time>
      </trkpt>
      <trkpt lat="45.92786" lon="4.74138">
        <ele>172</ele>
        <time>2018-05-20T07:53:35Z</time>
      </trkpt>
      <trkpt lat="45.92781" lon="4.74142">
        <ele>172</ele>
        <time>2018-05-20T07:53:36Z</time>
      </trkpt>
      <trkpt lat="45.92776" lon="4.74147">
        <ele>172</ele>
        <time>2018-05-20T07:53:37Z</time>
      </trkpt>
      <trkpt lat="45.92771" lon="4.74152">
        <ele>172</ele>
        <time>2018-05-20T07:53:38Z</time>
      </trkpt>
      <trkpt lat="45.92766" lon="4.74159">
        <ele>172</ele>
        <time>2018-05-20T07:53:39Z</time>
      </trkpt>
      <trkpt lat="45.92761" lon="4.74164">
        <ele>172</ele>
        <time>2018-05-20T07:53:40Z</time>
      </trkpt>
      <trkpt lat="45.92756" lon="4.74169">
        <ele>172</ele>
        <time>2018-05-20T07:53:41Z</time>
      </trkpt>
      <trkpt lat="45.9275" lon="4.74176">
        <ele>172</ele>
        <time>2018-05-20T07:53:42Z</time>
      </trkpt>
      <trkpt lat="45.92747" lon="4.74182">
        <ele>172</ele>
        <time>2018-05-20T07:53:43Z</time>
      </trkpt>
      <trkpt lat="45.92742" lon="4.7419">
        <ele>172</ele>
        <time>2018-05-20T07:53:44Z</time>
      </trkpt>
      <trkpt lat="45.92738" lon="4.74195">
        <ele>171</ele>
        <time>2018-05-20T07:53:45Z</time>
      </trkpt>
      <trkpt lat="45.92734" lon="4.74201">
        <ele>171</ele>
        <time>2018-05-20T07:53:46Z</time>
      </trkpt>
      <trkpt lat="45.92729" lon="4.74207">
        <ele>171</ele>
        <time>2018-05-20T07:53:47Z</time>
      </trkpt>
      <trkpt lat="45.92725" lon="4.74211">
        <ele>171</ele>
        <time>2018-05-20T07:53:48Z</time>
      </trkpt>
      <trkpt lat="45.92721" lon="4.74219">
        <ele>171</ele>
        <time>2018-05-20T07:53:49Z</time>
      </trkpt>
      <trkpt lat="45.92716" lon="4.74226">
        <ele>171</ele>
        <time>2018-05-20T07:53:50Z</time>
      </trkpt>
      <trkpt lat="45.92712" lon="4.74232">
        <ele>171</ele>
        <time>2018-05-20T07:53:51Z</time>
      </trkpt>
      <trkpt lat="45.92708" lon="4.7424">
        <ele>171</ele>
        <time>2018-05-20T07:53:52Z</time>
      </trkpt>
      <trkpt lat="45.92704" lon="4.74246">
        <ele>171</ele>
        <time>2018-05-20T07:53:53Z</time>
      </trkpt>
      <trkpt lat="45.927" lon="4.74252">
        <ele>171</ele>
        <time>2018-05-20T07:53:54Z</time>
      </trkpt>
      <trkpt lat="45.92696" lon="4.74259">
        <ele>171</ele>
        <time>2018-05-20T07:53:55Z</time>
      </trkpt>
      <trkpt lat="45.92692" lon="4.74267">
        <ele>171</ele>
        <time>2018-05-20T07:53:56Z</time>
      </trkpt>
      <trkpt lat="45.92687" lon="4.74275">
        <ele>171</ele>
        <time>2018-05-20T07:53:57Z</time>
      </trkpt>
      <trkpt lat="45.92683" lon="4.74282">
        <ele>171</ele>
        <time>2018-05-20T07:53:58Z</time>
      </trkpt>
      <trkpt lat="45.92679" lon="4.7429">
        <ele>171</ele>
        <time>2018-05-20T07:53:59Z</time>
      </trkpt>
      <trkpt lat="45.92675" lon="4.74296">
        <ele>171</ele>
        <time>2018-05-20T07:54:00Z</time>
      </trkpt>
      <trkpt lat="45.92673" lon="4.74306">
        <ele>171</ele>
        <time>2018-05-20T07:54:01Z</time>
      </trkpt>
      <trkpt lat="45.92668" lon="4.74314">
        <ele>171</ele>
        <time>2018-05-20T07:54:02Z</time>
      </trkpt>
      <trkpt lat="45.92665" lon="4.74322">
        <ele>171</ele>
        <time>2018-05-20T07:54:03Z</time>
      </trkpt>
      <trkpt lat="45.9266" lon="4.7433">
        <ele>171</ele>
        <time>2018-05-20T07:54:04Z</time>
      </trkpt>
      <trkpt lat="45.92656" lon="4.74339">
        <ele>171</ele>
        <time>2018-05-20T07:54:05Z</time>
      </trkpt>
      <trkpt lat="45.92652" lon="4.74347">
        <ele>171</ele>
        <time>2018-05-20T07:54:06Z</time>
      </trkpt>
      <trkpt lat="45.92647" lon="4.74355">
        <ele>171</ele>
        <time>2018-05-20T07:54:07Z</time>
      </trkpt>
      <trkpt lat="45.92643" lon="4.74362">
        <ele>171</ele>
        <time>2018-05-20T07:54:08Z</time>
      </trkpt>
      <trkpt lat="45.92638" lon="4.74373">
        <ele>171</ele>
        <time>2018-05-20T07:54:09Z</time>
      </trkpt>
      <trkpt lat="45.92634" lon="4.74381">
        <ele>170</ele>
        <time>2018-05-20T07:54:10Z</time>
      </trkpt>
      <trkpt lat="45.92629" lon="4.74387">
        <ele>170</ele>
        <time>2018-05-20T07:54:11Z</time>
      </trkpt>
      <trkpt lat="45.92625" lon="4.74394">
        <ele>170</ele>
        <time>2018-05-20T07:54:12Z</time>
      </trkpt>
      <trkpt lat="45.92621" lon="4.74401">
        <ele>170</ele>
        <time>2018-05-20T07:54:13Z</time>
      </trkpt>
      <trkpt lat="45.92616" lon="4.74407">
        <ele>170</ele>
        <time>2018-05-20T07:54:14Z</time>
      </trkpt>
      <trkpt lat="45.92612" lon="4.74414">
        <ele>170</ele>
        <time>2018-05-20T07:54:15Z</time>
      </trkpt>
      <trkpt lat="45.92607" lon="4.74424">
        <ele>170</ele>
        <time>2018-05-20T07:54:16Z</time>
      </trkpt>
      <trkpt lat="45.92603" lon="4.74432">
        <ele>170</ele>
        <time>2018-05-20T07:54:17Z</time>
      </trkpt>
      <trkpt lat="45.92599" lon="4.74439">
        <ele>170</ele>
        <time>2018-05-20T07:54:18Z</time>
      </trkpt>
      <trkpt lat="45.92595" lon="4.74446">
        <ele>170</ele>
        <time>2018-05-20T07:54:19Z</time>
      </trkpt>
      <trkpt lat="45.92591" lon="4.74454">
        <ele>170</ele>
        <time>2018-05-20T07:54:20Z</time>
      </trkpt>
      <trkpt lat="45.92588" lon="4.7446">
        <ele>170</ele>
        <time>2018-05-20T07:54:21Z</time>
      </trkpt>
      <trkpt lat="45.92584" lon="4.74467">
        <ele>170</ele>
        <time>2018-05-20T07:54:22Z</time>
      </trkpt>
      <trkpt lat="45.9258" lon="4.74475">
        <ele>170</ele>
        <time>2018-05-20T07:54:23Z</time>
      </trkpt>
      <trkpt lat="45.92575" lon="4.74482">
        <ele>170</ele>
        <time>2018-05-20T07:54:24Z</time>
      </trkpt>
      <trkpt lat="45.92572" lon="4.7449">
        <ele>170</ele>
        <time>2018-05-20T07:54:25Z</time>
      </trkpt>
      <trkpt lat="45.92567" lon="4.74497">
        <ele>170</ele>
        <time>2018-05-20T07:54:26Z</time>
      </trkpt>
      <trkpt lat="45.92563" lon="4.74504">
        <ele>170</ele>
        <time>2018-05-20T07:54:27Z</time>
      </trkpt>
      <trkpt lat="45.9256" lon="4.74512">
        <ele>170</ele>
        <time>2018-05-20T07:54:28Z</time>
      </trkpt>
      <trkpt lat="45.92556" lon="4.74518">
        <ele>170</ele>
        <time>2018-05-20T07:54:29Z</time>
      </trkpt>
      <trkpt lat="45.92552" lon="4.74526">
        <ele>170</ele>
        <time>2018-05-20T07:54:30Z</time>
      </trkpt>
      <trkpt lat="45.92547" lon="4.74532">
        <ele>170</ele>
        <time>2018-05-20T07:54:31Z</time>
      </trkpt>
      <trkpt lat="45.92543" lon="4.74538">
        <ele>170</ele>
        <time>2018-05-20T07:54:32Z</time>
      </trkpt>
      <trkpt lat="45.92539" lon="4.74545">
        <ele>171</ele>
        <time>2018-05-20T07:54:33Z</time>
      </trkpt>
      <trkpt lat="45.92534" lon="4.74551">
        <ele>171</ele>
        <time>2018-05-20T07:54:34Z</time>
      </trkpt>
      <trkpt lat="45.9253" lon="4.74557">
        <ele>171</ele>
        <time>2018-05-20T07:54:35Z</time>
      </trkpt>
      <trkpt lat="45.92525" lon="4.74563">
        <ele>171</ele>
        <time>2018-05-20T07:54:36Z</time>
      </trkpt>
      <trkpt lat="45.9252" lon="4.74569">
        <ele>171</ele>
        <time>2018-05-20T07:54:37Z</time>
      </trkpt>
      <trkpt lat="45.92515" lon="4.74575">
        <ele>171</ele>
        <time>2018-05-20T07:54:38Z</time>
      </trkpt>
      <trkpt lat="45.92511" lon="4.7458">
        <ele>171</ele>
        <time>2018-05-20T07:54:39Z</time>
      </trkpt>
      <trkpt lat="45.92506" lon="4.74584">
        <ele>171</ele>
        <time>2018-05-20T07:54:40Z</time>
      </trkpt>
      <trkpt lat="45.92502" lon="4.74589">
        <ele>171</ele>
        <time>2018-05-20T07:54:41Z</time>
      </trkpt>
      <trkpt lat="45.92497" lon="4.74595">
        <ele>171</ele>
        <time>2018-05-20T07:54:42Z</time>
      </trkpt>
      <trkpt lat="45.92492" lon="4.746">
        <ele>171</ele>
        <time>2018-05-20T07:54:43Z</time>
      </trkpt>
      <trkpt lat="45.92488" lon="4.74606">
        <ele>171</ele>
        <time>2018-05-20T07:54:44Z</time>
      </trkpt>
      <trkpt lat="45.92484" lon="4.74612">
        <ele>171</ele>
        <time>2018-05-20T07:54:45Z</time>
      </trkpt>
      <trkpt lat="45.92479" lon="4.74618">
        <ele>171</ele>
        <time>2018-05-20T07:54:46Z</time>
      </trkpt>
      <trkpt lat="45.92475" lon="4.74624">
        <ele>171</ele>
        <time>2018-05-20T07:54:47Z</time>
      </trkpt>
      <trkpt lat="45.92471" lon="4.74629">
        <ele>171</ele>
        <time>2018-05-20T07:54:48Z</time>
      </trkpt>
      <trkpt lat="45.92467" lon="4.74636">
        <ele>171</ele>
        <time>2018-05-20T07:54:49Z</time>
      </trkpt>
      <trkpt lat="45.92463" lon="4.74641">
        <ele>171</ele>
        <time>2018-05-20T07:54:50Z</time>
      </trkpt>
      <trkpt lat="45.9246" lon="4.74648">
        <ele>171</ele>
        <time>2018-05-20T07:54:51Z</time>
      </trkpt>
      <trkpt lat="45.92454" lon="4.74654">
        <ele>171</ele>
        <time>2018-05-20T07:54:52Z</time>
      </trkpt>
      <trkpt lat="45.9245" lon="4.7466">
        <ele>171</ele>
        <time>2018-05-20T07:54:53Z</time>
      </trkpt>
      <trkpt lat="45.92446" lon="4.74666">
        <ele>171</ele>
        <time>2018-05-20T07:54:54Z</time>
      </trkpt>
      <trkpt lat="45.9244" lon="4.74671">
        <ele>171</ele>
        <time>2018-05-20T07:54:55Z</time>
      </trkpt>
      <trkpt lat="45.92437" lon="4.74678">
        <ele>171</ele>
        <time>2018-05-20T07:54:56Z</time>
      </trkpt>
      <trkpt lat="45.92438" lon="4.74687">
        <ele>171</ele>
        <time>2018-05-20T07:54:57Z</time>
      </trkpt>
      <trkpt lat="45.92434" lon="4.74696">
        <ele>171</ele>
        <time>2018-05-20T07:54:58Z</time>
      </trkpt>
      <trkpt lat="45.92431" lon="4.74703">
        <ele>171</ele>
        <time>2018-05-20T07:54:59Z</time>
      </trkpt>
      <trkpt lat="45.92429" lon="4.74711">
        <ele>171</ele>
        <time>2018-05-20T07:55:00Z</time>
      </trkpt>
      <trkpt lat="45.92427" lon="4.74718">
        <ele>171</ele>
        <time>2018-05-20T07:55:01Z</time>
      </trkpt>
      <trkpt lat="45.92424" lon="4.74726">
        <ele>171</ele>
        <time>2018-05-20T07:55:02Z</time>
      </trkpt>
      <trkpt lat="45.92421" lon="4.74735">
        <ele>171</ele>
        <time>2018-05-20T07:55:03Z</time>
      </trkpt>
      <trkpt lat="45.92419" lon="4.74742">
        <ele>172</ele>
        <time>2018-05-20T07:55:04Z</time>
      </trkpt>
      <trkpt lat="45.92417" lon="4.74749">
        <ele>172</ele>
        <time>2018-05-20T07:55:05Z</time>
      </trkpt>
      <trkpt lat="45.92415" lon="4.74756">
        <ele>172</ele>
        <time>2018-05-20T07:55:06Z</time>
      </trkpt>
      <trkpt lat="45.92413" lon="4.74765">
        <ele>172</ele>
        <time>2018-05-20T07:55:07Z</time>
      </trkpt>
      <trkpt lat="45.9241" lon="4.74773">
        <ele>171</ele>
        <time>2018-05-20T07:55:08Z</time>
      </trkpt>
      <trkpt lat="45.92408" lon="4.74781">
        <ele>171</ele>
        <time>2018-05-20T07:55:09Z</time>
      </trkpt>
      <trkpt lat="45.92406" lon="4.7479">
        <ele>171</ele>
        <time>2018-05-20T07:55:10Z</time>
      </trkpt>
      <trkpt lat="45.92404" lon="4.74798">
        <ele>171</ele>
        <time>2018-05-20T07:55:11Z</time>
      </trkpt>
      <trkpt lat="45.92402" lon="4.74806">
        <ele>171</ele>
        <time>2018-05-20T07:55:12Z</time>
      </trkpt>
      <trkpt lat="45.924" lon="4.74816">
        <ele>171</ele>
        <time>2018-05-20T07:55:13Z</time>
      </trkpt>
      <trkpt lat="45.92399" lon="4.74824">
        <ele>171</ele>
        <time>2018-05-20T07:55:14Z</time>
      </trkpt>
      <trkpt lat="45.92398" lon="4.74833">
        <ele>171</ele>
        <time>2018-05-20T07:55:15Z</time>
      </trkpt>
      <trkpt lat="45.92396" lon="4.7484">
        <ele>171</ele>
        <time>2018-05-20T07:55:16Z</time>
      </trkpt>
      <trkpt lat="45.92396" lon="4.74847">
        <ele>171</ele>
        <time>2018-05-20T07:55:17Z</time>
      </trkpt>
      <trkpt lat="45.92394" lon="4.74855">
        <ele>171</ele>
        <time>2018-05-20T07:55:18Z</time>
      </trkpt>
      <trkpt lat="45.92392" lon="4.74862">
        <ele>171</ele>
        <time>2018-05-20T07:55:19Z</time>
      </trkpt>
      <trkpt lat="45.92389" lon="4.7487">
        <ele>171</ele>
        <time>2018-05-20T07:55:20Z</time>
      </trkpt>
      <trkpt lat="45.92386" lon="4.74877">
        <ele>171</ele>
        <time>2018-05-20T07:55:21Z</time>
      </trkpt>
      <trkpt lat="45.92383" lon="4.74884">
        <ele>171</ele>
        <time>2018-05-20T07:55:22Z</time>
      </trkpt>
      <trkpt lat="45.9238" lon="4.74892">
        <ele>171</ele>
        <time>2018-05-20T07:55:23Z</time>
      </trkpt>
      <trkpt lat="45.92377" lon="4.749">
        <ele>171</ele>
        <time>2018-05-20T07:55:24Z</time>
      </trkpt>
      <trkpt lat="45.92374" lon="4.74908">
        <ele>171</ele>
        <time>2018-05-20T07:55:25Z</time>
      </trkpt>
      <trkpt lat="45.9237" lon="4.74915">
        <ele>171</ele>
        <time>2018-05-20T07:55:26Z</time>
      </trkpt>
      <trkpt lat="45.92368" lon="4.74922">
        <ele>170</ele>
        <time>2018-05-20T07:55:27Z</time>
      </trkpt>
      <trkpt lat="45.92365" lon="4.74931">
        <ele>170</ele>
        <time>2018-05-20T07:55:28Z</time>
      </trkpt>
      <trkpt lat="45.92362" lon="4.74939">
        <ele>170</ele>
        <time>2018-05-20T07:55:29Z</time>
      </trkpt>
      <trkpt lat="45.92359" lon="4.74945">
        <ele>170</ele>
        <time>2018-05-20T07:55:30Z</time>
      </trkpt>
      <trkpt lat="45.92356" lon="4.74953">
        <ele>170</ele>
        <time>2018-05-20T07:55:31Z</time>
      </trkpt>
      <trkpt lat="45.92353" lon="4.74961">
        <ele>170</ele>
        <time>2018-05-20T07:55:32Z</time>
      </trkpt>
      <trkpt lat="45.9235" lon="4.74969">
        <ele>170</ele>
        <time>2018-05-20T07:55:33Z</time>
      </trkpt>
      <trkpt lat="45.92348" lon="4.74977">
        <ele>170</ele>
        <time>2018-05-20T07:55:34Z</time>
      </trkpt>
      <trkpt lat="45.92346" lon="4.74984">
        <ele>170</ele>
        <time>2018-05-20T07:55:35Z</time>
      </trkpt>
      <trkpt lat="45.92342" lon="4.74989">
        <ele>170</ele>
        <time>2018-05-20T07:55:36Z</time>
      </trkpt>
      <trkpt lat="45.9234" lon="4.74999">
        <ele>170</ele>
        <time>2018-05-20T07:55:37Z</time>
      </trkpt>
      <trkpt lat="45.92337" lon="4.75005">
        <ele>170</ele>
        <time>2018-05-20T07:55:38Z</time>
      </trkpt>
      <trkpt lat="45.92333" lon="4.75014">
        <ele>170</ele>
        <time>2018-05-20T07:55:39Z</time>
      </trkpt>
      <trkpt lat="45.9233" lon="4.7502">
        <ele>171</ele>
        <time>2018-05-20T07:55:40Z</time>
      </trkpt>
      <trkpt lat="45.92325" lon="4.75027">
        <ele>171</ele>
        <time>2018-05-20T07:55:41Z</time>
      </trkpt>
      <trkpt lat="45.92322" lon="4.75034">
        <ele>171</ele>
        <time>2018-05-20T07:55:42Z</time>
      </trkpt>
      <trkpt lat="45.92318" lon="4.75039">
        <ele>171</ele>
        <time>2018-05-20T07:55:43Z</time>
      </trkpt>
      <trkpt lat="45.92315" lon="4.75044">
        <ele>172</ele>
        <time>2018-05-20T07:55:44Z</time>
      </trkpt>
      <trkpt lat="45.92311" lon="4.75051">
        <ele>172</ele>
        <time>2018-05-20T07:55:45Z</time>
      </trkpt>
      <trkpt lat="45.92307" lon="4.75054">
        <ele>172</ele>
        <time>2018-05-20T07:55:46Z</time>
      </trkpt>
      <trkpt lat="45.92302" lon="4.75059">
        <ele>172</ele>
        <time>2018-05-20T07:55:47Z</time>
      </trkpt>
      <trkpt lat="45.92298" lon="4.75066">
        <ele>172</ele>
        <time>2018-05-20T07:55:48Z</time>
      </trkpt>
      <trkpt lat="45.92295" lon="4.7507">
        <ele>172</ele>
        <time>2018-05-20T07:55:49Z</time>
      </trkpt>
      <trkpt lat="45.9229" lon="4.75077">
        <ele>172</ele>
        <time>2018-05-20T07:55:50Z</time>
      </trkpt>
      <trkpt lat="45.92285" lon="4.75084">
        <ele>173</ele>
        <time>2018-05-20T07:55:51Z</time>
      </trkpt>
      <trkpt lat="45.9228" lon="4.7509">
        <ele>173</ele>
        <time>2018-05-20T07:55:52Z</time>
      </trkpt>
      <trkpt lat="45.92275" lon="4.75095">
        <ele>173</ele>
        <time>2018-05-20T07:55:53Z</time>
      </trkpt>
      <trkpt lat="45.92271" lon="4.751">
        <ele>173</ele>
        <time>2018-05-20T07:55:54Z</time>
      </trkpt>
      <trkpt lat="45.92266" lon="4.75104">
        <ele>173</ele>
        <time>2018-05-20T07:55:55Z</time>
      </trkpt>
      <trkpt lat="45.92261" lon="4.75109">
        <ele>174</ele>
        <time>2018-05-20T07:55:56Z</time>
      </trkpt>
      <trkpt lat="45.92257" lon="4.75114">
        <ele>174</ele>
        <time>2018-05-20T07:55:57Z</time>
      </trkpt>
      <trkpt lat="45.92253" lon="4.75121">
        <ele>174</ele>
        <time>2018-05-20T07:55:58Z</time>
      </trkpt>
      <trkpt lat="45.92249" lon="4.75125">
        <ele>174</ele>
        <time>2018-05-20T07:55:59Z</time>
      </trkpt>
      <trkpt lat="45.92245" lon="4.7513">
        <ele>174</ele>
        <time>2018-05-20T07:56:00Z</time>
      </trkpt>
      <trkpt lat="45.9224" lon="4.75135">
        <ele>174</ele>
        <time>2018-05-20T07:56:01Z</time>
      </trkpt>
      <trkpt lat="45.92236" lon="4.75141">
        <ele>174</ele>
        <time>2018-05-20T07:56:02Z</time>
      </trkpt>
      <trkpt lat="45.92232" lon="4.75146">
        <ele>174</ele>
        <time>2018-05-20T07:56:03Z</time>
      </trkpt>
      <trkpt lat="45.92229" lon="4.75153">
        <ele>174</ele>
        <time>2018-05-20T07:56:04Z</time>
      </trkpt>
      <trkpt lat="45.92225" lon="4.75159">
        <ele>174</ele>
        <time>2018-05-20T07:56:05Z</time>
      </trkpt>
      <trkpt lat="45.92222" lon="4.75166">
        <ele>174</ele>
        <time>2018-05-20T07:56:06Z</time>
      </trkpt>
      <trkpt lat="45.92219" lon="4.75173">
        <ele>175</ele>
        <time>2018-05-20T07:56:07Z</time>
      </trkpt>
      <trkpt lat="45.92216" lon="4.7518">
        <ele>175</ele>
        <time>2018-05-20T07:56:08Z</time>
      </trkpt>
      <trkpt lat="45.92213" lon="4.75187">
        <ele>175</ele>
        <time>2018-05-20T07:56:09Z</time>
      </trkpt>
      <trkpt lat="45.92212" lon="4.75195">
        <ele>175</ele>
        <time>2018-05-20T07:56:10Z</time>
      </trkpt>
      <trkpt lat="45.92211" lon="4.75202">
        <ele>175</ele>
        <time>2018-05-20T07:56:11Z</time>
      </trkpt>
      <trkpt lat="45.9221" lon="4.75209">
        <ele>175</ele>
        <time>2018-05-20T07:56:12Z</time>
      </trkpt>
      <trkpt lat="45.92209" lon="4.75215">
        <ele>175</ele>
        <time>2018-05-20T07:56:13Z</time>
      </trkpt>
      <trkpt lat="45.92209" lon="4.75222">
        <ele>175</ele>
        <time>2018-05-20T07:56:14Z</time>
      </trkpt>
      <trkpt lat="45.92209" lon="4.75229">
        <ele>175</ele>
        <time>2018-05-20T07:56:15Z</time>
      </trkpt>
      <trkpt lat="45.92208" lon="4.75235">
        <ele>175</ele>
        <time>2018-05-20T07:56:16Z</time>
      </trkpt>
      <trkpt lat="45.92207" lon="4.75242">
        <ele>175</ele>
        <time>2018-05-20T07:56:17Z</time>
      </trkpt>
      <trkpt lat="45.92207" lon="4.75249">
        <ele>175</ele>
        <time>2018-05-20T07:56:18Z</time>
      </trkpt>
      <trkpt lat="45.92207" lon="4.75257">
        <ele>175</ele>
        <time>2018-05-20T07:56:19Z</time>
      </trkpt>
      <trkpt lat="45.92207" lon="4.75264">
        <ele>176</ele>
        <time>2018-05-20T07:56:20Z</time>
      </trkpt>
      <trkpt lat="45.92206" lon="4.75271">
        <ele>176</ele>
        <time>2018-05-20T07:56:21Z</time>
      </trkpt>
      <trkpt lat="45.92206" lon="4.75279">
        <ele>176</ele>
        <time>2018-05-20T07:56:22Z</time>
      </trkpt>
      <trkpt lat="45.92206" lon="4.75286">
        <ele>176</ele>
        <time>2018-05-20T07:56:23Z</time>
      </trkpt>
      <trkpt lat="45.92206" lon="4.75293">
        <ele>176</ele>
        <time>2018-05-20T07:56:24Z</time>
      </trkpt>
      <trkpt lat="45.92206" lon="4.753">
        <ele>176</ele>
        <time>2018-05-20T07:56:25Z</time>
      </trkpt>
      <trkpt lat="45.92204" lon="4.75312">
        <ele>176</ele>
        <time>2018-05-20T07:56:27Z</time>
      </trkpt>
      <trkpt lat="45.92204" lon="4.75319">
        <ele>176</ele>
        <time>2018-05-20T07:56:28Z</time>
      </trkpt>
      <trkpt lat="45.92203" lon="4.75327">
        <ele>176</ele>
        <time>2018-05-20T07:56:29Z</time>
      </trkpt>
      <trkpt lat="45.92202" lon="4.75335">
        <ele>177</ele>
        <time>2018-05-20T07:56:30Z</time>
      </trkpt>
      <trkpt lat="45.922" lon="4.75342">
        <ele>177</ele>
        <time>2018-05-20T07:56:31Z</time>
      </trkpt>
      <trkpt lat="45.92198" lon="4.75349">
        <ele>177</ele>
        <time>2018-05-20T07:56:32Z</time>
      </trkpt>
      <trkpt lat="45.92196" lon="4.75358">
        <ele>177</ele>
        <time>2018-05-20T07:56:33Z</time>
      </trkpt>
      <trkpt lat="45.92196" lon="4.75365">
        <ele>177</ele>
        <time>2018-05-20T07:56:34Z</time>
      </trkpt>
      <trkpt lat="45.92194" lon="4.75372">
        <ele>177</ele>
        <time>2018-05-20T07:56:35Z</time>
      </trkpt>
      <trkpt lat="45.92191" lon="4.75378">
        <ele>177</ele>
        <time>2018-05-20T07:56:36Z</time>
      </trkpt>
      <trkpt lat="45.92188" lon="4.75385">
        <ele>177</ele>
        <time>2018-05-20T07:56:37Z</time>
      </trkpt>
      <trkpt lat="45.92186" lon="4.75394">
        <ele>177</ele>
        <time>2018-05-20T07:56:38Z</time>
      </trkpt>
      <trkpt lat="45.92183" lon="4.75398">
        <ele>177</ele>
        <time>2018-05-20T07:56:39Z</time>
      </trkpt>
      <trkpt lat="45.92179" lon="4.75403">
        <ele>177</ele>
        <time>2018-05-20T07:56:40Z</time>
      </trkpt>
      <trkpt lat="45.92178" lon="4.75414">
        <ele>177</ele>
        <time>2018-05-20T07:56:41Z</time>
      </trkpt>
      <trkpt lat="45.92175" lon="4.75421">
        <ele>177</ele>
        <time>2018-05-20T07:56:42Z</time>
      </trkpt>
      <trkpt lat="45.92172" lon="4.75428">
        <ele>177</ele>
        <time>2018-05-20T07:56:43Z</time>
      </trkpt>
      <trkpt lat="45.9217" lon="4.75435">
        <ele>177</ele>
        <time>2018-05-20T07:56:44Z</time>
      </trkpt>
      <trkpt lat="45.92166" lon="4.75444">
        <ele>177</ele>
        <time>2018-05-20T07:56:45Z</time>
      </trkpt>
      <trkpt lat="45.92164" lon="4.75452">
        <ele>176</ele>
        <time>2018-05-20T07:56:46Z</time>
      </trkpt>
      <trkpt lat="45.92161" lon="4.7546">
        <ele>176</ele>
        <time>2018-05-20T07:56:47Z</time>
      </trkpt>
      <trkpt lat="45.9216" lon="4.75467">
        <ele>176</ele>
        <time>2018-05-20T07:56:48Z</time>
      </trkpt>
      <trkpt lat="45.92156" lon="4.75474">
        <ele>176</ele>
        <time>2018-05-20T07:56:49Z</time>
      </trkpt>
      <trkpt lat="45.92152" lon="4.75484">
        <ele>176</ele>
        <time>2018-05-20T07:56:50Z</time>
      </trkpt>
      <trkpt lat="45.9215" lon="4.75491">
        <ele>175</ele>
        <time>2018-05-20T07:56:51Z</time>
      </trkpt>
      <trkpt lat="45.92146" lon="4.755">
        <ele>175</ele>
        <time>2018-05-20T07:56:52Z</time>
      </trkpt>
      <trkpt lat="45.92143" lon="4.75506">
        <ele>175</ele>
        <time>2018-05-20T07:56:53Z</time>
      </trkpt>
      <trkpt lat="45.92139" lon="4.75513">
        <ele>174</ele>
        <time>2018-05-20T07:56:54Z</time>
      </trkpt>
      <trkpt lat="45.92135" lon="4.7552">
        <ele>174</ele>
        <time>2018-05-20T07:56:55Z</time>
      </trkpt>
      <trkpt lat="45.92132" lon="4.75528">
        <ele>174</ele>
        <time>2018-05-20T07:56:56Z</time>
      </trkpt>
      <trkpt lat="45.92129" lon="4.75535">
        <ele>174</ele>
        <time>2018-05-20T07:56:57Z</time>
      </trkpt>
      <trkpt lat="45.92125" lon="4.75542">
        <ele>174</ele>
        <time>2018-05-20T07:56:58Z</time>
      </trkpt>
      <trkpt lat="45.92123" lon="4.75549">
        <ele>174</ele>
        <time>2018-05-20T07:56:59Z</time>
      </trkpt>
      <trkpt lat="45.92119" lon="4.75553">
        <ele>174</ele>
        <time>2018-05-20T07:57:00Z</time>
      </trkpt>
      <trkpt lat="45.92116" lon="4.75559">
        <ele>174</ele>
        <time>2018-05-20T07:57:01Z</time>
      </trkpt>
      <trkpt lat="45.92113" lon="4.75566">
        <ele>174</ele>
        <time>2018-05-20T07:57:02Z</time>
      </trkpt>
      <trkpt lat="45.92111" lon="4.75572">
        <ele>174</ele>
        <time>2018-05-20T07:57:03Z</time>
      </trkpt>
      <trkpt lat="45.92111" lon="4.75579">
        <ele>174</ele>
        <time>2018-05-20T07:57:04Z</time>
      </trkpt>
      <trkpt lat="45.92112" lon="4.75586">
        <ele>174</ele>
        <time>2018-05-20T07:57:05Z</time>
      </trkpt>
      <trkpt lat="45.92115" lon="4.75591">
        <ele>174</ele>
        <time>2018-05-20T07:57:06Z</time>
      </trkpt>
      <trkpt lat="45.92119" lon="4.75594">
        <ele>174</ele>
        <time>2018-05-20T07:57:07Z</time>
      </trkpt>
      <trkpt lat="45.92124" lon="4.75596">
        <ele>174</ele>
        <time>2018-05-20T07:57:08Z</time>
      </trkpt>
      <trkpt lat="45.92127" lon="4.75601">
        <ele>174</ele>
        <time>2018-05-20T07:57:09Z</time>
      </trkpt>
      <trkpt lat="45.92132" lon="4.75605">
        <ele>174</ele>
        <time>2018-05-20T07:57:10Z</time>
      </trkpt>
      <trkpt lat="45.92136" lon="4.7561">
        <ele>174</ele>
        <time>2018-05-20T07:57:11Z</time>
      </trkpt>
      <trkpt lat="45.92141" lon="4.75615">
        <ele>174</ele>
        <time>2018-05-20T07:57:12Z</time>
      </trkpt>
      <trkpt lat="45.92145" lon="4.75619">
        <ele>174</ele>
        <time>2018-05-20T07:57:13Z</time>
      </trkpt>
      <trkpt lat="45.9215" lon="4.75623">
        <ele>174</ele>
        <time>2018-05-20T07:57:14Z</time>
      </trkpt>
      <trkpt lat="45.92156" lon="4.75629">
        <ele>174</ele>
        <time>2018-05-20T07:57:15Z</time>
      </trkpt>
      <trkpt lat="45.9216" lon="4.75634">
        <ele>174</ele>
        <time>2018-05-20T07:57:16Z</time>
      </trkpt>
      <trkpt lat="45.92164" lon="4.75639">
        <ele>174</ele>
        <time>2018-05-20T07:57:17Z</time>
      </trkpt>
      <trkpt lat="45.92169" lon="4.75644">
        <ele>174</ele>
        <time>2018-05-20T07:57:18Z</time>
      </trkpt>
      <trkpt lat="45.92173" lon="4.75648">
        <ele>174</ele>
        <time>2018-05-20T07:57:19Z</time>
      </trkpt>
      <trkpt lat="45.92178" lon="4.75652">
        <ele>174</ele>
        <time>2018-05-20T07:57:20Z</time>
      </trkpt>
      <trkpt lat="45.92182" lon="4.75657">
        <ele>174</ele>
        <time>2018-05-20T07:57:21Z</time>
      </trkpt>
      <trkpt lat="45.92186" lon="4.75662">
        <ele>174</ele>
        <time>2018-05-20T07:57:22Z</time>
      </trkpt>
      <trkpt lat="45.92191" lon="4.75666">
        <ele>174</ele>
        <time>2018-05-20T07:57:23Z</time>
      </trkpt>
      <trkpt lat="45.92195" lon="4.75671">
        <ele>174</ele>
        <time>2018-05-20T07:57:24Z</time>
      </trkpt>
      <trkpt lat="45.92199" lon="4.75675">
        <ele>174</ele>
        <time>2018-05-20T07:57:25Z</time>
      </trkpt>
      <trkpt lat="45.92204" lon="4.75679">
        <ele>174</ele>
        <time>2018-05-20T07:57:26Z</time>
      </trkpt>
      <trkpt lat="45.92209" lon="4.75684">
        <ele>174</ele>
        <time>2018-05-20T07:57:27Z</time>
      </trkpt>
      <trkpt lat="45.92214" lon="4.75688">
        <ele>174</ele>
        <time>2018-05-20T07:57:28Z</time>
      </trkpt>
      <trkpt lat="45.92219" lon="4.75693">
        <ele>174</ele>
        <time>2018-05-20T07:57:29Z</time>
      </trkpt>
      <trkpt lat="45.92224" lon="4.75698">
        <ele>174</ele>
        <time>2018-05-20T07:57:30Z</time>
      </trkpt>
      <trkpt lat="45.92228" lon="4.75702">
        <ele>174</ele>
        <time>2018-05-20T07:57:31Z</time>
      </trkpt>
      <trkpt lat="45.92233" lon="4.75707">
        <ele>174</ele>
        <time>2018-05-20T07:57:32Z</time>
      </trkpt>
      <trkpt lat="45.92237" lon="4.75713">
        <ele>174</ele>
        <time>2018-05-20T07:57:33Z</time>
      </trkpt>
      <trkpt lat="45.92241" lon="4.7572">
        <ele>174</ele>
        <time>2018-05-20T07:57:34Z</time>
      </trkpt>
      <trkpt lat="45.92243" lon="4.75726">
        <ele>174</ele>
        <time>2018-05-20T07:57:35Z</time>
      </trkpt>
      <trkpt lat="45.92245" lon="4.75734">
        <ele>174</ele>
        <time>2018-05-20T07:57:36Z</time>
      </trkpt>
      <trkpt lat="45.92247" lon="4.75741">
        <ele>174</ele>
        <time>2018-05-20T07:57:37Z</time>
      </trkpt>
      <trkpt lat="45.92248" lon="4.75748">
        <ele>174</ele>
        <time>2018-05-20T07:57:38Z</time>
      </trkpt>
      <trkpt lat="45.92249" lon="4.75756">
        <ele>174</ele>
        <time>2018-05-20T07:57:39Z</time>
      </trkpt>
      <trkpt lat="45.9225" lon="4.75763">
        <ele>174</ele>
        <time>2018-05-20T07:57:40Z</time>
      </trkpt>
      <trkpt lat="45.92251" lon="4.7577">
        <ele>174</ele>
        <time>2018-05-20T07:57:41Z</time>
      </trkpt>
      <trkpt lat="45.92254" lon="4.75777">
        <ele>174</ele>
        <time>2018-05-20T07:57:42Z</time>
      </trkpt>
      <trkpt lat="45.92255" lon="4.75784">
        <ele>174</ele>
        <time>2018-05-20T07:57:43Z</time>
      </trkpt>
      <trkpt lat="45.92256" lon="4.75791">
        <ele>174</ele>
        <time>2018-05-20T07:57:44Z</time>
      </trkpt>
      <trkpt lat="45.92257" lon="4.75798">
        <ele>174</ele>
        <time>2018-05-20T07:57:45Z</time>
      </trkpt>
      <trkpt lat="45.92259" lon="4.75805">
        <ele>174</ele>
        <time>2018-05-20T07:57:46Z</time>
      </trkpt>
      <trkpt lat="45.92261" lon="4.75811">
        <ele>174</ele>
        <time>2018-05-20T07:57:47Z</time>
      </trkpt>
      <trkpt lat="45.92264" lon="4.75818">
        <ele>174</ele>
        <time>2018-05-20T07:57:48Z</time>
      </trkpt>
      <trkpt lat="45.92266" lon="4.75824">
        <ele>174</ele>
        <time>2018-05-20T07:57:49Z</time>
      </trkpt>
      <trkpt lat="45.92271" lon="4.7583">
        <ele>174</ele>
        <time>2018-05-20T07:57:50Z</time>
      </trkpt>
      <trkpt lat="45.92276" lon="4.75835">
        <ele>173</ele>
        <time>2018-05-20T07:57:51Z</time>
      </trkpt>
      <trkpt lat="45.9228" lon="4.75839">
        <ele>173</ele>
        <time>2018-05-20T07:57:52Z</time>
      </trkpt>
      <trkpt lat="45.92286" lon="4.75843">
        <ele>173</ele>
        <time>2018-05-20T07:57:53Z</time>
      </trkpt>
      <trkpt lat="45.92292" lon="4.75847">
        <ele>173</ele>
        <time>2018-05-20T07:57:54Z</time>
      </trkpt>
      <trkpt lat="45.92298" lon="4.75851">
        <ele>173</ele>
        <time>2018-05-20T07:57:55Z</time>
      </trkpt>
      <trkpt lat="45.92304" lon="4.75855">
        <ele>173</ele>
        <time>2018-05-20T07:57:56Z</time>
      </trkpt>
      <trkpt lat="45.92311" lon="4.75858">
        <ele>173</ele>
        <time>2018-05-20T07:57:57Z</time>
      </trkpt>
      <trkpt lat="45.92318" lon="4.75862">
        <ele>173</ele>
        <time>2018-05-20T07:57:58Z</time>
      </trkpt>
      <trkpt lat="45.92324" lon="4.75867">
        <ele>173</ele>
        <time>2018-05-20T07:57:59Z</time>
      </trkpt>
      <trkpt lat="45.92331" lon="4.75871">
        <ele>173</ele>
        <time>2018-05-20T07:58:00Z</time>
      </trkpt>
      <trkpt lat="45.92339" lon="4.75873">
        <ele>173</ele>
        <time>2018-05-20T07:58:01Z</time>
      </trkpt>
      <trkpt lat="45.92345" lon="4.75876">
        <ele>173</ele>
        <time>2018-05-20T07:58:02Z</time>
      </trkpt>
      <trkpt lat="45.92352" lon="4.7588">
        <ele>173</ele>
        <time>2018-05-20T07:58:03Z</time>
      </trkpt>
      <trkpt lat="45.92358" lon="4.75884">
        <ele>173</ele>
        <time>2018-05-20T07:58:04Z</time>
      </trkpt>
      <trkpt lat="45.92363" lon="4.75887">
        <ele>173</ele>
        <time>2018-05-20T07:58:05Z</time>
      </trkpt>
      <trkpt lat="45.92369" lon="4.75891">
        <ele>173</ele>
        <time>2018-05-20T07:58:06Z</time>
      </trkpt>
      <trkpt lat="45.92374" lon="4.75895">
        <ele>173</ele>
        <time>2018-05-20T07:58:07Z</time>
      </trkpt>
      <trkpt lat="45.9238" lon="4.75899">
        <ele>173</ele>
        <time>2018-05-20T07:58:08Z</time>
      </trkpt>
      <trkpt lat="45.92385" lon="4.75903">
        <ele>173</ele>
        <time>2018-05-20T07:58:09Z</time>
      </trkpt>
      <trkpt lat="45.92391" lon="4.75907">
        <ele>173</ele>
        <time>2018-05-20T07:58:10Z</time>
      </trkpt>
      <trkpt lat="45.92396" lon="4.75911">
        <ele>173</ele>
        <time>2018-05-20T07:58:11Z</time>
      </trkpt>
      <trkpt lat="45.924" lon="4.75914">
        <ele>172</ele>
        <time>2018-05-20T07:58:12Z</time>
      </trkpt>
      <trkpt lat="45.92405" lon="4.75918">
        <ele>172</ele>
        <time>2018-05-20T07:58:13Z</time>
      </trkpt>
      <trkpt lat="45.9241" lon="4.75922">
        <ele>172</ele>
        <time>2018-05-20T07:58:14Z</time>
      </trkpt>
      <trkpt lat="45.92415" lon="4.75926">
        <ele>172</ele>
        <time>2018-05-20T07:58:15Z</time>
      </trkpt>
      <trkpt lat="45.9242" lon="4.7593">
        <ele>172</ele>
        <time>2018-05-20T07:58:16Z</time>
      </trkpt>
      <trkpt lat="45.92425" lon="4.75935">
        <ele>172</ele>
        <time>2018-05-20T07:58:17Z</time>
      </trkpt>
      <trkpt lat="45.9243" lon="4.75939">
        <ele>172</ele>
        <time>2018-05-20T07:58:18Z</time>
      </trkpt>
      <trkpt lat="45.92435" lon="4.75943">
        <ele>172</ele>
        <time>2018-05-20T07:58:19Z</time>
      </trkpt>
      <trkpt lat="45.9244" lon="4.75947">
        <ele>172</ele>
        <time>2018-05-20T07:58:20Z</time>
      </trkpt>
      <trkpt lat="45.92446" lon="4.7595">
        <ele>172</ele>
        <time>2018-05-20T07:58:21Z</time>
      </trkpt>
      <trkpt lat="45.9245" lon="4.75954">
        <ele>172</ele>
        <time>2018-05-20T07:58:22Z</time>
      </trkpt>
      <trkpt lat="45.92456" lon="4.75957">
        <ele>172</ele>
        <time>2018-05-20T07:58:23Z</time>
      </trkpt>
      <trkpt lat="45.92461" lon="4.75961">
        <ele>172</ele>
        <time>2018-05-20T07:58:24Z</time>
      </trkpt>
      <trkpt lat="45.92466" lon="4.75964">
        <ele>172</ele>
        <time>2018-05-20T07:58:25Z</time>
      </trkpt>
      <trkpt lat="45.92471" lon="4.75968">
        <ele>172</ele>
        <time>2018-05-20T07:58:26Z</time>
      </trkpt>
      <trkpt lat="45.92476" lon="4.75972">
        <ele>172</ele>
        <time>2018-05-20T07:58:27Z</time>
      </trkpt>
      <trkpt lat="45.92481" lon="4.75977">
        <ele>172</ele>
        <time>2018-05-20T07:58:28Z</time>
      </trkpt>
      <trkpt lat="45.92486" lon="4.7598">
        <ele>172</ele>
        <time>2018-05-20T07:58:29Z</time>
      </trkpt>
      <trkpt lat="45.9249" lon="4.75984">
        <ele>172</ele>
        <time>2018-05-20T07:58:30Z</time>
      </trkpt>
      <trkpt lat="45.92495" lon="4.75988">
        <ele>172</ele>
        <time>2018-05-20T07:58:31Z</time>
      </trkpt>
      <trkpt lat="45.925" lon="4.75991">
        <ele>172</ele>
        <time>2018-05-20T07:58:32Z</time>
      </trkpt>
      <trkpt lat="45.92506" lon="4.75994">
        <ele>172</ele>
        <time>2018-05-20T07:58:33Z</time>
      </trkpt>
      <trkpt lat="45.92511" lon="4.75998">
        <ele>172</ele>
        <time>2018-05-20T07:58:34Z</time>
      </trkpt>
      <trkpt lat="45.92516" lon="4.76002">
        <ele>172</ele>
        <time>2018-05-20T07:58:35Z</time>
      </trkpt>
      <trkpt lat="45.92522" lon="4.76005">
        <ele>172</ele>
        <time>2018-05-20T07:58:36Z</time>
      </trkpt>
      <trkpt lat="45.92526" lon="4.76009">
        <ele>172</ele>
        <time>2018-05-20T07:58:37Z</time>
      </trkpt>
      <trkpt lat="45.92531" lon="4.76012">
        <ele>172</ele>
        <time>2018-05-20T07:58:38Z</time>
      </trkpt>
      <trkpt lat="45.92537" lon="4.76016">
        <ele>172</ele>
        <time>2018-05-20T07:58:39Z</time>
      </trkpt>
      <trkpt lat="45.92541" lon="4.7602">
        <ele>172</ele>
        <time>2018-05-20T07:58:40Z</time>
      </trkpt>
      <trkpt lat="45.92547" lon="4.76023">
        <ele>172</ele>
        <time>2018-05-20T07:58:41Z</time>
      </trkpt>
      <trkpt lat="45.92553" lon="4.76027">
        <ele>172</ele>
        <time>2018-05-20T07:58:42Z</time>
      </trkpt>
      <trkpt lat="45.92558" lon="4.76031">
        <ele>172</ele>
        <time>2018-05-20T07:58:43Z</time>
      </trkpt>
      <trkpt lat="45.92563" lon="4.76034">
        <ele>172</ele>
        <time>2018-05-20T07:58:44Z</time>
      </trkpt>
      <trkpt lat="45.92568" lon="4.76039">
        <ele>172</ele>
        <time>2018-05-20T07:58:45Z</time>
      </trkpt>
      <trkpt lat="45.92576" lon="4.76042">
        <ele>171</ele>
        <time>2018-05-20T07:58:46Z</time>
      </trkpt>
      <trkpt lat="45.92581" lon="4.76047">
        <ele>171</ele>
        <time>2018-05-20T07:58:47Z</time>
      </trkpt>
      <trkpt lat="45.92587" lon="4.76051">
        <ele>171</ele>
        <time>2018-05-20T07:58:48Z</time>
      </trkpt>
      <trkpt lat="45.92592" lon="4.76055">
        <ele>171</ele>
        <time>2018-05-20T07:58:49Z</time>
      </trkpt>
      <trkpt lat="45.92597" lon="4.76058">
        <ele>171</ele>
        <time>2018-05-20T07:58:50Z</time>
      </trkpt>
      <trkpt lat="45.92602" lon="4.76062">
        <ele>171</ele>
        <time>2018-05-20T07:58:51Z</time>
      </trkpt>
      <trkpt lat="45.92607" lon="4.76067">
        <ele>171</ele>
        <time>2018-05-20T07:58:52Z</time>
      </trkpt>
      <trkpt lat="45.92613" lon="4.76071">
        <ele>171</ele>
        <time>2018-05-20T07:58:53Z</time>
      </trkpt>
      <trkpt lat="45.92619" lon="4.76074">
        <ele>171</ele>
        <time>2018-05-20T07:58:54Z</time>
      </trkpt>
      <trkpt lat="45.92626" lon="4.76079">
        <ele>170</ele>
        <time>2018-05-20T07:58:55Z</time>
      </trkpt>
      <trkpt lat="45.92632" lon="4.76082">
        <ele>170</ele>
        <time>2018-05-20T07:58:56Z</time>
      </trkpt>
      <trkpt lat="45.92638" lon="4.76086">
        <ele>170</ele>
        <time>2018-05-20T07:58:57Z</time>
      </trkpt>
      <trkpt lat="45.92645" lon="4.76092">
        <ele>170</ele>
        <time>2018-05-20T07:58:58Z</time>
      </trkpt>
      <trkpt lat="45.92651" lon="4.76096">
        <ele>170</ele>
        <time>2018-05-20T07:58:59Z</time>
      </trkpt>
      <trkpt lat="45.92658" lon="4.761">
        <ele>170</ele>
        <time>2018-05-20T07:59:00Z</time>
      </trkpt>
      <trkpt lat="45.92665" lon="4.76105">
        <ele>170</ele>
        <time>2018-05-20T07:59:01Z</time>
      </trkpt>
      <trkpt lat="45.92672" lon="4.7611">
        <ele>169</ele>
        <time>2018-05-20T07:59:02Z</time>
      </trkpt>
      <trkpt lat="45.92679" lon="4.76115">
        <ele>169</ele>
        <time>2018-05-20T07:59:03Z</time>
      </trkpt>
      <trkpt lat="45.92686" lon="4.76119">
        <ele>169</ele>
        <time>2018-05-20T07:59:04Z</time>
      </trkpt>
      <trkpt lat="45.92693" lon="4.76123">
        <ele>169</ele>
        <time>2018-05-20T07:59:05Z</time>
      </trkpt>
      <trkpt lat="45.92699" lon="4.76128">
        <ele>169</ele>
        <time>2018-05-20T07:59:06Z</time>
      </trkpt>
      <trkpt lat="45.92707" lon="4.76134">
        <ele>169</ele>
        <time>2018-05-20T07:59:07Z</time>
      </trkpt>
      <trkpt lat="45.92715" lon="4.76139">
        <ele>168</ele>
        <time>2018-05-20T07:59:08Z</time>
      </trkpt>
      <trkpt lat="45.92722" lon="4.76144">
        <ele>168</ele>
        <time>2018-05-20T07:59:09Z</time>
      </trkpt>
      <trkpt lat="45.92729" lon="4.7615">
        <ele>168</ele>
        <time>2018-05-20T07:59:10Z</time>
      </trkpt>
      <trkpt lat="45.92736" lon="4.76155">
        <ele>168</ele>
        <time>2018-05-20T07:59:11Z</time>
      </trkpt>
      <trkpt lat="45.92741" lon="4.76161">
        <ele>168</ele>
        <time>2018-05-20T07:59:12Z</time>
      </trkpt>
      <trkpt lat="45.92747" lon="4.76167">
        <ele>167</ele>
        <time>2018-05-20T07:59:13Z</time>
      </trkpt>
      <trkpt lat="45.92752" lon="4.76175">
        <ele>167</ele>
        <time>2018-05-20T07:59:14Z</time>
      </trkpt>
      <trkpt lat="45.92758" lon="4.7618">
        <ele>167</ele>
        <time>2018-05-20T07:59:15Z</time>
      </trkpt>
      <trkpt lat="45.92764" lon="4.76185">
        <ele>167</ele>
        <time>2018-05-20T07:59:16Z</time>
      </trkpt>
      <trkpt lat="45.9277" lon="4.76189">
        <ele>168</ele>
        <time>2018-05-20T07:59:17Z</time>
      </trkpt>
      <trkpt lat="45.92774" lon="4.76194">
        <ele>168</ele>
        <time>2018-05-20T07:59:18Z</time>
      </trkpt>
      <trkpt lat="45.92779" lon="4.76199">
        <ele>168</ele>
        <time>2018-05-20T07:59:19Z</time>
      </trkpt>
      <trkpt lat="45.92785" lon="4.76204">
        <ele>168</ele>
        <time>2018-05-20T07:59:20Z</time>
      </trkpt>
      <trkpt lat="45.92792" lon="4.76208">
        <ele>168</ele>
        <time>2018-05-20T07:59:21Z</time>
      </trkpt>
      <trkpt lat="45.92796" lon="4.76214">
        <ele>168</ele>
        <time>2018-05-20T07:59:22Z</time>
      </trkpt>
      <trkpt lat="45.92803" lon="4.76219">
        <ele>168</ele>
        <time>2018-05-20T07:59:23Z</time>
      </trkpt>
      <trkpt lat="45.92809" lon="4.76223">
        <ele>168</ele>
        <time>2018-05-20T07:59:24Z</time>
      </trkpt>
      <trkpt lat="45.92813" lon="4.76229">
        <ele>168</ele>
        <time>2018-05-20T07:59:25Z</time>
      </trkpt>
      <trkpt lat="45.92818" lon="4.76234">
        <ele>168</ele>
        <time>2018-05-20T07:59:26Z</time>
      </trkpt>
      <trkpt lat="45.92825" lon="4.76239">
        <ele>168</ele>
        <time>2018-05-20T07:59:27Z</time>
      </trkpt>
      <trkpt lat="45.92831" lon="4.76243">
        <ele>169</ele>
        <time>2018-05-20T07:59:28Z</time>
      </trkpt>
      <trkpt lat="45.92835" lon="4.76247">
        <ele>169</ele>
        <time>2018-05-20T07:59:29Z</time>
      </trkpt>
      <trkpt lat="45.92841" lon="4.76251">
        <ele>169</ele>
        <time>2018-05-20T07:59:30Z</time>
      </trkpt>
      <trkpt lat="45.92846" lon="4.76256">
        <ele>169</ele>
        <time>2018-05-20T07:59:31Z</time>
      </trkpt>
      <trkpt lat="45.92851" lon="4.76261">
        <ele>169</ele>
        <time>2018-05-20T07:59:32Z</time>
      </trkpt>
      <trkpt lat="45.92856" lon="4.76267">
        <ele>169</ele>
        <time>2018-05-20T07:59:33Z</time>
      </trkpt>
      <trkpt lat="45.9286" lon="4.76271">
        <ele>169</ele>
        <time>2018-05-20T07:59:34Z</time>
      </trkpt>
      <trkpt lat="45.92865" lon="4.76276">
        <ele>169</ele>
        <time>2018-05-20T07:59:35Z</time>
      </trkpt>
      <trkpt lat="45.92869" lon="4.76281">
        <ele>169</ele>
        <time>2018-05-20T07:59:36Z</time>
      </trkpt>
      <trkpt lat="45.92873" lon="4.76286">
        <ele>169</ele>
        <time>2018-05-20T07:59:37Z</time>
      </trkpt>
      <trkpt lat="45.92877" lon="4.76291">
        <ele>169</ele>
        <time>2018-05-20T07:59:38Z</time>
      </trkpt>
      <trkpt lat="45.92882" lon="4.76295">
        <ele>169</ele>
        <time>2018-05-20T07:59:39Z</time>
      </trkpt>
      <trkpt lat="45.92889" lon="4.76299">
        <ele>169</ele>
        <time>2018-05-20T07:59:40Z</time>
      </trkpt>
      <trkpt lat="45.92894" lon="4.76303">
        <ele>169</ele>
        <time>2018-05-20T07:59:41Z</time>
      </trkpt>
      <trkpt lat="45.929" lon="4.76309">
        <ele>169</ele>
        <time>2018-05-20T07:59:42Z</time>
      </trkpt>
      <trkpt lat="45.92905" lon="4.76314">
        <ele>169</ele>
        <time>2018-05-20T07:59:43Z</time>
      </trkpt>
      <trkpt lat="45.92909" lon="4.76318">
        <ele>169</ele>
        <time>2018-05-20T07:59:44Z</time>
      </trkpt>
      <trkpt lat="45.92916" lon="4.76323">
        <ele>169</ele>
        <time>2018-05-20T07:59:45Z</time>
      </trkpt>
      <trkpt lat="45.92921" lon="4.76329">
        <ele>169</ele>
        <time>2018-05-20T07:59:46Z</time>
      </trkpt>
      <trkpt lat="45.92926" lon="4.76333">
        <ele>169</ele>
        <time>2018-05-20T07:59:47Z</time>
      </trkpt>
      <trkpt lat="45.92931" lon="4.76337">
        <ele>169</ele>
        <time>2018-05-20T07:59:48Z</time>
      </trkpt>
      <trkpt lat="45.92935" lon="4.76342">
        <ele>169</ele>
        <time>2018-05-20T07:59:49Z</time>
      </trkpt>
      <trkpt lat="45.9294" lon="4.76348">
        <ele>169</ele>
        <time>2018-05-20T07:59:50Z</time>
      </trkpt>
      <trkpt lat="45.92944" lon="4.76352">
        <ele>169</ele>
        <time>2018-05-20T07:59:51Z</time>
      </trkpt>
      <trkpt lat="45.92949" lon="4.76357">
        <ele>169</ele>
        <time>2018-05-20T07:59:52Z</time>
      </trkpt>
      <trkpt lat="45.92954" lon="4.76361">
        <ele>169</ele>
        <time>2018-05-20T07:59:53Z</time>
      </trkpt>
      <trkpt lat="45.92959" lon="4.76366">
        <ele>169</ele>
        <time>2018-05-20T07:59:54Z</time>
      </trkpt>
      <trkpt lat="45.92964" lon="4.76372">
        <ele>169</ele>
        <time>2018-05-20T07:59:55Z</time>
      </trkpt>
      <trkpt lat="45.92969" lon="4.76376">
        <ele>169</ele>
        <time>2018-05-20T07:59:56Z</time>
      </trkpt>
      <trkpt lat="45.92974" lon="4.76381">
        <ele>169</ele>
        <time>2018-05-20T07:59:57Z</time>
      </trkpt>
      <trkpt lat="45.92979" lon="4.76386">
        <ele>169</ele>
        <time>2018-05-20T07:59:58Z</time>
      </trkpt>
      <trkpt lat="45.92984" lon="4.7639">
        <ele>169</ele>
        <time>2018-05-20T07:59:59Z</time>
      </trkpt>
      <trkpt lat="45.92989" lon="4.76394">
        <ele>169</ele>
        <time>2018-05-20T08:00:00Z</time>
      </trkpt>
      <trkpt lat="45.92994" lon="4.764">
        <ele>169</ele>
        <time>2018-05-20T08:00:01Z</time>
      </trkpt>
      <trkpt lat="45.92999" lon="4.76404">
        <ele>169</ele>
        <time>2018-05-20T08:00:02Z</time>
      </trkpt>
      <trkpt lat="45.93005" lon="4.76409">
        <ele>169</ele>
        <time>2018-05-20T08:00:03Z</time>
      </trkpt>
      <trkpt lat="45.9301" lon="4.76414">
        <ele>169</ele>
        <time>2018-05-20T08:00:04Z</time>
      </trkpt>
      <trkpt lat="45.93015" lon="4.7642">
        <ele>169</ele>
        <time>2018-05-20T08:00:05Z</time>
      </trkpt>
      <trkpt lat="45.93018" lon="4.76425">
        <ele>169</ele>
        <time>2018-05-20T08:00:06Z</time>
      </trkpt>
      <trkpt lat="45.93024" lon="4.7643">
        <ele>169</ele>
        <time>2018-05-20T08:00:07Z</time>
      </trkpt>
      <trkpt lat="45.93029" lon="4.76434">
        <ele>169</ele>
        <time>2018-05-20T08:00:08Z</time>
      </trkpt>
      <trkpt lat="45.93034" lon="4.7644">
        <ele>169</ele>
        <time>2018-05-20T08:00:09Z</time>
      </trkpt>
      <trkpt lat="45.93038" lon="4.76444">
        <ele>169</ele>
        <time>2018-05-20T08:00:10Z</time>
      </trkpt>
      <trkpt lat="45.93043" lon="4.76448">
        <ele>169</ele>
        <time>2018-05-20T08:00:11Z</time>
      </trkpt>
      <trkpt lat="45.9305" lon="4.76451">
        <ele>169</ele>
        <time>2018-05-20T08:00:12Z</time>
      </trkpt>
      <trkpt lat="45.93054" lon="4.76456">
        <ele>169</ele>
        <time>2018-05-20T08:00:13Z</time>
      </trkpt>
      <trkpt lat="45.93058" lon="4.7646">
        <ele>169</ele>
        <time>2018-05-20T08:00:14Z</time>
      </trkpt>
      <trkpt lat="45.93062" lon="4.76466">
        <ele>169</ele>
        <time>2018-05-20T08:00:15Z</time>
      </trkpt>
      <trkpt lat="45.93066" lon="4.7647">
        <ele>169</ele>
        <time>2018-05-20T08:00:16Z</time>
      </trkpt>
      <trkpt lat="45.93071" lon="4.76474">
        <ele>169</ele>
        <time>2018-05-20T08:00:17Z</time>
      </trkpt>
      <trkpt lat="45.93076" lon="4.76478">
        <ele>169</ele>
        <time>2018-05-20T08:00:18Z</time>
      </trkpt>
      <trkpt lat="45.9308" lon="4.76484">
        <ele>169</ele>
        <time>2018-05-20T08:00:19Z</time>
      </trkpt>
      <trkpt lat="45.93086" lon="4.76487">
        <ele>170</ele>
        <time>2018-05-20T08:00:20Z</time>
      </trkpt>
      <trkpt lat="45.93091" lon="4.76492">
        <ele>170</ele>
        <time>2018-05-20T08:00:21Z</time>
      </trkpt>
      <trkpt lat="45.93096" lon="4.76497">
        <ele>170</ele>
        <time>2018-05-20T08:00:22Z</time>
      </trkpt>
      <trkpt lat="45.931" lon="4.76503">
        <ele>170</ele>
        <time>2018-05-20T08:00:23Z</time>
      </trkpt>
      <trkpt lat="45.93104" lon="4.76506">
        <ele>170</ele>
        <time>2018-05-20T08:00:24Z</time>
      </trkpt>
      <trkpt lat="45.93109" lon="4.76511">
        <ele>170</ele>
        <time>2018-05-20T08:00:25Z</time>
      </trkpt>
      <trkpt lat="45.93115" lon="4.76513">
        <ele>170</ele>
        <time>2018-05-20T08:00:26Z</time>
      </trkpt>
      <trkpt lat="45.93119" lon="4.76518">
        <ele>170</ele>
        <time>2018-05-20T08:00:27Z</time>
      </trkpt>
      <trkpt lat="45.93124" lon="4.76523">
        <ele>170</ele>
        <time>2018-05-20T08:00:28Z</time>
      </trkpt>
      <trkpt lat="45.93129" lon="4.76527">
        <ele>170</ele>
        <time>2018-05-20T08:00:29Z</time>
      </trkpt>
      <trkpt lat="45.93134" lon="4.76531">
        <ele>170</ele>
        <time>2018-05-20T08:00:30Z</time>
      </trkpt>
      <trkpt lat="45.93138" lon="4.76538">
        <ele>170</ele>
        <time>2018-05-20T08:00:31Z</time>
      </trkpt>
      <trkpt lat="45.93142" lon="4.76545">
        <ele>170</ele>
        <time>2018-05-20T08:00:32Z</time>
      </trkpt>
      <trkpt lat="45.93147" lon="4.7655">
        <ele>170</ele>
        <time>2018-05-20T08:00:33Z</time>
      </trkpt>
      <trkpt lat="45.93151" lon="4.76554">
        <ele>170</ele>
        <time>2018-05-20T08:00:34Z</time>
      </trkpt>
      <trkpt lat="45.93156" lon="4.76557">
        <ele>170</ele>
        <time>2018-05-20T08:00:35Z</time>
      </trkpt>
      <trkpt lat="45.93161" lon="4.76562">
        <ele>170</ele>
        <time>2018-05-20T08:00:36Z</time>
      </trkpt>
      <trkpt lat="45.93166" lon="4.76566">
        <ele>170</ele>
        <time>2018-05-20T08:00:37Z</time>
      </trkpt>
      <trkpt lat="45.93171" lon="4.7657">
        <ele>170</ele>
        <time>2018-05-20T08:00:38Z</time>
      </trkpt>
      <trkpt lat="45.93176" lon="4.76574">
        <ele>170</ele>
        <time>2018-05-20T08:00:39Z</time>
      </trkpt>
      <trkpt lat="45.93183" lon="4.76579">
        <ele>170</ele>
        <time>2018-05-20T08:00:40Z</time>
      </trkpt>
      <trkpt lat="45.93187" lon="4.76584">
        <ele>171</ele>
        <time>2018-05-20T08:00:41Z</time>
      </trkpt>
      <trkpt lat="45.93192" lon="4.7659">
        <ele>170</ele>
        <time>2018-05-20T08:00:42Z</time>
      </trkpt>
      <trkpt lat="45.93196" lon="4.76594">
        <ele>170</ele>
        <time>2018-05-20T08:00:43Z</time>
      </trkpt>
      <trkpt lat="45.93201" lon="4.76598">
        <ele>170</ele>
        <time>2018-05-20T08:00:44Z</time>
      </trkpt>
      <trkpt lat="45.93206" lon="4.76602">
        <ele>170</ele>
        <time>2018-05-20T08:00:45Z</time>
      </trkpt>
      <trkpt lat="45.9321" lon="4.76606">
        <ele>170</ele>
        <time>2018-05-20T08:00:46Z</time>
      </trkpt>
      <trkpt lat="45.93215" lon="4.76612">
        <ele>170</ele>
        <time>2018-05-20T08:00:47Z</time>
      </trkpt>
      <trkpt lat="45.93219" lon="4.76618">
        <ele>170</ele>
        <time>2018-05-20T08:00:48Z</time>
      </trkpt>
      <trkpt lat="45.93224" lon="4.76623">
        <ele>170</ele>
        <time>2018-05-20T08:00:49Z</time>
      </trkpt>
      <trkpt lat="45.93229" lon="4.76628">
        <ele>170</ele>
        <time>2018-05-20T08:00:50Z</time>
      </trkpt>
      <trkpt lat="45.93232" lon="4.76633">
        <ele>170</ele>
        <time>2018-05-20T08:00:51Z</time>
      </trkpt>
      <trkpt lat="45.93238" lon="4.76637">
        <ele>171</ele>
        <time>2018-05-20T08:00:52Z</time>
      </trkpt>
      <trkpt lat="45.93244" lon="4.76642">
        <ele>171</ele>
        <time>2018-05-20T08:00:53Z</time>
      </trkpt>
      <trkpt lat="45.93249" lon="4.76647">
        <ele>171</ele>
        <time>2018-05-20T08:00:54Z</time>
      </trkpt>
      <trkpt lat="45.93253" lon="4.76652">
        <ele>171</ele>
        <time>2018-05-20T08:00:55Z</time>
      </trkpt>
      <trkpt lat="45.93258" lon="4.76658">
        <ele>171</ele>
        <time>2018-05-20T08:00:56Z</time>
      </trkpt>
      <trkpt lat="45.93262" lon="4.76662">
        <ele>171</ele>
        <time>2018-05-20T08:00:57Z</time>
      </trkpt>
      <trkpt lat="45.93267" lon="4.76667">
        <ele>172</ele>
        <time>2018-05-20T08:00:58Z</time>
      </trkpt>
      <trkpt lat="45.93272" lon="4.76672">
        <ele>172</ele>
        <time>2018-05-20T08:00:59Z</time>
      </trkpt>
      <trkpt lat="45.93275" lon="4.76678">
        <ele>172</ele>
        <time>2018-05-20T08:01:00Z</time>
      </trkpt>
      <trkpt lat="45.9328" lon="4.76681">
        <ele>172</ele>
        <time>2018-05-20T08:01:01Z</time>
      </trkpt>
      <trkpt lat="45.93284" lon="4.76685">
        <ele>172</ele>
        <time>2018-05-20T08:01:02Z</time>
      </trkpt>
      <trkpt lat="45.93289" lon="4.76689">
        <ele>172</ele>
        <time>2018-05-20T08:01:03Z</time>
      </trkpt>
      <trkpt lat="45.93294" lon="4.76693">
        <ele>172</ele>
        <time>2018-05-20T08:01:04Z</time>
      </trkpt>
      <trkpt lat="45.93297" lon="4.76697">
        <ele>172</ele>
        <time>2018-05-20T08:01:05Z</time>
      </trkpt>
      <trkpt lat="45.93303" lon="4.76701">
        <ele>172</ele>
        <time>2018-05-20T08:01:06Z</time>
      </trkpt>
      <trkpt lat="45.93307" lon="4.76705">
        <ele>172</ele>
        <time>2018-05-20T08:01:07Z</time>
      </trkpt>
      <trkpt lat="45.9331" lon="4.76711">
        <ele>172</ele>
        <time>2018-05-20T08:01:08Z</time>
      </trkpt>
      <trkpt lat="45.93315" lon="4.76716">
        <ele>172</ele>
        <time>2018-05-20T08:01:09Z</time>
      </trkpt>
      <trkpt lat="45.93319" lon="4.76724">
        <ele>172</ele>
        <time>2018-05-20T08:01:10Z</time>
      </trkpt>
      <trkpt lat="45.93325" lon="4.76728">
        <ele>172</ele>
        <time>2018-05-20T08:01:11Z</time>
      </trkpt>
      <trkpt lat="45.9333" lon="4.76733">
        <ele>172</ele>
        <time>2018-05-20T08:01:12Z</time>
      </trkpt>
      <trkpt lat="45.93336" lon="4.76738">
        <ele>172</ele>
        <time>2018-05-20T08:01:13Z</time>
      </trkpt>
      <trkpt lat="45.9334" lon="4.76743">
        <ele>173</ele>
        <time>2018-05-20T08:01:14Z</time>
      </trkpt>
      <trkpt lat="45.93346" lon="4.76744">
        <ele>172</ele>
        <time>2018-05-20T08:01:15Z</time>
      </trkpt>
      <trkpt lat="45.93352" lon="4.76749">
        <ele>172</ele>
        <time>2018-05-20T08:01:16Z</time>
      </trkpt>
      <trkpt lat="45.93357" lon="4.76754">
        <ele>172</ele>
        <time>2018-05-20T08:01:17Z</time>
      </trkpt>
      <trkpt lat="45.93363" lon="4.76758">
        <ele>172</ele>
        <time>2018-05-20T08:01:18Z</time>
      </trkpt>
      <trkpt lat="45.93368" lon="4.76763">
        <ele>172</ele>
        <time>2018-05-20T08:01:19Z</time>
      </trkpt>
      <trkpt lat="45.93372" lon="4.76768">
        <ele>172</ele>
        <time>2018-05-20T08:01:20Z</time>
      </trkpt>
      <trkpt lat="45.93376" lon="4.76773">
        <ele>172</ele>
        <time>2018-05-20T08:01:21Z</time>
      </trkpt>
      <trkpt lat="45.93381" lon="4.76778">
        <ele>172</ele>
        <time>2018-05-20T08:01:22Z</time>
      </trkpt>
      <trkpt lat="45.93385" lon="4.76783">
        <ele>172</ele>
        <time>2018-05-20T08:01:23Z</time>
      </trkpt>
      <trkpt lat="45.93391" lon="4.76788">
        <ele>172</ele>
        <time>2018-05-20T08:01:24Z</time>
      </trkpt>
      <trkpt lat="45.93396" lon="4.76794">
        <ele>172</ele>
        <time>2018-05-20T08:01:25Z</time>
      </trkpt>
      <trkpt lat="45.934" lon="4.76799">
        <ele>172</ele>
        <time>2018-05-20T08:01:26Z</time>
      </trkpt>
      <trkpt lat="45.93405" lon="4.76805">
        <ele>172</ele>
        <time>2018-05-20T08:01:27Z</time>
      </trkpt>
      <trkpt lat="45.93408" lon="4.7681">
        <ele>172</ele>
        <time>2018-05-20T08:01:28Z</time>
      </trkpt>
      <trkpt lat="45.93413" lon="4.76815">
        <ele>172</ele>
        <time>2018-05-20T08:01:29Z</time>
      </trkpt>
      <trkpt lat="45.93417" lon="4.76822">
        <ele>171</ele>
        <time>2018-05-20T08:01:30Z</time>
      </trkpt>
      <trkpt lat="45.9342" lon="4.76828">
        <ele>172</ele>
        <time>2018-05-20T08:01:31Z</time>
      </trkpt>
      <trkpt lat="45.93425" lon="4.76835">
        <ele>171</ele>
        <time>2018-05-20T08:01:32Z</time>
      </trkpt>
      <trkpt lat="45.93428" lon="4.76842">
        <ele>171</ele>
        <time>2018-05-20T08:01:33Z</time>
      </trkpt>
      <trkpt lat="45.93431" lon="4.76849">
        <ele>171</ele>
        <time>2018-05-20T08:01:34Z</time>
      </trkpt>
      <trkpt lat="45.93434" lon="4.76856">
        <ele>171</ele>
        <time>2018-05-20T08:01:35Z</time>
      </trkpt>
      <trkpt lat="45.93437" lon="4.76864">
        <ele>171</ele>
        <time>2018-05-20T08:01:36Z</time>
      </trkpt>
      <trkpt lat="45.9344" lon="4.76871">
        <ele>171</ele>
        <time>2018-05-20T08:01:37Z</time>
      </trkpt>
      <trkpt lat="45.93442" lon="4.7688">
        <ele>170</ele>
        <time>2018-05-20T08:01:38Z</time>
      </trkpt>
      <trkpt lat="45.93446" lon="4.76889">
        <ele>170</ele>
        <time>2018-05-20T08:01:39Z</time>
      </trkpt>
      <trkpt lat="45.93448" lon="4.76896">
        <ele>170</ele>
        <time>2018-05-20T08:01:40Z</time>
      </trkpt>
      <trkpt lat="45.9345" lon="4.76905">
        <ele>170</ele>
        <time>2018-05-20T08:01:41Z</time>
      </trkpt>
      <trkpt lat="45.93453" lon="4.76913">
        <ele>170</ele>
        <time>2018-05-20T08:01:42Z</time>
      </trkpt>
      <trkpt lat="45.93455" lon="4.76922">
        <ele>170</ele>
        <time>2018-05-20T08:01:43Z</time>
      </trkpt>
      <trkpt lat="45.93456" lon="4.76931">
        <ele>170</ele>
        <time>2018-05-20T08:01:44Z</time>
      </trkpt>
      <trkpt lat="45.93456" lon="4.76941">
        <ele>170</ele>
        <time>2018-05-20T08:01:45Z</time>
      </trkpt>
      <trkpt lat="45.93457" lon="4.7695">
        <ele>170</ele>
        <time>2018-05-20T08:01:46Z</time>
      </trkpt>
      <trkpt lat="45.93459" lon="4.76958">
        <ele>170</ele>
        <time>2018-05-20T08:01:47Z</time>
      </trkpt>
      <trkpt lat="45.93461" lon="4.76968">
        <ele>170</ele>
        <time>2018-05-20T08:01:48Z</time>
      </trkpt>
      <trkpt lat="45.93462" lon="4.76977">
        <ele>170</ele>
        <time>2018-05-20T08:01:49Z</time>
      </trkpt>
      <trkpt lat="45.93463" lon="4.76987">
        <ele>170</ele>
        <time>2018-05-20T08:01:50Z</time>
      </trkpt>
      <trkpt lat="45.93464" lon="4.76995">
        <ele>170</ele>
        <time>2018-05-20T08:01:51Z</time>
      </trkpt>
      <trkpt lat="45.93465" lon="4.77005">
        <ele>170</ele>
        <time>2018-05-20T08:01:52Z</time>
      </trkpt>
      <trkpt lat="45.93467" lon="4.77014">
        <ele>170</ele>
        <time>2018-05-20T08:01:53Z</time>
      </trkpt>
      <trkpt lat="45.93468" lon="4.77022">
        <ele>170</ele>
        <time>2018-05-20T08:01:54Z</time>
      </trkpt>
      <trkpt lat="45.9347" lon="4.7703">
        <ele>170</ele>
        <time>2018-05-20T08:01:55Z</time>
      </trkpt>
      <trkpt lat="45.9347" lon="4.77039">
        <ele>170</ele>
        <time>2018-05-20T08:01:56Z</time>
      </trkpt>
      <trkpt lat="45.93471" lon="4.77047">
        <ele>170</ele>
        <time>2018-05-20T08:01:57Z</time>
      </trkpt>
      <trkpt lat="45.93473" lon="4.77055">
        <ele>170</ele>
        <time>2018-05-20T08:01:58Z</time>
      </trkpt>
      <trkpt lat="45.93474" lon="4.77063">
        <ele>170</ele>
        <time>2018-05-20T08:01:59Z</time>
      </trkpt>
      <trkpt lat="45.93476" lon="4.77071">
        <ele>170</ele>
        <time>2018-05-20T08:02:00Z</time>
      </trkpt>
      <trkpt lat="45.93477" lon="4.7708">
        <ele>170</ele>
        <time>2018-05-20T08:02:01Z</time>
      </trkpt>
      <trkpt lat="45.93474" lon="4.77087">
        <ele>169</ele>
        <time>2018-05-20T08:02:02Z</time>
      </trkpt>
      <trkpt lat="45.93476" lon="4.77093">
        <ele>169</ele>
        <time>2018-05-20T08:02:03Z</time>
      </trkpt>
      <trkpt lat="45.93477" lon="4.77101">
        <ele>169</ele>
        <time>2018-05-20T08:02:04Z</time>
      </trkpt>
      <trkpt lat="45.93478" lon="4.77108">
        <ele>169</ele>
        <time>2018-05-20T08:02:05Z</time>
      </trkpt>
      <trkpt lat="45.9348" lon="4.77115">
        <ele>169</ele>
        <time>2018-05-20T08:02:06Z</time>
      </trkpt>
      <trkpt lat="45.93481" lon="4.77123">
        <ele>169</ele>
        <time>2018-05-20T08:02:07Z</time>
      </trkpt>
      <trkpt lat="45.93482" lon="4.7713">
        <ele>169</ele>
        <time>2018-05-20T08:02:08Z</time>
      </trkpt>
      <trkpt lat="45.93483" lon="4.77138">
        <ele>169</ele>
        <time>2018-05-20T08:02:09Z</time>
      </trkpt>
      <trkpt lat="45.93483" lon="4.77147">
        <ele>169</ele>
        <time>2018-05-20T08:02:10Z</time>
      </trkpt>
      <trkpt lat="45.93485" lon="4.77155">
        <ele>169</ele>
        <time>2018-05-20T08:02:11Z</time>
      </trkpt>
      <trkpt lat="45.93487" lon="4.77162">
        <ele>169</ele>
        <time>2018-05-20T08:02:12Z</time>
      </trkpt>
      <trkpt lat="45.93488" lon="4.77169">
        <ele>169</ele>
        <time>2018-05-20T08:02:13Z</time>
      </trkpt>
      <trkpt lat="45.9349" lon="4.77177">
        <ele>169</ele>
        <time>2018-05-20T08:02:14Z</time>
      </trkpt>
      <trkpt lat="45.93492" lon="4.77185">
        <ele>169</ele>
        <time>2018-05-20T08:02:15Z</time>
      </trkpt>
      <trkpt lat="45.93493" lon="4.77194">
        <ele>169</ele>
        <time>2018-05-20T08:02:16Z</time>
      </trkpt>
      <trkpt lat="45.93495" lon="4.77203">
        <ele>169</ele>
        <time>2018-05-20T08:02:17Z</time>
      </trkpt>
      <trkpt lat="45.93496" lon="4.77211">
        <ele>169</ele>
        <time>2018-05-20T08:02:18Z</time>
      </trkpt>
      <trkpt lat="45.93497" lon="4.77218">
        <ele>169</ele>
        <time>2018-05-20T08:02:19Z</time>
      </trkpt>
      <trkpt lat="45.93499" lon="4.77226">
        <ele>170</ele>
        <time>2018-05-20T08:02:20Z</time>
      </trkpt>
      <trkpt lat="45.93501" lon="4.77233">
        <ele>169</ele>
        <time>2018-05-20T08:02:21Z</time>
      </trkpt>
      <trkpt lat="45.93503" lon="4.7724">
        <ele>169</ele>
        <time>2018-05-20T08:02:22Z</time>
      </trkpt>
      <trkpt lat="45.93504" lon="4.77247">
        <ele>170</ele>
        <time>2018-05-20T08:02:23Z</time>
      </trkpt>
      <trkpt lat="45.93506" lon="4.77255">
        <ele>170</ele>
        <time>2018-05-20T08:02:24Z</time>
      </trkpt>
      <trkpt lat="45.93509" lon="4.77261">
        <ele>170</ele>
        <time>2018-05-20T08:02:25Z</time>
      </trkpt>
      <trkpt lat="45.93511" lon="4.77269">
        <ele>170</ele>
        <time>2018-05-20T08:02:26Z</time>
      </trkpt>
      <trkpt lat="45.93514" lon="4.77278">
        <ele>170</ele>
        <time>2018-05-20T08:02:27Z</time>
      </trkpt>
      <trkpt lat="45.93516" lon="4.77285">
        <ele>170</ele>
        <time>2018-05-20T08:02:28Z</time>
      </trkpt>
      <trkpt lat="45.93517" lon="4.77292">
        <ele>170</ele>
        <time>2018-05-20T08:02:29Z</time>
      </trkpt>
      <trkpt lat="45.93519" lon="4.773">
        <ele>170</ele>
        <time>2018-05-20T08:02:30Z</time>
      </trkpt>
      <trkpt lat="45.93521" lon="4.77307">
        <ele>170</ele>
        <time>2018-05-20T08:02:31Z</time>
      </trkpt>
      <trkpt lat="45.93523" lon="4.77315">
        <ele>170</ele>
        <time>2018-05-20T08:02:32Z</time>
      </trkpt>
      <trkpt lat="45.93524" lon="4.77322">
        <ele>170</ele>
        <time>2018-05-20T08:02:33Z</time>
      </trkpt>
      <trkpt lat="45.93526" lon="4.77328">
        <ele>170</ele>
        <time>2018-05-20T08:02:34Z</time>
      </trkpt>
      <trkpt lat="45.93527" lon="4.77336">
        <ele>170</ele>
        <time>2018-05-20T08:02:35Z</time>
      </trkpt>
      <trkpt lat="45.93529" lon="4.77344">
        <ele>170</ele>
        <time>2018-05-20T08:02:36Z</time>
      </trkpt>
      <trkpt lat="45.93531" lon="4.77351">
        <ele>170</ele>
        <time>2018-05-20T08:02:37Z</time>
      </trkpt>
      <trkpt lat="45.93535" lon="4.77358">
        <ele>170</ele>
        <time>2018-05-20T08:02:38Z</time>
      </trkpt>
      <trkpt lat="45.93537" lon="4.77365">
        <ele>170</ele>
        <time>2018-05-20T08:02:39Z</time>
      </trkpt>
      <trkpt lat="45.93538" lon="4.77373">
        <ele>170</ele>
        <time>2018-05-20T08:02:40Z</time>
      </trkpt>
      <trkpt lat="45.9354" lon="4.77381">
        <ele>170</ele>
        <time>2018-05-20T08:02:41Z</time>
      </trkpt>
      <trkpt lat="45.93542" lon="4.77389">
        <ele>170</ele>
        <time>2018-05-20T08:02:42Z</time>
      </trkpt>
      <trkpt lat="45.93543" lon="4.77397">
        <ele>170</ele>
        <time>2018-05-20T08:02:43Z</time>
      </trkpt>
      <trkpt lat="45.93545" lon="4.77404">
        <ele>170</ele>
        <time>2018-05-20T08:02:44Z</time>
      </trkpt>
      <trkpt lat="45.93546" lon="4.77413">
        <ele>170</ele>
        <time>2018-05-20T08:02:45Z</time>
      </trkpt>
      <trkpt lat="45.93548" lon="4.77421">
        <ele>170</ele>
        <time>2018-05-20T08:02:46Z</time>
      </trkpt>
      <trkpt lat="45.93549" lon="4.7743">
        <ele>169</ele>
        <time>2018-05-20T08:02:47Z</time>
      </trkpt>
      <trkpt lat="45.93551" lon="4.77437">
        <ele>169</ele>
        <time>2018-05-20T08:02:48Z</time>
      </trkpt>
      <trkpt lat="45.93553" lon="4.77445">
        <ele>169</ele>
        <time>2018-05-20T08:02:49Z</time>
      </trkpt>
      <trkpt lat="45.93555" lon="4.77452">
        <ele>169</ele>
        <time>2018-05-20T08:02:50Z</time>
      </trkpt>
      <trkpt lat="45.93556" lon="4.77459">
        <ele>169</ele>
        <time>2018-05-20T08:02:51Z</time>
      </trkpt>
      <trkpt lat="45.93558" lon="4.77467">
        <ele>169</ele>
        <time>2018-05-20T08:02:52Z</time>
      </trkpt>
      <trkpt lat="45.9356" lon="4.77475">
        <ele>169</ele>
        <time>2018-05-20T08:02:53Z</time>
      </trkpt>
      <trkpt lat="45.93562" lon="4.77482">
        <ele>169</ele>
        <time>2018-05-20T08:02:54Z</time>
      </trkpt>
      <trkpt lat="45.93563" lon="4.77489">
        <ele>169</ele>
        <time>2018-05-20T08:02:55Z</time>
      </trkpt>
      <trkpt lat="45.93565" lon="4.77496">
        <ele>169</ele>
        <time>2018-05-20T08:02:56Z</time>
      </trkpt>
      <trkpt lat="45.93567" lon="4.77504">
        <ele>169</ele>
        <time>2018-05-20T08:02:57Z</time>
      </trkpt>
      <trkpt lat="45.93569" lon="4.77512">
        <ele>169</ele>
        <time>2018-05-20T08:02:58Z</time>
      </trkpt>
      <trkpt lat="45.93571" lon="4.77518">
        <ele>169</ele>
        <time>2018-05-20T08:02:59Z</time>
      </trkpt>
      <trkpt lat="45.93573" lon="4.77526">
        <ele>169</ele>
        <time>2018-05-20T08:03:00Z</time>
      </trkpt>
      <trkpt lat="45.93575" lon="4.77532">
        <ele>169</ele>
        <time>2018-05-20T08:03:01Z</time>
      </trkpt>
      <trkpt lat="45.93576" lon="4.7754">
        <ele>169</ele>
        <time>2018-05-20T08:03:02Z</time>
      </trkpt>
      <trkpt lat="45.93578" lon="4.77548">
        <ele>169</ele>
        <time>2018-05-20T08:03:03Z</time>
      </trkpt>
      <trkpt lat="45.9358" lon="4.77557">
        <ele>169</ele>
        <time>2018-05-20T08:03:04Z</time>
      </trkpt>
      <trkpt lat="45.93581" lon="4.77565">
        <ele>169</ele>
        <time>2018-05-20T08:03:05Z</time>
      </trkpt>
      <trkpt lat="45.93581" lon="4.77574">
        <ele>170</ele>
        <time>2018-05-20T08:03:06Z</time>
      </trkpt>
      <trkpt lat="45.93583" lon="4.77581">
        <ele>170</ele>
        <time>2018-05-20T08:03:07Z</time>
      </trkpt>
      <trkpt lat="45.93587" lon="4.77589">
        <ele>170</ele>
        <time>2018-05-20T08:03:08Z</time>
      </trkpt>
      <trkpt lat="45.93589" lon="4.77595">
        <ele>170</ele>
        <time>2018-05-20T08:03:09Z</time>
      </trkpt>
      <trkpt lat="45.93591" lon="4.77603">
        <ele>170</ele>
        <time>2018-05-20T08:03:10Z</time>
      </trkpt>
      <trkpt lat="45.93594" lon="4.7761">
        <ele>170</ele>
        <time>2018-05-20T08:03:11Z</time>
      </trkpt>
      <trkpt lat="45.93596" lon="4.77618">
        <ele>170</ele>
        <time>2018-05-20T08:03:12Z</time>
      </trkpt>
      <trkpt lat="45.93599" lon="4.77626">
        <ele>169</ele>
        <time>2018-05-20T08:03:13Z</time>
      </trkpt>
      <trkpt lat="45.93601" lon="4.77634">
        <ele>169</ele>
        <time>2018-05-20T08:03:14Z</time>
      </trkpt>
      <trkpt lat="45.93605" lon="4.77641">
        <ele>169</ele>
        <time>2018-05-20T08:03:15Z</time>
      </trkpt>
      <trkpt lat="45.93608" lon="4.77649">
        <ele>169</ele>
        <time>2018-05-20T08:03:16Z</time>
      </trkpt>
      <trkpt lat="45.93611" lon="4.77656">
        <ele>169</ele>
        <time>2018-05-20T08:03:17Z</time>
      </trkpt>
      <trkpt lat="45.93614" lon="4.77664">
        <ele>169</ele>
        <time>2018-05-20T08:03:18Z</time>
      </trkpt>
      <trkpt lat="45.93617" lon="4.77671">
        <ele>169</ele>
        <time>2018-05-20T08:03:19Z</time>
      </trkpt>
      <trkpt lat="45.9362" lon="4.77678">
        <ele>169</ele>
        <time>2018-05-20T08:03:20Z</time>
      </trkpt>
      <trkpt lat="45.93624" lon="4.77685">
        <ele>169</ele>
        <time>2018-05-20T08:03:21Z</time>
      </trkpt>
      <trkpt lat="45.93626" lon="4.77691">
        <ele>169</ele>
        <time>2018-05-20T08:03:22Z</time>
      </trkpt>
      <trkpt lat="45.93629" lon="4.77698">
        <ele>169</ele>
        <time>2018-05-20T08:03:23Z</time>
      </trkpt>
      <trkpt lat="45.93632" lon="4.77704">
        <ele>170</ele>
        <time>2018-05-20T08:03:24Z</time>
      </trkpt>
      <trkpt lat="45.93635" lon="4.77709">
        <ele>170</ele>
        <time>2018-05-20T08:03:25Z</time>
      </trkpt>
      <trkpt lat="45.93639" lon="4.77713">
        <ele>170</ele>
        <time>2018-05-20T08:03:26Z</time>
      </trkpt>
      <trkpt lat="45.93641" lon="4.77719">
        <ele>170</ele>
        <time>2018-05-20T08:03:27Z</time>
      </trkpt>
      <trkpt lat="45.93645" lon="4.77725">
        <ele>170</ele>
        <time>2018-05-20T08:03:28Z</time>
      </trkpt>
      <trkpt lat="45.93648" lon="4.77731">
        <ele>170</ele>
        <time>2018-05-20T08:03:29Z</time>
      </trkpt>
      <trkpt lat="45.93652" lon="4.77736">
        <ele>170</ele>
        <time>2018-05-20T08:03:30Z</time>
      </trkpt>
      <trkpt lat="45.93655" lon="4.77742">
        <ele>170</ele>
        <time>2018-05-20T08:03:31Z</time>
      </trkpt>
      <trkpt lat="45.93659" lon="4.77746">
        <ele>171</ele>
        <time>2018-05-20T08:03:32Z</time>
      </trkpt>
      <trkpt lat="45.93662" lon="4.7775">
        <ele>171</ele>
        <time>2018-05-20T08:03:33Z</time>
      </trkpt>
      <trkpt lat="45.93666" lon="4.77756">
        <ele>171</ele>
        <time>2018-05-20T08:03:34Z</time>
      </trkpt>
      <trkpt lat="45.9367" lon="4.7776">
        <ele>170</ele>
        <time>2018-05-20T08:03:35Z</time>
      </trkpt>
      <trkpt lat="45.93673" lon="4.77765">
        <ele>170</ele>
        <time>2018-05-20T08:03:36Z</time>
      </trkpt>
      <trkpt lat="45.93678" lon="4.77769">
        <ele>170</ele>
        <time>2018-05-20T08:03:37Z</time>
      </trkpt>
      <trkpt lat="45.93681" lon="4.77774">
        <ele>170</ele>
        <time>2018-05-20T08:03:38Z</time>
      </trkpt>
      <trkpt lat="45.93685" lon="4.7778">
        <ele>170</ele>
        <time>2018-05-20T08:03:39Z</time>
      </trkpt>
      <trkpt lat="45.93689" lon="4.77784">
        <ele>170</ele>
        <time>2018-05-20T08:03:40Z</time>
      </trkpt>
      <trkpt lat="45.93692" lon="4.77789">
        <ele>170</ele>
        <time>2018-05-20T08:03:41Z</time>
      </trkpt>
      <trkpt lat="45.93696" lon="4.77795">
        <ele>169</ele>
        <time>2018-05-20T08:03:42Z</time>
      </trkpt>
      <trkpt lat="45.937" lon="4.778">
        <ele>169</ele>
        <time>2018-05-20T08:03:43Z</time>
      </trkpt>
      <trkpt lat="45.93704" lon="4.77805">
        <ele>169</ele>
        <time>2018-05-20T08:03:44Z</time>
      </trkpt>
      <trkpt lat="45.93707" lon="4.77811">
        <ele>169</ele>
        <time>2018-05-20T08:03:45Z</time>
      </trkpt>
      <trkpt lat="45.93712" lon="4.77815">
        <ele>169</ele>
        <time>2018-05-20T08:03:46Z</time>
      </trkpt>
      <trkpt lat="45.93717" lon="4.77821">
        <ele>169</ele>
        <time>2018-05-20T08:03:47Z</time>
      </trkpt>
      <trkpt lat="45.9372" lon="4.77826">
        <ele>168</ele>
        <time>2018-05-20T08:03:48Z</time>
      </trkpt>
      <trkpt lat="45.93725" lon="4.77831">
        <ele>168</ele>
        <time>2018-05-20T08:03:49Z</time>
      </trkpt>
      <trkpt lat="45.93728" lon="4.77836">
        <ele>167</ele>
        <time>2018-05-20T08:03:50Z</time>
      </trkpt>
      <trkpt lat="45.93732" lon="4.77841">
        <ele>167</ele>
        <time>2018-05-20T08:03:51Z</time>
      </trkpt>
      <trkpt lat="45.93735" lon="4.77846">
        <ele>167</ele>
        <time>2018-05-20T08:03:52Z</time>
      </trkpt>
      <trkpt lat="45.9374" lon="4.77851">
        <ele>167</ele>
        <time>2018-05-20T08:03:53Z</time>
      </trkpt>
      <trkpt lat="45.93743" lon="4.77856">
        <ele>167</ele>
        <time>2018-05-20T08:03:54Z</time>
      </trkpt>
      <trkpt lat="45.93746" lon="4.77861">
        <ele>167</ele>
        <time>2018-05-20T08:03:55Z</time>
      </trkpt>
      <trkpt lat="45.9375" lon="4.77866">
        <ele>166</ele>
        <time>2018-05-20T08:03:56Z</time>
      </trkpt>
      <trkpt lat="45.93753" lon="4.77872">
        <ele>166</ele>
        <time>2018-05-20T08:03:57Z</time>
      </trkpt>
      <trkpt lat="45.93757" lon="4.77877">
        <ele>166</ele>
        <time>2018-05-20T08:03:58Z</time>
      </trkpt>
      <trkpt lat="45.93761" lon="4.77883">
        <ele>166</ele>
        <time>2018-05-20T08:03:59Z</time>
      </trkpt>
      <trkpt lat="45.93764" lon="4.77888">
        <ele>166</ele>
        <time>2018-05-20T08:04:00Z</time>
      </trkpt>
      <trkpt lat="45.93768" lon="4.77892">
        <ele>166</ele>
        <time>2018-05-20T08:04:01Z</time>
      </trkpt>
      <trkpt lat="45.93771" lon="4.77897">
        <ele>166</ele>
        <time>2018-05-20T08:04:02Z</time>
      </trkpt>
      <trkpt lat="45.93775" lon="4.77903">
        <ele>166</ele>
        <time>2018-05-20T08:04:03Z</time>
      </trkpt>
      <trkpt lat="45.93779" lon="4.77907">
        <ele>166</ele>
        <time>2018-05-20T08:04:04Z</time>
      </trkpt>
      <trkpt lat="45.93783" lon="4.77913">
        <ele>166</ele>
        <time>2018-05-20T08:04:05Z</time>
      </trkpt>
      <trkpt lat="45.93788" lon="4.77918">
        <ele>168</ele>
        <time>2018-05-20T08:04:06Z</time>
      </trkpt>
      <trkpt lat="45.93792" lon="4.77923">
        <ele>168</ele>
        <time>2018-05-20T08:04:07Z</time>
      </trkpt>
      <trkpt lat="45.93797" lon="4.77929">
        <ele>168</ele>
        <time>2018-05-20T08:04:08Z</time>
      </trkpt>
      <trkpt lat="45.93801" lon="4.77935">
        <ele>169</ele>
        <time>2018-05-20T08:04:09Z</time>
      </trkpt>
      <trkpt lat="45.93806" lon="4.77941">
        <ele>169</ele>
        <time>2018-05-20T08:04:10Z</time>
      </trkpt>
      <trkpt lat="45.9381" lon="4.77946">
        <ele>169</ele>
        <time>2018-05-20T08:04:11Z</time>
      </trkpt>
      <trkpt lat="45.93815" lon="4.77952">
        <ele>170</ele>
        <time>2018-05-20T08:04:12Z</time>
      </trkpt>
      <trkpt lat="45.93819" lon="4.77958">
        <ele>170</ele>
        <time>2018-05-20T08:04:13Z</time>
      </trkpt>
      <trkpt lat="45.93824" lon="4.77962">
        <ele>171</ele>
        <time>2018-05-20T08:04:14Z</time>
      </trkpt>
      <trkpt lat="45.93828" lon="4.77968">
        <ele>171</ele>
        <time>2018-05-20T08:04:15Z</time>
      </trkpt>
      <trkpt lat="45.93834" lon="4.77971">
        <ele>178</ele>
        <time>2018-05-20T08:04:16Z</time>
      </trkpt>
      <trkpt lat="45.93839" lon="4.77979">
        <ele>178</ele>
        <time>2018-05-20T08:04:20Z</time>
      </trkpt>
      <trkpt lat="45.9384" lon="4.77983">
        <ele>178</ele>
        <time>2018-05-20T08:04:21Z</time>
      </trkpt>
      <trkpt lat="45.93842" lon="4.7799">
        <ele>179</ele>
        <time>2018-05-20T08:04:23Z</time>
      </trkpt>
      <trkpt lat="45.93844" lon="4.78002">
        <ele>181</ele>
        <time>2018-05-20T08:04:24Z</time>
      </trkpt>
      <trkpt lat="45.93843" lon="4.78012">
        <ele>181</ele>
        <time>2018-05-20T08:04:26Z</time>
      </trkpt>
      <trkpt lat="45.93843" lon="4.78018">
        <ele>181</ele>
        <time>2018-05-20T08:04:27Z</time>
      </trkpt>
      <trkpt lat="45.93844" lon="4.7803">
        <ele>182</ele>
        <time>2018-05-20T08:04:29Z</time>
      </trkpt>
      <trkpt lat="45.93846" lon="4.78035">
        <ele>182</ele>
        <time>2018-05-20T08:04:30Z</time>
      </trkpt>
      <trkpt lat="45.9385" lon="4.78046">
        <ele>183</ele>
        <time>2018-05-20T08:04:32Z</time>
      </trkpt>
      <trkpt lat="45.9385" lon="4.78051">
        <ele>183</ele>
        <time>2018-05-20T08:04:33Z</time>
      </trkpt>
      <trkpt lat="45.93845" lon="4.78061">
        <ele>182</ele>
        <time>2018-05-20T08:04:35Z</time>
      </trkpt>
      <trkpt lat="45.93844" lon="4.78063">
        <ele>182</ele>
        <time>2018-05-20T08:04:36Z</time>
      </trkpt>
      <trkpt lat="45.93842" lon="4.78071">
        <ele>182</ele>
        <time>2018-05-20T08:04:37Z</time>
      </trkpt>
      <trkpt lat="45.93841" lon="4.78077">
        <ele>181</ele>
        <time>2018-05-20T08:04:38Z</time>
      </trkpt>
      <trkpt lat="45.93838" lon="4.78089">
        <ele>182</ele>
        <time>2018-05-20T08:04:40Z</time>
      </trkpt>
      <trkpt lat="45.93836" lon="4.78096">
        <ele>182</ele>
        <time>2018-05-20T08:04:41Z</time>
      </trkpt>
      <trkpt lat="45.93836" lon="4.78103">
        <ele>183</ele>
        <time>2018-05-20T08:04:42Z</time>
      </trkpt>
      <trkpt lat="45.93835" lon="4.78109">
        <ele>184</ele>
        <time>2018-05-20T08:04:43Z</time>
      </trkpt>
      <trkpt lat="45.93835" lon="4.78116">
        <ele>184</ele>
        <time>2018-05-20T08:04:44Z</time>
      </trkpt>
      <trkpt lat="45.93833" lon="4.78122">
        <ele>180</ele>
        <time>2018-05-20T08:04:45Z</time>
      </trkpt>
      <trkpt lat="45.9383" lon="4.78128">
        <ele>180</ele>
        <time>2018-05-20T08:04:46Z</time>
      </trkpt>
      <trkpt lat="45.93827" lon="4.78134">
        <ele>180</ele>
        <time>2018-05-20T08:04:47Z</time>
      </trkpt>
      <trkpt lat="45.93825" lon="4.78141">
        <ele>180</ele>
        <time>2018-05-20T08:04:48Z</time>
      </trkpt>
      <trkpt lat="45.93822" lon="4.78148">
        <ele>180</ele>
        <time>2018-05-20T08:04:49Z</time>
      </trkpt>
      <trkpt lat="45.93823" lon="4.78156">
        <ele>181</ele>
        <time>2018-05-20T08:04:50Z</time>
      </trkpt>
      <trkpt lat="45.93821" lon="4.78164">
        <ele>181</ele>
        <time>2018-05-20T08:04:51Z</time>
      </trkpt>
      <trkpt lat="45.9382" lon="4.78172">
        <ele>182</ele>
        <time>2018-05-20T08:04:52Z</time>
      </trkpt>
      <trkpt lat="45.93817" lon="4.78178">
        <ele>182</ele>
        <time>2018-05-20T08:04:53Z</time>
      </trkpt>
      <trkpt lat="45.93815" lon="4.78185">
        <ele>182</ele>
        <time>2018-05-20T08:04:54Z</time>
      </trkpt>
      <trkpt lat="45.93813" lon="4.78193">
        <ele>182</ele>
        <time>2018-05-20T08:04:55Z</time>
      </trkpt>
      <trkpt lat="45.93812" lon="4.782">
        <ele>182</ele>
        <time>2018-05-20T08:04:56Z</time>
      </trkpt>
      <trkpt lat="45.9381" lon="4.78206">
        <ele>182</ele>
        <time>2018-05-20T08:04:57Z</time>
      </trkpt>
      <trkpt lat="45.93808" lon="4.78214">
        <ele>182</ele>
        <time>2018-05-20T08:04:58Z</time>
      </trkpt>
      <trkpt lat="45.93807" lon="4.78221">
        <ele>182</ele>
        <time>2018-05-20T08:04:59Z</time>
      </trkpt>
      <trkpt lat="45.93801" lon="4.78231">
        <ele>182</ele>
        <time>2018-05-20T08:05:01Z</time>
      </trkpt>
      <trkpt lat="45.93798" lon="4.78236">
        <ele>182</ele>
        <time>2018-05-20T08:05:02Z</time>
      </trkpt>
      <trkpt lat="45.93795" lon="4.78241">
        <ele>182</ele>
        <time>2018-05-20T08:05:03Z</time>
      </trkpt>
      <trkpt lat="45.93793" lon="4.78249">
        <ele>182</ele>
        <time>2018-05-20T08:05:04Z</time>
      </trkpt>
      <trkpt lat="45.93792" lon="4.78256">
        <ele>183</ele>
        <time>2018-05-20T08:05:05Z</time>
      </trkpt>
      <trkpt lat="45.93792" lon="4.78265">
        <ele>183</ele>
        <time>2018-05-20T08:05:06Z</time>
      </trkpt>
      <trkpt lat="45.9379" lon="4.78273">
        <ele>183</ele>
        <time>2018-05-20T08:05:07Z</time>
      </trkpt>
      <trkpt lat="45.93789" lon="4.78281">
        <ele>183</ele>
        <time>2018-05-20T08:05:08Z</time>
      </trkpt>
      <trkpt lat="45.93786" lon="4.78289">
        <ele>183</ele>
        <time>2018-05-20T08:05:09Z</time>
      </trkpt>
      <trkpt lat="45.93783" lon="4.78296">
        <ele>183</ele>
        <time>2018-05-20T08:05:10Z</time>
      </trkpt>
      <trkpt lat="45.9378" lon="4.78304">
        <ele>183</ele>
        <time>2018-05-20T08:05:11Z</time>
      </trkpt>
      <trkpt lat="45.93778" lon="4.78312">
        <ele>183</ele>
        <time>2018-05-20T08:05:12Z</time>
      </trkpt>
      <trkpt lat="45.93775" lon="4.78318">
        <ele>183</ele>
        <time>2018-05-20T08:05:13Z</time>
      </trkpt>
      <trkpt lat="45.93774" lon="4.78327">
        <ele>183</ele>
        <time>2018-05-20T08:05:14Z</time>
      </trkpt>
      <trkpt lat="45.93772" lon="4.78335">
        <ele>183</ele>
        <time>2018-05-20T08:05:15Z</time>
      </trkpt>
      <trkpt lat="45.9377" lon="4.78342">
        <ele>183</ele>
        <time>2018-05-20T08:05:16Z</time>
      </trkpt>
      <trkpt lat="45.93768" lon="4.78352">
        <ele>183</ele>
        <time>2018-05-20T08:05:17Z</time>
      </trkpt>
      <trkpt lat="45.93765" lon="4.7836">
        <ele>183</ele>
        <time>2018-05-20T08:05:18Z</time>
      </trkpt>
      <trkpt lat="45.93763" lon="4.78369">
        <ele>183</ele>
        <time>2018-05-20T08:05:19Z</time>
      </trkpt>
      <trkpt lat="45.93761" lon="4.78376">
        <ele>183</ele>
        <time>2018-05-20T08:05:20Z</time>
      </trkpt>
      <trkpt lat="45.93759" lon="4.78385">
        <ele>183</ele>
        <time>2018-05-20T08:05:21Z</time>
      </trkpt>
      <trkpt lat="45.93757" lon="4.78393">
        <ele>183</ele>
        <time>2018-05-20T08:05:22Z</time>
      </trkpt>
      <trkpt lat="45.93755" lon="4.784">
        <ele>183</ele>
        <time>2018-05-20T08:05:23Z</time>
      </trkpt>
      <trkpt lat="45.93753" lon="4.78407">
        <ele>182</ele>
        <time>2018-05-20T08:05:24Z</time>
      </trkpt>
      <trkpt lat="45.93751" lon="4.78414">
        <ele>181</ele>
        <time>2018-05-20T08:05:25Z</time>
      </trkpt>
      <trkpt lat="45.93748" lon="4.7842">
        <ele>181</ele>
        <time>2018-05-20T08:05:26Z</time>
      </trkpt>
      <trkpt lat="45.93746" lon="4.78429">
        <ele>180</ele>
        <time>2018-05-20T08:05:27Z</time>
      </trkpt>
      <trkpt lat="45.93744" lon="4.78438">
        <ele>180</ele>
        <time>2018-05-20T08:05:28Z</time>
      </trkpt>
      <trkpt lat="45.93743" lon="4.78446">
        <ele>180</ele>
        <time>2018-05-20T08:05:29Z</time>
      </trkpt>
      <trkpt lat="45.93741" lon="4.78455">
        <ele>180</ele>
        <time>2018-05-20T08:05:30Z</time>
      </trkpt>
      <trkpt lat="45.93741" lon="4.78465">
        <ele>180</ele>
        <time>2018-05-20T08:05:31Z</time>
      </trkpt>
      <trkpt lat="45.93738" lon="4.78474">
        <ele>180</ele>
        <time>2018-05-20T08:05:32Z</time>
      </trkpt>
      <trkpt lat="45.93735" lon="4.78483">
        <ele>180</ele>
        <time>2018-05-20T08:05:33Z</time>
      </trkpt>
      <trkpt lat="45.93732" lon="4.7849">
        <ele>180</ele>
        <time>2018-05-20T08:05:34Z</time>
      </trkpt>
      <trkpt lat="45.93732" lon="4.78497">
        <ele>180</ele>
        <time>2018-05-20T08:05:35Z</time>
      </trkpt>
      <trkpt lat="45.9373" lon="4.78507">
        <ele>179</ele>
        <time>2018-05-20T08:05:36Z</time>
      </trkpt>
      <trkpt lat="45.93728" lon="4.78518">
        <ele>179</ele>
        <time>2018-05-20T08:05:37Z</time>
      </trkpt>
      <trkpt lat="45.93726" lon="4.78526">
        <ele>179</ele>
        <time>2018-05-20T08:05:38Z</time>
      </trkpt>
      <trkpt lat="45.93723" lon="4.78536">
        <ele>178</ele>
        <time>2018-05-20T08:05:39Z</time>
      </trkpt>
      <trkpt lat="45.93721" lon="4.78544">
        <ele>178</ele>
        <time>2018-05-20T08:05:40Z</time>
      </trkpt>
      <trkpt lat="45.93719" lon="4.78554">
        <ele>178</ele>
        <time>2018-05-20T08:05:41Z</time>
      </trkpt>
      <trkpt lat="45.93716" lon="4.78563">
        <ele>178</ele>
        <time>2018-05-20T08:05:42Z</time>
      </trkpt>
      <trkpt lat="45.93714" lon="4.78574">
        <ele>178</ele>
        <time>2018-05-20T08:05:43Z</time>
      </trkpt>
      <trkpt lat="45.93711" lon="4.78583">
        <ele>176</ele>
        <time>2018-05-20T08:05:44Z</time>
      </trkpt>
      <trkpt lat="45.9371" lon="4.78594">
        <ele>176</ele>
        <time>2018-05-20T08:05:45Z</time>
      </trkpt>
      <trkpt lat="45.93708" lon="4.78603">
        <ele>176</ele>
        <time>2018-05-20T08:05:46Z</time>
      </trkpt>
      <trkpt lat="45.93705" lon="4.7861">
        <ele>176</ele>
        <time>2018-05-20T08:05:47Z</time>
      </trkpt>
      <trkpt lat="45.93703" lon="4.78617">
        <ele>176</ele>
        <time>2018-05-20T08:05:48Z</time>
      </trkpt>
      <trkpt lat="45.93702" lon="4.78624">
        <ele>176</ele>
        <time>2018-05-20T08:05:49Z</time>
      </trkpt>
      <trkpt lat="45.93703" lon="4.7863">
        <ele>176</ele>
        <time>2018-05-20T08:05:50Z</time>
      </trkpt>
      <trkpt lat="45.93705" lon="4.78635">
        <ele>176</ele>
        <time>2018-05-20T08:05:52Z</time>
      </trkpt>
      <trkpt lat="45.93711" lon="4.78637">
        <ele>176</ele>
        <time>2018-05-20T08:05:53Z</time>
      </trkpt>
      <trkpt lat="45.93719" lon="4.78632">
        <ele>176</ele>
        <time>2018-05-20T08:05:56Z</time>
      </trkpt>
      <trkpt lat="45.93725" lon="4.7863">
        <ele>177</ele>
        <time>2018-05-20T08:05:57Z</time>
      </trkpt>
      <trkpt lat="45.93733" lon="4.78629">
        <ele>177</ele>
        <time>2018-05-20T08:06:00Z</time>
      </trkpt>
      <trkpt lat="45.93736" lon="4.78628">
        <ele>177</ele>
        <time>2018-05-20T08:06:01Z</time>
      </trkpt>
      <trkpt lat="45.93744" lon="4.78625">
        <ele>177</ele>
        <time>2018-05-20T08:06:04Z</time>
      </trkpt>
      <trkpt lat="45.93747" lon="4.78624">
        <ele>177</ele>
        <time>2018-05-20T08:06:05Z</time>
      </trkpt>
      <trkpt lat="45.93753" lon="4.78623">
        <ele>181</ele>
        <time>2018-05-20T08:06:07Z</time>
      </trkpt>
      <trkpt lat="45.93757" lon="4.78622">
        <ele>181</ele>
        <time>2018-05-20T08:06:08Z</time>
      </trkpt>
      <trkpt lat="45.93763" lon="4.7862">
        <ele>181</ele>
        <time>2018-05-20T08:06:10Z</time>
      </trkpt>
      <trkpt lat="45.93766" lon="4.78619">
        <ele>181</ele>
        <time>2018-05-20T08:06:11Z</time>
      </trkpt>
      <trkpt lat="45.93775" lon="4.78617">
        <ele>181</ele>
        <time>2018-05-20T08:06:14Z</time>
      </trkpt>
      <trkpt lat="45.93778" lon="4.78617">
        <ele>181</ele>
        <time>2018-05-20T08:06:15Z</time>
      </trkpt>
      <trkpt lat="45.93784" lon="4.78615">
        <ele>182</ele>
        <time>2018-05-20T08:06:17Z</time>
      </trkpt>
      <trkpt lat="45.93787" lon="4.78614">
        <ele>182</ele>
        <time>2018-05-20T08:06:18Z</time>
      </trkpt>
      <trkpt lat="45.93793" lon="4.78613">
        <ele>182</ele>
        <time>2018-05-20T08:06:20Z</time>
      </trkpt>
      <trkpt lat="45.93796" lon="4.78612">
        <ele>182</ele>
        <time>2018-05-20T08:06:21Z</time>
      </trkpt>
      <trkpt lat="45.93802" lon="4.78611">
        <ele>182</ele>
        <time>2018-05-20T08:06:23Z</time>
      </trkpt>
      <trkpt lat="45.93805" lon="4.7861">
        <ele>183</ele>
        <time>2018-05-20T08:06:24Z</time>
      </trkpt>
      <trkpt lat="45.93813" lon="4.78609">
        <ele>183</ele>
        <time>2018-05-20T08:06:27Z</time>
      </trkpt>
      <trkpt lat="45.93816" lon="4.78609">
        <ele>183</ele>
        <time>2018-05-20T08:06:28Z</time>
      </trkpt>
      <trkpt lat="45.93825" lon="4.78607">
        <ele>184</ele>
        <time>2018-05-20T08:06:31Z</time>
      </trkpt>
      <trkpt lat="45.93828" lon="4.78606">
        <ele>184</ele>
        <time>2018-05-20T08:06:32Z</time>
      </trkpt>
      <trkpt lat="45.93836" lon="4.78604">
        <ele>187</ele>
        <time>2018-05-20T08:06:35Z</time>
      </trkpt>
      <trkpt lat="45.93839" lon="4.78603">
        <ele>187</ele>
        <time>2018-05-20T08:06:36Z</time>
      </trkpt>
      <trkpt lat="45.93846" lon="4.78601">
        <ele>188</ele>
        <time>2018-05-20T08:06:39Z</time>
      </trkpt>
      <trkpt lat="45.93848" lon="4.786">
        <ele>188</ele>
        <time>2018-05-20T08:06:40Z</time>
      </trkpt>
      <trkpt lat="45.93856" lon="4.78597">
        <ele>188</ele>
        <time>2018-05-20T08:06:44Z</time>
      </trkpt>
      <trkpt lat="45.93858" lon="4.78597">
        <ele>188</ele>
        <time>2018-05-20T08:06:45Z</time>
      </trkpt>
      <trkpt lat="45.93866" lon="4.78595">
        <ele>188</ele>
        <time>2018-05-20T08:06:49Z</time>
      </trkpt>
      <trkpt lat="45.93868" lon="4.78594">
        <ele>188</ele>
        <time>2018-05-20T08:06:50Z</time>
      </trkpt>
      <trkpt lat="45.93876" lon="4.78588">
        <ele>189</ele>
        <time>2018-05-20T08:07:26Z</time>
      </trkpt>
      <trkpt lat="45.93877" lon="4.78588">
        <ele>189</ele>
        <time>2018-05-20T08:07:27Z</time>
      </trkpt>
      <trkpt lat="45.93885" lon="4.78587">
        <ele>189</ele>
        <time>2018-05-20T08:07:33Z</time>
      </trkpt>
      <trkpt lat="45.93887" lon="4.78587">
        <ele>190</ele>
        <time>2018-05-20T08:07:34Z</time>
      </trkpt>
      <trkpt lat="45.93895" lon="4.78587">
        <ele>190</ele>
        <time>2018-05-20T08:07:38Z</time>
      </trkpt>
      <trkpt lat="45.93897" lon="4.78587">
        <ele>190</ele>
        <time>2018-05-20T08:07:39Z</time>
      </trkpt>
      <trkpt lat="45.93905" lon="4.78585">
        <ele>191</ele>
        <time>2018-05-20T08:07:44Z</time>
      </trkpt>
      <trkpt lat="45.93907" lon="4.78584">
        <ele>191</ele>
        <time>2018-05-20T08:07:45Z</time>
      </trkpt>
      <trkpt lat="45.93914" lon="4.78581">
        <ele>193</ele>
        <time>2018-05-20T08:07:50Z</time>
      </trkpt>
      <trkpt lat="45.93916" lon="4.7858">
        <ele>193</ele>
        <time>2018-05-20T08:07:51Z</time>
      </trkpt>
      <trkpt lat="45.93922" lon="4.78573">
        <ele>195</ele>
        <time>2018-05-20T08:07:55Z</time>
      </trkpt>
      <trkpt lat="45.93924" lon="4.78572">
        <ele>195</ele>
        <time>2018-05-20T08:07:56Z</time>
      </trkpt>
      <trkpt lat="45.93932" lon="4.78576">
        <ele>196</ele>
        <time>2018-05-20T08:08:01Z</time>
      </trkpt>
      <trkpt lat="45.93933" lon="4.78579">
        <ele>196</ele>
        <time>2018-05-20T08:08:02Z</time>
      </trkpt>
      <trkpt lat="45.93934" lon="4.7859">
        <ele>195</ele>
        <time>2018-05-20T08:08:05Z</time>
      </trkpt>
      <trkpt lat="45.93934" lon="4.78594">
        <ele>195</ele>
        <time>2018-05-20T08:08:06Z</time>
      </trkpt>
      <trkpt lat="45.93934" lon="4.78605">
        <ele>195</ele>
        <time>2018-05-20T08:08:09Z</time>
      </trkpt>
      <trkpt lat="45.93934" lon="4.78619">
        <ele>195</ele>
        <time>2018-05-20T08:08:10Z</time>
      </trkpt>
      <trkpt lat="45.93935" lon="4.78631">
        <ele>195</ele>
        <time>2018-05-20T08:08:12Z</time>
      </trkpt>
      <trkpt lat="45.93935" lon="4.78637">
        <ele>195</ele>
        <time>2018-05-20T08:08:13Z</time>
      </trkpt>
      <trkpt lat="45.93935" lon="4.78649">
        <ele>194</ele>
        <time>2018-05-20T08:08:15Z</time>
      </trkpt>
      <trkpt lat="45.93935" lon="4.78654">
        <ele>194</ele>
        <time>2018-05-20T08:08:16Z</time>
      </trkpt>
      <trkpt lat="45.93935" lon="4.78666">
        <ele>194</ele>
        <time>2018-05-20T08:08:18Z</time>
      </trkpt>
      <trkpt lat="45.93936" lon="4.78671">
        <ele>193</ele>
        <time>2018-05-20T08:08:19Z</time>
      </trkpt>
      <trkpt lat="45.93937" lon="4.78682">
        <ele>193</ele>
        <time>2018-05-20T08:08:21Z</time>
      </trkpt>
      <trkpt lat="45.93938" lon="4.78689">
        <ele>194</ele>
        <time>2018-05-20T08:08:22Z</time>
      </trkpt>
      <trkpt lat="45.93938" lon="4.78701">
        <ele>194</ele>
        <time>2018-05-20T08:08:24Z</time>
      </trkpt>
      <trkpt lat="45.93937" lon="4.78708">
        <ele>194</ele>
        <time>2018-05-20T08:08:25Z</time>
      </trkpt>
      <trkpt lat="45.93938" lon="4.78715">
        <ele>194</ele>
        <time>2018-05-20T08:08:26Z</time>
      </trkpt>
      <trkpt lat="45.93938" lon="4.78721">
        <ele>194</ele>
        <time>2018-05-20T08:08:27Z</time>
      </trkpt>
      <trkpt lat="45.93936" lon="4.78729">
        <ele>194</ele>
        <time>2018-05-20T08:08:28Z</time>
      </trkpt>
      <trkpt lat="45.93936" lon="4.78735">
        <ele>193</ele>
        <time>2018-05-20T08:08:29Z</time>
      </trkpt>
      <trkpt lat="45.93933" lon="4.78747">
        <ele>193</ele>
        <time>2018-05-20T08:08:31Z</time>
      </trkpt>
      <trkpt lat="45.93933" lon="4.78752">
        <ele>193</ele>
        <time>2018-05-20T08:08:32Z</time>
      </trkpt>
      <trkpt lat="45.93932" lon="4.78758">
        <ele>193</ele>
        <time>2018-05-20T08:08:33Z</time>
      </trkpt>
      <trkpt lat="45.93933" lon="4.78766">
        <ele>193</ele>
        <time>2018-05-20T08:08:34Z</time>
      </trkpt>
      <trkpt lat="45.93932" lon="4.78778">
        <ele>193</ele>
        <time>2018-05-20T08:08:36Z</time>
      </trkpt>
      <trkpt lat="45.93934" lon="4.78785">
        <ele>194</ele>
        <time>2018-05-20T08:08:37Z</time>
      </trkpt>
      <trkpt lat="45.93935" lon="4.78796">
        <ele>194</ele>
        <time>2018-05-20T08:08:38Z</time>
      </trkpt>
      <trkpt lat="45.93934" lon="4.788">
        <ele>194</ele>
        <time>2018-05-20T08:08:39Z</time>
      </trkpt>
      <trkpt lat="45.93937" lon="4.78808">
        <ele>194</ele>
        <time>2018-05-20T08:08:40Z</time>
      </trkpt>
      <trkpt lat="45.93938" lon="4.78815">
        <ele>194</ele>
        <time>2018-05-20T08:08:41Z</time>
      </trkpt>
      <trkpt lat="45.9394" lon="4.78827">
        <ele>194</ele>
        <time>2018-05-20T08:08:43Z</time>
      </trkpt>
      <trkpt lat="45.9394" lon="4.78834">
        <ele>193</ele>
        <time>2018-05-20T08:08:44Z</time>
      </trkpt>
      <trkpt lat="45.93941" lon="4.78841">
        <ele>193</ele>
        <time>2018-05-20T08:08:45Z</time>
      </trkpt>
      <trkpt lat="45.9394" lon="4.78848">
        <ele>194</ele>
        <time>2018-05-20T08:08:46Z</time>
      </trkpt>
      <trkpt lat="45.93939" lon="4.78855">
        <ele>194</ele>
        <time>2018-05-20T08:08:47Z</time>
      </trkpt>
      <trkpt lat="45.93939" lon="4.78861">
        <ele>194</ele>
        <time>2018-05-20T08:08:48Z</time>
      </trkpt>
      <trkpt lat="45.93938" lon="4.78868">
        <ele>194</ele>
        <time>2018-05-20T08:08:49Z</time>
      </trkpt>
      <trkpt lat="45.93939" lon="4.78875">
        <ele>194</ele>
        <time>2018-05-20T08:08:50Z</time>
      </trkpt>
      <trkpt lat="45.93939" lon="4.78882">
        <ele>194</ele>
        <time>2018-05-20T08:08:51Z</time>
      </trkpt>
      <trkpt lat="45.93939" lon="4.78889">
        <ele>193</ele>
        <time>2018-05-20T08:08:52Z</time>
      </trkpt>
      <trkpt lat="45.93938" lon="4.78901">
        <ele>193</ele>
        <time>2018-05-20T08:08:54Z</time>
      </trkpt>
      <trkpt lat="45.9394" lon="4.78907">
        <ele>193</ele>
        <time>2018-05-20T08:08:55Z</time>
      </trkpt>
      <trkpt lat="45.93941" lon="4.78914">
        <ele>193</ele>
        <time>2018-05-20T08:08:56Z</time>
      </trkpt>
      <trkpt lat="45.93941" lon="4.7892">
        <ele>193</ele>
        <time>2018-05-20T08:08:57Z</time>
      </trkpt>
      <trkpt lat="45.93941" lon="4.78926">
        <ele>193</ele>
        <time>2018-05-20T08:08:58Z</time>
      </trkpt>
      <trkpt lat="45.93939" lon="4.78934">
        <ele>193</ele>
        <time>2018-05-20T08:08:59Z</time>
      </trkpt>
      <trkpt lat="45.93939" lon="4.78941">
        <ele>193</ele>
        <time>2018-05-20T08:09:00Z</time>
      </trkpt>
      <trkpt lat="45.93939" lon="4.78947">
        <ele>194</ele>
        <time>2018-05-20T08:09:01Z</time>
      </trkpt>
      <trkpt lat="45.93939" lon="4.78956">
        <ele>194</ele>
        <time>2018-05-20T08:09:03Z</time>
      </trkpt>
      <trkpt lat="45.9394" lon="4.78965">
        <ele>194</ele>
        <time>2018-05-20T08:09:04Z</time>
      </trkpt>
      <trkpt lat="45.9394" lon="4.78972">
        <ele>194</ele>
        <time>2018-05-20T08:09:05Z</time>
      </trkpt>
      <trkpt lat="45.9394" lon="4.78978">
        <ele>194</ele>
        <time>2018-05-20T08:09:06Z</time>
      </trkpt>
      <trkpt lat="45.93942" lon="4.78986">
        <ele>194</ele>
        <time>2018-05-20T08:09:07Z</time>
      </trkpt>
      <trkpt lat="45.93943" lon="4.78993">
        <ele>194</ele>
        <time>2018-05-20T08:09:08Z</time>
      </trkpt>
      <trkpt lat="45.93943" lon="4.78999">
        <ele>193</ele>
        <time>2018-05-20T08:09:09Z</time>
      </trkpt>
      <trkpt lat="45.93943" lon="4.79005">
        <ele>194</ele>
        <time>2018-05-20T08:09:10Z</time>
      </trkpt>
      <trkpt lat="45.93943" lon="4.79012">
        <ele>195</ele>
        <time>2018-05-20T08:09:11Z</time>
      </trkpt>
      <trkpt lat="45.93941" lon="4.79018">
        <ele>195</ele>
        <time>2018-05-20T08:09:12Z</time>
      </trkpt>
      <trkpt lat="45.93942" lon="4.79031">
        <ele>195</ele>
        <time>2018-05-20T08:09:14Z</time>
      </trkpt>
      <trkpt lat="45.93945" lon="4.79037">
        <ele>195</ele>
        <time>2018-05-20T08:09:15Z</time>
      </trkpt>
      <trkpt lat="45.93945" lon="4.79044">
        <ele>195</ele>
        <time>2018-05-20T08:09:16Z</time>
      </trkpt>
      <trkpt lat="45.93945" lon="4.7905">
        <ele>196</ele>
        <time>2018-05-20T08:09:17Z</time>
      </trkpt>
      <trkpt lat="45.93944" lon="4.79056">
        <ele>195</ele>
        <time>2018-05-20T08:09:18Z</time>
      </trkpt>
      <trkpt lat="45.93944" lon="4.79064">
        <ele>195</ele>
        <time>2018-05-20T08:09:19Z</time>
      </trkpt>
      <trkpt lat="45.93945" lon="4.79071">
        <ele>195</ele>
        <time>2018-05-20T08:09:20Z</time>
      </trkpt>
      <trkpt lat="45.93946" lon="4.79077">
        <ele>195</ele>
        <time>2018-05-20T08:09:21Z</time>
      </trkpt>
      <trkpt lat="45.93947" lon="4.79083">
        <ele>196</ele>
        <time>2018-05-20T08:09:22Z</time>
      </trkpt>
      <trkpt lat="45.93947" lon="4.7909">
        <ele>196</ele>
        <time>2018-05-20T08:09:23Z</time>
      </trkpt>
      <trkpt lat="45.93947" lon="4.79097">
        <ele>196</ele>
        <time>2018-05-20T08:09:24Z</time>
      </trkpt>
      <trkpt lat="45.93947" lon="4.79103">
        <ele>196</ele>
        <time>2018-05-20T08:09:25Z</time>
      </trkpt>
      <trkpt lat="45.93948" lon="4.79115">
        <ele>197</ele>
        <time>2018-05-20T08:09:27Z</time>
      </trkpt>
      <trkpt lat="45.93949" lon="4.79121">
        <ele>197</ele>
        <time>2018-05-20T08:09:28Z</time>
      </trkpt>
      <trkpt lat="45.93948" lon="4.79133">
        <ele>197</ele>
        <time>2018-05-20T08:09:30Z</time>
      </trkpt>
      <trkpt lat="45.93948" lon="4.79139">
        <ele>197</ele>
        <time>2018-05-20T08:09:31Z</time>
      </trkpt>
      <trkpt lat="45.93949" lon="4.79151">
        <ele>197</ele>
        <time>2018-05-20T08:09:33Z</time>
      </trkpt>
      <trkpt lat="45.93949" lon="4.79157">
        <ele>196</ele>
        <time>2018-05-20T08:09:34Z</time>
      </trkpt>
      <trkpt lat="45.93949" lon="4.79169">
        <ele>197</ele>
        <time>2018-05-20T08:09:36Z</time>
      </trkpt>
      <trkpt lat="45.93949" lon="4.79175">
        <ele>197</ele>
        <time>2018-05-20T08:09:37Z</time>
      </trkpt>
      <trkpt lat="45.9395" lon="4.79188">
        <ele>197</ele>
        <time>2018-05-20T08:09:39Z</time>
      </trkpt>
      <trkpt lat="45.9395" lon="4.79195">
        <ele>197</ele>
        <time>2018-05-20T08:09:40Z</time>
      </trkpt>
      <trkpt lat="45.93951" lon="4.79201">
        <ele>197</ele>
        <time>2018-05-20T08:09:41Z</time>
      </trkpt>
      <trkpt lat="45.93951" lon="4.79208">
        <ele>197</ele>
        <time>2018-05-20T08:09:42Z</time>
      </trkpt>
      <trkpt lat="45.93951" lon="4.79214">
        <ele>197</ele>
        <time>2018-05-20T08:09:43Z</time>
      </trkpt>
      <trkpt lat="45.93952" lon="4.79221">
        <ele>197</ele>
        <time>2018-05-20T08:09:44Z</time>
      </trkpt>
      <trkpt lat="45.93952" lon="4.7923">
        <ele>197</ele>
        <time>2018-05-20T08:09:46Z</time>
      </trkpt>
      <trkpt lat="45.93953" lon="4.79239">
        <ele>197</ele>
        <time>2018-05-20T08:09:47Z</time>
      </trkpt>
      <trkpt lat="45.93953" lon="4.7925">
        <ele>198</ele>
        <time>2018-05-20T08:09:49Z</time>
      </trkpt>
      <trkpt lat="45.93953" lon="4.79256">
        <ele>198</ele>
        <time>2018-05-20T08:09:50Z</time>
      </trkpt>
      <trkpt lat="45.93952" lon="4.79267">
        <ele>198</ele>
        <time>2018-05-20T08:09:52Z</time>
      </trkpt>
      <trkpt lat="45.93951" lon="4.79272">
        <ele>198</ele>
        <time>2018-05-20T08:09:53Z</time>
      </trkpt>
      <trkpt lat="45.93951" lon="4.79283">
        <ele>198</ele>
        <time>2018-05-20T08:09:55Z</time>
      </trkpt>
      <trkpt lat="45.93951" lon="4.79289">
        <ele>198</ele>
        <time>2018-05-20T08:09:56Z</time>
      </trkpt>
      <trkpt lat="45.93951" lon="4.79301">
        <ele>198</ele>
        <time>2018-05-20T08:09:58Z</time>
      </trkpt>
      <trkpt lat="45.93952" lon="4.79306">
        <ele>198</ele>
        <time>2018-05-20T08:09:59Z</time>
      </trkpt>
      <trkpt lat="45.93952" lon="4.79318">
        <ele>198</ele>
        <time>2018-05-20T08:10:01Z</time>
      </trkpt>
      <trkpt lat="45.93952" lon="4.79324">
        <ele>198</ele>
        <time>2018-05-20T08:10:02Z</time>
      </trkpt>
      <trkpt lat="45.93951" lon="4.79335">
        <ele>200</ele>
        <time>2018-05-20T08:10:04Z</time>
      </trkpt>
      <trkpt lat="45.93952" lon="4.79341">
        <ele>200</ele>
        <time>2018-05-20T08:10:05Z</time>
      </trkpt>
      <trkpt lat="45.93952" lon="4.7935">
        <ele>200</ele>
        <time>2018-05-20T08:10:07Z</time>
      </trkpt>
      <trkpt lat="45.93952" lon="4.79359">
        <ele>200</ele>
        <time>2018-05-20T08:10:08Z</time>
      </trkpt>
      <trkpt lat="45.93952" lon="4.79369">
        <ele>201</ele>
        <time>2018-05-20T08:10:10Z</time>
      </trkpt>
      <trkpt lat="45.93952" lon="4.79374">
        <ele>201</ele>
        <time>2018-05-20T08:10:11Z</time>
      </trkpt>
      <trkpt lat="45.93954" lon="4.79386">
        <ele>201</ele>
        <time>2018-05-20T08:10:13Z</time>
      </trkpt>
      <trkpt lat="45.93954" lon="4.79392">
        <ele>201</ele>
        <time>2018-05-20T08:10:14Z</time>
      </trkpt>
      <trkpt lat="45.93953" lon="4.79404">
        <ele>201</ele>
        <time>2018-05-20T08:10:16Z</time>
      </trkpt>
      <trkpt lat="45.93953" lon="4.7941">
        <ele>201</ele>
        <time>2018-05-20T08:10:17Z</time>
      </trkpt>
      <trkpt lat="45.93952" lon="4.79419">
        <ele>202</ele>
        <time>2018-05-20T08:10:20Z</time>
      </trkpt>
      <trkpt lat="45.93952" lon="4.79423">
        <ele>202</ele>
        <time>2018-05-20T08:10:21Z</time>
      </trkpt>
      <trkpt lat="45.93951" lon="4.79435">
        <ele>202</ele>
        <time>2018-05-20T08:10:24Z</time>
      </trkpt>
      <trkpt lat="45.93951" lon="4.79448">
        <ele>202</ele>
        <time>2018-05-20T08:10:25Z</time>
      </trkpt>
      <trkpt lat="45.93951" lon="4.79458">
        <ele>202</ele>
        <time>2018-05-20T08:10:28Z</time>
      </trkpt>
      <trkpt lat="45.93951" lon="4.79461">
        <ele>202</ele>
        <time>2018-05-20T08:10:29Z</time>
      </trkpt>
      <trkpt lat="45.93951" lon="4.79473">
        <ele>202</ele>
        <time>2018-05-20T08:10:32Z</time>
      </trkpt>
      <trkpt lat="45.93951" lon="4.79478">
        <ele>202</ele>
        <time>2018-05-20T08:10:33Z</time>
      </trkpt>
      <trkpt lat="45.93951" lon="4.79488">
        <ele>202</ele>
        <time>2018-05-20T08:10:35Z</time>
      </trkpt>
      <trkpt lat="45.93952" lon="4.79493">
        <ele>202</ele>
        <time>2018-05-20T08:10:36Z</time>
      </trkpt>
      <trkpt lat="45.93952" lon="4.79503">
        <ele>204</ele>
        <time>2018-05-20T08:10:38Z</time>
      </trkpt>
      <trkpt lat="45.93953" lon="4.79508">
        <ele>204</ele>
        <time>2018-05-20T08:10:39Z</time>
      </trkpt>
      <trkpt lat="45.93954" lon="4.79518">
        <ele>204</ele>
        <time>2018-05-20T08:10:41Z</time>
      </trkpt>
      <trkpt lat="45.93954" lon="4.79523">
        <ele>204</ele>
        <time>2018-05-20T08:10:42Z</time>
      </trkpt>
      <trkpt lat="45.93955" lon="4.79533">
        <ele>205</ele>
        <time>2018-05-20T08:10:44Z</time>
      </trkpt>
      <trkpt lat="45.93956" lon="4.79538">
        <ele>205</ele>
        <time>2018-05-20T08:10:45Z</time>
      </trkpt>
      <trkpt lat="45.93956" lon="4.79549">
        <ele>205</ele>
        <time>2018-05-20T08:10:47Z</time>
      </trkpt>
      <trkpt lat="45.93957" lon="4.79554">
        <ele>205</ele>
        <time>2018-05-20T08:10:48Z</time>
      </trkpt>
      <trkpt lat="45.93957" lon="4.79564">
        <ele>205</ele>
        <time>2018-05-20T08:10:50Z</time>
      </trkpt>
      <trkpt lat="45.93958" lon="4.7957">
        <ele>205</ele>
        <time>2018-05-20T08:10:51Z</time>
      </trkpt>
      <trkpt lat="45.93959" lon="4.7958">
        <ele>206</ele>
        <time>2018-05-20T08:10:53Z</time>
      </trkpt>
      <trkpt lat="45.9396" lon="4.79596">
        <ele>207</ele>
        <time>2018-05-20T08:10:54Z</time>
      </trkpt>
      <trkpt lat="45.93961" lon="4.79606">
        <ele>207</ele>
        <time>2018-05-20T08:10:56Z</time>
      </trkpt>
      <trkpt lat="45.93962" lon="4.79612">
        <ele>207</ele>
        <time>2018-05-20T08:10:57Z</time>
      </trkpt>
      <trkpt lat="45.93964" lon="4.79622">
        <ele>207</ele>
        <time>2018-05-20T08:10:59Z</time>
      </trkpt>
      <trkpt lat="45.93964" lon="4.79628">
        <ele>207</ele>
        <time>2018-05-20T08:11:00Z</time>
      </trkpt>
      <trkpt lat="45.93966" lon="4.7964">
        <ele>207</ele>
        <time>2018-05-20T08:11:02Z</time>
      </trkpt>
      <trkpt lat="45.93966" lon="4.79645">
        <ele>207</ele>
        <time>2018-05-20T08:11:03Z</time>
      </trkpt>
      <trkpt lat="45.93967" lon="4.79657">
        <ele>208</ele>
        <time>2018-05-20T08:11:05Z</time>
      </trkpt>
      <trkpt lat="45.93967" lon="4.79662">
        <ele>208</ele>
        <time>2018-05-20T08:11:06Z</time>
      </trkpt>
      <trkpt lat="45.93968" lon="4.79674">
        <ele>207</ele>
        <time>2018-05-20T08:11:08Z</time>
      </trkpt>
      <trkpt lat="45.93969" lon="4.79679">
        <ele>207</ele>
        <time>2018-05-20T08:11:09Z</time>
      </trkpt>
      <trkpt lat="45.9397" lon="4.79689">
        <ele>207</ele>
        <time>2018-05-20T08:11:11Z</time>
      </trkpt>
      <trkpt lat="45.93971" lon="4.79695">
        <ele>207</ele>
        <time>2018-05-20T08:11:12Z</time>
      </trkpt>
      <trkpt lat="45.93972" lon="4.79705">
        <ele>207</ele>
        <time>2018-05-20T08:11:14Z</time>
      </trkpt>
      <trkpt lat="45.93972" lon="4.79711">
        <ele>207</ele>
        <time>2018-05-20T08:11:15Z</time>
      </trkpt>
      <trkpt lat="45.93974" lon="4.79722">
        <ele>207</ele>
        <time>2018-05-20T08:11:17Z</time>
      </trkpt>
      <trkpt lat="45.93975" lon="4.79728">
        <ele>207</ele>
        <time>2018-05-20T08:11:18Z</time>
      </trkpt>
      <trkpt lat="45.93974" lon="4.7974">
        <ele>207</ele>
        <time>2018-05-20T08:11:20Z</time>
      </trkpt>
      <trkpt lat="45.93975" lon="4.79746">
        <ele>207</ele>
        <time>2018-05-20T08:11:21Z</time>
      </trkpt>
      <trkpt lat="45.93976" lon="4.79758">
        <ele>207</ele>
        <time>2018-05-20T08:11:23Z</time>
      </trkpt>
      <trkpt lat="45.93975" lon="4.79765">
        <ele>207</ele>
        <time>2018-05-20T08:11:24Z</time>
      </trkpt>
      <trkpt lat="45.93977" lon="4.79772">
        <ele>207</ele>
        <time>2018-05-20T08:11:25Z</time>
      </trkpt>
      <trkpt lat="45.93977" lon="4.7978">
        <ele>206</ele>
        <time>2018-05-20T08:11:26Z</time>
      </trkpt>
      <trkpt lat="45.93977" lon="4.79788">
        <ele>207</ele>
        <time>2018-05-20T08:11:27Z</time>
      </trkpt>
      <trkpt lat="45.93977" lon="4.79796">
        <ele>207</ele>
        <time>2018-05-20T08:11:28Z</time>
      </trkpt>
      <trkpt lat="45.93976" lon="4.79803">
        <ele>207</ele>
        <time>2018-05-20T08:11:29Z</time>
      </trkpt>
      <trkpt lat="45.93975" lon="4.7981">
        <ele>207</ele>
        <time>2018-05-20T08:11:30Z</time>
      </trkpt>
      <trkpt lat="45.93971" lon="4.79821">
        <ele>207</ele>
        <time>2018-05-20T08:11:32Z</time>
      </trkpt>
      <trkpt lat="45.9397" lon="4.79828">
        <ele>207</ele>
        <time>2018-05-20T08:11:33Z</time>
      </trkpt>
      <trkpt lat="45.93969" lon="4.79836">
        <ele>207</ele>
        <time>2018-05-20T08:11:34Z</time>
      </trkpt>
      <trkpt lat="45.93966" lon="4.79843">
        <ele>206</ele>
        <time>2018-05-20T08:11:35Z</time>
      </trkpt>
      <trkpt lat="45.93966" lon="4.79852">
        <ele>206</ele>
        <time>2018-05-20T08:11:36Z</time>
      </trkpt>
      <trkpt lat="45.93964" lon="4.79858">
        <ele>206</ele>
        <time>2018-05-20T08:11:37Z</time>
      </trkpt>
      <trkpt lat="45.93963" lon="4.79866">
        <ele>206</ele>
        <time>2018-05-20T08:11:38Z</time>
      </trkpt>
      <trkpt lat="45.93961" lon="4.79873">
        <ele>206</ele>
        <time>2018-05-20T08:11:39Z</time>
      </trkpt>
      <trkpt lat="45.93959" lon="4.7988">
        <ele>206</ele>
        <time>2018-05-20T08:11:40Z</time>
      </trkpt>
      <trkpt lat="45.93958" lon="4.79887">
        <ele>206</ele>
        <time>2018-05-20T08:11:41Z</time>
      </trkpt>
      <trkpt lat="45.93955" lon="4.79893">
        <ele>205</ele>
        <time>2018-05-20T08:11:42Z</time>
      </trkpt>
      <trkpt lat="45.93954" lon="4.79901">
        <ele>205</ele>
        <time>2018-05-20T08:11:43Z</time>
      </trkpt>
      <trkpt lat="45.93952" lon="4.79908">
        <ele>205</ele>
        <time>2018-05-20T08:11:44Z</time>
      </trkpt>
      <trkpt lat="45.9395" lon="4.79915">
        <ele>205</ele>
        <time>2018-05-20T08:11:45Z</time>
      </trkpt>
      <trkpt lat="45.9395" lon="4.79923">
        <ele>205</ele>
        <time>2018-05-20T08:11:46Z</time>
      </trkpt>
      <trkpt lat="45.93948" lon="4.7993">
        <ele>205</ele>
        <time>2018-05-20T08:11:47Z</time>
      </trkpt>
      <trkpt lat="45.93947" lon="4.79938">
        <ele>205</ele>
        <time>2018-05-20T08:11:48Z</time>
      </trkpt>
      <trkpt lat="45.93946" lon="4.79945">
        <ele>205</ele>
        <time>2018-05-20T08:11:49Z</time>
      </trkpt>
      <trkpt lat="45.93945" lon="4.79953">
        <ele>205</ele>
        <time>2018-05-20T08:11:50Z</time>
      </trkpt>
      <trkpt lat="45.93945" lon="4.79961">
        <ele>205</ele>
        <time>2018-05-20T08:11:51Z</time>
      </trkpt>
      <trkpt lat="45.93943" lon="4.79969">
        <ele>205</ele>
        <time>2018-05-20T08:11:52Z</time>
      </trkpt>
      <trkpt lat="45.93941" lon="4.79975">
        <ele>205</ele>
        <time>2018-05-20T08:11:53Z</time>
      </trkpt>
      <trkpt lat="45.9394" lon="4.79982">
        <ele>204</ele>
        <time>2018-05-20T08:11:54Z</time>
      </trkpt>
      <trkpt lat="45.93939" lon="4.79989">
        <ele>204</ele>
        <time>2018-05-20T08:11:55Z</time>
      </trkpt>
      <trkpt lat="45.93938" lon="4.79996">
        <ele>204</ele>
        <time>2018-05-20T08:11:56Z</time>
      </trkpt>
      <trkpt lat="45.93937" lon="4.80004">
        <ele>205</ele>
        <time>2018-05-20T08:11:57Z</time>
      </trkpt>
      <trkpt lat="45.93936" lon="4.8001">
        <ele>205</ele>
        <time>2018-05-20T08:11:58Z</time>
      </trkpt>
      <trkpt lat="45.93934" lon="4.80016">
        <ele>205</ele>
        <time>2018-05-20T08:11:59Z</time>
      </trkpt>
      <trkpt lat="45.93933" lon="4.80025">
        <ele>206</ele>
        <time>2018-05-20T08:12:00Z</time>
      </trkpt>
      <trkpt lat="45.93933" lon="4.80034">
        <ele>206</ele>
        <time>2018-05-20T08:12:01Z</time>
      </trkpt>
      <trkpt lat="45.93932" lon="4.80041">
        <ele>207</ele>
        <time>2018-05-20T08:12:02Z</time>
      </trkpt>
      <trkpt lat="45.93932" lon="4.80049">
        <ele>207</ele>
        <time>2018-05-20T08:12:03Z</time>
      </trkpt>
      <trkpt lat="45.93932" lon="4.80057">
        <ele>207</ele>
        <time>2018-05-20T08:12:04Z</time>
      </trkpt>
      <trkpt lat="45.93931" lon="4.80063">
        <ele>207</ele>
        <time>2018-05-20T08:12:05Z</time>
      </trkpt>
      <trkpt lat="45.93931" lon="4.80069">
        <ele>207</ele>
        <time>2018-05-20T08:12:06Z</time>
      </trkpt>
      <trkpt lat="45.93931" lon="4.80078">
        <ele>207</ele>
        <time>2018-05-20T08:12:07Z</time>
      </trkpt>
      <trkpt lat="45.93931" lon="4.80085">
        <ele>207</ele>
        <time>2018-05-20T08:12:08Z</time>
      </trkpt>
      <trkpt lat="45.9393" lon="4.80092">
        <ele>207</ele>
        <time>2018-05-20T08:12:09Z</time>
      </trkpt>
      <trkpt lat="45.93931" lon="4.801">
        <ele>208</ele>
        <time>2018-05-20T08:12:10Z</time>
      </trkpt>
      <trkpt lat="45.93932" lon="4.80108">
        <ele>208</ele>
        <time>2018-05-20T08:12:11Z</time>
      </trkpt>
      <trkpt lat="45.93933" lon="4.80116">
        <ele>208</ele>
        <time>2018-05-20T08:12:12Z</time>
      </trkpt>
      <trkpt lat="45.93934" lon="4.80123">
        <ele>208</ele>
        <time>2018-05-20T08:12:13Z</time>
      </trkpt>
      <trkpt lat="45.93936" lon="4.80129">
        <ele>208</ele>
        <time>2018-05-20T08:12:14Z</time>
      </trkpt>
      <trkpt lat="45.93938" lon="4.80136">
        <ele>208</ele>
        <time>2018-05-20T08:12:15Z</time>
      </trkpt>
      <trkpt lat="45.93939" lon="4.80144">
        <ele>208</ele>
        <time>2018-05-20T08:12:16Z</time>
      </trkpt>
      <trkpt lat="45.93942" lon="4.80152">
        <ele>208</ele>
        <time>2018-05-20T08:12:17Z</time>
      </trkpt>
      <trkpt lat="45.93944" lon="4.80161">
        <ele>208</ele>
        <time>2018-05-20T08:12:18Z</time>
      </trkpt>
      <trkpt lat="45.93946" lon="4.80168">
        <ele>206</ele>
        <time>2018-05-20T08:12:19Z</time>
      </trkpt>
      <trkpt lat="45.93947" lon="4.80175">
        <ele>206</ele>
        <time>2018-05-20T08:12:20Z</time>
      </trkpt>
      <trkpt lat="45.9395" lon="4.80183">
        <ele>206</ele>
        <time>2018-05-20T08:12:21Z</time>
      </trkpt>
      <trkpt lat="45.93951" lon="4.80191">
        <ele>206</ele>
        <time>2018-05-20T08:12:22Z</time>
      </trkpt>
      <trkpt lat="45.93953" lon="4.80198">
        <ele>205</ele>
        <time>2018-05-20T08:12:23Z</time>
      </trkpt>
      <trkpt lat="45.93955" lon="4.80204">
        <ele>205</ele>
        <time>2018-05-20T08:12:24Z</time>
      </trkpt>
      <trkpt lat="45.93957" lon="4.80211">
        <ele>205</ele>
        <time>2018-05-20T08:12:25Z</time>
      </trkpt>
      <trkpt lat="45.93959" lon="4.80217">
        <ele>205</ele>
        <time>2018-05-20T08:12:26Z</time>
      </trkpt>
      <trkpt lat="45.9396" lon="4.80224">
        <ele>205</ele>
        <time>2018-05-20T08:12:27Z</time>
      </trkpt>
      <trkpt lat="45.93962" lon="4.80231">
        <ele>205</ele>
        <time>2018-05-20T08:12:28Z</time>
      </trkpt>
      <trkpt lat="45.93964" lon="4.80238">
        <ele>204</ele>
        <time>2018-05-20T08:12:29Z</time>
      </trkpt>
      <trkpt lat="45.93965" lon="4.80244">
        <ele>204</ele>
        <time>2018-05-20T08:12:30Z</time>
      </trkpt>
      <trkpt lat="45.93967" lon="4.80251">
        <ele>202</ele>
        <time>2018-05-20T08:12:31Z</time>
      </trkpt>
      <trkpt lat="45.93969" lon="4.80258">
        <ele>202</ele>
        <time>2018-05-20T08:12:32Z</time>
      </trkpt>
      <trkpt lat="45.93971" lon="4.80265">
        <ele>202</ele>
        <time>2018-05-20T08:12:33Z</time>
      </trkpt>
      <trkpt lat="45.93973" lon="4.80271">
        <ele>203</ele>
        <time>2018-05-20T08:12:34Z</time>
      </trkpt>
      <trkpt lat="45.93975" lon="4.80277">
        <ele>203</ele>
        <time>2018-05-20T08:12:35Z</time>
      </trkpt>
      <trkpt lat="45.93977" lon="4.80284">
        <ele>203</ele>
        <time>2018-05-20T08:12:36Z</time>
      </trkpt>
      <trkpt lat="45.93979" lon="4.80291">
        <ele>203</ele>
        <time>2018-05-20T08:12:37Z</time>
      </trkpt>
      <trkpt lat="45.9398" lon="4.80298">
        <ele>203</ele>
        <time>2018-05-20T08:12:38Z</time>
      </trkpt>
      <trkpt lat="45.93982" lon="4.80304">
        <ele>203</ele>
        <time>2018-05-20T08:12:39Z</time>
      </trkpt>
      <trkpt lat="45.93984" lon="4.80311">
        <ele>203</ele>
        <time>2018-05-20T08:12:40Z</time>
      </trkpt>
      <trkpt lat="45.93986" lon="4.80316">
        <ele>204</ele>
        <time>2018-05-20T08:12:41Z</time>
      </trkpt>
      <trkpt lat="45.93988" lon="4.80322">
        <ele>204</ele>
        <time>2018-05-20T08:12:42Z</time>
      </trkpt>
      <trkpt lat="45.93989" lon="4.80329">
        <ele>204</ele>
        <time>2018-05-20T08:12:43Z</time>
      </trkpt>
      <trkpt lat="45.93991" lon="4.80335">
        <ele>206</ele>
        <time>2018-05-20T08:12:44Z</time>
      </trkpt>
      <trkpt lat="45.93993" lon="4.80342">
        <ele>206</ele>
        <time>2018-05-20T08:12:45Z</time>
      </trkpt>
      <trkpt lat="45.93995" lon="4.80348">
        <ele>206</ele>
        <time>2018-05-20T08:12:46Z</time>
      </trkpt>
      <trkpt lat="45.93996" lon="4.80354">
        <ele>206</ele>
        <time>2018-05-20T08:12:47Z</time>
      </trkpt>
      <trkpt lat="45.94002" lon="4.80363">
        <ele>214</ele>
        <time>2018-05-20T08:12:49Z</time>
      </trkpt>
      <trkpt lat="45.94005" lon="4.80367">
        <ele>215</ele>
        <time>2018-05-20T08:12:50Z</time>
      </trkpt>
      <trkpt lat="45.94007" lon="4.80378">
        <ele>216</ele>
        <time>2018-05-20T08:12:53Z</time>
      </trkpt>
      <trkpt lat="45.94008" lon="4.80381">
        <ele>217</ele>
        <time>2018-05-20T08:12:54Z</time>
      </trkpt>
      <trkpt lat="45.94011" lon="4.80392">
        <ele>217</ele>
        <time>2018-05-20T08:12:57Z</time>
      </trkpt>
      <trkpt lat="45.94012" lon="4.80395">
        <ele>217</ele>
        <time>2018-05-20T08:12:58Z</time>
      </trkpt>
      <trkpt lat="45.94015" lon="4.80406">
        <ele>218</ele>
        <time>2018-05-20T08:13:01Z</time>
      </trkpt>
      <trkpt lat="45.94016" lon="4.8041">
        <ele>218</ele>
        <time>2018-05-20T08:13:02Z</time>
      </trkpt>
      <trkpt lat="45.94018" lon="4.80422">
        <ele>221</ele>
        <time>2018-05-20T08:13:05Z</time>
      </trkpt>
      <trkpt lat="45.94019" lon="4.80426">
        <ele>221</ele>
        <time>2018-05-20T08:13:06Z</time>
      </trkpt>
      <trkpt lat="45.94019" lon="4.80439">
        <ele>222</ele>
        <time>2018-05-20T08:13:09Z</time>
      </trkpt>
      <trkpt lat="45.9402" lon="4.80443">
        <ele>223</ele>
        <time>2018-05-20T08:13:10Z</time>
      </trkpt>
      <trkpt lat="45.9402" lon="4.80455">
        <ele>223</ele>
        <time>2018-05-20T08:13:13Z</time>
      </trkpt>
      <trkpt lat="45.9402" lon="4.8046">
        <ele>223</ele>
        <time>2018-05-20T08:13:14Z</time>
      </trkpt>
      <trkpt lat="45.9402" lon="4.80472">
        <ele>223</ele>
        <time>2018-05-20T08:13:17Z</time>
      </trkpt>
      <trkpt lat="45.9402" lon="4.80476">
        <ele>223</ele>
        <time>2018-05-20T08:13:18Z</time>
      </trkpt>
      <trkpt lat="45.9402" lon="4.80487">
        <ele>223</ele>
        <time>2018-05-20T08:13:21Z</time>
      </trkpt>
      <trkpt lat="45.94019" lon="4.8049">
        <ele>222</ele>
        <time>2018-05-20T08:13:22Z</time>
      </trkpt>
      <trkpt lat="45.94018" lon="4.80501">
        <ele>223</ele>
        <time>2018-05-20T08:13:25Z</time>
      </trkpt>
      <trkpt lat="45.94018" lon="4.80505">
        <ele>223</ele>
        <time>2018-05-20T08:13:26Z</time>
      </trkpt>
      <trkpt lat="45.94018" lon="4.80515">
        <ele>224</ele>
        <time>2018-05-20T08:13:29Z</time>
      </trkpt>
      <trkpt lat="45.94019" lon="4.80518">
        <ele>224</ele>
        <time>2018-05-20T08:13:30Z</time>
      </trkpt>
      <trkpt lat="45.9402" lon="4.80528">
        <ele>224</ele>
        <time>2018-05-20T08:13:33Z</time>
      </trkpt>
      <trkpt lat="45.9402" lon="4.80532">
        <ele>225</ele>
        <time>2018-05-20T08:13:34Z</time>
      </trkpt>
      <trkpt lat="45.94021" lon="4.80543">
        <ele>225</ele>
        <time>2018-05-20T08:13:37Z</time>
      </trkpt>
      <trkpt lat="45.94021" lon="4.80546">
        <ele>225</ele>
        <time>2018-05-20T08:13:38Z</time>
      </trkpt>
      <trkpt lat="45.94021" lon="4.80557">
        <ele>224</ele>
        <time>2018-05-20T08:13:41Z</time>
      </trkpt>
      <trkpt lat="45.94021" lon="4.80561">
        <ele>224</ele>
        <time>2018-05-20T08:13:42Z</time>
      </trkpt>
      <trkpt lat="45.94022" lon="4.80573">
        <ele>224</ele>
        <time>2018-05-20T08:13:45Z</time>
      </trkpt>
      <trkpt lat="45.94022" lon="4.80577">
        <ele>223</ele>
        <time>2018-05-20T08:13:46Z</time>
      </trkpt>
      <trkpt lat="45.94024" lon="4.80589">
        <ele>224</ele>
        <time>2018-05-20T08:13:49Z</time>
      </trkpt>
      <trkpt lat="45.94025" lon="4.80593">
        <ele>224</ele>
        <time>2018-05-20T08:13:50Z</time>
      </trkpt>
      <trkpt lat="45.94027" lon="4.80605">
        <ele>225</ele>
        <time>2018-05-20T08:13:53Z</time>
      </trkpt>
      <trkpt lat="45.94027" lon="4.80609">
        <ele>225</ele>
        <time>2018-05-20T08:13:54Z</time>
      </trkpt>
      <trkpt lat="45.9403" lon="4.80621">
        <ele>225</ele>
        <time>2018-05-20T08:13:57Z</time>
      </trkpt>
      <trkpt lat="45.94031" lon="4.80624">
        <ele>225</ele>
        <time>2018-05-20T08:13:58Z</time>
      </trkpt>
      <trkpt lat="45.94032" lon="4.80636">
        <ele>225</ele>
        <time>2018-05-20T08:14:01Z</time>
      </trkpt>
      <trkpt lat="45.94032" lon="4.8064">
        <ele>225</ele>
        <time>2018-05-20T08:14:02Z</time>
      </trkpt>
      <trkpt lat="45.94033" lon="4.80652">
        <ele>225</ele>
        <time>2018-05-20T08:14:05Z</time>
      </trkpt>
      <trkpt lat="45.94033" lon="4.80656">
        <ele>225</ele>
        <time>2018-05-20T08:14:06Z</time>
      </trkpt>
      <trkpt lat="45.94033" lon="4.80668">
        <ele>225</ele>
        <time>2018-05-20T08:14:09Z</time>
      </trkpt>
      <trkpt lat="45.94033" lon="4.80673">
        <ele>225</ele>
        <time>2018-05-20T08:14:10Z</time>
      </trkpt>
      <trkpt lat="45.94034" lon="4.80684">
        <ele>225</ele>
        <time>2018-05-20T08:14:13Z</time>
      </trkpt>
      <trkpt lat="45.94034" lon="4.80688">
        <ele>225</ele>
        <time>2018-05-20T08:14:14Z</time>
      </trkpt>
      <trkpt lat="45.94035" lon="4.807">
        <ele>226</ele>
        <time>2018-05-20T08:14:17Z</time>
      </trkpt>
      <trkpt lat="45.94035" lon="4.80704">
        <ele>226</ele>
        <time>2018-05-20T08:14:18Z</time>
      </trkpt>
      <trkpt lat="45.94036" lon="4.80716">
        <ele>226</ele>
        <time>2018-05-20T08:14:21Z</time>
      </trkpt>
      <trkpt lat="45.94037" lon="4.80719">
        <ele>226</ele>
        <time>2018-05-20T08:14:22Z</time>
      </trkpt>
      <trkpt lat="45.94038" lon="4.80731">
        <ele>226</ele>
        <time>2018-05-20T08:14:25Z</time>
      </trkpt>
      <trkpt lat="45.94039" lon="4.80735">
        <ele>226</ele>
        <time>2018-05-20T08:14:26Z</time>
      </trkpt>
      <trkpt lat="45.9404" lon="4.80746">
        <ele>227</ele>
        <time>2018-05-20T08:14:29Z</time>
      </trkpt>
      <trkpt lat="45.9404" lon="4.8075">
        <ele>228</ele>
        <time>2018-05-20T08:14:30Z</time>
      </trkpt>
      <trkpt lat="45.94041" lon="4.80763">
        <ele>228</ele>
        <time>2018-05-20T08:14:33Z</time>
      </trkpt>
      <trkpt lat="45.94041" lon="4.80767">
        <ele>228</ele>
        <time>2018-05-20T08:14:34Z</time>
      </trkpt>
      <trkpt lat="45.94042" lon="4.80779">
        <ele>228</ele>
        <time>2018-05-20T08:14:37Z</time>
      </trkpt>
      <trkpt lat="45.94043" lon="4.80783">
        <ele>228</ele>
        <time>2018-05-20T08:14:38Z</time>
      </trkpt>
      <trkpt lat="45.94045" lon="4.80794">
        <ele>228</ele>
        <time>2018-05-20T08:14:41Z</time>
      </trkpt>
      <trkpt lat="45.94046" lon="4.80798">
        <ele>229</ele>
        <time>2018-05-20T08:14:42Z</time>
      </trkpt>
      <trkpt lat="45.94048" lon="4.80808">
        <ele>229</ele>
        <time>2018-05-20T08:14:45Z</time>
      </trkpt>
      <trkpt lat="45.94048" lon="4.80812">
        <ele>229</ele>
        <time>2018-05-20T08:14:46Z</time>
      </trkpt>
      <trkpt lat="45.94051" lon="4.80822">
        <ele>230</ele>
        <time>2018-05-20T08:14:49Z</time>
      </trkpt>
      <trkpt lat="45.94051" lon="4.80826">
        <ele>230</ele>
        <time>2018-05-20T08:14:50Z</time>
      </trkpt>
      <trkpt lat="45.94054" lon="4.80836">
        <ele>231</ele>
        <time>2018-05-20T08:14:53Z</time>
      </trkpt>
      <trkpt lat="45.94054" lon="4.8084">
        <ele>231</ele>
        <time>2018-05-20T08:14:54Z</time>
      </trkpt>
      <trkpt lat="45.94055" lon="4.80851">
        <ele>231</ele>
        <time>2018-05-20T08:14:57Z</time>
      </trkpt>
      <trkpt lat="45.94055" lon="4.80854">
        <ele>231</ele>
        <time>2018-05-20T08:14:58Z</time>
      </trkpt>
      <trkpt lat="45.94057" lon="4.80865">
        <ele>231</ele>
        <time>2018-05-20T08:15:01Z</time>
      </trkpt>
      <trkpt lat="45.94057" lon="4.80869">
        <ele>231</ele>
        <time>2018-05-20T08:15:02Z</time>
      </trkpt>
      <trkpt lat="45.94058" lon="4.80879">
        <ele>231</ele>
        <time>2018-05-20T08:15:05Z</time>
      </trkpt>
      <trkpt lat="45.94059" lon="4.80883">
        <ele>231</ele>
        <time>2018-05-20T08:15:06Z</time>
      </trkpt>
      <trkpt lat="45.9406" lon="4.80894">
        <ele>231</ele>
        <time>2018-05-20T08:15:09Z</time>
      </trkpt>
      <trkpt lat="45.9406" lon="4.80897">
        <ele>231</ele>
        <time>2018-05-20T08:15:10Z</time>
      </trkpt>
      <trkpt lat="45.94062" lon="4.80909">
        <ele>232</ele>
        <time>2018-05-20T08:15:13Z</time>
      </trkpt>
      <trkpt lat="45.94062" lon="4.80913">
        <ele>233</ele>
        <time>2018-05-20T08:15:14Z</time>
      </trkpt>
      <trkpt lat="45.94063" lon="4.80924">
        <ele>233</ele>
        <time>2018-05-20T08:15:17Z</time>
      </trkpt>
      <trkpt lat="45.94063" lon="4.80928">
        <ele>233</ele>
        <time>2018-05-20T08:15:18Z</time>
      </trkpt>
      <trkpt lat="45.94064" lon="4.80939">
        <ele>232</ele>
        <time>2018-05-20T08:15:21Z</time>
      </trkpt>
      <trkpt lat="45.94064" lon="4.80943">
        <ele>232</ele>
        <time>2018-05-20T08:15:22Z</time>
      </trkpt>
      <trkpt lat="45.94066" lon="4.80954">
        <ele>232</ele>
        <time>2018-05-20T08:15:25Z</time>
      </trkpt>
      <trkpt lat="45.94066" lon="4.80958">
        <ele>232</ele>
        <time>2018-05-20T08:15:26Z</time>
      </trkpt>
      <trkpt lat="45.94068" lon="4.80969">
        <ele>233</ele>
        <time>2018-05-20T08:15:29Z</time>
      </trkpt>
      <trkpt lat="45.94068" lon="4.80972">
        <ele>233</ele>
        <time>2018-05-20T08:15:30Z</time>
      </trkpt>
      <trkpt lat="45.9407" lon="4.80982">
        <ele>234</ele>
        <time>2018-05-20T08:15:33Z</time>
      </trkpt>
      <trkpt lat="45.94071" lon="4.80986">
        <ele>234</ele>
        <time>2018-05-20T08:15:34Z</time>
      </trkpt>
      <trkpt lat="45.94073" lon="4.80997">
        <ele>236</ele>
        <time>2018-05-20T08:15:37Z</time>
      </trkpt>
      <trkpt lat="45.94073" lon="4.81">
        <ele>237</ele>
        <time>2018-05-20T08:15:38Z</time>
      </trkpt>
      <trkpt lat="45.94075" lon="4.81011">
        <ele>236</ele>
        <time>2018-05-20T08:15:41Z</time>
      </trkpt>
      <trkpt lat="45.94076" lon="4.81014">
        <ele>236</ele>
        <time>2018-05-20T08:15:42Z</time>
      </trkpt>
      <trkpt lat="45.94079" lon="4.81025">
        <ele>234</ele>
        <time>2018-05-20T08:15:45Z</time>
      </trkpt>
      <trkpt lat="45.9408" lon="4.81028">
        <ele>234</ele>
        <time>2018-05-20T08:15:46Z</time>
      </trkpt>
      <trkpt lat="45.94083" lon="4.81039">
        <ele>234</ele>
        <time>2018-05-20T08:15:49Z</time>
      </trkpt>
      <trkpt lat="45.94084" lon="4.81042">
        <ele>243</ele>
        <time>2018-05-20T08:15:50Z</time>
      </trkpt>
      <trkpt lat="45.94088" lon="4.81052">
        <ele>243</ele>
        <time>2018-05-20T08:15:53Z</time>
      </trkpt>
      <trkpt lat="45.94089" lon="4.81055">
        <ele>243</ele>
        <time>2018-05-20T08:15:54Z</time>
      </trkpt>
      <trkpt lat="45.94093" lon="4.81064">
        <ele>242</ele>
        <time>2018-05-20T08:15:57Z</time>
      </trkpt>
      <trkpt lat="45.94094" lon="4.81067">
        <ele>242</ele>
        <time>2018-05-20T08:15:58Z</time>
      </trkpt>
      <trkpt lat="45.94099" lon="4.81076">
        <ele>242</ele>
        <time>2018-05-20T08:16:01Z</time>
      </trkpt>
      <trkpt lat="45.94101" lon="4.81078">
        <ele>242</ele>
        <time>2018-05-20T08:16:02Z</time>
      </trkpt>
      <trkpt lat="45.94106" lon="4.81087">
        <ele>241</ele>
        <time>2018-05-20T08:16:05Z</time>
      </trkpt>
      <trkpt lat="45.94108" lon="4.8109">
        <ele>242</ele>
        <time>2018-05-20T08:16:06Z</time>
      </trkpt>
      <trkpt lat="45.94113" lon="4.81099">
        <ele>242</ele>
        <time>2018-05-20T08:16:09Z</time>
      </trkpt>
      <trkpt lat="45.94115" lon="4.81102">
        <ele>243</ele>
        <time>2018-05-20T08:16:10Z</time>
      </trkpt>
      <trkpt lat="45.9412" lon="4.81112">
        <ele>243</ele>
        <time>2018-05-20T08:16:13Z</time>
      </trkpt>
      <trkpt lat="45.94122" lon="4.81115">
        <ele>243</ele>
        <time>2018-05-20T08:16:14Z</time>
      </trkpt>
      <trkpt lat="45.94127" lon="4.81124">
        <ele>243</ele>
        <time>2018-05-20T08:16:17Z</time>
      </trkpt>
      <trkpt lat="45.94128" lon="4.81127">
        <ele>243</ele>
        <time>2018-05-20T08:16:18Z</time>
      </trkpt>
      <trkpt lat="45.94134" lon="4.81136">
        <ele>244</ele>
        <time>2018-05-20T08:16:21Z</time>
      </trkpt>
      <trkpt lat="45.94135" lon="4.8114">
        <ele>244</ele>
        <time>2018-05-20T08:16:22Z</time>
      </trkpt>
      <trkpt lat="45.9414" lon="4.81148">
        <ele>244</ele>
        <time>2018-05-20T08:16:25Z</time>
      </trkpt>
      <trkpt lat="45.94142" lon="4.81151">
        <ele>244</ele>
        <time>2018-05-20T08:16:26Z</time>
      </trkpt>
      <trkpt lat="45.94146" lon="4.81161">
        <ele>245</ele>
        <time>2018-05-20T08:16:29Z</time>
      </trkpt>
      <trkpt lat="45.94147" lon="4.81164">
        <ele>245</ele>
        <time>2018-05-20T08:16:30Z</time>
      </trkpt>
      <trkpt lat="45.94152" lon="4.81173">
        <ele>245</ele>
        <time>2018-05-20T08:16:33Z</time>
      </trkpt>
      <trkpt lat="45.94153" lon="4.81176">
        <ele>245</ele>
        <time>2018-05-20T08:16:34Z</time>
      </trkpt>
      <trkpt lat="45.94156" lon="4.81186">
        <ele>245</ele>
        <time>2018-05-20T08:16:37Z</time>
      </trkpt>
      <trkpt lat="45.94157" lon="4.8119">
        <ele>245</ele>
        <time>2018-05-20T08:16:38Z</time>
      </trkpt>
      <trkpt lat="45.9416" lon="4.812">
        <ele>245</ele>
        <time>2018-05-20T08:16:41Z</time>
      </trkpt>
      <trkpt lat="45.94161" lon="4.81204">
        <ele>245</ele>
        <time>2018-05-20T08:16:42Z</time>
      </trkpt>
      <trkpt lat="45.94163" lon="4.81214">
        <ele>245</ele>
        <time>2018-05-20T08:16:45Z</time>
      </trkpt>
      <trkpt lat="45.94164" lon="4.81217">
        <ele>245</ele>
        <time>2018-05-20T08:16:46Z</time>
      </trkpt>
      <trkpt lat="45.94166" lon="4.81228">
        <ele>246</ele>
        <time>2018-05-20T08:16:49Z</time>
      </trkpt>
      <trkpt lat="45.94167" lon="4.81231">
        <ele>246</ele>
        <time>2018-05-20T08:16:50Z</time>
      </trkpt>
      <trkpt lat="45.94169" lon="4.81243">
        <ele>251</ele>
        <time>2018-05-20T08:16:53Z</time>
      </trkpt>
      <trkpt lat="45.9417" lon="4.81246">
        <ele>251</ele>
        <time>2018-05-20T08:16:54Z</time>
      </trkpt>
      <trkpt lat="45.94171" lon="4.81256">
        <ele>252</ele>
        <time>2018-05-20T08:16:57Z</time>
      </trkpt>
      <trkpt lat="45.94171" lon="4.8126">
        <ele>253</ele>
        <time>2018-05-20T08:16:58Z</time>
      </trkpt>
      <trkpt lat="45.94172" lon="4.81271">
        <ele>254</ele>
        <time>2018-05-20T08:17:01Z</time>
      </trkpt>
      <trkpt lat="45.94172" lon="4.81274">
        <ele>255</ele>
        <time>2018-05-20T08:17:02Z</time>
      </trkpt>
      <trkpt lat="45.94172" lon="4.81286">
        <ele>255</ele>
        <time>2018-05-20T08:17:05Z</time>
      </trkpt>
      <trkpt lat="45.94173" lon="4.81289">
        <ele>255</ele>
        <time>2018-05-20T08:17:06Z</time>
      </trkpt>
      <trkpt lat="45.94173" lon="4.81301">
        <ele>256</ele>
        <time>2018-05-20T08:17:09Z</time>
      </trkpt>
      <trkpt lat="45.94173" lon="4.81305">
        <ele>255</ele>
        <time>2018-05-20T08:17:10Z</time>
      </trkpt>
      <trkpt lat="45.94172" lon="4.81316">
        <ele>255</ele>
        <time>2018-05-20T08:17:13Z</time>
      </trkpt>
      <trkpt lat="45.94172" lon="4.81319">
        <ele>255</ele>
        <time>2018-05-20T08:17:14Z</time>
      </trkpt>
      <trkpt lat="45.94173" lon="4.81331">
        <ele>253</ele>
        <time>2018-05-20T08:17:17Z</time>
      </trkpt>
      <trkpt lat="45.94173" lon="4.81335">
        <ele>254</ele>
        <time>2018-05-20T08:17:18Z</time>
      </trkpt>
      <trkpt lat="45.94172" lon="4.81345">
        <ele>255</ele>
        <time>2018-05-20T08:17:21Z</time>
      </trkpt>
      <trkpt lat="45.94172" lon="4.81348">
        <ele>256</ele>
        <time>2018-05-20T08:17:22Z</time>
      </trkpt>
      <trkpt lat="45.9417" lon="4.81358">
        <ele>257</ele>
        <time>2018-05-20T08:17:25Z</time>
      </trkpt>
      <trkpt lat="45.94169" lon="4.81361">
        <ele>257</ele>
        <time>2018-05-20T08:17:26Z</time>
      </trkpt>
      <trkpt lat="45.94167" lon="4.81372">
        <ele>257</ele>
        <time>2018-05-20T08:17:29Z</time>
      </trkpt>
      <trkpt lat="45.94167" lon="4.81376">
        <ele>258</ele>
        <time>2018-05-20T08:17:30Z</time>
      </trkpt>
      <trkpt lat="45.94166" lon="4.81388">
        <ele>252</ele>
        <time>2018-05-20T08:17:33Z</time>
      </trkpt>
      <trkpt lat="45.94166" lon="4.81392">
        <ele>252</ele>
        <time>2018-05-20T08:17:34Z</time>
      </trkpt>
      <trkpt lat="45.94165" lon="4.81403">
        <ele>253</ele>
        <time>2018-05-20T08:17:37Z</time>
      </trkpt>
      <trkpt lat="45.94164" lon="4.81408">
        <ele>254</ele>
        <time>2018-05-20T08:17:38Z</time>
      </trkpt>
      <trkpt lat="45.94163" lon="4.81418">
        <ele>256</ele>
        <time>2018-05-20T08:17:41Z</time>
      </trkpt>
      <trkpt lat="45.94162" lon="4.81421">
        <ele>256</ele>
        <time>2018-05-20T08:17:42Z</time>
      </trkpt>
      <trkpt lat="45.94162" lon="4.81432">
        <ele>256</ele>
        <time>2018-05-20T08:17:45Z</time>
      </trkpt>
      <trkpt lat="45.94162" lon="4.81436">
        <ele>256</ele>
        <time>2018-05-20T08:17:46Z</time>
      </trkpt>
      <trkpt lat="45.94161" lon="4.81448">
        <ele>257</ele>
        <time>2018-05-20T08:17:49Z</time>
      </trkpt>
      <trkpt lat="45.9416" lon="4.8145">
        <ele>257</ele>
        <time>2018-05-20T08:17:50Z</time>
      </trkpt>
      <trkpt lat="45.94158" lon="4.8146">
        <ele>257</ele>
        <time>2018-05-20T08:17:53Z</time>
      </trkpt>
      <trkpt lat="45.94157" lon="4.81464">
        <ele>258</ele>
        <time>2018-05-20T08:17:54Z</time>
      </trkpt>
      <trkpt lat="45.94155" lon="4.81474">
        <ele>258</ele>
        <time>2018-05-20T08:17:57Z</time>
      </trkpt>
      <trkpt lat="45.94154" lon="4.81478">
        <ele>259</ele>
        <time>2018-05-20T08:17:58Z</time>
      </trkpt>
      <trkpt lat="45.94151" lon="4.81488">
        <ele>259</ele>
        <time>2018-05-20T08:18:01Z</time>
      </trkpt>
      <trkpt lat="45.94151" lon="4.81492">
        <ele>260</ele>
        <time>2018-05-20T08:18:02Z</time>
      </trkpt>
      <trkpt lat="45.9415" lon="4.81504">
        <ele>263</ele>
        <time>2018-05-20T08:18:05Z</time>
      </trkpt>
      <trkpt lat="45.94151" lon="4.81508">
        <ele>263</ele>
        <time>2018-05-20T08:18:06Z</time>
      </trkpt>
      <trkpt lat="45.94152" lon="4.81521">
        <ele>263</ele>
        <time>2018-05-20T08:18:09Z</time>
      </trkpt>
      <trkpt lat="45.94152" lon="4.81525">
        <ele>263</ele>
        <time>2018-05-20T08:18:10Z</time>
      </trkpt>
      <trkpt lat="45.94153" lon="4.81536">
        <ele>264</ele>
        <time>2018-05-20T08:18:13Z</time>
      </trkpt>
      <trkpt lat="45.94153" lon="4.81539">
        <ele>264</ele>
        <time>2018-05-20T08:18:14Z</time>
      </trkpt>
      <trkpt lat="45.94154" lon="4.8155">
        <ele>264</ele>
        <time>2018-05-20T08:18:17Z</time>
      </trkpt>
      <trkpt lat="45.94154" lon="4.81554">
        <ele>264</ele>
        <time>2018-05-20T08:18:18Z</time>
      </trkpt>
      <trkpt lat="45.94156" lon="4.81566">
        <ele>265</ele>
        <time>2018-05-20T08:18:21Z</time>
      </trkpt>
      <trkpt lat="45.94156" lon="4.8157">
        <ele>265</ele>
        <time>2018-05-20T08:18:22Z</time>
      </trkpt>
      <trkpt lat="45.94158" lon="4.81582">
        <ele>266</ele>
        <time>2018-05-20T08:18:25Z</time>
      </trkpt>
      <trkpt lat="45.94159" lon="4.81586">
        <ele>267</ele>
        <time>2018-05-20T08:18:26Z</time>
      </trkpt>
      <trkpt lat="45.9416" lon="4.81599">
        <ele>267</ele>
        <time>2018-05-20T08:18:29Z</time>
      </trkpt>
      <trkpt lat="45.94161" lon="4.81602">
        <ele>267</ele>
        <time>2018-05-20T08:18:30Z</time>
      </trkpt>
      <trkpt lat="45.94163" lon="4.81613">
        <ele>267</ele>
        <time>2018-05-20T08:18:33Z</time>
      </trkpt>
      <trkpt lat="45.94164" lon="4.81617">
        <ele>268</ele>
        <time>2018-05-20T08:18:34Z</time>
      </trkpt>
      <trkpt lat="45.94168" lon="4.81628">
        <ele>267</ele>
        <time>2018-05-20T08:18:37Z</time>
      </trkpt>
      <trkpt lat="45.94169" lon="4.81632">
        <ele>267</ele>
        <time>2018-05-20T08:18:38Z</time>
      </trkpt>
      <trkpt lat="45.94172" lon="4.81643">
        <ele>268</ele>
        <time>2018-05-20T08:18:41Z</time>
      </trkpt>
      <trkpt lat="45.94173" lon="4.81647">
        <ele>268</ele>
        <time>2018-05-20T08:18:42Z</time>
      </trkpt>
      <trkpt lat="45.94176" lon="4.81659">
        <ele>268</ele>
        <time>2018-05-20T08:18:45Z</time>
      </trkpt>
      <trkpt lat="45.94177" lon="4.81663">
        <ele>268</ele>
        <time>2018-05-20T08:18:46Z</time>
      </trkpt>
      <trkpt lat="45.94178" lon="4.81674">
        <ele>268</ele>
        <time>2018-05-20T08:18:49Z</time>
      </trkpt>
      <trkpt lat="45.94179" lon="4.81678">
        <ele>268</ele>
        <time>2018-05-20T08:18:50Z</time>
      </trkpt>
      <trkpt lat="45.94181" lon="4.81689">
        <ele>267</ele>
        <time>2018-05-20T08:18:53Z</time>
      </trkpt>
      <trkpt lat="45.94182" lon="4.81692">
        <ele>267</ele>
        <time>2018-05-20T08:18:54Z</time>
      </trkpt>
      <trkpt lat="45.94186" lon="4.81703">
        <ele>267</ele>
        <time>2018-05-20T08:18:57Z</time>
      </trkpt>
      <trkpt lat="45.94187" lon="4.81706">
        <ele>267</ele>
        <time>2018-05-20T08:18:58Z</time>
      </trkpt>
      <trkpt lat="45.94188" lon="4.81718">
        <ele>267</ele>
        <time>2018-05-20T08:19:01Z</time>
      </trkpt>
      <trkpt lat="45.94188" lon="4.81732">
        <ele>267</ele>
        <time>2018-05-20T08:19:02Z</time>
      </trkpt>
      <trkpt lat="45.94189" lon="4.81743">
        <ele>267</ele>
        <time>2018-05-20T08:19:04Z</time>
      </trkpt>
      <trkpt lat="45.9419" lon="4.81748">
        <ele>267</ele>
        <time>2018-05-20T08:19:05Z</time>
      </trkpt>
      <trkpt lat="45.94194" lon="4.81757">
        <ele>266</ele>
        <time>2018-05-20T08:19:07Z</time>
      </trkpt>
      <trkpt lat="45.94196" lon="4.81761">
        <ele>266</ele>
        <time>2018-05-20T08:19:08Z</time>
      </trkpt>
      <trkpt lat="45.942" lon="4.8177">
        <ele>266</ele>
        <time>2018-05-20T08:19:10Z</time>
      </trkpt>
      <trkpt lat="45.94202" lon="4.81775">
        <ele>266</ele>
        <time>2018-05-20T08:19:11Z</time>
      </trkpt>
      <trkpt lat="45.94202" lon="4.81786">
        <ele>266</ele>
        <time>2018-05-20T08:19:13Z</time>
      </trkpt>
      <trkpt lat="45.94202" lon="4.81792">
        <ele>266</ele>
        <time>2018-05-20T08:19:14Z</time>
      </trkpt>
      <trkpt lat="45.94202" lon="4.81803">
        <ele>266</ele>
        <time>2018-05-20T08:19:16Z</time>
      </trkpt>
      <trkpt lat="45.94202" lon="4.81809">
        <ele>266</ele>
        <time>2018-05-20T08:19:17Z</time>
      </trkpt>
      <trkpt lat="45.94203" lon="4.8182">
        <ele>266</ele>
        <time>2018-05-20T08:19:19Z</time>
      </trkpt>
      <trkpt lat="45.94204" lon="4.81825">
        <ele>266</ele>
        <time>2018-05-20T08:19:20Z</time>
      </trkpt>
      <trkpt lat="45.94206" lon="4.81836">
        <ele>266</ele>
        <time>2018-05-20T08:19:22Z</time>
      </trkpt>
      <trkpt lat="45.94208" lon="4.81841">
        <ele>266</ele>
        <time>2018-05-20T08:19:23Z</time>
      </trkpt>
      <trkpt lat="45.9421" lon="4.81851">
        <ele>265</ele>
        <time>2018-05-20T08:19:25Z</time>
      </trkpt>
      <trkpt lat="45.94211" lon="4.81857">
        <ele>265</ele>
        <time>2018-05-20T08:19:26Z</time>
      </trkpt>
      <trkpt lat="45.94214" lon="4.81868">
        <ele>265</ele>
        <time>2018-05-20T08:19:28Z</time>
      </trkpt>
      <trkpt lat="45.94215" lon="4.81874">
        <ele>265</ele>
        <time>2018-05-20T08:19:29Z</time>
      </trkpt>
      <trkpt lat="45.94216" lon="4.81886">
        <ele>265</ele>
        <time>2018-05-20T08:19:31Z</time>
      </trkpt>
      <trkpt lat="45.94217" lon="4.81891">
        <ele>265</ele>
        <time>2018-05-20T08:19:32Z</time>
      </trkpt>
      <trkpt lat="45.9422" lon="4.81903">
        <ele>265</ele>
        <time>2018-05-20T08:19:34Z</time>
      </trkpt>
      <trkpt lat="45.94221" lon="4.8191">
        <ele>264</ele>
        <time>2018-05-20T08:19:35Z</time>
      </trkpt>
      <trkpt lat="45.94222" lon="4.81916">
        <ele>264</ele>
        <time>2018-05-20T08:19:36Z</time>
      </trkpt>
      <trkpt lat="45.94224" lon="4.81923">
        <ele>264</ele>
        <time>2018-05-20T08:19:37Z</time>
      </trkpt>
      <trkpt lat="45.94224" lon="4.81929">
        <ele>264</ele>
        <time>2018-05-20T08:19:38Z</time>
      </trkpt>
      <trkpt lat="45.94226" lon="4.81935">
        <ele>264</ele>
        <time>2018-05-20T08:19:39Z</time>
      </trkpt>
      <trkpt lat="45.94227" lon="4.81942">
        <ele>264</ele>
        <time>2018-05-20T08:19:40Z</time>
      </trkpt>
      <trkpt lat="45.94228" lon="4.81949">
        <ele>264</ele>
        <time>2018-05-20T08:19:41Z</time>
      </trkpt>
      <trkpt lat="45.94229" lon="4.81956">
        <ele>264</ele>
        <time>2018-05-20T08:19:42Z</time>
      </trkpt>
      <trkpt lat="45.94231" lon="4.81963">
        <ele>264</ele>
        <time>2018-05-20T08:19:43Z</time>
      </trkpt>
      <trkpt lat="45.94233" lon="4.81975">
        <ele>264</ele>
        <time>2018-05-20T08:19:45Z</time>
      </trkpt>
      <trkpt lat="45.94235" lon="4.81981">
        <ele>263</ele>
        <time>2018-05-20T08:19:46Z</time>
      </trkpt>
      <trkpt lat="45.94238" lon="4.81992">
        <ele>263</ele>
        <time>2018-05-20T08:19:48Z</time>
      </trkpt>
      <trkpt lat="45.94239" lon="4.81999">
        <ele>263</ele>
        <time>2018-05-20T08:19:49Z</time>
      </trkpt>
      <trkpt lat="45.9424" lon="4.82005">
        <ele>263</ele>
        <time>2018-05-20T08:19:50Z</time>
      </trkpt>
      <trkpt lat="45.94242" lon="4.82012">
        <ele>263</ele>
        <time>2018-05-20T08:19:51Z</time>
      </trkpt>
      <trkpt lat="45.94247" lon="4.82019">
        <ele>263</ele>
        <time>2018-05-20T08:19:52Z</time>
      </trkpt>
      <trkpt lat="45.94247" lon="4.82026">
        <ele>263</ele>
        <time>2018-05-20T08:19:53Z</time>
      </trkpt>
      <trkpt lat="45.9425" lon="4.82037">
        <ele>263</ele>
        <time>2018-05-20T08:19:55Z</time>
      </trkpt>
      <trkpt lat="45.94252" lon="4.82044">
        <ele>262</ele>
        <time>2018-05-20T08:19:56Z</time>
      </trkpt>
      <trkpt lat="45.94255" lon="4.82054">
        <ele>262</ele>
        <time>2018-05-20T08:19:58Z</time>
      </trkpt>
      <trkpt lat="45.94259" lon="4.8206">
        <ele>262</ele>
        <time>2018-05-20T08:19:59Z</time>
      </trkpt>
      <trkpt lat="45.9426" lon="4.82071">
        <ele>262</ele>
        <time>2018-05-20T08:20:01Z</time>
      </trkpt>
      <trkpt lat="45.94262" lon="4.82077">
        <ele>262</ele>
        <time>2018-05-20T08:20:02Z</time>
      </trkpt>
      <trkpt lat="45.94263" lon="4.82083">
        <ele>262</ele>
        <time>2018-05-20T08:20:03Z</time>
      </trkpt>
      <trkpt lat="45.94264" lon="4.8209">
        <ele>262</ele>
        <time>2018-05-20T08:20:04Z</time>
      </trkpt>
      <trkpt lat="45.94265" lon="4.82096">
        <ele>262</ele>
        <time>2018-05-20T08:20:05Z</time>
      </trkpt>
      <trkpt lat="45.94266" lon="4.82104">
        <ele>263</ele>
        <time>2018-05-20T08:20:06Z</time>
      </trkpt>
      <trkpt lat="45.94268" lon="4.8211">
        <ele>263</ele>
        <time>2018-05-20T08:20:07Z</time>
      </trkpt>
      <trkpt lat="45.94269" lon="4.82117">
        <ele>263</ele>
        <time>2018-05-20T08:20:08Z</time>
      </trkpt>
      <trkpt lat="45.94272" lon="4.82125">
        <ele>263</ele>
        <time>2018-05-20T08:20:09Z</time>
      </trkpt>
      <trkpt lat="45.94274" lon="4.82132">
        <ele>263</ele>
        <time>2018-05-20T08:20:10Z</time>
      </trkpt>
      <trkpt lat="45.94274" lon="4.82139">
        <ele>263</ele>
        <time>2018-05-20T08:20:11Z</time>
      </trkpt>
      <trkpt lat="45.94276" lon="4.82147">
        <ele>263</ele>
        <time>2018-05-20T08:20:12Z</time>
      </trkpt>
      <trkpt lat="45.94277" lon="4.8216">
        <ele>263</ele>
        <time>2018-05-20T08:20:14Z</time>
      </trkpt>
      <trkpt lat="45.94278" lon="4.82165">
        <ele>263</ele>
        <time>2018-05-20T08:20:15Z</time>
      </trkpt>
      <trkpt lat="45.9428" lon="4.82177">
        <ele>264</ele>
        <time>2018-05-20T08:20:17Z</time>
      </trkpt>
      <trkpt lat="45.94281" lon="4.82184">
        <ele>264</ele>
        <time>2018-05-20T08:20:18Z</time>
      </trkpt>
      <trkpt lat="45.94282" lon="4.82191">
        <ele>264</ele>
        <time>2018-05-20T08:20:19Z</time>
      </trkpt>
      <trkpt lat="45.94282" lon="4.82198">
        <ele>264</ele>
        <time>2018-05-20T08:20:20Z</time>
      </trkpt>
      <trkpt lat="45.94282" lon="4.82207">
        <ele>264</ele>
        <time>2018-05-20T08:20:21Z</time>
      </trkpt>
      <trkpt lat="45.94283" lon="4.82213">
        <ele>264</ele>
        <time>2018-05-20T08:20:22Z</time>
      </trkpt>
      <trkpt lat="45.94284" lon="4.82221">
        <ele>264</ele>
        <time>2018-05-20T08:20:23Z</time>
      </trkpt>
      <trkpt lat="45.94285" lon="4.82227">
        <ele>264</ele>
        <time>2018-05-20T08:20:24Z</time>
      </trkpt>
      <trkpt lat="45.94285" lon="4.82233">
        <ele>264</ele>
        <time>2018-05-20T08:20:25Z</time>
      </trkpt>
      <trkpt lat="45.94285" lon="4.8224">
        <ele>264</ele>
        <time>2018-05-20T08:20:26Z</time>
      </trkpt>
      <trkpt lat="45.94285" lon="4.82247">
        <ele>264</ele>
        <time>2018-05-20T08:20:27Z</time>
      </trkpt>
      <trkpt lat="45.94285" lon="4.82253">
        <ele>265</ele>
        <time>2018-05-20T08:20:28Z</time>
      </trkpt>
      <trkpt lat="45.94285" lon="4.8226">
        <ele>265</ele>
        <time>2018-05-20T08:20:29Z</time>
      </trkpt>
      <trkpt lat="45.94285" lon="4.82268">
        <ele>265</ele>
        <time>2018-05-20T08:20:30Z</time>
      </trkpt>
      <trkpt lat="45.94285" lon="4.82276">
        <ele>265</ele>
        <time>2018-05-20T08:20:31Z</time>
      </trkpt>
      <trkpt lat="45.94285" lon="4.82284">
        <ele>265</ele>
        <time>2018-05-20T08:20:32Z</time>
      </trkpt>
      <trkpt lat="45.94285" lon="4.8229">
        <ele>265</ele>
        <time>2018-05-20T08:20:33Z</time>
      </trkpt>
      <trkpt lat="45.94285" lon="4.82297">
        <ele>265</ele>
        <time>2018-05-20T08:20:34Z</time>
      </trkpt>
      <trkpt lat="45.94285" lon="4.82305">
        <ele>265</ele>
        <time>2018-05-20T08:20:35Z</time>
      </trkpt>
      <trkpt lat="45.94286" lon="4.82312">
        <ele>265</ele>
        <time>2018-05-20T08:20:36Z</time>
      </trkpt>
      <trkpt lat="45.94288" lon="4.82323">
        <ele>265</ele>
        <time>2018-05-20T08:20:38Z</time>
      </trkpt>
      <trkpt lat="45.94289" lon="4.82329">
        <ele>265</ele>
        <time>2018-05-20T08:20:39Z</time>
      </trkpt>
      <trkpt lat="45.94289" lon="4.82336">
        <ele>264</ele>
        <time>2018-05-20T08:20:40Z</time>
      </trkpt>
      <trkpt lat="45.94289" lon="4.82342">
        <ele>264</ele>
        <time>2018-05-20T08:20:41Z</time>
      </trkpt>
      <trkpt lat="45.94288" lon="4.82349">
        <ele>264</ele>
        <time>2018-05-20T08:20:42Z</time>
      </trkpt>
      <trkpt lat="45.94289" lon="4.82357">
        <ele>264</ele>
        <time>2018-05-20T08:20:43Z</time>
      </trkpt>
      <trkpt lat="45.94289" lon="4.82369">
        <ele>264</ele>
        <time>2018-05-20T08:20:45Z</time>
      </trkpt>
      <trkpt lat="45.94289" lon="4.82376">
        <ele>264</ele>
        <time>2018-05-20T08:20:46Z</time>
      </trkpt>
      <trkpt lat="45.94291" lon="4.82382">
        <ele>264</ele>
        <time>2018-05-20T08:20:47Z</time>
      </trkpt>
      <trkpt lat="45.94292" lon="4.8239">
        <ele>264</ele>
        <time>2018-05-20T08:20:48Z</time>
      </trkpt>
      <trkpt lat="45.94292" lon="4.82397">
        <ele>264</ele>
        <time>2018-05-20T08:20:49Z</time>
      </trkpt>
      <trkpt lat="45.94292" lon="4.82404">
        <ele>264</ele>
        <time>2018-05-20T08:20:50Z</time>
      </trkpt>
      <trkpt lat="45.94293" lon="4.82416">
        <ele>264</ele>
        <time>2018-05-20T08:20:52Z</time>
      </trkpt>
      <trkpt lat="45.94293" lon="4.82424">
        <ele>264</ele>
        <time>2018-05-20T08:20:53Z</time>
      </trkpt>
      <trkpt lat="45.94293" lon="4.8243">
        <ele>264</ele>
        <time>2018-05-20T08:20:54Z</time>
      </trkpt>
      <trkpt lat="45.94293" lon="4.82437">
        <ele>264</ele>
        <time>2018-05-20T08:20:55Z</time>
      </trkpt>
      <trkpt lat="45.94293" lon="4.82443">
        <ele>264</ele>
        <time>2018-05-20T08:20:56Z</time>
      </trkpt>
      <trkpt lat="45.94294" lon="4.8245">
        <ele>264</ele>
        <time>2018-05-20T08:20:57Z</time>
      </trkpt>
      <trkpt lat="45.94295" lon="4.82457">
        <ele>264</ele>
        <time>2018-05-20T08:20:58Z</time>
      </trkpt>
      <trkpt lat="45.94295" lon="4.82464">
        <ele>264</ele>
        <time>2018-05-20T08:20:59Z</time>
      </trkpt>
      <trkpt lat="45.94295" lon="4.82471">
        <ele>264</ele>
        <time>2018-05-20T08:21:00Z</time>
      </trkpt>
      <trkpt lat="45.94295" lon="4.82477">
        <ele>264</ele>
        <time>2018-05-20T08:21:01Z</time>
      </trkpt>
      <trkpt lat="45.94295" lon="4.82485">
        <ele>264</ele>
        <time>2018-05-20T08:21:02Z</time>
      </trkpt>
      <trkpt lat="45.94295" lon="4.82491">
        <ele>264</ele>
        <time>2018-05-20T08:21:03Z</time>
      </trkpt>
      <trkpt lat="45.94296" lon="4.82498">
        <ele>264</ele>
        <time>2018-05-20T08:21:04Z</time>
      </trkpt>
      <trkpt lat="45.94296" lon="4.82506">
        <ele>264</ele>
        <time>2018-05-20T08:21:05Z</time>
      </trkpt>
      <trkpt lat="45.94296" lon="4.82513">
        <ele>264</ele>
        <time>2018-05-20T08:21:06Z</time>
      </trkpt>
      <trkpt lat="45.94296" lon="4.8252">
        <ele>264</ele>
        <time>2018-05-20T08:21:07Z</time>
      </trkpt>
      <trkpt lat="45.94296" lon="4.82527">
        <ele>264</ele>
        <time>2018-05-20T08:21:08Z</time>
      </trkpt>
      <trkpt lat="45.94296" lon="4.82534">
        <ele>264</ele>
        <time>2018-05-20T08:21:09Z</time>
      </trkpt>
      <trkpt lat="45.94296" lon="4.82541">
        <ele>264</ele>
        <time>2018-05-20T08:21:10Z</time>
      </trkpt>
      <trkpt lat="45.94296" lon="4.82548">
        <ele>264</ele>
        <time>2018-05-20T08:21:11Z</time>
      </trkpt>
      <trkpt lat="45.94296" lon="4.82555">
        <ele>264</ele>
        <time>2018-05-20T08:21:12Z</time>
      </trkpt>
      <trkpt lat="45.94296" lon="4.82562">
        <ele>264</ele>
        <time>2018-05-20T08:21:13Z</time>
      </trkpt>
      <trkpt lat="45.94296" lon="4.82569">
        <ele>264</ele>
        <time>2018-05-20T08:21:14Z</time>
      </trkpt>
      <trkpt lat="45.94294" lon="4.82576">
        <ele>264</ele>
        <time>2018-05-20T08:21:15Z</time>
      </trkpt>
      <trkpt lat="45.94295" lon="4.82583">
        <ele>264</ele>
        <time>2018-05-20T08:21:16Z</time>
      </trkpt>
      <trkpt lat="45.94294" lon="4.82591">
        <ele>265</ele>
        <time>2018-05-20T08:21:17Z</time>
      </trkpt>
      <trkpt lat="45.94293" lon="4.82597">
        <ele>265</ele>
        <time>2018-05-20T08:21:18Z</time>
      </trkpt>
      <trkpt lat="45.94293" lon="4.82604">
        <ele>265</ele>
        <time>2018-05-20T08:21:19Z</time>
      </trkpt>
      <trkpt lat="45.94293" lon="4.8261">
        <ele>265</ele>
        <time>2018-05-20T08:21:20Z</time>
      </trkpt>
      <trkpt lat="45.94293" lon="4.82617">
        <ele>265</ele>
        <time>2018-05-20T08:21:21Z</time>
      </trkpt>
      <trkpt lat="45.94292" lon="4.82628">
        <ele>265</ele>
        <time>2018-05-20T08:21:23Z</time>
      </trkpt>
      <trkpt lat="45.94292" lon="4.82634">
        <ele>265</ele>
        <time>2018-05-20T08:21:24Z</time>
      </trkpt>
      <trkpt lat="45.94292" lon="4.8264">
        <ele>265</ele>
        <time>2018-05-20T08:21:25Z</time>
      </trkpt>
      <trkpt lat="45.94293" lon="4.82647">
        <ele>265</ele>
        <time>2018-05-20T08:21:26Z</time>
      </trkpt>
      <trkpt lat="45.94293" lon="4.82654">
        <ele>265</ele>
        <time>2018-05-20T08:21:27Z</time>
      </trkpt>
      <trkpt lat="45.94292" lon="4.8266">
        <ele>265</ele>
        <time>2018-05-20T08:21:28Z</time>
      </trkpt>
      <trkpt lat="45.94292" lon="4.82667">
        <ele>265</ele>
        <time>2018-05-20T08:21:29Z</time>
      </trkpt>
      <trkpt lat="45.94292" lon="4.82673">
        <ele>265</ele>
        <time>2018-05-20T08:21:30Z</time>
      </trkpt>
      <trkpt lat="45.94292" lon="4.82681">
        <ele>265</ele>
        <time>2018-05-20T08:21:31Z</time>
      </trkpt>
      <trkpt lat="45.94292" lon="4.82687">
        <ele>265</ele>
        <time>2018-05-20T08:21:32Z</time>
      </trkpt>
      <trkpt lat="45.94292" lon="4.82694">
        <ele>265</ele>
        <time>2018-05-20T08:21:33Z</time>
      </trkpt>
      <trkpt lat="45.94292" lon="4.82701">
        <ele>265</ele>
        <time>2018-05-20T08:21:34Z</time>
      </trkpt>
      <trkpt lat="45.94291" lon="4.82712">
        <ele>265</ele>
        <time>2018-05-20T08:21:36Z</time>
      </trkpt>
      <trkpt lat="45.9429" lon="4.82719">
        <ele>265</ele>
        <time>2018-05-20T08:21:37Z</time>
      </trkpt>
      <trkpt lat="45.94289" lon="4.82726">
        <ele>265</ele>
        <time>2018-05-20T08:21:38Z</time>
      </trkpt>
      <trkpt lat="45.94289" lon="4.82733">
        <ele>265</ele>
        <time>2018-05-20T08:21:39Z</time>
      </trkpt>
      <trkpt lat="45.9429" lon="4.82745">
        <ele>265</ele>
        <time>2018-05-20T08:21:41Z</time>
      </trkpt>
      <trkpt lat="45.9429" lon="4.8275">
        <ele>265</ele>
        <time>2018-05-20T08:21:42Z</time>
      </trkpt>
      <trkpt lat="45.94291" lon="4.82758">
        <ele>265</ele>
        <time>2018-05-20T08:21:43Z</time>
      </trkpt>
      <trkpt lat="45.94291" lon="4.82764">
        <ele>265</ele>
        <time>2018-05-20T08:21:44Z</time>
      </trkpt>
      <trkpt lat="45.9429" lon="4.82776">
        <ele>265</ele>
        <time>2018-05-20T08:21:46Z</time>
      </trkpt>
      <trkpt lat="45.94291" lon="4.82783">
        <ele>265</ele>
        <time>2018-05-20T08:21:47Z</time>
      </trkpt>
      <trkpt lat="45.9429" lon="4.8279">
        <ele>265</ele>
        <time>2018-05-20T08:21:48Z</time>
      </trkpt>
      <trkpt lat="45.9429" lon="4.82797">
        <ele>265</ele>
        <time>2018-05-20T08:21:49Z</time>
      </trkpt>
      <trkpt lat="45.9429" lon="4.82804">
        <ele>265</ele>
        <time>2018-05-20T08:21:50Z</time>
      </trkpt>
      <trkpt lat="45.94289" lon="4.82811">
        <ele>265</ele>
        <time>2018-05-20T08:21:51Z</time>
      </trkpt>
      <trkpt lat="45.94289" lon="4.82818">
        <ele>265</ele>
        <time>2018-05-20T08:21:52Z</time>
      </trkpt>
      <trkpt lat="45.94289" lon="4.82825">
        <ele>265</ele>
        <time>2018-05-20T08:21:53Z</time>
      </trkpt>
      <trkpt lat="45.94289" lon="4.82837">
        <ele>265</ele>
        <time>2018-05-20T08:21:55Z</time>
      </trkpt>
      <trkpt lat="45.94289" lon="4.82845">
        <ele>265</ele>
        <time>2018-05-20T08:21:56Z</time>
      </trkpt>
      <trkpt lat="45.94289" lon="4.82852">
        <ele>265</ele>
        <time>2018-05-20T08:21:57Z</time>
      </trkpt>
      <trkpt lat="45.94288" lon="4.82859">
        <ele>265</ele>
        <time>2018-05-20T08:21:58Z</time>
      </trkpt>
      <trkpt lat="45.94288" lon="4.82866">
        <ele>265</ele>
        <time>2018-05-20T08:21:59Z</time>
      </trkpt>
      <trkpt lat="45.94288" lon="4.82873">
        <ele>265</ele>
        <time>2018-05-20T08:22:00Z</time>
      </trkpt>
      <trkpt lat="45.94288" lon="4.82881">
        <ele>265</ele>
        <time>2018-05-20T08:22:01Z</time>
      </trkpt>
      <trkpt lat="45.94286" lon="4.82887">
        <ele>265</ele>
        <time>2018-05-20T08:22:02Z</time>
      </trkpt>
      <trkpt lat="45.94285" lon="4.82893">
        <ele>265</ele>
        <time>2018-05-20T08:22:03Z</time>
      </trkpt>
      <trkpt lat="45.94285" lon="4.82901">
        <ele>265</ele>
        <time>2018-05-20T08:22:04Z</time>
      </trkpt>
      <trkpt lat="45.94285" lon="4.82908">
        <ele>265</ele>
        <time>2018-05-20T08:22:05Z</time>
      </trkpt>
      <trkpt lat="45.94284" lon="4.82915">
        <ele>265</ele>
        <time>2018-05-20T08:22:06Z</time>
      </trkpt>
      <trkpt lat="45.94285" lon="4.82921">
        <ele>265</ele>
        <time>2018-05-20T08:22:07Z</time>
      </trkpt>
      <trkpt lat="45.94285" lon="4.82929">
        <ele>265</ele>
        <time>2018-05-20T08:22:08Z</time>
      </trkpt>
      <trkpt lat="45.94284" lon="4.82936">
        <ele>265</ele>
        <time>2018-05-20T08:22:09Z</time>
      </trkpt>
      <trkpt lat="45.94283" lon="4.82943">
        <ele>265</ele>
        <time>2018-05-20T08:22:10Z</time>
      </trkpt>
      <trkpt lat="45.94282" lon="4.82951">
        <ele>265</ele>
        <time>2018-05-20T08:22:11Z</time>
      </trkpt>
      <trkpt lat="45.94282" lon="4.82959">
        <ele>265</ele>
        <time>2018-05-20T08:22:12Z</time>
      </trkpt>
      <trkpt lat="45.94283" lon="4.82965">
        <ele>265</ele>
        <time>2018-05-20T08:22:13Z</time>
      </trkpt>
      <trkpt lat="45.94284" lon="4.82972">
        <ele>265</ele>
        <time>2018-05-20T08:22:14Z</time>
      </trkpt>
      <trkpt lat="45.94286" lon="4.8298">
        <ele>265</ele>
        <time>2018-05-20T08:22:15Z</time>
      </trkpt>
      <trkpt lat="45.9429" lon="4.82989">
        <ele>265</ele>
        <time>2018-05-20T08:22:16Z</time>
      </trkpt>
      <trkpt lat="45.94294" lon="4.82995">
        <ele>265</ele>
        <time>2018-05-20T08:22:17Z</time>
      </trkpt>
      <trkpt lat="45.94296" lon="4.83002">
        <ele>266</ele>
        <time>2018-05-20T08:22:18Z</time>
      </trkpt>
      <trkpt lat="45.943" lon="4.83009">
        <ele>266</ele>
        <time>2018-05-20T08:22:19Z</time>
      </trkpt>
      <trkpt lat="45.94301" lon="4.83016">
        <ele>266</ele>
        <time>2018-05-20T08:22:20Z</time>
      </trkpt>
      <trkpt lat="45.94302" lon="4.83023">
        <ele>266</ele>
        <time>2018-05-20T08:22:21Z</time>
      </trkpt>
      <trkpt lat="45.94303" lon="4.83029">
        <ele>266</ele>
        <time>2018-05-20T08:22:22Z</time>
      </trkpt>
      <trkpt lat="45.94304" lon="4.83035">
        <ele>266</ele>
        <time>2018-05-20T08:22:23Z</time>
      </trkpt>
      <trkpt lat="45.94306" lon="4.83042">
        <ele>266</ele>
        <time>2018-05-20T08:22:24Z</time>
      </trkpt>
      <trkpt lat="45.94307" lon="4.83048">
        <ele>266</ele>
        <time>2018-05-20T08:22:25Z</time>
      </trkpt>
      <trkpt lat="45.94308" lon="4.83054">
        <ele>266</ele>
        <time>2018-05-20T08:22:26Z</time>
      </trkpt>
      <trkpt lat="45.9431" lon="4.83061">
        <ele>266</ele>
        <time>2018-05-20T08:22:27Z</time>
      </trkpt>
      <trkpt lat="45.94311" lon="4.83068">
        <ele>266</ele>
        <time>2018-05-20T08:22:28Z</time>
      </trkpt>
      <trkpt lat="45.94313" lon="4.83075">
        <ele>266</ele>
        <time>2018-05-20T08:22:29Z</time>
      </trkpt>
      <trkpt lat="45.94314" lon="4.83082">
        <ele>266</ele>
        <time>2018-05-20T08:22:30Z</time>
      </trkpt>
      <trkpt lat="45.94316" lon="4.83089">
        <ele>266</ele>
        <time>2018-05-20T08:22:31Z</time>
      </trkpt>
      <trkpt lat="45.94318" lon="4.83096">
        <ele>266</ele>
        <time>2018-05-20T08:22:32Z</time>
      </trkpt>
      <trkpt lat="45.9432" lon="4.83103">
        <ele>266</ele>
        <time>2018-05-20T08:22:33Z</time>
      </trkpt>
      <trkpt lat="45.94321" lon="4.83109">
        <ele>266</ele>
        <time>2018-05-20T08:22:34Z</time>
      </trkpt>
      <trkpt lat="45.94324" lon="4.83115">
        <ele>266</ele>
        <time>2018-05-20T08:22:35Z</time>
      </trkpt>
      <trkpt lat="45.94326" lon="4.8312">
        <ele>266</ele>
        <time>2018-05-20T08:22:36Z</time>
      </trkpt>
      <trkpt lat="45.94328" lon="4.83125">
        <ele>266</ele>
        <time>2018-05-20T08:22:37Z</time>
      </trkpt>
      <trkpt lat="45.94332" lon="4.83132">
        <ele>266</ele>
        <time>2018-05-20T08:22:38Z</time>
      </trkpt>
      <trkpt lat="45.94335" lon="4.83143">
        <ele>266</ele>
        <time>2018-05-20T08:22:40Z</time>
      </trkpt>
      <trkpt lat="45.94337" lon="4.83149">
        <ele>266</ele>
        <time>2018-05-20T08:22:41Z</time>
      </trkpt>
      <trkpt lat="45.9434" lon="4.83155">
        <ele>266</ele>
        <time>2018-05-20T08:22:42Z</time>
      </trkpt>
      <trkpt lat="45.94342" lon="4.83161">
        <ele>266</ele>
        <time>2018-05-20T08:22:43Z</time>
      </trkpt>
      <trkpt lat="45.94345" lon="4.83168">
        <ele>266</ele>
        <time>2018-05-20T08:22:44Z</time>
      </trkpt>
      <trkpt lat="45.94346" lon="4.83175">
        <ele>266</ele>
        <time>2018-05-20T08:22:45Z</time>
      </trkpt>
      <trkpt lat="45.94348" lon="4.83183">
        <ele>266</ele>
        <time>2018-05-20T08:22:46Z</time>
      </trkpt>
      <trkpt lat="45.94351" lon="4.8319">
        <ele>266</ele>
        <time>2018-05-20T08:22:47Z</time>
      </trkpt>
      <trkpt lat="45.94353" lon="4.83197">
        <ele>266</ele>
        <time>2018-05-20T08:22:48Z</time>
      </trkpt>
      <trkpt lat="45.94355" lon="4.83204">
        <ele>266</ele>
        <time>2018-05-20T08:22:49Z</time>
      </trkpt>
      <trkpt lat="45.94357" lon="4.83211">
        <ele>266</ele>
        <time>2018-05-20T08:22:50Z</time>
      </trkpt>
      <trkpt lat="45.94359" lon="4.83218">
        <ele>266</ele>
        <time>2018-05-20T08:22:51Z</time>
      </trkpt>
      <trkpt lat="45.94362" lon="4.83225">
        <ele>266</ele>
        <time>2018-05-20T08:22:52Z</time>
      </trkpt>
      <trkpt lat="45.94364" lon="4.83231">
        <ele>266</ele>
        <time>2018-05-20T08:22:53Z</time>
      </trkpt>
      <trkpt lat="45.94366" lon="4.83238">
        <ele>265</ele>
        <time>2018-05-20T08:22:54Z</time>
      </trkpt>
      <trkpt lat="45.94368" lon="4.83244">
        <ele>265</ele>
        <time>2018-05-20T08:22:55Z</time>
      </trkpt>
      <trkpt lat="45.9437" lon="4.8325">
        <ele>265</ele>
        <time>2018-05-20T08:22:56Z</time>
      </trkpt>
      <trkpt lat="45.94373" lon="4.83257">
        <ele>265</ele>
        <time>2018-05-20T08:22:57Z</time>
      </trkpt>
      <trkpt lat="45.94375" lon="4.83265">
        <ele>264</ele>
        <time>2018-05-20T08:22:58Z</time>
      </trkpt>
      <trkpt lat="45.94378" lon="4.83273">
        <ele>264</ele>
        <time>2018-05-20T08:22:59Z</time>
      </trkpt>
      <trkpt lat="45.9438" lon="4.83281">
        <ele>264</ele>
        <time>2018-05-20T08:23:00Z</time>
      </trkpt>
      <trkpt lat="45.94382" lon="4.83287">
        <ele>264</ele>
        <time>2018-05-20T08:23:01Z</time>
      </trkpt>
      <trkpt lat="45.94385" lon="4.83293">
        <ele>264</ele>
        <time>2018-05-20T08:23:02Z</time>
      </trkpt>
      <trkpt lat="45.94388" lon="4.833">
        <ele>264</ele>
        <time>2018-05-20T08:23:03Z</time>
      </trkpt>
      <trkpt lat="45.94391" lon="4.83306">
        <ele>264</ele>
        <time>2018-05-20T08:23:04Z</time>
      </trkpt>
      <trkpt lat="45.94393" lon="4.83313">
        <ele>264</ele>
        <time>2018-05-20T08:23:05Z</time>
      </trkpt>
      <trkpt lat="45.94395" lon="4.83319">
        <ele>264</ele>
        <time>2018-05-20T08:23:06Z</time>
      </trkpt>
      <trkpt lat="45.94397" lon="4.83325">
        <ele>264</ele>
        <time>2018-05-20T08:23:07Z</time>
      </trkpt>
      <trkpt lat="45.94399" lon="4.83331">
        <ele>264</ele>
        <time>2018-05-20T08:23:08Z</time>
      </trkpt>
      <trkpt lat="45.94403" lon="4.83337">
        <ele>263</ele>
        <time>2018-05-20T08:23:09Z</time>
      </trkpt>
      <trkpt lat="45.94405" lon="4.83343">
        <ele>263</ele>
        <time>2018-05-20T08:23:10Z</time>
      </trkpt>
      <trkpt lat="45.94407" lon="4.8335">
        <ele>263</ele>
        <time>2018-05-20T08:23:11Z</time>
      </trkpt>
      <trkpt lat="45.9441" lon="4.83355">
        <ele>263</ele>
        <time>2018-05-20T08:23:12Z</time>
      </trkpt>
      <trkpt lat="45.94413" lon="4.83361">
        <ele>264</ele>
        <time>2018-05-20T08:23:13Z</time>
      </trkpt>
      <trkpt lat="45.94415" lon="4.83368">
        <ele>264</ele>
        <time>2018-05-20T08:23:14Z</time>
      </trkpt>
      <trkpt lat="45.94417" lon="4.83375">
        <ele>264</ele>
        <time>2018-05-20T08:23:15Z</time>
      </trkpt>
      <trkpt lat="45.94421" lon="4.83379">
        <ele>264</ele>
        <time>2018-05-20T08:23:16Z</time>
      </trkpt>
      <trkpt lat="45.94423" lon="4.83385">
        <ele>264</ele>
        <time>2018-05-20T08:23:17Z</time>
      </trkpt>
      <trkpt lat="45.94427" lon="4.83391">
        <ele>264</ele>
        <time>2018-05-20T08:23:18Z</time>
      </trkpt>
      <trkpt lat="45.9443" lon="4.83396">
        <ele>264</ele>
        <time>2018-05-20T08:23:19Z</time>
      </trkpt>
      <trkpt lat="45.94433" lon="4.83399">
        <ele>264</ele>
        <time>2018-05-20T08:23:20Z</time>
      </trkpt>
      <trkpt lat="45.94436" lon="4.83405">
        <ele>264</ele>
        <time>2018-05-20T08:23:21Z</time>
      </trkpt>
      <trkpt lat="45.94439" lon="4.83411">
        <ele>264</ele>
        <time>2018-05-20T08:23:22Z</time>
      </trkpt>
      <trkpt lat="45.94442" lon="4.83416">
        <ele>264</ele>
        <time>2018-05-20T08:23:23Z</time>
      </trkpt>
      <trkpt lat="45.94444" lon="4.83421">
        <ele>264</ele>
        <time>2018-05-20T08:23:24Z</time>
      </trkpt>
      <trkpt lat="45.94447" lon="4.83427">
        <ele>264</ele>
        <time>2018-05-20T08:23:25Z</time>
      </trkpt>
      <trkpt lat="45.9445" lon="4.83432">
        <ele>263</ele>
        <time>2018-05-20T08:23:26Z</time>
      </trkpt>
      <trkpt lat="45.94453" lon="4.83439">
        <ele>263</ele>
        <time>2018-05-20T08:23:27Z</time>
      </trkpt>
      <trkpt lat="45.94457" lon="4.83445">
        <ele>263</ele>
        <time>2018-05-20T08:23:28Z</time>
      </trkpt>
      <trkpt lat="45.9446" lon="4.8345">
        <ele>263</ele>
        <time>2018-05-20T08:23:29Z</time>
      </trkpt>
      <trkpt lat="45.94462" lon="4.83455">
        <ele>263</ele>
        <time>2018-05-20T08:23:30Z</time>
      </trkpt>
      <trkpt lat="45.94465" lon="4.83462">
        <ele>263</ele>
        <time>2018-05-20T08:23:31Z</time>
      </trkpt>
      <trkpt lat="45.94469" lon="4.83468">
        <ele>263</ele>
        <time>2018-05-20T08:23:32Z</time>
      </trkpt>
      <trkpt lat="45.94473" lon="4.83476">
        <ele>263</ele>
        <time>2018-05-20T08:23:33Z</time>
      </trkpt>
      <trkpt lat="45.94477" lon="4.83483">
        <ele>263</ele>
        <time>2018-05-20T08:23:34Z</time>
      </trkpt>
      <trkpt lat="45.94481" lon="4.8349">
        <ele>263</ele>
        <time>2018-05-20T08:23:35Z</time>
      </trkpt>
      <trkpt lat="45.94486" lon="4.83496">
        <ele>263</ele>
        <time>2018-05-20T08:23:36Z</time>
      </trkpt>
      <trkpt lat="45.9449" lon="4.83503">
        <ele>262</ele>
        <time>2018-05-20T08:23:37Z</time>
      </trkpt>
      <trkpt lat="45.94494" lon="4.83509">
        <ele>262</ele>
        <time>2018-05-20T08:23:38Z</time>
      </trkpt>
      <trkpt lat="45.94497" lon="4.83515">
        <ele>262</ele>
        <time>2018-05-20T08:23:39Z</time>
      </trkpt>
      <trkpt lat="45.94501" lon="4.83522">
        <ele>262</ele>
        <time>2018-05-20T08:23:40Z</time>
      </trkpt>
      <trkpt lat="45.94505" lon="4.83526">
        <ele>262</ele>
        <time>2018-05-20T08:23:41Z</time>
      </trkpt>
      <trkpt lat="45.94509" lon="4.83532">
        <ele>262</ele>
        <time>2018-05-20T08:23:42Z</time>
      </trkpt>
      <trkpt lat="45.94514" lon="4.83537">
        <ele>262</ele>
        <time>2018-05-20T08:23:43Z</time>
      </trkpt>
      <trkpt lat="45.94517" lon="4.83543">
        <ele>261</ele>
        <time>2018-05-20T08:23:44Z</time>
      </trkpt>
      <trkpt lat="45.9452" lon="4.83549">
        <ele>261</ele>
        <time>2018-05-20T08:23:45Z</time>
      </trkpt>
      <trkpt lat="45.94523" lon="4.83554">
        <ele>261</ele>
        <time>2018-05-20T08:23:46Z</time>
      </trkpt>
      <trkpt lat="45.94527" lon="4.83559">
        <ele>261</ele>
        <time>2018-05-20T08:23:47Z</time>
      </trkpt>
      <trkpt lat="45.94531" lon="4.83566">
        <ele>261</ele>
        <time>2018-05-20T08:23:48Z</time>
      </trkpt>
      <trkpt lat="45.94534" lon="4.83571">
        <ele>261</ele>
        <time>2018-05-20T08:23:49Z</time>
      </trkpt>
      <trkpt lat="45.94537" lon="4.83577">
        <ele>261</ele>
        <time>2018-05-20T08:23:50Z</time>
      </trkpt>
      <trkpt lat="45.94541" lon="4.83581">
        <ele>261</ele>
        <time>2018-05-20T08:23:51Z</time>
      </trkpt>
      <trkpt lat="45.94544" lon="4.83587">
        <ele>261</ele>
        <time>2018-05-20T08:23:52Z</time>
      </trkpt>
      <trkpt lat="45.94547" lon="4.83593">
        <ele>261</ele>
        <time>2018-05-20T08:23:53Z</time>
      </trkpt>
      <trkpt lat="45.94551" lon="4.83598">
        <ele>261</ele>
        <time>2018-05-20T08:23:54Z</time>
      </trkpt>
      <trkpt lat="45.94555" lon="4.83603">
        <ele>261</ele>
        <time>2018-05-20T08:23:55Z</time>
      </trkpt>
      <trkpt lat="45.94559" lon="4.83607">
        <ele>261</ele>
        <time>2018-05-20T08:23:56Z</time>
      </trkpt>
      <trkpt lat="45.94563" lon="4.83612">
        <ele>261</ele>
        <time>2018-05-20T08:23:57Z</time>
      </trkpt>
      <trkpt lat="45.94568" lon="4.83616">
        <ele>261</ele>
        <time>2018-05-20T08:23:58Z</time>
      </trkpt>
      <trkpt lat="45.94572" lon="4.8362">
        <ele>261</ele>
        <time>2018-05-20T08:23:59Z</time>
      </trkpt>
      <trkpt lat="45.94576" lon="4.83625">
        <ele>261</ele>
        <time>2018-05-20T08:24:00Z</time>
      </trkpt>
      <trkpt lat="45.9458" lon="4.83629">
        <ele>261</ele>
        <time>2018-05-20T08:24:01Z</time>
      </trkpt>
      <trkpt lat="45.94584" lon="4.83633">
        <ele>260</ele>
        <time>2018-05-20T08:24:02Z</time>
      </trkpt>
      <trkpt lat="45.94588" lon="4.83637">
        <ele>260</ele>
        <time>2018-05-20T08:24:03Z</time>
      </trkpt>
      <trkpt lat="45.94593" lon="4.83641">
        <ele>260</ele>
        <time>2018-05-20T08:24:04Z</time>
      </trkpt>
      <trkpt lat="45.94597" lon="4.83646">
        <ele>260</ele>
        <time>2018-05-20T08:24:05Z</time>
      </trkpt>
      <trkpt lat="45.94601" lon="4.8365">
        <ele>260</ele>
        <time>2018-05-20T08:24:06Z</time>
      </trkpt>
      <trkpt lat="45.94606" lon="4.83653">
        <ele>260</ele>
        <time>2018-05-20T08:24:07Z</time>
      </trkpt>
      <trkpt lat="45.9461" lon="4.83657">
        <ele>260</ele>
        <time>2018-05-20T08:24:08Z</time>
      </trkpt>
      <trkpt lat="45.94614" lon="4.83662">
        <ele>260</ele>
        <time>2018-05-20T08:24:09Z</time>
      </trkpt>
      <trkpt lat="45.94618" lon="4.83666">
        <ele>260</ele>
        <time>2018-05-20T08:24:10Z</time>
      </trkpt>
      <trkpt lat="45.94622" lon="4.8367">
        <ele>261</ele>
        <time>2018-05-20T08:24:11Z</time>
      </trkpt>
      <trkpt lat="45.94626" lon="4.83675">
        <ele>261</ele>
        <time>2018-05-20T08:24:12Z</time>
      </trkpt>
      <trkpt lat="45.9463" lon="4.83679">
        <ele>261</ele>
        <time>2018-05-20T08:24:13Z</time>
      </trkpt>
      <trkpt lat="45.94635" lon="4.83683">
        <ele>261</ele>
        <time>2018-05-20T08:24:14Z</time>
      </trkpt>
      <trkpt lat="45.94639" lon="4.83687">
        <ele>261</ele>
        <time>2018-05-20T08:24:15Z</time>
      </trkpt>
      <trkpt lat="45.94644" lon="4.83691">
        <ele>261</ele>
        <time>2018-05-20T08:24:16Z</time>
      </trkpt>
      <trkpt lat="45.94648" lon="4.83696">
        <ele>261</ele>
        <time>2018-05-20T08:24:17Z</time>
      </trkpt>
      <trkpt lat="45.94653" lon="4.83699">
        <ele>261</ele>
        <time>2018-05-20T08:24:18Z</time>
      </trkpt>
      <trkpt lat="45.94658" lon="4.83703">
        <ele>261</ele>
        <time>2018-05-20T08:24:19Z</time>
      </trkpt>
      <trkpt lat="45.94662" lon="4.83707">
        <ele>261</ele>
        <time>2018-05-20T08:24:20Z</time>
      </trkpt>
      <trkpt lat="45.94665" lon="4.83711">
        <ele>261</ele>
        <time>2018-05-20T08:24:21Z</time>
      </trkpt>
      <trkpt lat="45.9467" lon="4.83718">
        <ele>261</ele>
        <time>2018-05-20T08:24:23Z</time>
      </trkpt>
      <trkpt lat="45.94676" lon="4.83723">
        <ele>261</ele>
        <time>2018-05-20T08:24:24Z</time>
      </trkpt>
      <trkpt lat="45.94683" lon="4.8373">
        <ele>261</ele>
        <time>2018-05-20T08:24:26Z</time>
      </trkpt>
      <trkpt lat="45.94685" lon="4.83734">
        <ele>262</ele>
        <time>2018-05-20T08:24:27Z</time>
      </trkpt>
      <trkpt lat="45.94689" lon="4.83737">
        <ele>262</ele>
        <time>2018-05-20T08:24:28Z</time>
      </trkpt>
      <trkpt lat="45.94693" lon="4.83742">
        <ele>262</ele>
        <time>2018-05-20T08:24:29Z</time>
      </trkpt>
      <trkpt lat="45.94699" lon="4.83749">
        <ele>262</ele>
        <time>2018-05-20T08:24:31Z</time>
      </trkpt>
      <trkpt lat="45.94702" lon="4.83753">
        <ele>263</ele>
        <time>2018-05-20T08:24:32Z</time>
      </trkpt>
      <trkpt lat="45.94707" lon="4.83763">
        <ele>263</ele>
        <time>2018-05-20T08:24:34Z</time>
      </trkpt>
      <trkpt lat="45.9471" lon="4.83766">
        <ele>263</ele>
        <time>2018-05-20T08:24:35Z</time>
      </trkpt>
      <trkpt lat="45.94716" lon="4.83773">
        <ele>263</ele>
        <time>2018-05-20T08:24:37Z</time>
      </trkpt>
      <trkpt lat="45.94719" lon="4.83776">
        <ele>263</ele>
        <time>2018-05-20T08:24:38Z</time>
      </trkpt>
      <trkpt lat="45.94724" lon="4.83783">
        <ele>263</ele>
        <time>2018-05-20T08:24:40Z</time>
      </trkpt>
      <trkpt lat="45.94727" lon="4.83787">
        <ele>263</ele>
        <time>2018-05-20T08:24:41Z</time>
      </trkpt>
      <trkpt lat="45.94734" lon="4.83793">
        <ele>264</ele>
        <time>2018-05-20T08:24:43Z</time>
      </trkpt>
      <trkpt lat="45.94736" lon="4.83795">
        <ele>264</ele>
        <time>2018-05-20T08:24:44Z</time>
      </trkpt>
      <trkpt lat="45.9474" lon="4.838">
        <ele>264</ele>
        <time>2018-05-20T08:24:45Z</time>
      </trkpt>
      <trkpt lat="45.94743" lon="4.83804">
        <ele>264</ele>
        <time>2018-05-20T08:24:46Z</time>
      </trkpt>
      <trkpt lat="45.94749" lon="4.83812">
        <ele>264</ele>
        <time>2018-05-20T08:24:49Z</time>
      </trkpt>
      <trkpt lat="45.94754" lon="4.83818">
        <ele>264</ele>
        <time>2018-05-20T08:24:50Z</time>
      </trkpt>
      <trkpt lat="45.9476" lon="4.83824">
        <ele>264</ele>
        <time>2018-05-20T08:24:52Z</time>
      </trkpt>
      <trkpt lat="45.94763" lon="4.83828">
        <ele>264</ele>
        <time>2018-05-20T08:24:53Z</time>
      </trkpt>
      <trkpt lat="45.94767" lon="4.83834">
        <ele>265</ele>
        <time>2018-05-20T08:24:55Z</time>
      </trkpt>
      <trkpt lat="45.94771" lon="4.83839">
        <ele>265</ele>
        <time>2018-05-20T08:24:56Z</time>
      </trkpt>
      <trkpt lat="45.94776" lon="4.83847">
        <ele>265</ele>
        <time>2018-05-20T08:24:58Z</time>
      </trkpt>
      <trkpt lat="45.94779" lon="4.83851">
        <ele>265</ele>
        <time>2018-05-20T08:24:59Z</time>
      </trkpt>
      <trkpt lat="45.94784" lon="4.83859">
        <ele>265</ele>
        <time>2018-05-20T08:25:01Z</time>
      </trkpt>
      <trkpt lat="45.94787" lon="4.83863">
        <ele>265</ele>
        <time>2018-05-20T08:25:02Z</time>
      </trkpt>
      <trkpt lat="45.94792" lon="4.83872">
        <ele>265</ele>
        <time>2018-05-20T08:25:04Z</time>
      </trkpt>
      <trkpt lat="45.94795" lon="4.83876">
        <ele>265</ele>
        <time>2018-05-20T08:25:05Z</time>
      </trkpt>
      <trkpt lat="45.948" lon="4.83886">
        <ele>265</ele>
        <time>2018-05-20T08:25:07Z</time>
      </trkpt>
      <trkpt lat="45.94803" lon="4.83891">
        <ele>265</ele>
        <time>2018-05-20T08:25:08Z</time>
      </trkpt>
      <trkpt lat="45.94807" lon="4.839">
        <ele>265</ele>
        <time>2018-05-20T08:25:10Z</time>
      </trkpt>
      <trkpt lat="45.9481" lon="4.83905">
        <ele>265</ele>
        <time>2018-05-20T08:25:11Z</time>
      </trkpt>
      <trkpt lat="45.94815" lon="4.83916">
        <ele>265</ele>
        <time>2018-05-20T08:25:13Z</time>
      </trkpt>
      <trkpt lat="45.94818" lon="4.83921">
        <ele>266</ele>
        <time>2018-05-20T08:25:14Z</time>
      </trkpt>
      <trkpt lat="45.94821" lon="4.83927">
        <ele>266</ele>
        <time>2018-05-20T08:25:15Z</time>
      </trkpt>
      <trkpt lat="45.94823" lon="4.83932">
        <ele>266</ele>
        <time>2018-05-20T08:25:16Z</time>
      </trkpt>
      <trkpt lat="45.94829" lon="4.83942">
        <ele>266</ele>
        <time>2018-05-20T08:25:18Z</time>
      </trkpt>
      <trkpt lat="45.94831" lon="4.83946">
        <ele>266</ele>
        <time>2018-05-20T08:25:19Z</time>
      </trkpt>
      <trkpt lat="45.94833" lon="4.83951">
        <ele>265</ele>
        <time>2018-05-20T08:25:20Z</time>
      </trkpt>
      <trkpt lat="45.94836" lon="4.83957">
        <ele>265</ele>
        <time>2018-05-20T08:25:21Z</time>
      </trkpt>
      <trkpt lat="45.94838" lon="4.83962">
        <ele>265</ele>
        <time>2018-05-20T08:25:22Z</time>
      </trkpt>
      <trkpt lat="45.94841" lon="4.83968">
        <ele>265</ele>
        <time>2018-05-20T08:25:23Z</time>
      </trkpt>
      <trkpt lat="45.94843" lon="4.83975">
        <ele>265</ele>
        <time>2018-05-20T08:25:24Z</time>
      </trkpt>
      <trkpt lat="45.94845" lon="4.83981">
        <ele>265</ele>
        <time>2018-05-20T08:25:25Z</time>
      </trkpt>
      <trkpt lat="45.94847" lon="4.83987">
        <ele>265</ele>
        <time>2018-05-20T08:25:26Z</time>
      </trkpt>
      <trkpt lat="45.9485" lon="4.83993">
        <ele>265</ele>
        <time>2018-05-20T08:25:27Z</time>
      </trkpt>
      <trkpt lat="45.94853" lon="4.84">
        <ele>265</ele>
        <time>2018-05-20T08:25:28Z</time>
      </trkpt>
      <trkpt lat="45.94855" lon="4.84006">
        <ele>266</ele>
        <time>2018-05-20T08:25:29Z</time>
      </trkpt>
      <trkpt lat="45.94859" lon="4.84013">
        <ele>266</ele>
        <time>2018-05-20T08:25:30Z</time>
      </trkpt>
      <trkpt lat="45.94861" lon="4.84019">
        <ele>266</ele>
        <time>2018-05-20T08:25:31Z</time>
      </trkpt>
      <trkpt lat="45.94865" lon="4.84024">
        <ele>266</ele>
        <time>2018-05-20T08:25:32Z</time>
      </trkpt>
      <trkpt lat="45.94867" lon="4.8403">
        <ele>266</ele>
        <time>2018-05-20T08:25:33Z</time>
      </trkpt>
      <trkpt lat="45.9487" lon="4.84037">
        <ele>266</ele>
        <time>2018-05-20T08:25:34Z</time>
      </trkpt>
      <trkpt lat="45.94873" lon="4.84042">
        <ele>266</ele>
        <time>2018-05-20T08:25:35Z</time>
      </trkpt>
      <trkpt lat="45.94875" lon="4.84048">
        <ele>267</ele>
        <time>2018-05-20T08:25:36Z</time>
      </trkpt>
      <trkpt lat="45.94878" lon="4.84055">
        <ele>267</ele>
        <time>2018-05-20T08:25:37Z</time>
      </trkpt>
      <trkpt lat="45.94881" lon="4.84061">
        <ele>267</ele>
        <time>2018-05-20T08:25:38Z</time>
      </trkpt>
      <trkpt lat="45.94883" lon="4.84067">
        <ele>267</ele>
        <time>2018-05-20T08:25:39Z</time>
      </trkpt>
      <trkpt lat="45.94887" lon="4.84079">
        <ele>267</ele>
        <time>2018-05-20T08:25:41Z</time>
      </trkpt>
      <trkpt lat="45.94889" lon="4.84084">
        <ele>267</ele>
        <time>2018-05-20T08:25:42Z</time>
      </trkpt>
      <trkpt lat="45.94891" lon="4.8409">
        <ele>267</ele>
        <time>2018-05-20T08:25:43Z</time>
      </trkpt>
      <trkpt lat="45.94896" lon="4.84095">
        <ele>267</ele>
        <time>2018-05-20T08:25:44Z</time>
      </trkpt>
      <trkpt lat="45.949" lon="4.84106">
        <ele>267</ele>
        <time>2018-05-20T08:25:46Z</time>
      </trkpt>
      <trkpt lat="45.94902" lon="4.84111">
        <ele>267</ele>
        <time>2018-05-20T08:25:47Z</time>
      </trkpt>
      <trkpt lat="45.94906" lon="4.84121">
        <ele>267</ele>
        <time>2018-05-20T08:25:49Z</time>
      </trkpt>
      <trkpt lat="45.94909" lon="4.84125">
        <ele>268</ele>
        <time>2018-05-20T08:25:50Z</time>
      </trkpt>
      <trkpt lat="45.94915" lon="4.84134">
        <ele>268</ele>
        <time>2018-05-20T08:25:52Z</time>
      </trkpt>
      <trkpt lat="45.94918" lon="4.84141">
        <ele>268</ele>
        <time>2018-05-20T08:25:53Z</time>
      </trkpt>
      <trkpt lat="45.94921" lon="4.84145">
        <ele>268</ele>
        <time>2018-05-20T08:25:54Z</time>
      </trkpt>
      <trkpt lat="45.94924" lon="4.8415">
        <ele>268</ele>
        <time>2018-05-20T08:25:55Z</time>
      </trkpt>
      <trkpt lat="45.94927" lon="4.84156">
        <ele>268</ele>
        <time>2018-05-20T08:25:56Z</time>
      </trkpt>
      <trkpt lat="45.94931" lon="4.84161">
        <ele>268</ele>
        <time>2018-05-20T08:25:57Z</time>
      </trkpt>
      <trkpt lat="45.94935" lon="4.84167">
        <ele>268</ele>
        <time>2018-05-20T08:25:58Z</time>
      </trkpt>
      <trkpt lat="45.94939" lon="4.84172">
        <ele>267</ele>
        <time>2018-05-20T08:25:59Z</time>
      </trkpt>
      <trkpt lat="45.94941" lon="4.84178">
        <ele>267</ele>
        <time>2018-05-20T08:26:00Z</time>
      </trkpt>
      <trkpt lat="45.94945" lon="4.84183">
        <ele>267</ele>
        <time>2018-05-20T08:26:01Z</time>
      </trkpt>
      <trkpt lat="45.94949" lon="4.84189">
        <ele>267</ele>
        <time>2018-05-20T08:26:02Z</time>
      </trkpt>
      <trkpt lat="45.94952" lon="4.84194">
        <ele>267</ele>
        <time>2018-05-20T08:26:03Z</time>
      </trkpt>
      <trkpt lat="45.94957" lon="4.84204">
        <ele>267</ele>
        <time>2018-05-20T08:26:05Z</time>
      </trkpt>
      <trkpt lat="45.94961" lon="4.84209">
        <ele>267</ele>
        <time>2018-05-20T08:26:06Z</time>
      </trkpt>
      <trkpt lat="45.94967" lon="4.84218">
        <ele>267</ele>
        <time>2018-05-20T08:26:08Z</time>
      </trkpt>
      <trkpt lat="45.9497" lon="4.84223">
        <ele>267</ele>
        <time>2018-05-20T08:26:09Z</time>
      </trkpt>
      <trkpt lat="45.94972" lon="4.84229">
        <ele>267</ele>
        <time>2018-05-20T08:26:10Z</time>
      </trkpt>
      <trkpt lat="45.94975" lon="4.84234">
        <ele>267</ele>
        <time>2018-05-20T08:26:11Z</time>
      </trkpt>
      <trkpt lat="45.94978" lon="4.84239">
        <ele>267</ele>
        <time>2018-05-20T08:26:12Z</time>
      </trkpt>
      <trkpt lat="45.94981" lon="4.84244">
        <ele>267</ele>
        <time>2018-05-20T08:26:13Z</time>
      </trkpt>
      <trkpt lat="45.94984" lon="4.8425">
        <ele>267</ele>
        <time>2018-05-20T08:26:14Z</time>
      </trkpt>
      <trkpt lat="45.94988" lon="4.84254">
        <ele>267</ele>
        <time>2018-05-20T08:26:15Z</time>
      </trkpt>
      <trkpt lat="45.94991" lon="4.8426">
        <ele>267</ele>
        <time>2018-05-20T08:26:16Z</time>
      </trkpt>
      <trkpt lat="45.94995" lon="4.84266">
        <ele>267</ele>
        <time>2018-05-20T08:26:17Z</time>
      </trkpt>
      <trkpt lat="45.94999" lon="4.84271">
        <ele>267</ele>
        <time>2018-05-20T08:26:18Z</time>
      </trkpt>
      <trkpt lat="45.95002" lon="4.84276">
        <ele>267</ele>
        <time>2018-05-20T08:26:19Z</time>
      </trkpt>
      <trkpt lat="45.95006" lon="4.84282">
        <ele>267</ele>
        <time>2018-05-20T08:26:20Z</time>
      </trkpt>
      <trkpt lat="45.95009" lon="4.84287">
        <ele>267</ele>
        <time>2018-05-20T08:26:21Z</time>
      </trkpt>
      <trkpt lat="45.95012" lon="4.84293">
        <ele>267</ele>
        <time>2018-05-20T08:26:22Z</time>
      </trkpt>
      <trkpt lat="45.95015" lon="4.84299">
        <ele>267</ele>
        <time>2018-05-20T08:26:23Z</time>
      </trkpt>
      <trkpt lat="45.95019" lon="4.84306">
        <ele>267</ele>
        <time>2018-05-20T08:26:24Z</time>
      </trkpt>
      <trkpt lat="45.95023" lon="4.84311">
        <ele>267</ele>
        <time>2018-05-20T08:26:25Z</time>
      </trkpt>
      <trkpt lat="45.95027" lon="4.84317">
        <ele>267</ele>
        <time>2018-05-20T08:26:26Z</time>
      </trkpt>
      <trkpt lat="45.95031" lon="4.84324">
        <ele>267</ele>
        <time>2018-05-20T08:26:27Z</time>
      </trkpt>
      <trkpt lat="45.95034" lon="4.84329">
        <ele>267</ele>
        <time>2018-05-20T08:26:28Z</time>
      </trkpt>
      <trkpt lat="45.95038" lon="4.84335">
        <ele>267</ele>
        <time>2018-05-20T08:26:29Z</time>
      </trkpt>
      <trkpt lat="45.95041" lon="4.8434">
        <ele>267</ele>
        <time>2018-05-20T08:26:30Z</time>
      </trkpt>
      <trkpt lat="45.95045" lon="4.84346">
        <ele>267</ele>
        <time>2018-05-20T08:26:31Z</time>
      </trkpt>
      <trkpt lat="45.95048" lon="4.84351">
        <ele>267</ele>
        <time>2018-05-20T08:26:32Z</time>
      </trkpt>
      <trkpt lat="45.95052" lon="4.84357">
        <ele>267</ele>
        <time>2018-05-20T08:26:33Z</time>
      </trkpt>
      <trkpt lat="45.95055" lon="4.84362">
        <ele>267</ele>
        <time>2018-05-20T08:26:34Z</time>
      </trkpt>
      <trkpt lat="45.95058" lon="4.84368">
        <ele>267</ele>
        <time>2018-05-20T08:26:35Z</time>
      </trkpt>
      <trkpt lat="45.95062" lon="4.84373">
        <ele>267</ele>
        <time>2018-05-20T08:26:36Z</time>
      </trkpt>
      <trkpt lat="45.95066" lon="4.84379">
        <ele>267</ele>
        <time>2018-05-20T08:26:37Z</time>
      </trkpt>
      <trkpt lat="45.9507" lon="4.84383">
        <ele>267</ele>
        <time>2018-05-20T08:26:38Z</time>
      </trkpt>
      <trkpt lat="45.95075" lon="4.84388">
        <ele>267</ele>
        <time>2018-05-20T08:26:39Z</time>
      </trkpt>
      <trkpt lat="45.95079" lon="4.84392">
        <ele>267</ele>
        <time>2018-05-20T08:26:40Z</time>
      </trkpt>
      <trkpt lat="45.95084" lon="4.84397">
        <ele>267</ele>
        <time>2018-05-20T08:26:41Z</time>
      </trkpt>
      <trkpt lat="45.95089" lon="4.84401">
        <ele>267</ele>
        <time>2018-05-20T08:26:42Z</time>
      </trkpt>
      <trkpt lat="45.95094" lon="4.84406">
        <ele>267</ele>
        <time>2018-05-20T08:26:43Z</time>
      </trkpt>
      <trkpt lat="45.95098" lon="4.8441">
        <ele>267</ele>
        <time>2018-05-20T08:26:44Z</time>
      </trkpt>
      <trkpt lat="45.95102" lon="4.84414">
        <ele>267</ele>
        <time>2018-05-20T08:26:45Z</time>
      </trkpt>
      <trkpt lat="45.95106" lon="4.84418">
        <ele>267</ele>
        <time>2018-05-20T08:26:46Z</time>
      </trkpt>
      <trkpt lat="45.9511" lon="4.84422">
        <ele>267</ele>
        <time>2018-05-20T08:26:47Z</time>
      </trkpt>
      <trkpt lat="45.95115" lon="4.84427">
        <ele>267</ele>
        <time>2018-05-20T08:26:48Z</time>
      </trkpt>
      <trkpt lat="45.95119" lon="4.84431">
        <ele>267</ele>
        <time>2018-05-20T08:26:49Z</time>
      </trkpt>
      <trkpt lat="45.95123" lon="4.84436">
        <ele>267</ele>
        <time>2018-05-20T08:26:50Z</time>
      </trkpt>
      <trkpt lat="45.95127" lon="4.84441">
        <ele>267</ele>
        <time>2018-05-20T08:26:51Z</time>
      </trkpt>
      <trkpt lat="45.9513" lon="4.84445">
        <ele>267</ele>
        <time>2018-05-20T08:26:52Z</time>
      </trkpt>
      <trkpt lat="45.95134" lon="4.8445">
        <ele>267</ele>
        <time>2018-05-20T08:26:53Z</time>
      </trkpt>
      <trkpt lat="45.95138" lon="4.84454">
        <ele>267</ele>
        <time>2018-05-20T08:26:54Z</time>
      </trkpt>
      <trkpt lat="45.95143" lon="4.84458">
        <ele>267</ele>
        <time>2018-05-20T08:26:55Z</time>
      </trkpt>
      <trkpt lat="45.95148" lon="4.84462">
        <ele>266</ele>
        <time>2018-05-20T08:26:56Z</time>
      </trkpt>
      <trkpt lat="45.95153" lon="4.84468">
        <ele>266</ele>
        <time>2018-05-20T08:26:57Z</time>
      </trkpt>
      <trkpt lat="45.95158" lon="4.84473">
        <ele>266</ele>
        <time>2018-05-20T08:26:58Z</time>
      </trkpt>
      <trkpt lat="45.95165" lon="4.84478">
        <ele>266</ele>
        <time>2018-05-20T08:26:59Z</time>
      </trkpt>
      <trkpt lat="45.9517" lon="4.84485">
        <ele>266</ele>
        <time>2018-05-20T08:27:00Z</time>
      </trkpt>
      <trkpt lat="45.95175" lon="4.84491">
        <ele>266</ele>
        <time>2018-05-20T08:27:01Z</time>
      </trkpt>
      <trkpt lat="45.9518" lon="4.84496">
        <ele>266</ele>
        <time>2018-05-20T08:27:02Z</time>
      </trkpt>
      <trkpt lat="45.95185" lon="4.84504">
        <ele>265</ele>
        <time>2018-05-20T08:27:03Z</time>
      </trkpt>
      <trkpt lat="45.9519" lon="4.8451">
        <ele>265</ele>
        <time>2018-05-20T08:27:04Z</time>
      </trkpt>
      <trkpt lat="45.95195" lon="4.84515">
        <ele>265</ele>
        <time>2018-05-20T08:27:05Z</time>
      </trkpt>
      <trkpt lat="45.952" lon="4.84521">
        <ele>265</ele>
        <time>2018-05-20T08:27:06Z</time>
      </trkpt>
      <trkpt lat="45.95205" lon="4.84526">
        <ele>265</ele>
        <time>2018-05-20T08:27:07Z</time>
      </trkpt>
      <trkpt lat="45.9521" lon="4.84531">
        <ele>265</ele>
        <time>2018-05-20T08:27:08Z</time>
      </trkpt>
      <trkpt lat="45.95215" lon="4.84538">
        <ele>264</ele>
        <time>2018-05-20T08:27:09Z</time>
      </trkpt>
      <trkpt lat="45.95219" lon="4.84543">
        <ele>264</ele>
        <time>2018-05-20T08:27:10Z</time>
      </trkpt>
      <trkpt lat="45.95223" lon="4.84549">
        <ele>264</ele>
        <time>2018-05-20T08:27:11Z</time>
      </trkpt>
      <trkpt lat="45.95227" lon="4.84554">
        <ele>264</ele>
        <time>2018-05-20T08:27:12Z</time>
      </trkpt>
      <trkpt lat="45.95232" lon="4.8456">
        <ele>264</ele>
        <time>2018-05-20T08:27:13Z</time>
      </trkpt>
      <trkpt lat="45.95238" lon="4.84566">
        <ele>264</ele>
        <time>2018-05-20T08:27:14Z</time>
      </trkpt>
      <trkpt lat="45.95242" lon="4.84571">
        <ele>264</ele>
        <time>2018-05-20T08:27:15Z</time>
      </trkpt>
      <trkpt lat="45.95246" lon="4.84576">
        <ele>264</ele>
        <time>2018-05-20T08:27:16Z</time>
      </trkpt>
      <trkpt lat="45.95249" lon="4.8458">
        <ele>264</ele>
        <time>2018-05-20T08:27:17Z</time>
      </trkpt>
      <trkpt lat="45.95253" lon="4.84585">
        <ele>264</ele>
        <time>2018-05-20T08:27:18Z</time>
      </trkpt>
      <trkpt lat="45.95257" lon="4.84589">
        <ele>264</ele>
        <time>2018-05-20T08:27:19Z</time>
      </trkpt>
      <trkpt lat="45.95261" lon="4.84594">
        <ele>264</ele>
        <time>2018-05-20T08:27:20Z</time>
      </trkpt>
      <trkpt lat="45.95265" lon="4.84599">
        <ele>264</ele>
        <time>2018-05-20T08:27:21Z</time>
      </trkpt>
      <trkpt lat="45.95268" lon="4.84603">
        <ele>264</ele>
        <time>2018-05-20T08:27:22Z</time>
      </trkpt>
      <trkpt lat="45.95271" lon="4.84608">
        <ele>264</ele>
        <time>2018-05-20T08:27:23Z</time>
      </trkpt>
      <trkpt lat="45.95275" lon="4.84613">
        <ele>264</ele>
        <time>2018-05-20T08:27:24Z</time>
      </trkpt>
      <trkpt lat="45.95279" lon="4.84617">
        <ele>264</ele>
        <time>2018-05-20T08:27:25Z</time>
      </trkpt>
      <trkpt lat="45.95284" lon="4.84621">
        <ele>264</ele>
        <time>2018-05-20T08:27:26Z</time>
      </trkpt>
      <trkpt lat="45.95288" lon="4.84625">
        <ele>264</ele>
        <time>2018-05-20T08:27:27Z</time>
      </trkpt>
      <trkpt lat="45.95292" lon="4.8463">
        <ele>264</ele>
        <time>2018-05-20T08:27:28Z</time>
      </trkpt>
      <trkpt lat="45.95295" lon="4.84634">
        <ele>264</ele>
        <time>2018-05-20T08:27:29Z</time>
      </trkpt>
      <trkpt lat="45.953" lon="4.84641">
        <ele>264</ele>
        <time>2018-05-20T08:27:31Z</time>
      </trkpt>
      <trkpt lat="45.95304" lon="4.84645">
        <ele>264</ele>
        <time>2018-05-20T08:27:32Z</time>
      </trkpt>
      <trkpt lat="45.95311" lon="4.84651">
        <ele>265</ele>
        <time>2018-05-20T08:27:34Z</time>
      </trkpt>
      <trkpt lat="45.95315" lon="4.84655">
        <ele>265</ele>
        <time>2018-05-20T08:27:35Z</time>
      </trkpt>
      <trkpt lat="45.95322" lon="4.84662">
        <ele>265</ele>
        <time>2018-05-20T08:27:37Z</time>
      </trkpt>
      <trkpt lat="45.95326" lon="4.84664">
        <ele>265</ele>
        <time>2018-05-20T08:27:38Z</time>
      </trkpt>
      <trkpt lat="45.95329" lon="4.84667">
        <ele>265</ele>
        <time>2018-05-20T08:27:39Z</time>
      </trkpt>
      <trkpt lat="45.95335" lon="4.84669">
        <ele>265</ele>
        <time>2018-05-20T08:27:40Z</time>
      </trkpt>
      <trkpt lat="45.9534" lon="4.84677">
        <ele>265</ele>
        <time>2018-05-20T08:27:42Z</time>
      </trkpt>
      <trkpt lat="45.95344" lon="4.84681">
        <ele>266</ele>
        <time>2018-05-20T08:27:43Z</time>
      </trkpt>
      <trkpt lat="45.95348" lon="4.84685">
        <ele>266</ele>
        <time>2018-05-20T08:27:44Z</time>
      </trkpt>
      <trkpt lat="45.95352" lon="4.84688">
        <ele>266</ele>
        <time>2018-05-20T08:27:45Z</time>
      </trkpt>
      <trkpt lat="45.95356" lon="4.84692">
        <ele>266</ele>
        <time>2018-05-20T08:27:46Z</time>
      </trkpt>
      <trkpt lat="45.9536" lon="4.84695">
        <ele>266</ele>
        <time>2018-05-20T08:27:47Z</time>
      </trkpt>
      <trkpt lat="45.95365" lon="4.84697">
        <ele>266</ele>
        <time>2018-05-20T08:27:48Z</time>
      </trkpt>
      <trkpt lat="45.9537" lon="4.84701">
        <ele>266</ele>
        <time>2018-05-20T08:27:49Z</time>
      </trkpt>
      <trkpt lat="45.95377" lon="4.84707">
        <ele>266</ele>
        <time>2018-05-20T08:27:51Z</time>
      </trkpt>
      <trkpt lat="45.95381" lon="4.8471">
        <ele>266</ele>
        <time>2018-05-20T08:27:52Z</time>
      </trkpt>
      <trkpt lat="45.95387" lon="4.84716">
        <ele>266</ele>
        <time>2018-05-20T08:27:54Z</time>
      </trkpt>
      <trkpt lat="45.95391" lon="4.84719">
        <ele>266</ele>
        <time>2018-05-20T08:27:55Z</time>
      </trkpt>
      <trkpt lat="45.95398" lon="4.84727">
        <ele>266</ele>
        <time>2018-05-20T08:27:57Z</time>
      </trkpt>
      <trkpt lat="45.95402" lon="4.8473">
        <ele>266</ele>
        <time>2018-05-20T08:27:58Z</time>
      </trkpt>
      <trkpt lat="45.95409" lon="4.84737">
        <ele>267</ele>
        <time>2018-05-20T08:28:00Z</time>
      </trkpt>
      <trkpt lat="45.95412" lon="4.84739">
        <ele>267</ele>
        <time>2018-05-20T08:28:01Z</time>
      </trkpt>
      <trkpt lat="45.95417" lon="4.84744">
        <ele>267</ele>
        <time>2018-05-20T08:28:03Z</time>
      </trkpt>
      <trkpt lat="45.95421" lon="4.84747">
        <ele>267</ele>
        <time>2018-05-20T08:28:04Z</time>
      </trkpt>
      <trkpt lat="45.95427" lon="4.84753">
        <ele>267</ele>
        <time>2018-05-20T08:28:06Z</time>
      </trkpt>
      <trkpt lat="45.9543" lon="4.84757">
        <ele>267</ele>
        <time>2018-05-20T08:28:07Z</time>
      </trkpt>
      <trkpt lat="45.95435" lon="4.84762">
        <ele>267</ele>
        <time>2018-05-20T08:28:09Z</time>
      </trkpt>
      <trkpt lat="45.95439" lon="4.84767">
        <ele>267</ele>
        <time>2018-05-20T08:28:10Z</time>
      </trkpt>
      <trkpt lat="45.95445" lon="4.84774">
        <ele>267</ele>
        <time>2018-05-20T08:28:12Z</time>
      </trkpt>
      <trkpt lat="45.95448" lon="4.84778">
        <ele>267</ele>
        <time>2018-05-20T08:28:13Z</time>
      </trkpt>
      <trkpt lat="45.95454" lon="4.84785">
        <ele>267</ele>
        <time>2018-05-20T08:28:15Z</time>
      </trkpt>
      <trkpt lat="45.95457" lon="4.84788">
        <ele>267</ele>
        <time>2018-05-20T08:28:16Z</time>
      </trkpt>
      <trkpt lat="45.95464" lon="4.84796">
        <ele>267</ele>
        <time>2018-05-20T08:28:18Z</time>
      </trkpt>
      <trkpt lat="45.95467" lon="4.848">
        <ele>267</ele>
        <time>2018-05-20T08:28:19Z</time>
      </trkpt>
      <trkpt lat="45.95473" lon="4.84808">
        <ele>267</ele>
        <time>2018-05-20T08:28:21Z</time>
      </trkpt>
      <trkpt lat="45.95476" lon="4.84812">
        <ele>267</ele>
        <time>2018-05-20T08:28:22Z</time>
      </trkpt>
      <trkpt lat="45.95483" lon="4.8482">
        <ele>267</ele>
        <time>2018-05-20T08:28:24Z</time>
      </trkpt>
      <trkpt lat="45.95486" lon="4.84824">
        <ele>267</ele>
        <time>2018-05-20T08:28:25Z</time>
      </trkpt>
      <trkpt lat="45.95493" lon="4.84832">
        <ele>267</ele>
        <time>2018-05-20T08:28:27Z</time>
      </trkpt>
      <trkpt lat="45.95496" lon="4.84836">
        <ele>267</ele>
        <time>2018-05-20T08:28:28Z</time>
      </trkpt>
      <trkpt lat="45.95499" lon="4.84841">
        <ele>267</ele>
        <time>2018-05-20T08:28:29Z</time>
      </trkpt>
      <trkpt lat="45.95503" lon="4.84846">
        <ele>267</ele>
        <time>2018-05-20T08:28:30Z</time>
      </trkpt>
      <trkpt lat="45.95507" lon="4.84849">
        <ele>268</ele>
        <time>2018-05-20T08:28:31Z</time>
      </trkpt>
      <trkpt lat="45.95511" lon="4.84853">
        <ele>268</ele>
        <time>2018-05-20T08:28:32Z</time>
      </trkpt>
      <trkpt lat="45.95514" lon="4.84857">
        <ele>268</ele>
        <time>2018-05-20T08:28:33Z</time>
      </trkpt>
      <trkpt lat="45.95518" lon="4.84861">
        <ele>268</ele>
        <time>2018-05-20T08:28:34Z</time>
      </trkpt>
      <trkpt lat="45.95525" lon="4.84869">
        <ele>268</ele>
        <time>2018-05-20T08:28:36Z</time>
      </trkpt>
      <trkpt lat="45.95527" lon="4.84873">
        <ele>268</ele>
        <time>2018-05-20T08:28:37Z</time>
      </trkpt>
      <trkpt lat="45.95534" lon="4.8488">
        <ele>268</ele>
        <time>2018-05-20T08:28:39Z</time>
      </trkpt>
      <trkpt lat="45.95538" lon="4.84884">
        <ele>268</ele>
        <time>2018-05-20T08:28:40Z</time>
      </trkpt>
      <trkpt lat="45.95541" lon="4.84887">
        <ele>268</ele>
        <time>2018-05-20T08:28:41Z</time>
      </trkpt>
      <trkpt lat="45.95546" lon="4.84891">
        <ele>268</ele>
        <time>2018-05-20T08:28:42Z</time>
      </trkpt>
      <trkpt lat="45.95553" lon="4.84897">
        <ele>268</ele>
        <time>2018-05-20T08:28:44Z</time>
      </trkpt>
      <trkpt lat="45.95557" lon="4.849">
        <ele>268</ele>
        <time>2018-05-20T08:28:45Z</time>
      </trkpt>
      <trkpt lat="45.95562" lon="4.84904">
        <ele>268</ele>
        <time>2018-05-20T08:28:46Z</time>
      </trkpt>
      <trkpt lat="45.95566" lon="4.84905">
        <ele>268</ele>
        <time>2018-05-20T08:28:47Z</time>
      </trkpt>
      <trkpt lat="45.95573" lon="4.8491">
        <ele>269</ele>
        <time>2018-05-20T08:28:49Z</time>
      </trkpt>
      <trkpt lat="45.95577" lon="4.84913">
        <ele>269</ele>
        <time>2018-05-20T08:28:50Z</time>
      </trkpt>
      <trkpt lat="45.95581" lon="4.84915">
        <ele>269</ele>
        <time>2018-05-20T08:28:51Z</time>
      </trkpt>
      <trkpt lat="45.95586" lon="4.84917">
        <ele>269</ele>
        <time>2018-05-20T08:28:52Z</time>
      </trkpt>
      <trkpt lat="45.95594" lon="4.84922">
        <ele>270</ele>
        <time>2018-05-20T08:28:54Z</time>
      </trkpt>
      <trkpt lat="45.95597" lon="4.84924">
        <ele>270</ele>
        <time>2018-05-20T08:28:55Z</time>
      </trkpt>
      <trkpt lat="45.95604" lon="4.84928">
        <ele>270</ele>
        <time>2018-05-20T08:28:57Z</time>
      </trkpt>
      <trkpt lat="45.95608" lon="4.84931">
        <ele>270</ele>
        <time>2018-05-20T08:28:58Z</time>
      </trkpt>
      <trkpt lat="45.95614" lon="4.84936">
        <ele>270</ele>
        <time>2018-05-20T08:29:00Z</time>
      </trkpt>
      <trkpt lat="45.95618" lon="4.84939">
        <ele>270</ele>
        <time>2018-05-20T08:29:01Z</time>
      </trkpt>
      <trkpt lat="45.95625" lon="4.84944">
        <ele>271</ele>
        <time>2018-05-20T08:29:03Z</time>
      </trkpt>
      <trkpt lat="45.95629" lon="4.84947">
        <ele>271</ele>
        <time>2018-05-20T08:29:04Z</time>
      </trkpt>
      <trkpt lat="45.95635" lon="4.84954">
        <ele>271</ele>
        <time>2018-05-20T08:29:06Z</time>
      </trkpt>
      <trkpt lat="45.95639" lon="4.84957">
        <ele>271</ele>
        <time>2018-05-20T08:29:07Z</time>
      </trkpt>
      <trkpt lat="45.95645" lon="4.84965">
        <ele>271</ele>
        <time>2018-05-20T08:29:09Z</time>
      </trkpt>
      <trkpt lat="45.95648" lon="4.84968">
        <ele>271</ele>
        <time>2018-05-20T08:29:10Z</time>
      </trkpt>
      <trkpt lat="45.95654" lon="4.84976">
        <ele>271</ele>
        <time>2018-05-20T08:29:12Z</time>
      </trkpt>
      <trkpt lat="45.95657" lon="4.8498">
        <ele>272</ele>
        <time>2018-05-20T08:29:13Z</time>
      </trkpt>
      <trkpt lat="45.95663" lon="4.84988">
        <ele>272</ele>
        <time>2018-05-20T08:29:15Z</time>
      </trkpt>
      <trkpt lat="45.95666" lon="4.84991">
        <ele>272</ele>
        <time>2018-05-20T08:29:16Z</time>
      </trkpt>
      <trkpt lat="45.95673" lon="4.84998">
        <ele>273</ele>
        <time>2018-05-20T08:29:18Z</time>
      </trkpt>
      <trkpt lat="45.95674" lon="4.85">
        <ele>273</ele>
        <time>2018-05-20T08:29:19Z</time>
      </trkpt>
      <trkpt lat="45.9568" lon="4.85006">
        <ele>274</ele>
        <time>2018-05-20T08:29:21Z</time>
      </trkpt>
      <trkpt lat="45.95684" lon="4.85012">
        <ele>275</ele>
        <time>2018-05-20T08:29:22Z</time>
      </trkpt>
      <trkpt lat="45.95688" lon="4.85019">
        <ele>275</ele>
        <time>2018-05-20T08:29:25Z</time>
      </trkpt>
      <trkpt lat="45.95692" lon="4.85028">
        <ele>276</ele>
        <time>2018-05-20T08:29:26Z</time>
      </trkpt>
      <trkpt lat="45.95697" lon="4.85035">
        <ele>276</ele>
        <time>2018-05-20T08:29:28Z</time>
      </trkpt>
      <trkpt lat="45.95699" lon="4.85037">
        <ele>276</ele>
        <time>2018-05-20T08:29:29Z</time>
      </trkpt>
      <trkpt lat="45.95704" lon="4.85048">
        <ele>276</ele>
        <time>2018-05-20T08:29:31Z</time>
      </trkpt>
      <trkpt lat="45.95705" lon="4.8505">
        <ele>276</ele>
        <time>2018-05-20T08:29:32Z</time>
      </trkpt>
      <trkpt lat="45.95708" lon="4.85056">
        <ele>276</ele>
        <time>2018-05-20T08:29:33Z</time>
      </trkpt>
      <trkpt lat="45.9571" lon="4.85061">
        <ele>277</ele>
        <time>2018-05-20T08:29:34Z</time>
      </trkpt>
      <trkpt lat="45.95714" lon="4.85065">
        <ele>277</ele>
        <time>2018-05-20T08:29:35Z</time>
      </trkpt>
      <trkpt lat="45.95718" lon="4.8507">
        <ele>277</ele>
        <time>2018-05-20T08:29:36Z</time>
      </trkpt>
      <trkpt lat="45.95721" lon="4.85075">
        <ele>277</ele>
        <time>2018-05-20T08:29:37Z</time>
      </trkpt>
      <trkpt lat="45.95725" lon="4.85081">
        <ele>277</ele>
        <time>2018-05-20T08:29:38Z</time>
      </trkpt>
      <trkpt lat="45.95728" lon="4.85087">
        <ele>279</ele>
        <time>2018-05-20T08:29:39Z</time>
      </trkpt>
      <trkpt lat="45.95731" lon="4.85094">
        <ele>279</ele>
        <time>2018-05-20T08:29:40Z</time>
      </trkpt>
      <trkpt lat="45.95733" lon="4.851">
        <ele>279</ele>
        <time>2018-05-20T08:29:41Z</time>
      </trkpt>
      <trkpt lat="45.95737" lon="4.85105">
        <ele>279</ele>
        <time>2018-05-20T08:29:42Z</time>
      </trkpt>
      <trkpt lat="45.9574" lon="4.85111">
        <ele>279</ele>
        <time>2018-05-20T08:29:43Z</time>
      </trkpt>
      <trkpt lat="45.95742" lon="4.85117">
        <ele>279</ele>
        <time>2018-05-20T08:29:44Z</time>
      </trkpt>
      <trkpt lat="45.95744" lon="4.85122">
        <ele>279</ele>
        <time>2018-05-20T08:29:45Z</time>
      </trkpt>
      <trkpt lat="45.95749" lon="4.85126">
        <ele>279</ele>
        <time>2018-05-20T08:29:46Z</time>
      </trkpt>
      <trkpt lat="45.95753" lon="4.85129">
        <ele>276</ele>
        <time>2018-05-20T08:29:47Z</time>
      </trkpt>
      <trkpt lat="45.95757" lon="4.85134">
        <ele>276</ele>
        <time>2018-05-20T08:29:48Z</time>
      </trkpt>
      <trkpt lat="45.95761" lon="4.85137">
        <ele>276</ele>
        <time>2018-05-20T08:29:49Z</time>
      </trkpt>
      <trkpt lat="45.95767" lon="4.85142">
        <ele>276</ele>
        <time>2018-05-20T08:29:50Z</time>
      </trkpt>
      <trkpt lat="45.95772" lon="4.85151">
        <ele>276</ele>
        <time>2018-05-20T08:29:52Z</time>
      </trkpt>
      <trkpt lat="45.95775" lon="4.85157">
        <ele>276</ele>
        <time>2018-05-20T08:29:53Z</time>
      </trkpt>
      <trkpt lat="45.9578" lon="4.85161">
        <ele>276</ele>
        <time>2018-05-20T08:29:54Z</time>
      </trkpt>
      <trkpt lat="45.95782" lon="4.85166">
        <ele>275</ele>
        <time>2018-05-20T08:29:55Z</time>
      </trkpt>
      <trkpt lat="45.95787" lon="4.85176">
        <ele>276</ele>
        <time>2018-05-20T08:29:57Z</time>
      </trkpt>
      <trkpt lat="45.95791" lon="4.8518">
        <ele>276</ele>
        <time>2018-05-20T08:29:58Z</time>
      </trkpt>
      <trkpt lat="45.95798" lon="4.85186">
        <ele>275</ele>
        <time>2018-05-20T08:30:00Z</time>
      </trkpt>
      <trkpt lat="45.95801" lon="4.85191">
        <ele>275</ele>
        <time>2018-05-20T08:30:01Z</time>
      </trkpt>
      <trkpt lat="45.95808" lon="4.85193">
        <ele>275</ele>
        <time>2018-05-20T08:30:02Z</time>
      </trkpt>
      <trkpt lat="45.95812" lon="4.85197">
        <ele>275</ele>
        <time>2018-05-20T08:30:03Z</time>
      </trkpt>
      <trkpt lat="45.95815" lon="4.85204">
        <ele>275</ele>
        <time>2018-05-20T08:30:04Z</time>
      </trkpt>
      <trkpt lat="45.95818" lon="4.85209">
        <ele>275</ele>
        <time>2018-05-20T08:30:05Z</time>
      </trkpt>
      <trkpt lat="45.95823" lon="4.85215">
        <ele>275</ele>
        <time>2018-05-20T08:30:06Z</time>
      </trkpt>
      <trkpt lat="45.95827" lon="4.85221">
        <ele>274</ele>
        <time>2018-05-20T08:30:07Z</time>
      </trkpt>
      <trkpt lat="45.9583" lon="4.85227">
        <ele>274</ele>
        <time>2018-05-20T08:30:08Z</time>
      </trkpt>
      <trkpt lat="45.95834" lon="4.85233">
        <ele>271</ele>
        <time>2018-05-20T08:30:09Z</time>
      </trkpt>
      <trkpt lat="45.95838" lon="4.8524">
        <ele>271</ele>
        <time>2018-05-20T08:30:10Z</time>
      </trkpt>
      <trkpt lat="45.95842" lon="4.85247">
        <ele>271</ele>
        <time>2018-05-20T08:30:11Z</time>
      </trkpt>
      <trkpt lat="45.95845" lon="4.85253">
        <ele>271</ele>
        <time>2018-05-20T08:30:12Z</time>
      </trkpt>
      <trkpt lat="45.95849" lon="4.85261">
        <ele>270</ele>
        <time>2018-05-20T08:30:13Z</time>
      </trkpt>
      <trkpt lat="45.95852" lon="4.85269">
        <ele>270</ele>
        <time>2018-05-20T08:30:14Z</time>
      </trkpt>
      <trkpt lat="45.95856" lon="4.85277">
        <ele>270</ele>
        <time>2018-05-20T08:30:15Z</time>
      </trkpt>
      <trkpt lat="45.9586" lon="4.85284">
        <ele>270</ele>
        <time>2018-05-20T08:30:16Z</time>
      </trkpt>
      <trkpt lat="45.95864" lon="4.85293">
        <ele>270</ele>
        <time>2018-05-20T08:30:17Z</time>
      </trkpt>
      <trkpt lat="45.95868" lon="4.85299">
        <ele>269</ele>
        <time>2018-05-20T08:30:18Z</time>
      </trkpt>
      <trkpt lat="45.95873" lon="4.85306">
        <ele>269</ele>
        <time>2018-05-20T08:30:19Z</time>
      </trkpt>
      <trkpt lat="45.95878" lon="4.85312">
        <ele>269</ele>
        <time>2018-05-20T08:30:20Z</time>
      </trkpt>
      <trkpt lat="45.95883" lon="4.85318">
        <ele>269</ele>
        <time>2018-05-20T08:30:21Z</time>
      </trkpt>
      <trkpt lat="45.95887" lon="4.85324">
        <ele>269</ele>
        <time>2018-05-20T08:30:22Z</time>
      </trkpt>
      <trkpt lat="45.95894" lon="4.85328">
        <ele>268</ele>
        <time>2018-05-20T08:30:23Z</time>
      </trkpt>
      <trkpt lat="45.95899" lon="4.85332">
        <ele>268</ele>
        <time>2018-05-20T08:30:24Z</time>
      </trkpt>
      <trkpt lat="45.95905" lon="4.85335">
        <ele>267</ele>
        <time>2018-05-20T08:30:25Z</time>
      </trkpt>
      <trkpt lat="45.9591" lon="4.85339">
        <ele>267</ele>
        <time>2018-05-20T08:30:26Z</time>
      </trkpt>
      <trkpt lat="45.95916" lon="4.85342">
        <ele>267</ele>
        <time>2018-05-20T08:30:27Z</time>
      </trkpt>
      <trkpt lat="45.95922" lon="4.85344">
        <ele>266</ele>
        <time>2018-05-20T08:30:28Z</time>
      </trkpt>
      <trkpt lat="45.9593" lon="4.85345">
        <ele>266</ele>
        <time>2018-05-20T08:30:29Z</time>
      </trkpt>
      <trkpt lat="45.95937" lon="4.85343">
        <ele>266</ele>
        <time>2018-05-20T08:30:30Z</time>
      </trkpt>
      <trkpt lat="45.95943" lon="4.85344">
        <ele>266</ele>
        <time>2018-05-20T08:30:31Z</time>
      </trkpt>
      <trkpt lat="45.95951" lon="4.85345">
        <ele>266</ele>
        <time>2018-05-20T08:30:32Z</time>
      </trkpt>
      <trkpt lat="45.95958" lon="4.85345">
        <ele>265</ele>
        <time>2018-05-20T08:30:33Z</time>
      </trkpt>
      <trkpt lat="45.95964" lon="4.85346">
        <ele>265</ele>
        <time>2018-05-20T08:30:34Z</time>
      </trkpt>
      <trkpt lat="45.9597" lon="4.85346">
        <ele>265</ele>
        <time>2018-05-20T08:30:35Z</time>
      </trkpt>
      <trkpt lat="45.95977" lon="4.85346">
        <ele>265</ele>
        <time>2018-05-20T08:30:36Z</time>
      </trkpt>
      <trkpt lat="45.95984" lon="4.85346">
        <ele>265</ele>
        <time>2018-05-20T08:30:37Z</time>
      </trkpt>
      <trkpt lat="45.95991" lon="4.85347">
        <ele>265</ele>
        <time>2018-05-20T08:30:38Z</time>
      </trkpt>
      <trkpt lat="45.95999" lon="4.85348">
        <ele>265</ele>
        <time>2018-05-20T08:30:39Z</time>
      </trkpt>
      <trkpt lat="45.96007" lon="4.85347">
        <ele>264</ele>
        <time>2018-05-20T08:30:40Z</time>
      </trkpt>
      <trkpt lat="45.96014" lon="4.85347">
        <ele>264</ele>
        <time>2018-05-20T08:30:41Z</time>
      </trkpt>
      <trkpt lat="45.96022" lon="4.85348">
        <ele>263</ele>
        <time>2018-05-20T08:30:42Z</time>
      </trkpt>
      <trkpt lat="45.96029" lon="4.85349">
        <ele>263</ele>
        <time>2018-05-20T08:30:43Z</time>
      </trkpt>
      <trkpt lat="45.96036" lon="4.8535">
        <ele>263</ele>
        <time>2018-05-20T08:30:44Z</time>
      </trkpt>
      <trkpt lat="45.96045" lon="4.85351">
        <ele>262</ele>
        <time>2018-05-20T08:30:45Z</time>
      </trkpt>
      <trkpt lat="45.96051" lon="4.8535">
        <ele>262</ele>
        <time>2018-05-20T08:30:46Z</time>
      </trkpt>
      <trkpt lat="45.9606" lon="4.8535">
        <ele>262</ele>
        <time>2018-05-20T08:30:47Z</time>
      </trkpt>
      <trkpt lat="45.96069" lon="4.85351">
        <ele>262</ele>
        <time>2018-05-20T08:30:48Z</time>
      </trkpt>
      <trkpt lat="45.96077" lon="4.85352">
        <ele>262</ele>
        <time>2018-05-20T08:30:49Z</time>
      </trkpt>
      <trkpt lat="45.96085" lon="4.85357">
        <ele>259</ele>
        <time>2018-05-20T08:30:50Z</time>
      </trkpt>
      <trkpt lat="45.96094" lon="4.8536">
        <ele>259</ele>
        <time>2018-05-20T08:30:51Z</time>
      </trkpt>
      <trkpt lat="45.96102" lon="4.85362">
        <ele>259</ele>
        <time>2018-05-20T08:30:52Z</time>
      </trkpt>
      <trkpt lat="45.96112" lon="4.85365">
        <ele>259</ele>
        <time>2018-05-20T08:30:53Z</time>
      </trkpt>
      <trkpt lat="45.9612" lon="4.85367">
        <ele>258</ele>
        <time>2018-05-20T08:30:54Z</time>
      </trkpt>
      <trkpt lat="45.96128" lon="4.85371">
        <ele>258</ele>
        <time>2018-05-20T08:30:55Z</time>
      </trkpt>
      <trkpt lat="45.96137" lon="4.85374">
        <ele>258</ele>
        <time>2018-05-20T08:30:56Z</time>
      </trkpt>
      <trkpt lat="45.96144" lon="4.85378">
        <ele>258</ele>
        <time>2018-05-20T08:30:57Z</time>
      </trkpt>
      <trkpt lat="45.96152" lon="4.85381">
        <ele>258</ele>
        <time>2018-05-20T08:30:58Z</time>
      </trkpt>
      <trkpt lat="45.96159" lon="4.85386">
        <ele>258</ele>
        <time>2018-05-20T08:30:59Z</time>
      </trkpt>
      <trkpt lat="45.96166" lon="4.8539">
        <ele>258</ele>
        <time>2018-05-20T08:31:00Z</time>
      </trkpt>
      <trkpt lat="45.96175" lon="4.85394">
        <ele>258</ele>
        <time>2018-05-20T08:31:01Z</time>
      </trkpt>
      <trkpt lat="45.96181" lon="4.85398">
        <ele>258</ele>
        <time>2018-05-20T08:31:02Z</time>
      </trkpt>
      <trkpt lat="45.96186" lon="4.85403">
        <ele>258</ele>
        <time>2018-05-20T08:31:03Z</time>
      </trkpt>
      <trkpt lat="45.96191" lon="4.85406">
        <ele>258</ele>
        <time>2018-05-20T08:31:04Z</time>
      </trkpt>
      <trkpt lat="45.96196" lon="4.85411">
        <ele>258</ele>
        <time>2018-05-20T08:31:05Z</time>
      </trkpt>
      <trkpt lat="45.96201" lon="4.85414">
        <ele>259</ele>
        <time>2018-05-20T08:31:06Z</time>
      </trkpt>
      <trkpt lat="45.96205" lon="4.85416">
        <ele>259</ele>
        <time>2018-05-20T08:31:07Z</time>
      </trkpt>
      <trkpt lat="45.96212" lon="4.85422">
        <ele>261</ele>
        <time>2018-05-20T08:31:09Z</time>
      </trkpt>
      <trkpt lat="45.96215" lon="4.85426">
        <ele>261</ele>
        <time>2018-05-20T08:31:10Z</time>
      </trkpt>
      <trkpt lat="45.96221" lon="4.85429">
        <ele>261</ele>
        <time>2018-05-20T08:31:12Z</time>
      </trkpt>
      <trkpt lat="45.96225" lon="4.85432">
        <ele>261</ele>
        <time>2018-05-20T08:31:13Z</time>
      </trkpt>
      <trkpt lat="45.96233" lon="4.85435">
        <ele>261</ele>
        <time>2018-05-20T08:31:15Z</time>
      </trkpt>
      <trkpt lat="45.96236" lon="4.85436">
        <ele>261</ele>
        <time>2018-05-20T08:31:16Z</time>
      </trkpt>
      <trkpt lat="45.96245" lon="4.85438">
        <ele>261</ele>
        <time>2018-05-20T08:31:20Z</time>
      </trkpt>
      <trkpt lat="45.96248" lon="4.85438">
        <ele>261</ele>
        <time>2018-05-20T08:31:21Z</time>
      </trkpt>
      <trkpt lat="45.96256" lon="4.85442">
        <ele>264</ele>
        <time>2018-05-20T08:31:24Z</time>
      </trkpt>
      <trkpt lat="45.96259" lon="4.85443">
        <ele>264</ele>
        <time>2018-05-20T08:31:25Z</time>
      </trkpt>
      <trkpt lat="45.96268" lon="4.85447">
        <ele>264</ele>
        <time>2018-05-20T08:31:28Z</time>
      </trkpt>
      <trkpt lat="45.9627" lon="4.85448">
        <ele>264</ele>
        <time>2018-05-20T08:31:29Z</time>
      </trkpt>
      <trkpt lat="45.96276" lon="4.85451">
        <ele>264</ele>
        <time>2018-05-20T08:31:31Z</time>
      </trkpt>
      <trkpt lat="45.96279" lon="4.85452">
        <ele>264</ele>
        <time>2018-05-20T08:31:32Z</time>
      </trkpt>
      <trkpt lat="45.96285" lon="4.85454">
        <ele>265</ele>
        <time>2018-05-20T08:31:34Z</time>
      </trkpt>
      <trkpt lat="45.96288" lon="4.85455">
        <ele>265</ele>
        <time>2018-05-20T08:31:35Z</time>
      </trkpt>
      <trkpt lat="45.96295" lon="4.85457">
        <ele>265</ele>
        <time>2018-05-20T08:31:37Z</time>
      </trkpt>
      <trkpt lat="45.96298" lon="4.85457">
        <ele>265</ele>
        <time>2018-05-20T08:31:38Z</time>
      </trkpt>
      <trkpt lat="45.96305" lon="4.85459">
        <ele>265</ele>
        <time>2018-05-20T08:31:40Z</time>
      </trkpt>
      <trkpt lat="45.96308" lon="4.85459">
        <ele>265</ele>
        <time>2018-05-20T08:31:41Z</time>
      </trkpt>
      <trkpt lat="45.96315" lon="4.85459">
        <ele>265</ele>
        <time>2018-05-20T08:31:43Z</time>
      </trkpt>
      <trkpt lat="45.96318" lon="4.8546">
        <ele>265</ele>
        <time>2018-05-20T08:31:44Z</time>
      </trkpt>
      <trkpt lat="45.96326" lon="4.8546">
        <ele>265</ele>
        <time>2018-05-20T08:31:47Z</time>
      </trkpt>
      <trkpt lat="45.96329" lon="4.85459">
        <ele>265</ele>
        <time>2018-05-20T08:31:48Z</time>
      </trkpt>
      <trkpt lat="45.96336" lon="4.85459">
        <ele>268</ele>
        <time>2018-05-20T08:31:50Z</time>
      </trkpt>
      <trkpt lat="45.9634" lon="4.8546">
        <ele>268</ele>
        <time>2018-05-20T08:31:51Z</time>
      </trkpt>
      <trkpt lat="45.96346" lon="4.85461">
        <ele>268</ele>
        <time>2018-05-20T08:31:53Z</time>
      </trkpt>
      <trkpt lat="45.96357" lon="4.85463">
        <ele>268</ele>
        <time>2018-05-20T08:31:54Z</time>
      </trkpt>
      <trkpt lat="45.96364" lon="4.85464">
        <ele>268</ele>
        <time>2018-05-20T08:31:57Z</time>
      </trkpt>
      <trkpt lat="45.96367" lon="4.85464">
        <ele>268</ele>
        <time>2018-05-20T08:31:58Z</time>
      </trkpt>
      <trkpt lat="45.96374" lon="4.85464">
        <ele>268</ele>
        <time>2018-05-20T08:32:01Z</time>
      </trkpt>
      <trkpt lat="45.96377" lon="4.85464">
        <ele>268</ele>
        <time>2018-05-20T08:32:02Z</time>
      </trkpt>
      <trkpt lat="45.96385" lon="4.85466">
        <ele>268</ele>
        <time>2018-05-20T08:32:05Z</time>
      </trkpt>
      <trkpt lat="45.96388" lon="4.85466">
        <ele>269</ele>
        <time>2018-05-20T08:32:06Z</time>
      </trkpt>
      <trkpt lat="45.96397" lon="4.85467">
        <ele>269</ele>
        <time>2018-05-20T08:32:09Z</time>
      </trkpt>
      <trkpt lat="45.964" lon="4.85468">
        <ele>269</ele>
        <time>2018-05-20T08:32:10Z</time>
      </trkpt>
      <trkpt lat="45.96407" lon="4.85468">
        <ele>269</ele>
        <time>2018-05-20T08:32:12Z</time>
      </trkpt>
      <trkpt lat="45.9641" lon="4.85468">
        <ele>269</ele>
        <time>2018-05-20T08:32:13Z</time>
      </trkpt>
      <trkpt lat="45.96413" lon="4.85468">
        <ele>269</ele>
        <time>2018-05-20T08:32:14Z</time>
      </trkpt>
      <trkpt lat="45.96423" lon="4.85468">
        <ele>271</ele>
        <time>2018-05-20T08:32:15Z</time>
      </trkpt>
      <trkpt lat="45.96431" lon="4.8547">
        <ele>271</ele>
        <time>2018-05-20T08:32:19Z</time>
      </trkpt>
      <trkpt lat="45.96434" lon="4.8547">
        <ele>271</ele>
        <time>2018-05-20T08:32:20Z</time>
      </trkpt>
      <trkpt lat="45.9644" lon="4.8547">
        <ele>272</ele>
        <time>2018-05-20T08:32:22Z</time>
      </trkpt>
      <trkpt lat="45.96443" lon="4.8547">
        <ele>272</ele>
        <time>2018-05-20T08:32:23Z</time>
      </trkpt>
      <trkpt lat="45.96452" lon="4.8547">
        <ele>272</ele>
        <time>2018-05-20T08:32:26Z</time>
      </trkpt>
      <trkpt lat="45.96455" lon="4.8547">
        <ele>272</ele>
        <time>2018-05-20T08:32:27Z</time>
      </trkpt>
      <trkpt lat="45.96462" lon="4.8547">
        <ele>272</ele>
        <time>2018-05-20T08:32:30Z</time>
      </trkpt>
      <trkpt lat="45.96465" lon="4.85471">
        <ele>272</ele>
        <time>2018-05-20T08:32:31Z</time>
      </trkpt>
      <trkpt lat="45.96472" lon="4.85472">
        <ele>272</ele>
        <time>2018-05-20T08:32:34Z</time>
      </trkpt>
      <trkpt lat="45.96475" lon="4.85472">
        <ele>272</ele>
        <time>2018-05-20T08:32:35Z</time>
      </trkpt>
      <trkpt lat="45.96481" lon="4.85472">
        <ele>273</ele>
        <time>2018-05-20T08:32:37Z</time>
      </trkpt>
      <trkpt lat="45.96484" lon="4.85471">
        <ele>273</ele>
        <time>2018-05-20T08:32:38Z</time>
      </trkpt>
      <trkpt lat="45.96491" lon="4.8547">
        <ele>273</ele>
        <time>2018-05-20T08:32:40Z</time>
      </trkpt>
      <trkpt lat="45.96494" lon="4.8547">
        <ele>273</ele>
        <time>2018-05-20T08:32:41Z</time>
      </trkpt>
      <trkpt lat="45.96503" lon="4.85468">
        <ele>275</ele>
        <time>2018-05-20T08:32:44Z</time>
      </trkpt>
      <trkpt lat="45.96505" lon="4.85467">
        <ele>275</ele>
        <time>2018-05-20T08:32:45Z</time>
      </trkpt>
      <trkpt lat="45.96513" lon="4.85465">
        <ele>275</ele>
        <time>2018-05-20T08:32:48Z</time>
      </trkpt>
      <trkpt lat="45.96516" lon="4.85465">
        <ele>275</ele>
        <time>2018-05-20T08:32:49Z</time>
      </trkpt>
      <trkpt lat="45.96525" lon="4.85463">
        <ele>275</ele>
        <time>2018-05-20T08:32:52Z</time>
      </trkpt>
      <trkpt lat="45.96528" lon="4.85462">
        <ele>275</ele>
        <time>2018-05-20T08:32:53Z</time>
      </trkpt>
      <trkpt lat="45.96534" lon="4.8546">
        <ele>275</ele>
        <time>2018-05-20T08:32:55Z</time>
      </trkpt>
      <trkpt lat="45.96537" lon="4.85459">
        <ele>275</ele>
        <time>2018-05-20T08:32:56Z</time>
      </trkpt>
      <trkpt lat="45.96543" lon="4.85457">
        <ele>275</ele>
        <time>2018-05-20T08:32:58Z</time>
      </trkpt>
      <trkpt lat="45.96546" lon="4.85456">
        <ele>275</ele>
        <time>2018-05-20T08:32:59Z</time>
      </trkpt>
      <trkpt lat="45.96552" lon="4.85454">
        <ele>275</ele>
        <time>2018-05-20T08:33:01Z</time>
      </trkpt>
      <trkpt lat="45.96555" lon="4.85453">
        <ele>275</ele>
        <time>2018-05-20T08:33:02Z</time>
      </trkpt>
      <trkpt lat="45.96561" lon="4.85452">
        <ele>275</ele>
        <time>2018-05-20T08:33:04Z</time>
      </trkpt>
      <trkpt lat="45.96564" lon="4.85451">
        <ele>275</ele>
        <time>2018-05-20T08:33:05Z</time>
      </trkpt>
      <trkpt lat="45.96572" lon="4.8545">
        <ele>275</ele>
        <time>2018-05-20T08:33:08Z</time>
      </trkpt>
      <trkpt lat="45.96575" lon="4.85449">
        <ele>275</ele>
        <time>2018-05-20T08:33:09Z</time>
      </trkpt>
      <trkpt lat="45.96581" lon="4.85447">
        <ele>275</ele>
        <time>2018-05-20T08:33:11Z</time>
      </trkpt>
      <trkpt lat="45.96584" lon="4.85447">
        <ele>276</ele>
        <time>2018-05-20T08:33:12Z</time>
      </trkpt>
      <trkpt lat="45.9659" lon="4.85445">
        <ele>276</ele>
        <time>2018-05-20T08:33:14Z</time>
      </trkpt>
      <trkpt lat="45.96594" lon="4.85445">
        <ele>276</ele>
        <time>2018-05-20T08:33:15Z</time>
      </trkpt>
      <trkpt lat="45.966" lon="4.85443">
        <ele>276</ele>
        <time>2018-05-20T08:33:17Z</time>
      </trkpt>
      <trkpt lat="45.96603" lon="4.85442">
        <ele>276</ele>
        <time>2018-05-20T08:33:18Z</time>
      </trkpt>
      <trkpt lat="45.9661" lon="4.8544">
        <ele>276</ele>
        <time>2018-05-20T08:33:20Z</time>
      </trkpt>
      <trkpt lat="45.96613" lon="4.85439">
        <ele>276</ele>
        <time>2018-05-20T08:33:21Z</time>
      </trkpt>
      <trkpt lat="45.9662" lon="4.85437">
        <ele>276</ele>
        <time>2018-05-20T08:33:23Z</time>
      </trkpt>
      <trkpt lat="45.96623" lon="4.85436">
        <ele>276</ele>
        <time>2018-05-20T08:33:24Z</time>
      </trkpt>
      <trkpt lat="45.96626" lon="4.85435">
        <ele>276</ele>
        <time>2018-05-20T08:33:25Z</time>
      </trkpt>
      <trkpt lat="45.96636" lon="4.85433">
        <ele>276</ele>
        <time>2018-05-20T08:33:26Z</time>
      </trkpt>
      <trkpt lat="45.96644" lon="4.8543">
        <ele>276</ele>
        <time>2018-05-20T08:33:30Z</time>
      </trkpt>
      <trkpt lat="45.96647" lon="4.85429">
        <ele>276</ele>
        <time>2018-05-20T08:33:31Z</time>
      </trkpt>
      <trkpt lat="45.96653" lon="4.85427">
        <ele>276</ele>
        <time>2018-05-20T08:33:33Z</time>
      </trkpt>
      <trkpt lat="45.96656" lon="4.85426">
        <ele>276</ele>
        <time>2018-05-20T08:33:34Z</time>
      </trkpt>
      <trkpt lat="45.96666" lon="4.85423">
        <ele>276</ele>
        <time>2018-05-20T08:33:35Z</time>
      </trkpt>
      <trkpt lat="45.96674" lon="4.85421">
        <ele>276</ele>
        <time>2018-05-20T08:33:38Z</time>
      </trkpt>
      <trkpt lat="45.9668" lon="4.85419">
        <ele>276</ele>
        <time>2018-05-20T08:33:39Z</time>
      </trkpt>
      <trkpt lat="45.96686" lon="4.85417">
        <ele>276</ele>
        <time>2018-05-20T08:33:42Z</time>
      </trkpt>
      <trkpt lat="45.96689" lon="4.85416">
        <ele>276</ele>
        <time>2018-05-20T08:33:43Z</time>
      </trkpt>
      <trkpt lat="45.96697" lon="4.85413">
        <ele>276</ele>
        <time>2018-05-20T08:33:46Z</time>
      </trkpt>
      <trkpt lat="45.967" lon="4.85412">
        <ele>276</ele>
        <time>2018-05-20T08:33:47Z</time>
      </trkpt>
      <trkpt lat="45.96706" lon="4.85409">
        <ele>276</ele>
        <time>2018-05-20T08:33:49Z</time>
      </trkpt>
      <trkpt lat="45.96709" lon="4.85408">
        <ele>276</ele>
        <time>2018-05-20T08:33:50Z</time>
      </trkpt>
      <trkpt lat="45.96715" lon="4.85404">
        <ele>276</ele>
        <time>2018-05-20T08:33:52Z</time>
      </trkpt>
      <trkpt lat="45.96718" lon="4.85403">
        <ele>276</ele>
        <time>2018-05-20T08:33:53Z</time>
      </trkpt>
      <trkpt lat="45.96726" lon="4.85397">
        <ele>276</ele>
        <time>2018-05-20T08:33:54Z</time>
      </trkpt>
      <trkpt lat="45.96732" lon="4.85392">
        <ele>277</ele>
        <time>2018-05-20T08:33:57Z</time>
      </trkpt>
      <trkpt lat="45.96735" lon="4.85391">
        <ele>277</ele>
        <time>2018-05-20T08:33:58Z</time>
      </trkpt>
      <trkpt lat="45.96739" lon="4.85386">
        <ele>277</ele>
        <time>2018-05-20T08:34:00Z</time>
      </trkpt>
      <trkpt lat="45.96747" lon="4.85378">
        <ele>277</ele>
        <time>2018-05-20T08:34:01Z</time>
      </trkpt>
      <trkpt lat="45.96752" lon="4.85372">
        <ele>278</ele>
        <time>2018-05-20T08:34:04Z</time>
      </trkpt>
      <trkpt lat="45.96754" lon="4.8537">
        <ele>278</ele>
        <time>2018-05-20T08:34:05Z</time>
      </trkpt>
      <trkpt lat="45.96761" lon="4.85364">
        <ele>278</ele>
        <time>2018-05-20T08:34:08Z</time>
      </trkpt>
      <trkpt lat="45.96764" lon="4.85361">
        <ele>278</ele>
        <time>2018-05-20T08:34:09Z</time>
      </trkpt>
      <trkpt lat="45.96771" lon="4.85355">
        <ele>278</ele>
        <time>2018-05-20T08:34:11Z</time>
      </trkpt>
      <trkpt lat="45.96774" lon="4.85352">
        <ele>278</ele>
        <time>2018-05-20T08:34:12Z</time>
      </trkpt>
      <trkpt lat="45.9678" lon="4.85347">
        <ele>278</ele>
        <time>2018-05-20T08:34:14Z</time>
      </trkpt>
      <trkpt lat="45.96783" lon="4.85345">
        <ele>278</ele>
        <time>2018-05-20T08:34:15Z</time>
      </trkpt>
      <trkpt lat="45.96789" lon="4.85341">
        <ele>278</ele>
        <time>2018-05-20T08:34:17Z</time>
      </trkpt>
      <trkpt lat="45.96792" lon="4.85339">
        <ele>279</ele>
        <time>2018-05-20T08:34:18Z</time>
      </trkpt>
      <trkpt lat="45.96798" lon="4.85335">
        <ele>279</ele>
        <time>2018-05-20T08:34:20Z</time>
      </trkpt>
      <trkpt lat="45.96801" lon="4.85333">
        <ele>278</ele>
        <time>2018-05-20T08:34:21Z</time>
      </trkpt>
      <trkpt lat="45.96807" lon="4.85331">
        <ele>279</ele>
        <time>2018-05-20T08:34:23Z</time>
      </trkpt>
      <trkpt lat="45.9681" lon="4.8533">
        <ele>279</ele>
        <time>2018-05-20T08:34:24Z</time>
      </trkpt>
      <trkpt lat="45.96816" lon="4.85328">
        <ele>279</ele>
        <time>2018-05-20T08:34:26Z</time>
      </trkpt>
      <trkpt lat="45.96819" lon="4.85328">
        <ele>279</ele>
        <time>2018-05-20T08:34:27Z</time>
      </trkpt>
      <trkpt lat="45.96828" lon="4.85325">
        <ele>279</ele>
        <time>2018-05-20T08:34:30Z</time>
      </trkpt>
      <trkpt lat="45.9683" lon="4.85324">
        <ele>279</ele>
        <time>2018-05-20T08:34:31Z</time>
      </trkpt>
      <trkpt lat="45.96839" lon="4.85321">
        <ele>281</ele>
        <time>2018-05-20T08:34:34Z</time>
      </trkpt>
      <trkpt lat="45.96841" lon="4.8532">
        <ele>281</ele>
        <time>2018-05-20T08:34:35Z</time>
      </trkpt>
      <trkpt lat="45.96849" lon="4.85317">
        <ele>282</ele>
        <time>2018-05-20T08:34:38Z</time>
      </trkpt>
      <trkpt lat="45.96851" lon="4.85316">
        <ele>282</ele>
        <time>2018-05-20T08:34:39Z</time>
      </trkpt>
      <trkpt lat="45.96859" lon="4.85312">
        <ele>282</ele>
        <time>2018-05-20T08:34:42Z</time>
      </trkpt>
      <trkpt lat="45.96861" lon="4.8531">
        <ele>282</ele>
        <time>2018-05-20T08:34:43Z</time>
      </trkpt>
      <trkpt lat="45.96869" lon="4.85306">
        <ele>283</ele>
        <time>2018-05-20T08:34:46Z</time>
      </trkpt>
      <trkpt lat="45.96872" lon="4.85305">
        <ele>283</ele>
        <time>2018-05-20T08:34:47Z</time>
      </trkpt>
      <trkpt lat="45.9688" lon="4.85303">
        <ele>283</ele>
        <time>2018-05-20T08:34:50Z</time>
      </trkpt>
      <trkpt lat="45.96883" lon="4.85302">
        <ele>283</ele>
        <time>2018-05-20T08:34:51Z</time>
      </trkpt>
      <trkpt lat="45.96891" lon="4.85298">
        <ele>283</ele>
        <time>2018-05-20T08:34:54Z</time>
      </trkpt>
      <trkpt lat="45.96894" lon="4.85297">
        <ele>283</ele>
        <time>2018-05-20T08:34:55Z</time>
      </trkpt>
      <trkpt lat="45.96902" lon="4.85294">
        <ele>284</ele>
        <time>2018-05-20T08:34:58Z</time>
      </trkpt>
      <trkpt lat="45.96905" lon="4.85292">
        <ele>284</ele>
        <time>2018-05-20T08:34:59Z</time>
      </trkpt>
      <trkpt lat="45.96913" lon="4.85289">
        <ele>284</ele>
        <time>2018-05-20T08:35:02Z</time>
      </trkpt>
      <trkpt lat="45.96916" lon="4.85288">
        <ele>284</ele>
        <time>2018-05-20T08:35:03Z</time>
      </trkpt>
      <trkpt lat="45.96922" lon="4.85286">
        <ele>285</ele>
        <time>2018-05-20T08:35:05Z</time>
      </trkpt>
      <trkpt lat="45.96925" lon="4.85285">
        <ele>285</ele>
        <time>2018-05-20T08:35:06Z</time>
      </trkpt>
      <trkpt lat="45.96931" lon="4.85284">
        <ele>285</ele>
        <time>2018-05-20T08:35:08Z</time>
      </trkpt>
      <trkpt lat="45.96934" lon="4.85283">
        <ele>284</ele>
        <time>2018-05-20T08:35:09Z</time>
      </trkpt>
      <trkpt lat="45.96943" lon="4.85282">
        <ele>284</ele>
        <time>2018-05-20T08:35:12Z</time>
      </trkpt>
      <trkpt lat="45.96945" lon="4.85281">
        <ele>284</ele>
        <time>2018-05-20T08:35:13Z</time>
      </trkpt>
      <trkpt lat="45.96948" lon="4.8528">
        <ele>284</ele>
        <time>2018-05-20T08:35:14Z</time>
      </trkpt>
      <trkpt lat="45.96958" lon="4.85278">
        <ele>284</ele>
        <time>2018-05-20T08:35:15Z</time>
      </trkpt>
      <trkpt lat="45.96966" lon="4.85277">
        <ele>284</ele>
        <time>2018-05-20T08:35:17Z</time>
      </trkpt>
      <trkpt lat="45.9697" lon="4.85277">
        <ele>284</ele>
        <time>2018-05-20T08:35:18Z</time>
      </trkpt>
      <trkpt lat="45.96978" lon="4.85276">
        <ele>284</ele>
        <time>2018-05-20T08:35:20Z</time>
      </trkpt>
      <trkpt lat="45.96982" lon="4.85276">
        <ele>284</ele>
        <time>2018-05-20T08:35:21Z</time>
      </trkpt>
      <trkpt lat="45.96991" lon="4.85276">
        <ele>284</ele>
        <time>2018-05-20T08:35:23Z</time>
      </trkpt>
      <trkpt lat="45.96995" lon="4.85277">
        <ele>284</ele>
        <time>2018-05-20T08:35:24Z</time>
      </trkpt>
      <trkpt lat="45.97" lon="4.85277">
        <ele>282</ele>
        <time>2018-05-20T08:35:25Z</time>
      </trkpt>
      <trkpt lat="45.97005" lon="4.85277">
        <ele>282</ele>
        <time>2018-05-20T08:35:26Z</time>
      </trkpt>
      <trkpt lat="45.9701" lon="4.85276">
        <ele>282</ele>
        <time>2018-05-20T08:35:27Z</time>
      </trkpt>
      <trkpt lat="45.97016" lon="4.85276">
        <ele>282</ele>
        <time>2018-05-20T08:35:28Z</time>
      </trkpt>
      <trkpt lat="45.97021" lon="4.85275">
        <ele>282</ele>
        <time>2018-05-20T08:35:29Z</time>
      </trkpt>
      <trkpt lat="45.97026" lon="4.85273">
        <ele>282</ele>
        <time>2018-05-20T08:35:30Z</time>
      </trkpt>
      <trkpt lat="45.97031" lon="4.85271">
        <ele>282</ele>
        <time>2018-05-20T08:35:31Z</time>
      </trkpt>
      <trkpt lat="45.97037" lon="4.8527">
        <ele>282</ele>
        <time>2018-05-20T08:35:32Z</time>
      </trkpt>
      <trkpt lat="45.97043" lon="4.8527">
        <ele>282</ele>
        <time>2018-05-20T08:35:33Z</time>
      </trkpt>
      <trkpt lat="45.97049" lon="4.85269">
        <ele>282</ele>
        <time>2018-05-20T08:35:34Z</time>
      </trkpt>
      <trkpt lat="45.97056" lon="4.85268">
        <ele>282</ele>
        <time>2018-05-20T08:35:35Z</time>
      </trkpt>
      <trkpt lat="45.97063" lon="4.85267">
        <ele>282</ele>
        <time>2018-05-20T08:35:36Z</time>
      </trkpt>
      <trkpt lat="45.97069" lon="4.85267">
        <ele>281</ele>
        <time>2018-05-20T08:35:37Z</time>
      </trkpt>
      <trkpt lat="45.97075" lon="4.85267">
        <ele>281</ele>
        <time>2018-05-20T08:35:38Z</time>
      </trkpt>
      <trkpt lat="45.97081" lon="4.85266">
        <ele>281</ele>
        <time>2018-05-20T08:35:39Z</time>
      </trkpt>
      <trkpt lat="45.97086" lon="4.85266">
        <ele>280</ele>
        <time>2018-05-20T08:35:40Z</time>
      </trkpt>
      <trkpt lat="45.97092" lon="4.85265">
        <ele>280</ele>
        <time>2018-05-20T08:35:41Z</time>
      </trkpt>
      <trkpt lat="45.97097" lon="4.85264">
        <ele>280</ele>
        <time>2018-05-20T08:35:42Z</time>
      </trkpt>
      <trkpt lat="45.97103" lon="4.85264">
        <ele>280</ele>
        <time>2018-05-20T08:35:43Z</time>
      </trkpt>
      <trkpt lat="45.97108" lon="4.85264">
        <ele>280</ele>
        <time>2018-05-20T08:35:44Z</time>
      </trkpt>
      <trkpt lat="45.97116" lon="4.85263">
        <ele>280</ele>
        <time>2018-05-20T08:35:46Z</time>
      </trkpt>
      <trkpt lat="45.97118" lon="4.85263">
        <ele>280</ele>
        <time>2018-05-20T08:35:47Z</time>
      </trkpt>
      <trkpt lat="45.97125" lon="4.85266">
        <ele>279</ele>
        <time>2018-05-20T08:35:51Z</time>
      </trkpt>
      <trkpt lat="45.97133" lon="4.85267">
        <ele>279</ele>
        <time>2018-05-20T08:35:52Z</time>
      </trkpt>
      <trkpt lat="45.97141" lon="4.85267">
        <ele>279</ele>
        <time>2018-05-20T08:35:54Z</time>
      </trkpt>
      <trkpt lat="45.97146" lon="4.85267">
        <ele>279</ele>
        <time>2018-05-20T08:35:55Z</time>
      </trkpt>
      <trkpt lat="45.97151" lon="4.85267">
        <ele>279</ele>
        <time>2018-05-20T08:35:56Z</time>
      </trkpt>
      <trkpt lat="45.97157" lon="4.85267">
        <ele>279</ele>
        <time>2018-05-20T08:35:57Z</time>
      </trkpt>
      <trkpt lat="45.97161" lon="4.85267">
        <ele>279</ele>
        <time>2018-05-20T08:35:58Z</time>
      </trkpt>
      <trkpt lat="45.97166" lon="4.85267">
        <ele>279</ele>
        <time>2018-05-20T08:35:59Z</time>
      </trkpt>
      <trkpt lat="45.97171" lon="4.85267">
        <ele>279</ele>
        <time>2018-05-20T08:36:00Z</time>
      </trkpt>
      <trkpt lat="45.97175" lon="4.85267">
        <ele>279</ele>
        <time>2018-05-20T08:36:01Z</time>
      </trkpt>
      <trkpt lat="45.9718" lon="4.85268">
        <ele>279</ele>
        <time>2018-05-20T08:36:02Z</time>
      </trkpt>
      <trkpt lat="45.97185" lon="4.85267">
        <ele>279</ele>
        <time>2018-05-20T08:36:03Z</time>
      </trkpt>
      <trkpt lat="45.9719" lon="4.85267">
        <ele>279</ele>
        <time>2018-05-20T08:36:04Z</time>
      </trkpt>
      <trkpt lat="45.97195" lon="4.85268">
        <ele>279</ele>
        <time>2018-05-20T08:36:05Z</time>
      </trkpt>
      <trkpt lat="45.972" lon="4.85266">
        <ele>279</ele>
        <time>2018-05-20T08:36:06Z</time>
      </trkpt>
      <trkpt lat="45.97205" lon="4.85266">
        <ele>279</ele>
        <time>2018-05-20T08:36:07Z</time>
      </trkpt>
      <trkpt lat="45.9721" lon="4.85265">
        <ele>279</ele>
        <time>2018-05-20T08:36:08Z</time>
      </trkpt>
      <trkpt lat="45.97214" lon="4.85266">
        <ele>279</ele>
        <time>2018-05-20T08:36:09Z</time>
      </trkpt>
      <trkpt lat="45.97223" lon="4.85266">
        <ele>279</ele>
        <time>2018-05-20T08:36:11Z</time>
      </trkpt>
      <trkpt lat="45.97227" lon="4.85265">
        <ele>279</ele>
        <time>2018-05-20T08:36:12Z</time>
      </trkpt>
      <trkpt lat="45.97231" lon="4.85266">
        <ele>279</ele>
        <time>2018-05-20T08:36:13Z</time>
      </trkpt>
      <trkpt lat="45.97236" lon="4.85265">
        <ele>279</ele>
        <time>2018-05-20T08:36:14Z</time>
      </trkpt>
      <trkpt lat="45.97241" lon="4.85267">
        <ele>279</ele>
        <time>2018-05-20T08:36:15Z</time>
      </trkpt>
      <trkpt lat="45.97248" lon="4.85266">
        <ele>279</ele>
        <time>2018-05-20T08:36:16Z</time>
      </trkpt>
      <trkpt lat="45.97253" lon="4.85267">
        <ele>280</ele>
        <time>2018-05-20T08:36:17Z</time>
      </trkpt>
      <trkpt lat="45.97259" lon="4.85265">
        <ele>280</ele>
        <time>2018-05-20T08:36:18Z</time>
      </trkpt>
      <trkpt lat="45.97264" lon="4.85266">
        <ele>281</ele>
        <time>2018-05-20T08:36:19Z</time>
      </trkpt>
      <trkpt lat="45.97268" lon="4.85265">
        <ele>281</ele>
        <time>2018-05-20T08:36:20Z</time>
      </trkpt>
      <trkpt lat="45.97273" lon="4.85265">
        <ele>281</ele>
        <time>2018-05-20T08:36:21Z</time>
      </trkpt>
      <trkpt lat="45.97277" lon="4.85265">
        <ele>281</ele>
        <time>2018-05-20T08:36:22Z</time>
      </trkpt>
      <trkpt lat="45.97282" lon="4.85266">
        <ele>281</ele>
        <time>2018-05-20T08:36:23Z</time>
      </trkpt>
      <trkpt lat="45.97287" lon="4.85266">
        <ele>281</ele>
        <time>2018-05-20T08:36:24Z</time>
      </trkpt>
      <trkpt lat="45.97292" lon="4.85265">
        <ele>281</ele>
        <time>2018-05-20T08:36:25Z</time>
      </trkpt>
      <trkpt lat="45.97297" lon="4.85267">
        <ele>282</ele>
        <time>2018-05-20T08:36:26Z</time>
      </trkpt>
      <trkpt lat="45.97302" lon="4.85266">
        <ele>282</ele>
        <time>2018-05-20T08:36:27Z</time>
      </trkpt>
      <trkpt lat="45.97308" lon="4.85267">
        <ele>282</ele>
        <time>2018-05-20T08:36:28Z</time>
      </trkpt>
      <trkpt lat="45.97313" lon="4.85267">
        <ele>282</ele>
        <time>2018-05-20T08:36:29Z</time>
      </trkpt>
      <trkpt lat="45.97318" lon="4.85265">
        <ele>282</ele>
        <time>2018-05-20T08:36:30Z</time>
      </trkpt>
      <trkpt lat="45.97323" lon="4.85266">
        <ele>282</ele>
        <time>2018-05-20T08:36:31Z</time>
      </trkpt>
      <trkpt lat="45.97327" lon="4.85266">
        <ele>282</ele>
        <time>2018-05-20T08:36:32Z</time>
      </trkpt>
      <trkpt lat="45.97332" lon="4.85269">
        <ele>282</ele>
        <time>2018-05-20T08:36:33Z</time>
      </trkpt>
      <trkpt lat="45.97337" lon="4.85269">
        <ele>283</ele>
        <time>2018-05-20T08:36:34Z</time>
      </trkpt>
      <trkpt lat="45.97343" lon="4.8527">
        <ele>284</ele>
        <time>2018-05-20T08:36:35Z</time>
      </trkpt>
      <trkpt lat="45.97347" lon="4.85269">
        <ele>284</ele>
        <time>2018-05-20T08:36:36Z</time>
      </trkpt>
      <trkpt lat="45.97352" lon="4.85268">
        <ele>284</ele>
        <time>2018-05-20T08:36:37Z</time>
      </trkpt>
      <trkpt lat="45.97357" lon="4.85268">
        <ele>284</ele>
        <time>2018-05-20T08:36:38Z</time>
      </trkpt>
      <trkpt lat="45.97363" lon="4.85268">
        <ele>284</ele>
        <time>2018-05-20T08:36:39Z</time>
      </trkpt>
      <trkpt lat="45.97369" lon="4.85268">
        <ele>285</ele>
        <time>2018-05-20T08:36:40Z</time>
      </trkpt>
      <trkpt lat="45.97374" lon="4.85266">
        <ele>285</ele>
        <time>2018-05-20T08:36:41Z</time>
      </trkpt>
      <trkpt lat="45.97382" lon="4.85264">
        <ele>285</ele>
        <time>2018-05-20T08:36:42Z</time>
      </trkpt>
      <trkpt lat="45.97388" lon="4.85263">
        <ele>285</ele>
        <time>2018-05-20T08:36:43Z</time>
      </trkpt>
      <trkpt lat="45.97394" lon="4.85265">
        <ele>286</ele>
        <time>2018-05-20T08:36:44Z</time>
      </trkpt>
      <trkpt lat="45.97401" lon="4.85265">
        <ele>286</ele>
        <time>2018-05-20T08:36:45Z</time>
      </trkpt>
      <trkpt lat="45.97408" lon="4.85267">
        <ele>286</ele>
        <time>2018-05-20T08:36:46Z</time>
      </trkpt>
      <trkpt lat="45.97414" lon="4.85267">
        <ele>286</ele>
        <time>2018-05-20T08:36:47Z</time>
      </trkpt>
      <trkpt lat="45.97421" lon="4.85268">
        <ele>285</ele>
        <time>2018-05-20T08:36:48Z</time>
      </trkpt>
      <trkpt lat="45.97427" lon="4.85268">
        <ele>285</ele>
        <time>2018-05-20T08:36:49Z</time>
      </trkpt>
      <trkpt lat="45.97434" lon="4.85269">
        <ele>285</ele>
        <time>2018-05-20T08:36:50Z</time>
      </trkpt>
      <trkpt lat="45.9744" lon="4.85268">
        <ele>285</ele>
        <time>2018-05-20T08:36:51Z</time>
      </trkpt>
      <trkpt lat="45.97448" lon="4.85268">
        <ele>285</ele>
        <time>2018-05-20T08:36:52Z</time>
      </trkpt>
      <trkpt lat="45.97454" lon="4.85268">
        <ele>284</ele>
        <time>2018-05-20T08:36:53Z</time>
      </trkpt>
      <trkpt lat="45.9746" lon="4.85268">
        <ele>284</ele>
        <time>2018-05-20T08:36:54Z</time>
      </trkpt>
      <trkpt lat="45.97466" lon="4.85268">
        <ele>284</ele>
        <time>2018-05-20T08:36:55Z</time>
      </trkpt>
      <trkpt lat="45.97473" lon="4.85268">
        <ele>284</ele>
        <time>2018-05-20T08:36:56Z</time>
      </trkpt>
      <trkpt lat="45.97479" lon="4.85268">
        <ele>284</ele>
        <time>2018-05-20T08:36:57Z</time>
      </trkpt>
      <trkpt lat="45.97485" lon="4.85269">
        <ele>284</ele>
        <time>2018-05-20T08:36:58Z</time>
      </trkpt>
      <trkpt lat="45.97492" lon="4.85269">
        <ele>283</ele>
        <time>2018-05-20T08:36:59Z</time>
      </trkpt>
      <trkpt lat="45.97497" lon="4.85269">
        <ele>283</ele>
        <time>2018-05-20T08:37:00Z</time>
      </trkpt>
      <trkpt lat="45.97503" lon="4.85268">
        <ele>282</ele>
        <time>2018-05-20T08:37:01Z</time>
      </trkpt>
      <trkpt lat="45.97509" lon="4.85268">
        <ele>281</ele>
        <time>2018-05-20T08:37:02Z</time>
      </trkpt>
      <trkpt lat="45.97515" lon="4.85269">
        <ele>281</ele>
        <time>2018-05-20T08:37:03Z</time>
      </trkpt>
      <trkpt lat="45.97522" lon="4.85267">
        <ele>281</ele>
        <time>2018-05-20T08:37:04Z</time>
      </trkpt>
      <trkpt lat="45.97528" lon="4.85267">
        <ele>281</ele>
        <time>2018-05-20T08:37:05Z</time>
      </trkpt>
      <trkpt lat="45.97535" lon="4.85267">
        <ele>281</ele>
        <time>2018-05-20T08:37:06Z</time>
      </trkpt>
      <trkpt lat="45.9754" lon="4.85266">
        <ele>281</ele>
        <time>2018-05-20T08:37:07Z</time>
      </trkpt>
      <trkpt lat="45.97547" lon="4.85264">
        <ele>281</ele>
        <time>2018-05-20T08:37:08Z</time>
      </trkpt>
      <trkpt lat="45.97554" lon="4.85261">
        <ele>281</ele>
        <time>2018-05-20T08:37:09Z</time>
      </trkpt>
      <trkpt lat="45.9756" lon="4.85261">
        <ele>281</ele>
        <time>2018-05-20T08:37:10Z</time>
      </trkpt>
      <trkpt lat="45.97567" lon="4.85259">
        <ele>281</ele>
        <time>2018-05-20T08:37:11Z</time>
      </trkpt>
      <trkpt lat="45.97574" lon="4.85259">
        <ele>281</ele>
        <time>2018-05-20T08:37:12Z</time>
      </trkpt>
      <trkpt lat="45.9758" lon="4.8526">
        <ele>281</ele>
        <time>2018-05-20T08:37:13Z</time>
      </trkpt>
      <trkpt lat="45.97588" lon="4.85259">
        <ele>281</ele>
        <time>2018-05-20T08:37:14Z</time>
      </trkpt>
      <trkpt lat="45.97593" lon="4.8526">
        <ele>280</ele>
        <time>2018-05-20T08:37:15Z</time>
      </trkpt>
      <trkpt lat="45.97599" lon="4.85259">
        <ele>280</ele>
        <time>2018-05-20T08:37:16Z</time>
      </trkpt>
      <trkpt lat="45.97605" lon="4.85256">
        <ele>279</ele>
        <time>2018-05-20T08:37:17Z</time>
      </trkpt>
      <trkpt lat="45.97612" lon="4.85254">
        <ele>279</ele>
        <time>2018-05-20T08:37:18Z</time>
      </trkpt>
      <trkpt lat="45.97618" lon="4.85254">
        <ele>279</ele>
        <time>2018-05-20T08:37:19Z</time>
      </trkpt>
      <trkpt lat="45.97624" lon="4.85253">
        <ele>278</ele>
        <time>2018-05-20T08:37:20Z</time>
      </trkpt>
      <trkpt lat="45.97629" lon="4.85252">
        <ele>278</ele>
        <time>2018-05-20T08:37:21Z</time>
      </trkpt>
      <trkpt lat="45.97635" lon="4.85252">
        <ele>278</ele>
        <time>2018-05-20T08:37:22Z</time>
      </trkpt>
      <trkpt lat="45.97641" lon="4.85252">
        <ele>278</ele>
        <time>2018-05-20T08:37:23Z</time>
      </trkpt>
      <trkpt lat="45.97647" lon="4.85251">
        <ele>277</ele>
        <time>2018-05-20T08:37:24Z</time>
      </trkpt>
      <trkpt lat="45.97654" lon="4.85252">
        <ele>277</ele>
        <time>2018-05-20T08:37:25Z</time>
      </trkpt>
      <trkpt lat="45.97659" lon="4.85251">
        <ele>277</ele>
        <time>2018-05-20T08:37:26Z</time>
      </trkpt>
      <trkpt lat="45.97666" lon="4.85249">
        <ele>276</ele>
        <time>2018-05-20T08:37:27Z</time>
      </trkpt>
      <trkpt lat="45.97671" lon="4.85251">
        <ele>276</ele>
        <time>2018-05-20T08:37:28Z</time>
      </trkpt>
      <trkpt lat="45.97677" lon="4.85252">
        <ele>276</ele>
        <time>2018-05-20T08:37:29Z</time>
      </trkpt>
      <trkpt lat="45.97683" lon="4.8525">
        <ele>276</ele>
        <time>2018-05-20T08:37:30Z</time>
      </trkpt>
      <trkpt lat="45.9769" lon="4.8525">
        <ele>275</ele>
        <time>2018-05-20T08:37:31Z</time>
      </trkpt>
      <trkpt lat="45.97695" lon="4.85247">
        <ele>275</ele>
        <time>2018-05-20T08:37:32Z</time>
      </trkpt>
      <trkpt lat="45.97701" lon="4.85245">
        <ele>275</ele>
        <time>2018-05-20T08:37:33Z</time>
      </trkpt>
      <trkpt lat="45.97706" lon="4.85244">
        <ele>275</ele>
        <time>2018-05-20T08:37:34Z</time>
      </trkpt>
      <trkpt lat="45.97712" lon="4.85244">
        <ele>275</ele>
        <time>2018-05-20T08:37:35Z</time>
      </trkpt>
      <trkpt lat="45.97717" lon="4.85244">
        <ele>275</ele>
        <time>2018-05-20T08:37:36Z</time>
      </trkpt>
      <trkpt lat="45.97723" lon="4.85242">
        <ele>275</ele>
        <time>2018-05-20T08:37:37Z</time>
      </trkpt>
      <trkpt lat="45.97727" lon="4.85241">
        <ele>275</ele>
        <time>2018-05-20T08:37:38Z</time>
      </trkpt>
      <trkpt lat="45.97733" lon="4.8524">
        <ele>275</ele>
        <time>2018-05-20T08:37:39Z</time>
      </trkpt>
      <trkpt lat="45.97738" lon="4.8524">
        <ele>275</ele>
        <time>2018-05-20T08:37:40Z</time>
      </trkpt>
      <trkpt lat="45.97743" lon="4.8524">
        <ele>274</ele>
        <time>2018-05-20T08:37:41Z</time>
      </trkpt>
      <trkpt lat="45.97749" lon="4.85241">
        <ele>274</ele>
        <time>2018-05-20T08:37:42Z</time>
      </trkpt>
      <trkpt lat="45.97753" lon="4.85241">
        <ele>274</ele>
        <time>2018-05-20T08:37:43Z</time>
      </trkpt>
      <trkpt lat="45.97759" lon="4.85241">
        <ele>274</ele>
        <time>2018-05-20T08:37:44Z</time>
      </trkpt>
      <trkpt lat="45.97764" lon="4.8524">
        <ele>274</ele>
        <time>2018-05-20T08:37:45Z</time>
      </trkpt>
      <trkpt lat="45.97769" lon="4.8524">
        <ele>274</ele>
        <time>2018-05-20T08:37:46Z</time>
      </trkpt>
      <trkpt lat="45.97773" lon="4.85239">
        <ele>274</ele>
        <time>2018-05-20T08:37:47Z</time>
      </trkpt>
      <trkpt lat="45.97778" lon="4.85239">
        <ele>274</ele>
        <time>2018-05-20T08:37:48Z</time>
      </trkpt>
      <trkpt lat="45.97783" lon="4.85239">
        <ele>274</ele>
        <time>2018-05-20T08:37:49Z</time>
      </trkpt>
      <trkpt lat="45.97788" lon="4.85238">
        <ele>274</ele>
        <time>2018-05-20T08:37:50Z</time>
      </trkpt>
      <trkpt lat="45.97795" lon="4.85235">
        <ele>274</ele>
        <time>2018-05-20T08:37:51Z</time>
      </trkpt>
      <trkpt lat="45.978" lon="4.85233">
        <ele>274</ele>
        <time>2018-05-20T08:37:52Z</time>
      </trkpt>
      <trkpt lat="45.97805" lon="4.85234">
        <ele>274</ele>
        <time>2018-05-20T08:37:53Z</time>
      </trkpt>
      <trkpt lat="45.97809" lon="4.85234">
        <ele>274</ele>
        <time>2018-05-20T08:37:54Z</time>
      </trkpt>
      <trkpt lat="45.97814" lon="4.85233">
        <ele>274</ele>
        <time>2018-05-20T08:37:55Z</time>
      </trkpt>
      <trkpt lat="45.97818" lon="4.85234">
        <ele>275</ele>
        <time>2018-05-20T08:37:56Z</time>
      </trkpt>
      <trkpt lat="45.97824" lon="4.8523">
        <ele>275</ele>
        <time>2018-05-20T08:37:57Z</time>
      </trkpt>
      <trkpt lat="45.9783" lon="4.85229">
        <ele>275</ele>
        <time>2018-05-20T08:37:58Z</time>
      </trkpt>
      <trkpt lat="45.97835" lon="4.85227">
        <ele>275</ele>
        <time>2018-05-20T08:37:59Z</time>
      </trkpt>
      <trkpt lat="45.9784" lon="4.85227">
        <ele>275</ele>
        <time>2018-05-20T08:38:00Z</time>
      </trkpt>
      <trkpt lat="45.97846" lon="4.85227">
        <ele>275</ele>
        <time>2018-05-20T08:38:01Z</time>
      </trkpt>
      <trkpt lat="45.97851" lon="4.85226">
        <ele>275</ele>
        <time>2018-05-20T08:38:02Z</time>
      </trkpt>
      <trkpt lat="45.97857" lon="4.85225">
        <ele>275</ele>
        <time>2018-05-20T08:38:03Z</time>
      </trkpt>
      <trkpt lat="45.97863" lon="4.85224">
        <ele>275</ele>
        <time>2018-05-20T08:38:04Z</time>
      </trkpt>
      <trkpt lat="45.97868" lon="4.85225">
        <ele>275</ele>
        <time>2018-05-20T08:38:05Z</time>
      </trkpt>
      <trkpt lat="45.97873" lon="4.85224">
        <ele>275</ele>
        <time>2018-05-20T08:38:06Z</time>
      </trkpt>
      <trkpt lat="45.97879" lon="4.85225">
        <ele>275</ele>
        <time>2018-05-20T08:38:07Z</time>
      </trkpt>
      <trkpt lat="45.97884" lon="4.85225">
        <ele>275</ele>
        <time>2018-05-20T08:38:08Z</time>
      </trkpt>
      <trkpt lat="45.97891" lon="4.85224">
        <ele>275</ele>
        <time>2018-05-20T08:38:09Z</time>
      </trkpt>
      <trkpt lat="45.97895" lon="4.85224">
        <ele>275</ele>
        <time>2018-05-20T08:38:10Z</time>
      </trkpt>
      <trkpt lat="45.97901" lon="4.85223">
        <ele>275</ele>
        <time>2018-05-20T08:38:11Z</time>
      </trkpt>
      <trkpt lat="45.97906" lon="4.85223">
        <ele>275</ele>
        <time>2018-05-20T08:38:12Z</time>
      </trkpt>
      <trkpt lat="45.97911" lon="4.85222">
        <ele>275</ele>
        <time>2018-05-20T08:38:13Z</time>
      </trkpt>
      <trkpt lat="45.97917" lon="4.85221">
        <ele>276</ele>
        <time>2018-05-20T08:38:14Z</time>
      </trkpt>
      <trkpt lat="45.97923" lon="4.8522">
        <ele>276</ele>
        <time>2018-05-20T08:38:15Z</time>
      </trkpt>
      <trkpt lat="45.9793" lon="4.8522">
        <ele>276</ele>
        <time>2018-05-20T08:38:16Z</time>
      </trkpt>
      <trkpt lat="45.97934" lon="4.85222">
        <ele>276</ele>
        <time>2018-05-20T08:38:17Z</time>
      </trkpt>
      <trkpt lat="45.9794" lon="4.8522">
        <ele>276</ele>
        <time>2018-05-20T08:38:18Z</time>
      </trkpt>
      <trkpt lat="45.97946" lon="4.8522">
        <ele>276</ele>
        <time>2018-05-20T08:38:19Z</time>
      </trkpt>
      <trkpt lat="45.97951" lon="4.8522">
        <ele>276</ele>
        <time>2018-05-20T08:38:20Z</time>
      </trkpt>
      <trkpt lat="45.97956" lon="4.8522">
        <ele>276</ele>
        <time>2018-05-20T08:38:21Z</time>
      </trkpt>
      <trkpt lat="45.97962" lon="4.85216">
        <ele>276</ele>
        <time>2018-05-20T08:38:22Z</time>
      </trkpt>
      <trkpt lat="45.97967" lon="4.85215">
        <ele>276</ele>
        <time>2018-05-20T08:38:23Z</time>
      </trkpt>
      <trkpt lat="45.97972" lon="4.85216">
        <ele>276</ele>
        <time>2018-05-20T08:38:24Z</time>
      </trkpt>
      <trkpt lat="45.97977" lon="4.85215">
        <ele>276</ele>
        <time>2018-05-20T08:38:25Z</time>
      </trkpt>
      <trkpt lat="45.97982" lon="4.85214">
        <ele>276</ele>
        <time>2018-05-20T08:38:26Z</time>
      </trkpt>
      <trkpt lat="45.97989" lon="4.85213">
        <ele>276</ele>
        <time>2018-05-20T08:38:27Z</time>
      </trkpt>
      <trkpt lat="45.97994" lon="4.85212">
        <ele>276</ele>
        <time>2018-05-20T08:38:28Z</time>
      </trkpt>
      <trkpt lat="45.98002" lon="4.85211">
        <ele>276</ele>
        <time>2018-05-20T08:38:30Z</time>
      </trkpt>
      <trkpt lat="45.98006" lon="4.85211">
        <ele>276</ele>
        <time>2018-05-20T08:38:31Z</time>
      </trkpt>
      <trkpt lat="45.98011" lon="4.85211">
        <ele>276</ele>
        <time>2018-05-20T08:38:32Z</time>
      </trkpt>
      <trkpt lat="45.98016" lon="4.8521">
        <ele>276</ele>
        <time>2018-05-20T08:38:33Z</time>
      </trkpt>
      <trkpt lat="45.98021" lon="4.8521">
        <ele>276</ele>
        <time>2018-05-20T08:38:34Z</time>
      </trkpt>
      <trkpt lat="45.98025" lon="4.85207">
        <ele>276</ele>
        <time>2018-05-20T08:38:35Z</time>
      </trkpt>
      <trkpt lat="45.98033" lon="4.85206">
        <ele>276</ele>
        <time>2018-05-20T08:38:37Z</time>
      </trkpt>
      <trkpt lat="45.98038" lon="4.85206">
        <ele>276</ele>
        <time>2018-05-20T08:38:38Z</time>
      </trkpt>
      <trkpt lat="45.98045" lon="4.8521">
        <ele>276</ele>
        <time>2018-05-20T08:38:40Z</time>
      </trkpt>
      <trkpt lat="45.9805" lon="4.85209">
        <ele>276</ele>
        <time>2018-05-20T08:38:41Z</time>
      </trkpt>
      <trkpt lat="45.98058" lon="4.85208">
        <ele>276</ele>
        <time>2018-05-20T08:38:43Z</time>
      </trkpt>
      <trkpt lat="45.98063" lon="4.85207">
        <ele>276</ele>
        <time>2018-05-20T08:38:44Z</time>
      </trkpt>
      <trkpt lat="45.98068" lon="4.85206">
        <ele>276</ele>
        <time>2018-05-20T08:38:45Z</time>
      </trkpt>
      <trkpt lat="45.98073" lon="4.85205">
        <ele>276</ele>
        <time>2018-05-20T08:38:46Z</time>
      </trkpt>
      <trkpt lat="45.98082" lon="4.85206">
        <ele>276</ele>
        <time>2018-05-20T08:38:48Z</time>
      </trkpt>
      <trkpt lat="45.98087" lon="4.85206">
        <ele>275</ele>
        <time>2018-05-20T08:38:49Z</time>
      </trkpt>
      <trkpt lat="45.98092" lon="4.85207">
        <ele>275</ele>
        <time>2018-05-20T08:38:50Z</time>
      </trkpt>
      <trkpt lat="45.98098" lon="4.85207">
        <ele>275</ele>
        <time>2018-05-20T08:38:51Z</time>
      </trkpt>
      <trkpt lat="45.98102" lon="4.85205">
        <ele>275</ele>
        <time>2018-05-20T08:38:52Z</time>
      </trkpt>
      <trkpt lat="45.98107" lon="4.85207">
        <ele>275</ele>
        <time>2018-05-20T08:38:53Z</time>
      </trkpt>
      <trkpt lat="45.98112" lon="4.85206">
        <ele>275</ele>
        <time>2018-05-20T08:38:54Z</time>
      </trkpt>
      <trkpt lat="45.98117" lon="4.85204">
        <ele>275</ele>
        <time>2018-05-20T08:38:55Z</time>
      </trkpt>
      <trkpt lat="45.98123" lon="4.85204">
        <ele>275</ele>
        <time>2018-05-20T08:38:56Z</time>
      </trkpt>
      <trkpt lat="45.98129" lon="4.85204">
        <ele>275</ele>
        <time>2018-05-20T08:38:57Z</time>
      </trkpt>
      <trkpt lat="45.98136" lon="4.85204">
        <ele>275</ele>
        <time>2018-05-20T08:38:58Z</time>
      </trkpt>
      <trkpt lat="45.98142" lon="4.85204">
        <ele>275</ele>
        <time>2018-05-20T08:38:59Z</time>
      </trkpt>
      <trkpt lat="45.98149" lon="4.85201">
        <ele>275</ele>
        <time>2018-05-20T08:39:00Z</time>
      </trkpt>
      <trkpt lat="45.98153" lon="4.85201">
        <ele>275</ele>
        <time>2018-05-20T08:39:01Z</time>
      </trkpt>
      <trkpt lat="45.9816" lon="4.852">
        <ele>274</ele>
        <time>2018-05-20T08:39:02Z</time>
      </trkpt>
      <trkpt lat="45.98166" lon="4.85199">
        <ele>274</ele>
        <time>2018-05-20T08:39:03Z</time>
      </trkpt>
      <trkpt lat="45.98171" lon="4.85199">
        <ele>274</ele>
        <time>2018-05-20T08:39:04Z</time>
      </trkpt>
      <trkpt lat="45.98177" lon="4.852">
        <ele>274</ele>
        <time>2018-05-20T08:39:05Z</time>
      </trkpt>
      <trkpt lat="45.98183" lon="4.852">
        <ele>274</ele>
        <time>2018-05-20T08:39:06Z</time>
      </trkpt>
      <trkpt lat="45.98189" lon="4.85199">
        <ele>274</ele>
        <time>2018-05-20T08:39:07Z</time>
      </trkpt>
      <trkpt lat="45.98195" lon="4.85199">
        <ele>274</ele>
        <time>2018-05-20T08:39:08Z</time>
      </trkpt>
      <trkpt lat="45.98201" lon="4.85199">
        <ele>274</ele>
        <time>2018-05-20T08:39:09Z</time>
      </trkpt>
      <trkpt lat="45.98207" lon="4.85198">
        <ele>274</ele>
        <time>2018-05-20T08:39:10Z</time>
      </trkpt>
      <trkpt lat="45.98213" lon="4.85197">
        <ele>274</ele>
        <time>2018-05-20T08:39:11Z</time>
      </trkpt>
      <trkpt lat="45.98219" lon="4.85197">
        <ele>274</ele>
        <time>2018-05-20T08:39:12Z</time>
      </trkpt>
      <trkpt lat="45.98225" lon="4.85197">
        <ele>274</ele>
        <time>2018-05-20T08:39:13Z</time>
      </trkpt>
      <trkpt lat="45.98231" lon="4.85195">
        <ele>274</ele>
        <time>2018-05-20T08:39:14Z</time>
      </trkpt>
      <trkpt lat="45.98237" lon="4.85194">
        <ele>274</ele>
        <time>2018-05-20T08:39:15Z</time>
      </trkpt>
      <trkpt lat="45.98243" lon="4.8519">
        <ele>273</ele>
        <time>2018-05-20T08:39:16Z</time>
      </trkpt>
      <trkpt lat="45.98248" lon="4.8519">
        <ele>273</ele>
        <time>2018-05-20T08:39:17Z</time>
      </trkpt>
      <trkpt lat="45.98253" lon="4.85189">
        <ele>274</ele>
        <time>2018-05-20T08:39:18Z</time>
      </trkpt>
      <trkpt lat="45.98258" lon="4.8519">
        <ele>274</ele>
        <time>2018-05-20T08:39:19Z</time>
      </trkpt>
      <trkpt lat="45.98264" lon="4.8519">
        <ele>274</ele>
        <time>2018-05-20T08:39:20Z</time>
      </trkpt>
      <trkpt lat="45.98269" lon="4.8519">
        <ele>274</ele>
        <time>2018-05-20T08:39:21Z</time>
      </trkpt>
      <trkpt lat="45.98275" lon="4.85189">
        <ele>274</ele>
        <time>2018-05-20T08:39:22Z</time>
      </trkpt>
      <trkpt lat="45.9828" lon="4.85188">
        <ele>274</ele>
        <time>2018-05-20T08:39:23Z</time>
      </trkpt>
      <trkpt lat="45.98285" lon="4.85188">
        <ele>274</ele>
        <time>2018-05-20T08:39:24Z</time>
      </trkpt>
      <trkpt lat="45.98291" lon="4.85188">
        <ele>274</ele>
        <time>2018-05-20T08:39:25Z</time>
      </trkpt>
      <trkpt lat="45.98299" lon="4.85189">
        <ele>274</ele>
        <time>2018-05-20T08:39:27Z</time>
      </trkpt>
      <trkpt lat="45.98305" lon="4.85187">
        <ele>274</ele>
        <time>2018-05-20T08:39:28Z</time>
      </trkpt>
      <trkpt lat="45.9831" lon="4.85185">
        <ele>274</ele>
        <time>2018-05-20T08:39:29Z</time>
      </trkpt>
      <trkpt lat="45.98315" lon="4.85185">
        <ele>274</ele>
        <time>2018-05-20T08:39:30Z</time>
      </trkpt>
      <trkpt lat="45.9832" lon="4.85184">
        <ele>274</ele>
        <time>2018-05-20T08:39:31Z</time>
      </trkpt>
      <trkpt lat="45.98325" lon="4.85184">
        <ele>274</ele>
        <time>2018-05-20T08:39:32Z</time>
      </trkpt>
      <trkpt lat="45.9833" lon="4.85184">
        <ele>274</ele>
        <time>2018-05-20T08:39:33Z</time>
      </trkpt>
      <trkpt lat="45.98336" lon="4.85183">
        <ele>274</ele>
        <time>2018-05-20T08:39:34Z</time>
      </trkpt>
      <trkpt lat="45.98342" lon="4.85182">
        <ele>275</ele>
        <time>2018-05-20T08:39:35Z</time>
      </trkpt>
      <trkpt lat="45.98347" lon="4.8518">
        <ele>275</ele>
        <time>2018-05-20T08:39:36Z</time>
      </trkpt>
      <trkpt lat="45.98353" lon="4.85178">
        <ele>275</ele>
        <time>2018-05-20T08:39:37Z</time>
      </trkpt>
      <trkpt lat="45.98357" lon="4.85178">
        <ele>275</ele>
        <time>2018-05-20T08:39:38Z</time>
      </trkpt>
      <trkpt lat="45.98362" lon="4.85179">
        <ele>275</ele>
        <time>2018-05-20T08:39:39Z</time>
      </trkpt>
      <trkpt lat="45.98367" lon="4.85179">
        <ele>275</ele>
        <time>2018-05-20T08:39:40Z</time>
      </trkpt>
      <trkpt lat="45.98372" lon="4.85179">
        <ele>275</ele>
        <time>2018-05-20T08:39:41Z</time>
      </trkpt>
      <trkpt lat="45.98379" lon="4.85177">
        <ele>275</ele>
        <time>2018-05-20T08:39:42Z</time>
      </trkpt>
      <trkpt lat="45.98384" lon="4.85177">
        <ele>275</ele>
        <time>2018-05-20T08:39:43Z</time>
      </trkpt>
      <trkpt lat="45.98389" lon="4.85177">
        <ele>275</ele>
        <time>2018-05-20T08:39:44Z</time>
      </trkpt>
      <trkpt lat="45.98394" lon="4.85176">
        <ele>275</ele>
        <time>2018-05-20T08:39:45Z</time>
      </trkpt>
      <trkpt lat="45.984" lon="4.85176">
        <ele>275</ele>
        <time>2018-05-20T08:39:46Z</time>
      </trkpt>
      <trkpt lat="45.98405" lon="4.85176">
        <ele>276</ele>
        <time>2018-05-20T08:39:47Z</time>
      </trkpt>
      <trkpt lat="45.98411" lon="4.85174">
        <ele>276</ele>
        <time>2018-05-20T08:39:48Z</time>
      </trkpt>
      <trkpt lat="45.98416" lon="4.85173">
        <ele>276</ele>
        <time>2018-05-20T08:39:49Z</time>
      </trkpt>
      <trkpt lat="45.98422" lon="4.85173">
        <ele>276</ele>
        <time>2018-05-20T08:39:50Z</time>
      </trkpt>
      <trkpt lat="45.98427" lon="4.85172">
        <ele>275</ele>
        <time>2018-05-20T08:39:51Z</time>
      </trkpt>
      <trkpt lat="45.98432" lon="4.85171">
        <ele>275</ele>
        <time>2018-05-20T08:39:52Z</time>
      </trkpt>
      <trkpt lat="45.98437" lon="4.85171">
        <ele>275</ele>
        <time>2018-05-20T08:39:53Z</time>
      </trkpt>
      <trkpt lat="45.98442" lon="4.85171">
        <ele>275</ele>
        <time>2018-05-20T08:39:54Z</time>
      </trkpt>
      <trkpt lat="45.98447" lon="4.8517">
        <ele>275</ele>
        <time>2018-05-20T08:39:55Z</time>
      </trkpt>
      <trkpt lat="45.98452" lon="4.85171">
        <ele>275</ele>
        <time>2018-05-20T08:39:56Z</time>
      </trkpt>
      <trkpt lat="45.98457" lon="4.8517">
        <ele>275</ele>
        <time>2018-05-20T08:39:57Z</time>
      </trkpt>
      <trkpt lat="45.98461" lon="4.8517">
        <ele>275</ele>
        <time>2018-05-20T08:39:58Z</time>
      </trkpt>
      <trkpt lat="45.98466" lon="4.85169">
        <ele>275</ele>
        <time>2018-05-20T08:39:59Z</time>
      </trkpt>
      <trkpt lat="45.98471" lon="4.85169">
        <ele>275</ele>
        <time>2018-05-20T08:40:00Z</time>
      </trkpt>
      <trkpt lat="45.98477" lon="4.85168">
        <ele>275</ele>
        <time>2018-05-20T08:40:01Z</time>
      </trkpt>
      <trkpt lat="45.98482" lon="4.85167">
        <ele>275</ele>
        <time>2018-05-20T08:40:02Z</time>
      </trkpt>
      <trkpt lat="45.98487" lon="4.85166">
        <ele>275</ele>
        <time>2018-05-20T08:40:03Z</time>
      </trkpt>
      <trkpt lat="45.98492" lon="4.85166">
        <ele>275</ele>
        <time>2018-05-20T08:40:04Z</time>
      </trkpt>
      <trkpt lat="45.98497" lon="4.85166">
        <ele>275</ele>
        <time>2018-05-20T08:40:05Z</time>
      </trkpt>
      <trkpt lat="45.98502" lon="4.85165">
        <ele>275</ele>
        <time>2018-05-20T08:40:06Z</time>
      </trkpt>
      <trkpt lat="45.98507" lon="4.85164">
        <ele>275</ele>
        <time>2018-05-20T08:40:07Z</time>
      </trkpt>
      <trkpt lat="45.98512" lon="4.85164">
        <ele>275</ele>
        <time>2018-05-20T08:40:08Z</time>
      </trkpt>
      <trkpt lat="45.98517" lon="4.85164">
        <ele>275</ele>
        <time>2018-05-20T08:40:09Z</time>
      </trkpt>
      <trkpt lat="45.98521" lon="4.85162">
        <ele>275</ele>
        <time>2018-05-20T08:40:10Z</time>
      </trkpt>
      <trkpt lat="45.9853" lon="4.85159">
        <ele>274</ele>
        <time>2018-05-20T08:40:12Z</time>
      </trkpt>
      <trkpt lat="45.98535" lon="4.85157">
        <ele>274</ele>
        <time>2018-05-20T08:40:13Z</time>
      </trkpt>
      <trkpt lat="45.98541" lon="4.85155">
        <ele>274</ele>
        <time>2018-05-20T08:40:14Z</time>
      </trkpt>
      <trkpt lat="45.98546" lon="4.85155">
        <ele>274</ele>
        <time>2018-05-20T08:40:15Z</time>
      </trkpt>
      <trkpt lat="45.98552" lon="4.85153">
        <ele>274</ele>
        <time>2018-05-20T08:40:16Z</time>
      </trkpt>
      <trkpt lat="45.98557" lon="4.85151">
        <ele>274</ele>
        <time>2018-05-20T08:40:17Z</time>
      </trkpt>
      <trkpt lat="45.98563" lon="4.85154">
        <ele>274</ele>
        <time>2018-05-20T08:40:19Z</time>
      </trkpt>
      <trkpt lat="45.98569" lon="4.8515">
        <ele>273</ele>
        <time>2018-05-20T08:40:20Z</time>
      </trkpt>
      <trkpt lat="45.98574" lon="4.85147">
        <ele>273</ele>
        <time>2018-05-20T08:40:21Z</time>
      </trkpt>
      <trkpt lat="45.9858" lon="4.85146">
        <ele>273</ele>
        <time>2018-05-20T08:40:22Z</time>
      </trkpt>
      <trkpt lat="45.98586" lon="4.85144">
        <ele>272</ele>
        <time>2018-05-20T08:40:23Z</time>
      </trkpt>
      <trkpt lat="45.98591" lon="4.85141">
        <ele>272</ele>
        <time>2018-05-20T08:40:24Z</time>
      </trkpt>
      <trkpt lat="45.98596" lon="4.85138">
        <ele>272</ele>
        <time>2018-05-20T08:40:25Z</time>
      </trkpt>
      <trkpt lat="45.98601" lon="4.85135">
        <ele>272</ele>
        <time>2018-05-20T08:40:26Z</time>
      </trkpt>
      <trkpt lat="45.98606" lon="4.85133">
        <ele>272</ele>
        <time>2018-05-20T08:40:27Z</time>
      </trkpt>
      <trkpt lat="45.98611" lon="4.8513">
        <ele>272</ele>
        <time>2018-05-20T08:40:28Z</time>
      </trkpt>
      <trkpt lat="45.98616" lon="4.85127">
        <ele>272</ele>
        <time>2018-05-20T08:40:29Z</time>
      </trkpt>
      <trkpt lat="45.98619" lon="4.85125">
        <ele>272</ele>
        <time>2018-05-20T08:40:30Z</time>
      </trkpt>
      <trkpt lat="45.98624" lon="4.85122">
        <ele>272</ele>
        <time>2018-05-20T08:40:31Z</time>
      </trkpt>
      <trkpt lat="45.9863" lon="4.85119">
        <ele>272</ele>
        <time>2018-05-20T08:40:32Z</time>
      </trkpt>
      <trkpt lat="45.98635" lon="4.85115">
        <ele>272</ele>
        <time>2018-05-20T08:40:33Z</time>
      </trkpt>
      <trkpt lat="45.9864" lon="4.85112">
        <ele>272</ele>
        <time>2018-05-20T08:40:34Z</time>
      </trkpt>
      <trkpt lat="45.98645" lon="4.85111">
        <ele>272</ele>
        <time>2018-05-20T08:40:35Z</time>
      </trkpt>
      <trkpt lat="45.9865" lon="4.85109">
        <ele>271</ele>
        <time>2018-05-20T08:40:36Z</time>
      </trkpt>
      <trkpt lat="45.98656" lon="4.85107">
        <ele>271</ele>
        <time>2018-05-20T08:40:37Z</time>
      </trkpt>
      <trkpt lat="45.98659" lon="4.85106">
        <ele>271</ele>
        <time>2018-05-20T08:40:38Z</time>
      </trkpt>
      <trkpt lat="45.98667" lon="4.85101">
        <ele>270</ele>
        <time>2018-05-20T08:40:39Z</time>
      </trkpt>
      <trkpt lat="45.98672" lon="4.85097">
        <ele>270</ele>
        <time>2018-05-20T08:40:40Z</time>
      </trkpt>
      <trkpt lat="45.98678" lon="4.85093">
        <ele>270</ele>
        <time>2018-05-20T08:40:41Z</time>
      </trkpt>
      <trkpt lat="45.98684" lon="4.85088">
        <ele>270</ele>
        <time>2018-05-20T08:40:42Z</time>
      </trkpt>
      <trkpt lat="45.98691" lon="4.85085">
        <ele>270</ele>
        <time>2018-05-20T08:40:43Z</time>
      </trkpt>
      <trkpt lat="45.98697" lon="4.8508">
        <ele>270</ele>
        <time>2018-05-20T08:40:44Z</time>
      </trkpt>
      <trkpt lat="45.98703" lon="4.85077">
        <ele>270</ele>
        <time>2018-05-20T08:40:45Z</time>
      </trkpt>
      <trkpt lat="45.98709" lon="4.85074">
        <ele>270</ele>
        <time>2018-05-20T08:40:46Z</time>
      </trkpt>
      <trkpt lat="45.98715" lon="4.85073">
        <ele>270</ele>
        <time>2018-05-20T08:40:47Z</time>
      </trkpt>
      <trkpt lat="45.9872" lon="4.85072">
        <ele>270</ele>
        <time>2018-05-20T08:40:48Z</time>
      </trkpt>
      <trkpt lat="45.98726" lon="4.85068">
        <ele>270</ele>
        <time>2018-05-20T08:40:49Z</time>
      </trkpt>
      <trkpt lat="45.98732" lon="4.85064">
        <ele>269</ele>
        <time>2018-05-20T08:40:50Z</time>
      </trkpt>
      <trkpt lat="45.98738" lon="4.85062">
        <ele>269</ele>
        <time>2018-05-20T08:40:51Z</time>
      </trkpt>
      <trkpt lat="45.98744" lon="4.85061">
        <ele>269</ele>
        <time>2018-05-20T08:40:52Z</time>
      </trkpt>
      <trkpt lat="45.98749" lon="4.85058">
        <ele>269</ele>
        <time>2018-05-20T08:40:53Z</time>
      </trkpt>
      <trkpt lat="45.98754" lon="4.85055">
        <ele>268</ele>
        <time>2018-05-20T08:40:54Z</time>
      </trkpt>
      <trkpt lat="45.9876" lon="4.85052">
        <ele>268</ele>
        <time>2018-05-20T08:40:55Z</time>
      </trkpt>
      <trkpt lat="45.98767" lon="4.8505">
        <ele>268</ele>
        <time>2018-05-20T08:40:56Z</time>
      </trkpt>
      <trkpt lat="45.98775" lon="4.85048">
        <ele>268</ele>
        <time>2018-05-20T08:40:58Z</time>
      </trkpt>
      <trkpt lat="45.98781" lon="4.85044">
        <ele>267</ele>
        <time>2018-05-20T08:40:59Z</time>
      </trkpt>
      <trkpt lat="45.98786" lon="4.85041">
        <ele>267</ele>
        <time>2018-05-20T08:41:00Z</time>
      </trkpt>
      <trkpt lat="45.98792" lon="4.85038">
        <ele>267</ele>
        <time>2018-05-20T08:41:01Z</time>
      </trkpt>
      <trkpt lat="45.98797" lon="4.85035">
        <ele>267</ele>
        <time>2018-05-20T08:41:02Z</time>
      </trkpt>
      <trkpt lat="45.98804" lon="4.85032">
        <ele>267</ele>
        <time>2018-05-20T08:41:03Z</time>
      </trkpt>
      <trkpt lat="45.98809" lon="4.85029">
        <ele>267</ele>
        <time>2018-05-20T08:41:04Z</time>
      </trkpt>
      <trkpt lat="45.98813" lon="4.85027">
        <ele>267</ele>
        <time>2018-05-20T08:41:05Z</time>
      </trkpt>
      <trkpt lat="45.98819" lon="4.85024">
        <ele>267</ele>
        <time>2018-05-20T08:41:06Z</time>
      </trkpt>
      <trkpt lat="45.98824" lon="4.85021">
        <ele>267</ele>
        <time>2018-05-20T08:41:07Z</time>
      </trkpt>
      <trkpt lat="45.9883" lon="4.85019">
        <ele>267</ele>
        <time>2018-05-20T08:41:08Z</time>
      </trkpt>
      <trkpt lat="45.98835" lon="4.85017">
        <ele>267</ele>
        <time>2018-05-20T08:41:09Z</time>
      </trkpt>
      <trkpt lat="45.98841" lon="4.85011">
        <ele>267</ele>
        <time>2018-05-20T08:41:10Z</time>
      </trkpt>
      <trkpt lat="45.98846" lon="4.85007">
        <ele>267</ele>
        <time>2018-05-20T08:41:11Z</time>
      </trkpt>
      <trkpt lat="45.98852" lon="4.85004">
        <ele>267</ele>
        <time>2018-05-20T08:41:12Z</time>
      </trkpt>
      <trkpt lat="45.98857" lon="4.85001">
        <ele>267</ele>
        <time>2018-05-20T08:41:13Z</time>
      </trkpt>
      <trkpt lat="45.98863" lon="4.84998">
        <ele>267</ele>
        <time>2018-05-20T08:41:14Z</time>
      </trkpt>
      <trkpt lat="45.98868" lon="4.84995">
        <ele>267</ele>
        <time>2018-05-20T08:41:15Z</time>
      </trkpt>
      <trkpt lat="45.98873" lon="4.84991">
        <ele>267</ele>
        <time>2018-05-20T08:41:16Z</time>
      </trkpt>
      <trkpt lat="45.98879" lon="4.84988">
        <ele>267</ele>
        <time>2018-05-20T08:41:17Z</time>
      </trkpt>
      <trkpt lat="45.98884" lon="4.84987">
        <ele>267</ele>
        <time>2018-05-20T08:41:18Z</time>
      </trkpt>
      <trkpt lat="45.98889" lon="4.84985">
        <ele>267</ele>
        <time>2018-05-20T08:41:19Z</time>
      </trkpt>
      <trkpt lat="45.98895" lon="4.84984">
        <ele>267</ele>
        <time>2018-05-20T08:41:20Z</time>
      </trkpt>
      <trkpt lat="45.98899" lon="4.8498">
        <ele>267</ele>
        <time>2018-05-20T08:41:21Z</time>
      </trkpt>
      <trkpt lat="45.98904" lon="4.84978">
        <ele>267</ele>
        <time>2018-05-20T08:41:22Z</time>
      </trkpt>
      <trkpt lat="45.9891" lon="4.84976">
        <ele>267</ele>
        <time>2018-05-20T08:41:23Z</time>
      </trkpt>
      <trkpt lat="45.98914" lon="4.84974">
        <ele>267</ele>
        <time>2018-05-20T08:41:24Z</time>
      </trkpt>
      <trkpt lat="45.9892" lon="4.84972">
        <ele>267</ele>
        <time>2018-05-20T08:41:25Z</time>
      </trkpt>
      <trkpt lat="45.98925" lon="4.84969">
        <ele>267</ele>
        <time>2018-05-20T08:41:26Z</time>
      </trkpt>
      <trkpt lat="45.98931" lon="4.84966">
        <ele>266</ele>
        <time>2018-05-20T08:41:27Z</time>
      </trkpt>
      <trkpt lat="45.98936" lon="4.84965">
        <ele>266</ele>
        <time>2018-05-20T08:41:28Z</time>
      </trkpt>
      <trkpt lat="45.98942" lon="4.84961">
        <ele>266</ele>
        <time>2018-05-20T08:41:29Z</time>
      </trkpt>
      <trkpt lat="45.98948" lon="4.84959">
        <ele>266</ele>
        <time>2018-05-20T08:41:30Z</time>
      </trkpt>
      <trkpt lat="45.98954" lon="4.84957">
        <ele>266</ele>
        <time>2018-05-20T08:41:31Z</time>
      </trkpt>
      <trkpt lat="45.98959" lon="4.84954">
        <ele>266</ele>
        <time>2018-05-20T08:41:32Z</time>
      </trkpt>
      <trkpt lat="45.98965" lon="4.84952">
        <ele>266</ele>
        <time>2018-05-20T08:41:33Z</time>
      </trkpt>
      <trkpt lat="45.98971" lon="4.84948">
        <ele>266</ele>
        <time>2018-05-20T08:41:34Z</time>
      </trkpt>
      <trkpt lat="45.98978" lon="4.84943">
        <ele>266</ele>
        <time>2018-05-20T08:41:35Z</time>
      </trkpt>
      <trkpt lat="45.98984" lon="4.84939">
        <ele>266</ele>
        <time>2018-05-20T08:41:36Z</time>
      </trkpt>
      <trkpt lat="45.98991" lon="4.84934">
        <ele>266</ele>
        <time>2018-05-20T08:41:37Z</time>
      </trkpt>
      <trkpt lat="45.98997" lon="4.84932">
        <ele>266</ele>
        <time>2018-05-20T08:41:38Z</time>
      </trkpt>
      <trkpt lat="45.99003" lon="4.84929">
        <ele>265</ele>
        <time>2018-05-20T08:41:39Z</time>
      </trkpt>
      <trkpt lat="45.99008" lon="4.84923">
        <ele>265</ele>
        <time>2018-05-20T08:41:40Z</time>
      </trkpt>
      <trkpt lat="45.99013" lon="4.84922">
        <ele>265</ele>
        <time>2018-05-20T08:41:41Z</time>
      </trkpt>
      <trkpt lat="45.99018" lon="4.84919">
        <ele>265</ele>
        <time>2018-05-20T08:41:42Z</time>
      </trkpt>
      <trkpt lat="45.99024" lon="4.84915">
        <ele>265</ele>
        <time>2018-05-20T08:41:43Z</time>
      </trkpt>
      <trkpt lat="45.99029" lon="4.84909">
        <ele>264</ele>
        <time>2018-05-20T08:41:44Z</time>
      </trkpt>
      <trkpt lat="45.99035" lon="4.84906">
        <ele>264</ele>
        <time>2018-05-20T08:41:45Z</time>
      </trkpt>
      <trkpt lat="45.99041" lon="4.84899">
        <ele>264</ele>
        <time>2018-05-20T08:41:46Z</time>
      </trkpt>
      <trkpt lat="45.99046" lon="4.84896">
        <ele>264</ele>
        <time>2018-05-20T08:41:47Z</time>
      </trkpt>
      <trkpt lat="45.99052" lon="4.84892">
        <ele>264</ele>
        <time>2018-05-20T08:41:48Z</time>
      </trkpt>
      <trkpt lat="45.99057" lon="4.84889">
        <ele>263</ele>
        <time>2018-05-20T08:41:49Z</time>
      </trkpt>
      <trkpt lat="45.99063" lon="4.84888">
        <ele>263</ele>
        <time>2018-05-20T08:41:50Z</time>
      </trkpt>
      <trkpt lat="45.99068" lon="4.84885">
        <ele>263</ele>
        <time>2018-05-20T08:41:51Z</time>
      </trkpt>
      <trkpt lat="45.99073" lon="4.84883">
        <ele>263</ele>
        <time>2018-05-20T08:41:52Z</time>
      </trkpt>
      <trkpt lat="45.9908" lon="4.84881">
        <ele>263</ele>
        <time>2018-05-20T08:41:53Z</time>
      </trkpt>
      <trkpt lat="45.99086" lon="4.84877">
        <ele>261</ele>
        <time>2018-05-20T08:41:54Z</time>
      </trkpt>
      <trkpt lat="45.99091" lon="4.84875">
        <ele>261</ele>
        <time>2018-05-20T08:41:55Z</time>
      </trkpt>
      <trkpt lat="45.99097" lon="4.84872">
        <ele>261</ele>
        <time>2018-05-20T08:41:56Z</time>
      </trkpt>
      <trkpt lat="45.99104" lon="4.84868">
        <ele>261</ele>
        <time>2018-05-20T08:41:57Z</time>
      </trkpt>
      <trkpt lat="45.9911" lon="4.84865">
        <ele>261</ele>
        <time>2018-05-20T08:41:58Z</time>
      </trkpt>
      <trkpt lat="45.99116" lon="4.84862">
        <ele>260</ele>
        <time>2018-05-20T08:41:59Z</time>
      </trkpt>
      <trkpt lat="45.99123" lon="4.84859">
        <ele>260</ele>
        <time>2018-05-20T08:42:00Z</time>
      </trkpt>
      <trkpt lat="45.99129" lon="4.84856">
        <ele>260</ele>
        <time>2018-05-20T08:42:01Z</time>
      </trkpt>
      <trkpt lat="45.99137" lon="4.84852">
        <ele>260</ele>
        <time>2018-05-20T08:42:02Z</time>
      </trkpt>
      <trkpt lat="45.99144" lon="4.84849">
        <ele>260</ele>
        <time>2018-05-20T08:42:03Z</time>
      </trkpt>
      <trkpt lat="45.9915" lon="4.84847">
        <ele>260</ele>
        <time>2018-05-20T08:42:04Z</time>
      </trkpt>
      <trkpt lat="45.99156" lon="4.84844">
        <ele>259</ele>
        <time>2018-05-20T08:42:05Z</time>
      </trkpt>
      <trkpt lat="45.99161" lon="4.8484">
        <ele>259</ele>
        <time>2018-05-20T08:42:06Z</time>
      </trkpt>
      <trkpt lat="45.99167" lon="4.84838">
        <ele>259</ele>
        <time>2018-05-20T08:42:07Z</time>
      </trkpt>
      <trkpt lat="45.99173" lon="4.84833">
        <ele>258</ele>
        <time>2018-05-20T08:42:08Z</time>
      </trkpt>
      <trkpt lat="45.99178" lon="4.84831">
        <ele>258</ele>
        <time>2018-05-20T08:42:09Z</time>
      </trkpt>
      <trkpt lat="45.99184" lon="4.84826">
        <ele>258</ele>
        <time>2018-05-20T08:42:10Z</time>
      </trkpt>
      <trkpt lat="45.9919" lon="4.84821">
        <ele>258</ele>
        <time>2018-05-20T08:42:11Z</time>
      </trkpt>
      <trkpt lat="45.99197" lon="4.84819">
        <ele>258</ele>
        <time>2018-05-20T08:42:12Z</time>
      </trkpt>
      <trkpt lat="45.99202" lon="4.84816">
        <ele>257</ele>
        <time>2018-05-20T08:42:13Z</time>
      </trkpt>
      <trkpt lat="45.99209" lon="4.84814">
        <ele>257</ele>
        <time>2018-05-20T08:42:14Z</time>
      </trkpt>
      <trkpt lat="45.99215" lon="4.8481">
        <ele>257</ele>
        <time>2018-05-20T08:42:15Z</time>
      </trkpt>
      <trkpt lat="45.99221" lon="4.84807">
        <ele>257</ele>
        <time>2018-05-20T08:42:16Z</time>
      </trkpt>
      <trkpt lat="45.99227" lon="4.84803">
        <ele>257</ele>
        <time>2018-05-20T08:42:17Z</time>
      </trkpt>
      <trkpt lat="45.99234" lon="4.84798">
        <ele>257</ele>
        <time>2018-05-20T08:42:18Z</time>
      </trkpt>
      <trkpt lat="45.99241" lon="4.84795">
        <ele>256</ele>
        <time>2018-05-20T08:42:19Z</time>
      </trkpt>
      <trkpt lat="45.99249" lon="4.84792">
        <ele>256</ele>
        <time>2018-05-20T08:42:20Z</time>
      </trkpt>
      <trkpt lat="45.99255" lon="4.8479">
        <ele>254</ele>
        <time>2018-05-20T08:42:21Z</time>
      </trkpt>
      <trkpt lat="45.99262" lon="4.84787">
        <ele>254</ele>
        <time>2018-05-20T08:42:22Z</time>
      </trkpt>
      <trkpt lat="45.99269" lon="4.84785">
        <ele>253</ele>
        <time>2018-05-20T08:42:23Z</time>
      </trkpt>
      <trkpt lat="45.99276" lon="4.84779">
        <ele>253</ele>
        <time>2018-05-20T08:42:24Z</time>
      </trkpt>
      <trkpt lat="45.99283" lon="4.84776">
        <ele>253</ele>
        <time>2018-05-20T08:42:25Z</time>
      </trkpt>
      <trkpt lat="45.9929" lon="4.84772">
        <ele>253</ele>
        <time>2018-05-20T08:42:26Z</time>
      </trkpt>
      <trkpt lat="45.99297" lon="4.84769">
        <ele>253</ele>
        <time>2018-05-20T08:42:27Z</time>
      </trkpt>
      <trkpt lat="45.99304" lon="4.84765">
        <ele>253</ele>
        <time>2018-05-20T08:42:28Z</time>
      </trkpt>
      <trkpt lat="45.99312" lon="4.84759">
        <ele>252</ele>
        <time>2018-05-20T08:42:29Z</time>
      </trkpt>
      <trkpt lat="45.9932" lon="4.84755">
        <ele>252</ele>
        <time>2018-05-20T08:42:30Z</time>
      </trkpt>
      <trkpt lat="45.99328" lon="4.84748">
        <ele>251</ele>
        <time>2018-05-20T08:42:31Z</time>
      </trkpt>
      <trkpt lat="45.99335" lon="4.84745">
        <ele>251</ele>
        <time>2018-05-20T08:42:32Z</time>
      </trkpt>
      <trkpt lat="45.99342" lon="4.84742">
        <ele>250</ele>
        <time>2018-05-20T08:42:33Z</time>
      </trkpt>
      <trkpt lat="45.9935" lon="4.84738">
        <ele>250</ele>
        <time>2018-05-20T08:42:34Z</time>
      </trkpt>
      <trkpt lat="45.99358" lon="4.84734">
        <ele>250</ele>
        <time>2018-05-20T08:42:35Z</time>
      </trkpt>
      <trkpt lat="45.99365" lon="4.84731">
        <ele>250</ele>
        <time>2018-05-20T08:42:36Z</time>
      </trkpt>
      <trkpt lat="45.9937" lon="4.84728">
        <ele>250</ele>
        <time>2018-05-20T08:42:37Z</time>
      </trkpt>
      <trkpt lat="45.99378" lon="4.84724">
        <ele>250</ele>
        <time>2018-05-20T08:42:38Z</time>
      </trkpt>
      <trkpt lat="45.99385" lon="4.84721">
        <ele>249</ele>
        <time>2018-05-20T08:42:39Z</time>
      </trkpt>
      <trkpt lat="45.99391" lon="4.84717">
        <ele>249</ele>
        <time>2018-05-20T08:42:40Z</time>
      </trkpt>
      <trkpt lat="45.99398" lon="4.84714">
        <ele>249</ele>
        <time>2018-05-20T08:42:41Z</time>
      </trkpt>
      <trkpt lat="45.99405" lon="4.8471">
        <ele>249</ele>
        <time>2018-05-20T08:42:42Z</time>
      </trkpt>
      <trkpt lat="45.99411" lon="4.84706">
        <ele>249</ele>
        <time>2018-05-20T08:42:43Z</time>
      </trkpt>
      <trkpt lat="45.99418" lon="4.84701">
        <ele>249</ele>
        <time>2018-05-20T08:42:44Z</time>
      </trkpt>
      <trkpt lat="45.99425" lon="4.84695">
        <ele>249</ele>
        <time>2018-05-20T08:42:45Z</time>
      </trkpt>
      <trkpt lat="45.99431" lon="4.84694">
        <ele>249</ele>
        <time>2018-05-20T08:42:46Z</time>
      </trkpt>
      <trkpt lat="45.99437" lon="4.8469">
        <ele>249</ele>
        <time>2018-05-20T08:42:47Z</time>
      </trkpt>
      <trkpt lat="45.99443" lon="4.84687">
        <ele>249</ele>
        <time>2018-05-20T08:42:48Z</time>
      </trkpt>
      <trkpt lat="45.99451" lon="4.84681">
        <ele>249</ele>
        <time>2018-05-20T08:42:49Z</time>
      </trkpt>
      <trkpt lat="45.99457" lon="4.84677">
        <ele>250</ele>
        <time>2018-05-20T08:42:50Z</time>
      </trkpt>
      <trkpt lat="45.99462" lon="4.84674">
        <ele>250</ele>
        <time>2018-05-20T08:42:51Z</time>
      </trkpt>
      <trkpt lat="45.99471" lon="4.84672">
        <ele>250</ele>
        <time>2018-05-20T08:42:53Z</time>
      </trkpt>
      <trkpt lat="45.99479" lon="4.84671">
        <ele>250</ele>
        <time>2018-05-20T08:42:54Z</time>
      </trkpt>
      <trkpt lat="45.99485" lon="4.84671">
        <ele>250</ele>
        <time>2018-05-20T08:42:55Z</time>
      </trkpt>
      <trkpt lat="45.99489" lon="4.8467">
        <ele>251</ele>
        <time>2018-05-20T08:42:56Z</time>
      </trkpt>
      <trkpt lat="45.99495" lon="4.84669">
        <ele>251</ele>
        <time>2018-05-20T08:42:57Z</time>
      </trkpt>
      <trkpt lat="45.99501" lon="4.84669">
        <ele>251</ele>
        <time>2018-05-20T08:42:58Z</time>
      </trkpt>
      <trkpt lat="45.99507" lon="4.84668">
        <ele>251</ele>
        <time>2018-05-20T08:42:59Z</time>
      </trkpt>
      <trkpt lat="45.99513" lon="4.84667">
        <ele>251</ele>
        <time>2018-05-20T08:43:00Z</time>
      </trkpt>
      <trkpt lat="45.9952" lon="4.84664">
        <ele>250</ele>
        <time>2018-05-20T08:43:01Z</time>
      </trkpt>
      <trkpt lat="45.99525" lon="4.84662">
        <ele>250</ele>
        <time>2018-05-20T08:43:02Z</time>
      </trkpt>
      <trkpt lat="45.9953" lon="4.84661">
        <ele>250</ele>
        <time>2018-05-20T08:43:03Z</time>
      </trkpt>
      <trkpt lat="45.99535" lon="4.8466">
        <ele>250</ele>
        <time>2018-05-20T08:43:04Z</time>
      </trkpt>
      <trkpt lat="45.99541" lon="4.84661">
        <ele>250</ele>
        <time>2018-05-20T08:43:05Z</time>
      </trkpt>
      <trkpt lat="45.99546" lon="4.8466">
        <ele>250</ele>
        <time>2018-05-20T08:43:06Z</time>
      </trkpt>
      <trkpt lat="45.99552" lon="4.84659">
        <ele>250</ele>
        <time>2018-05-20T08:43:07Z</time>
      </trkpt>
      <trkpt lat="45.99558" lon="4.84657">
        <ele>250</ele>
        <time>2018-05-20T08:43:08Z</time>
      </trkpt>
      <trkpt lat="45.99564" lon="4.84656">
        <ele>250</ele>
        <time>2018-05-20T08:43:09Z</time>
      </trkpt>
      <trkpt lat="45.9957" lon="4.84654">
        <ele>250</ele>
        <time>2018-05-20T08:43:10Z</time>
      </trkpt>
      <trkpt lat="45.99576" lon="4.84654">
        <ele>250</ele>
        <time>2018-05-20T08:43:11Z</time>
      </trkpt>
      <trkpt lat="45.99583" lon="4.84651">
        <ele>250</ele>
        <time>2018-05-20T08:43:12Z</time>
      </trkpt>
      <trkpt lat="45.9959" lon="4.84646">
        <ele>250</ele>
        <time>2018-05-20T08:43:13Z</time>
      </trkpt>
      <trkpt lat="45.99597" lon="4.84645">
        <ele>250</ele>
        <time>2018-05-20T08:43:14Z</time>
      </trkpt>
      <trkpt lat="45.99603" lon="4.84644">
        <ele>250</ele>
        <time>2018-05-20T08:43:15Z</time>
      </trkpt>
      <trkpt lat="45.99609" lon="4.84641">
        <ele>250</ele>
        <time>2018-05-20T08:43:16Z</time>
      </trkpt>
      <trkpt lat="45.99616" lon="4.84638">
        <ele>250</ele>
        <time>2018-05-20T08:43:17Z</time>
      </trkpt>
      <trkpt lat="45.9962" lon="4.84642">
        <ele>250</ele>
        <time>2018-05-20T08:43:18Z</time>
      </trkpt>
      <trkpt lat="45.99626" lon="4.84642">
        <ele>250</ele>
        <time>2018-05-20T08:43:19Z</time>
      </trkpt>
      <trkpt lat="45.99632" lon="4.8464">
        <ele>250</ele>
        <time>2018-05-20T08:43:20Z</time>
      </trkpt>
      <trkpt lat="45.99641" lon="4.84638">
        <ele>250</ele>
        <time>2018-05-20T08:43:22Z</time>
      </trkpt>
      <trkpt lat="45.99646" lon="4.84638">
        <ele>250</ele>
        <time>2018-05-20T08:43:23Z</time>
      </trkpt>
      <trkpt lat="45.99651" lon="4.84637">
        <ele>250</ele>
        <time>2018-05-20T08:43:24Z</time>
      </trkpt>
      <trkpt lat="45.99656" lon="4.84636">
        <ele>250</ele>
        <time>2018-05-20T08:43:25Z</time>
      </trkpt>
      <trkpt lat="45.9966" lon="4.84635">
        <ele>250</ele>
        <time>2018-05-20T08:43:26Z</time>
      </trkpt>
      <trkpt lat="45.99664" lon="4.84633">
        <ele>250</ele>
        <time>2018-05-20T08:43:27Z</time>
      </trkpt>
      <trkpt lat="45.99669" lon="4.84633">
        <ele>251</ele>
        <time>2018-05-20T08:43:28Z</time>
      </trkpt>
      <trkpt lat="45.99674" lon="4.84632">
        <ele>252</ele>
        <time>2018-05-20T08:43:29Z</time>
      </trkpt>
      <trkpt lat="45.99679" lon="4.8463">
        <ele>252</ele>
        <time>2018-05-20T08:43:30Z</time>
      </trkpt>
      <trkpt lat="45.99684" lon="4.84629">
        <ele>252</ele>
        <time>2018-05-20T08:43:31Z</time>
      </trkpt>
      <trkpt lat="45.99689" lon="4.84629">
        <ele>252</ele>
        <time>2018-05-20T08:43:32Z</time>
      </trkpt>
      <trkpt lat="45.99693" lon="4.84628">
        <ele>252</ele>
        <time>2018-05-20T08:43:33Z</time>
      </trkpt>
      <trkpt lat="45.99702" lon="4.84627">
        <ele>252</ele>
        <time>2018-05-20T08:43:35Z</time>
      </trkpt>
      <trkpt lat="45.99706" lon="4.84626">
        <ele>252</ele>
        <time>2018-05-20T08:43:36Z</time>
      </trkpt>
      <trkpt lat="45.99711" lon="4.84624">
        <ele>252</ele>
        <time>2018-05-20T08:43:37Z</time>
      </trkpt>
      <trkpt lat="45.99716" lon="4.84622">
        <ele>252</ele>
        <time>2018-05-20T08:43:38Z</time>
      </trkpt>
      <trkpt lat="45.99724" lon="4.84619">
        <ele>252</ele>
        <time>2018-05-20T08:43:40Z</time>
      </trkpt>
      <trkpt lat="45.99728" lon="4.84618">
        <ele>252</ele>
        <time>2018-05-20T08:43:41Z</time>
      </trkpt>
      <trkpt lat="45.99736" lon="4.84616">
        <ele>253</ele>
        <time>2018-05-20T08:43:43Z</time>
      </trkpt>
      <trkpt lat="45.99738" lon="4.84616">
        <ele>253</ele>
        <time>2018-05-20T08:43:44Z</time>
      </trkpt>
      <trkpt lat="45.99743" lon="4.84616">
        <ele>253</ele>
        <time>2018-05-20T08:43:45Z</time>
      </trkpt>
      <trkpt lat="45.99747" lon="4.84615">
        <ele>253</ele>
        <time>2018-05-20T08:43:46Z</time>
      </trkpt>
      <trkpt lat="45.99755" lon="4.84613">
        <ele>254</ele>
        <time>2018-05-20T08:43:48Z</time>
      </trkpt>
      <trkpt lat="45.99757" lon="4.84613">
        <ele>254</ele>
        <time>2018-05-20T08:43:49Z</time>
      </trkpt>
      <trkpt lat="45.99759" lon="4.84612">
        <ele>254</ele>
        <time>2018-05-20T08:43:50Z</time>
      </trkpt>
      <trkpt lat="45.99767" lon="4.84612">
        <ele>254</ele>
        <time>2018-05-20T08:43:51Z</time>
      </trkpt>
      <trkpt lat="45.99774" lon="4.84612">
        <ele>254</ele>
        <time>2018-05-20T08:43:53Z</time>
      </trkpt>
      <trkpt lat="45.99778" lon="4.84614">
        <ele>254</ele>
        <time>2018-05-20T08:43:54Z</time>
      </trkpt>
      <trkpt lat="45.99785" lon="4.84617">
        <ele>254</ele>
        <time>2018-05-20T08:43:56Z</time>
      </trkpt>
      <trkpt lat="45.99789" lon="4.84618">
        <ele>254</ele>
        <time>2018-05-20T08:43:57Z</time>
      </trkpt>
      <trkpt lat="45.99797" lon="4.84621">
        <ele>254</ele>
        <time>2018-05-20T08:43:59Z</time>
      </trkpt>
      <trkpt lat="45.998" lon="4.84622">
        <ele>254</ele>
        <time>2018-05-20T08:44:00Z</time>
      </trkpt>
      <trkpt lat="45.99808" lon="4.84625">
        <ele>254</ele>
        <time>2018-05-20T08:44:03Z</time>
      </trkpt>
      <trkpt lat="45.9981" lon="4.84626">
        <ele>254</ele>
        <time>2018-05-20T08:44:04Z</time>
      </trkpt>
      <trkpt lat="45.99812" lon="4.84626">
        <ele>254</ele>
        <time>2018-05-20T08:44:05Z</time>
      </trkpt>
      <trkpt lat="45.99819" lon="4.84628">
        <ele>254</ele>
        <time>2018-05-20T08:44:06Z</time>
      </trkpt>
      <trkpt lat="45.99826" lon="4.84631">
        <ele>254</ele>
        <time>2018-05-20T08:44:08Z</time>
      </trkpt>
      <trkpt lat="45.9983" lon="4.84633">
        <ele>254</ele>
        <time>2018-05-20T08:44:09Z</time>
      </trkpt>
      <trkpt lat="45.99838" lon="4.84634">
        <ele>254</ele>
        <time>2018-05-20T08:44:11Z</time>
      </trkpt>
      <trkpt lat="45.99842" lon="4.84635">
        <ele>254</ele>
        <time>2018-05-20T08:44:12Z</time>
      </trkpt>
      <trkpt lat="45.9985" lon="4.84637">
        <ele>254</ele>
        <time>2018-05-20T08:44:14Z</time>
      </trkpt>
      <trkpt lat="45.99854" lon="4.84638">
        <ele>254</ele>
        <time>2018-05-20T08:44:15Z</time>
      </trkpt>
      <trkpt lat="45.99862" lon="4.84639">
        <ele>254</ele>
        <time>2018-05-20T08:44:17Z</time>
      </trkpt>
      <trkpt lat="45.99866" lon="4.84639">
        <ele>254</ele>
        <time>2018-05-20T08:44:18Z</time>
      </trkpt>
      <trkpt lat="45.99874" lon="4.84641">
        <ele>254</ele>
        <time>2018-05-20T08:44:20Z</time>
      </trkpt>
      <trkpt lat="45.99879" lon="4.84642">
        <ele>254</ele>
        <time>2018-05-20T08:44:21Z</time>
      </trkpt>
      <trkpt lat="45.99887" lon="4.84644">
        <ele>254</ele>
        <time>2018-05-20T08:44:23Z</time>
      </trkpt>
      <trkpt lat="45.99891" lon="4.84645">
        <ele>254</ele>
        <time>2018-05-20T08:44:24Z</time>
      </trkpt>
      <trkpt lat="45.99899" lon="4.84648">
        <ele>254</ele>
        <time>2018-05-20T08:44:26Z</time>
      </trkpt>
      <trkpt lat="45.99903" lon="4.84649">
        <ele>254</ele>
        <time>2018-05-20T08:44:27Z</time>
      </trkpt>
      <trkpt lat="45.99911" lon="4.84651">
        <ele>254</ele>
        <time>2018-05-20T08:44:29Z</time>
      </trkpt>
      <trkpt lat="45.99915" lon="4.84653">
        <ele>254</ele>
        <time>2018-05-20T08:44:30Z</time>
      </trkpt>
      <trkpt lat="45.99923" lon="4.84656">
        <ele>254</ele>
        <time>2018-05-20T08:44:32Z</time>
      </trkpt>
      <trkpt lat="45.99927" lon="4.84658">
        <ele>254</ele>
        <time>2018-05-20T08:44:33Z</time>
      </trkpt>
      <trkpt lat="45.99934" lon="4.84662">
        <ele>254</ele>
        <time>2018-05-20T08:44:35Z</time>
      </trkpt>
      <trkpt lat="45.99938" lon="4.84664">
        <ele>254</ele>
        <time>2018-05-20T08:44:36Z</time>
      </trkpt>
      <trkpt lat="45.99946" lon="4.84667">
        <ele>255</ele>
        <time>2018-05-20T08:44:38Z</time>
      </trkpt>
      <trkpt lat="45.9995" lon="4.84669">
        <ele>255</ele>
        <time>2018-05-20T08:44:39Z</time>
      </trkpt>
      <trkpt lat="45.99958" lon="4.84672">
        <ele>255</ele>
        <time>2018-05-20T08:44:41Z</time>
      </trkpt>
      <trkpt lat="45.99961" lon="4.84673">
        <ele>255</ele>
        <time>2018-05-20T08:44:42Z</time>
      </trkpt>
      <trkpt lat="45.99969" lon="4.84676">
        <ele>255</ele>
        <time>2018-05-20T08:44:44Z</time>
      </trkpt>
      <trkpt lat="45.99973" lon="4.84677">
        <ele>255</ele>
        <time>2018-05-20T08:44:45Z</time>
      </trkpt>
      <trkpt lat="45.99981" lon="4.8468">
        <ele>255</ele>
        <time>2018-05-20T08:44:47Z</time>
      </trkpt>
      <trkpt lat="45.99985" lon="4.84682">
        <ele>255</ele>
        <time>2018-05-20T08:44:48Z</time>
      </trkpt>
      <trkpt lat="45.99993" lon="4.84684">
        <ele>255</ele>
        <time>2018-05-20T08:44:50Z</time>
      </trkpt>
      <trkpt lat="45.99997" lon="4.84685">
        <ele>255</ele>
        <time>2018-05-20T08:44:51Z</time>
      </trkpt>
      <trkpt lat="46.00004" lon="4.84687">
        <ele>256</ele>
        <time>2018-05-20T08:44:53Z</time>
      </trkpt>
      <trkpt lat="46.00008" lon="4.84688">
        <ele>256</ele>
        <time>2018-05-20T08:44:54Z</time>
      </trkpt>
      <trkpt lat="46.00016" lon="4.8469">
        <ele>256</ele>
        <time>2018-05-20T08:44:56Z</time>
      </trkpt>
      <trkpt lat="46.0002" lon="4.84691">
        <ele>256</ele>
        <time>2018-05-20T08:44:57Z</time>
      </trkpt>
      <trkpt lat="46.00028" lon="4.84693">
        <ele>256</ele>
        <time>2018-05-20T08:44:59Z</time>
      </trkpt>
      <trkpt lat="46.00032" lon="4.84693">
        <ele>256</ele>
        <time>2018-05-20T08:45:00Z</time>
      </trkpt>
      <trkpt lat="46.00041" lon="4.84694">
        <ele>256</ele>
        <time>2018-05-20T08:45:02Z</time>
      </trkpt>
      <trkpt lat="46.00045" lon="4.84695">
        <ele>256</ele>
        <time>2018-05-20T08:45:03Z</time>
      </trkpt>
      <trkpt lat="46.00052" lon="4.84696">
        <ele>256</ele>
        <time>2018-05-20T08:45:05Z</time>
      </trkpt>
      <trkpt lat="46.00056" lon="4.84697">
        <ele>256</ele>
        <time>2018-05-20T08:45:06Z</time>
      </trkpt>
      <trkpt lat="46.00064" lon="4.84698">
        <ele>256</ele>
        <time>2018-05-20T08:45:10Z</time>
      </trkpt>
      <trkpt lat="46.00067" lon="4.84698">
        <ele>256</ele>
        <time>2018-05-20T08:45:11Z</time>
      </trkpt>
      <trkpt lat="46.00074" lon="4.84698">
        <ele>256</ele>
        <time>2018-05-20T08:45:14Z</time>
      </trkpt>
      <trkpt lat="46.00076" lon="4.84697">
        <ele>256</ele>
        <time>2018-05-20T08:45:15Z</time>
      </trkpt>
      <trkpt lat="46.00079" lon="4.84695">
        <ele>256</ele>
        <time>2018-05-20T08:45:16Z</time>
      </trkpt>
      <trkpt lat="46.00085" lon="4.84686">
        <ele>257</ele>
        <time>2018-05-20T08:45:17Z</time>
      </trkpt>
      <trkpt lat="46.00086" lon="4.84675">
        <ele>256</ele>
        <time>2018-05-20T08:45:19Z</time>
      </trkpt>
      <trkpt lat="46.00086" lon="4.84669">
        <ele>256</ele>
        <time>2018-05-20T08:45:20Z</time>
      </trkpt>
      <trkpt lat="46.00085" lon="4.84657">
        <ele>256</ele>
        <time>2018-05-20T08:45:22Z</time>
      </trkpt>
      <trkpt lat="46.00084" lon="4.8465">
        <ele>257</ele>
        <time>2018-05-20T08:45:23Z</time>
      </trkpt>
      <trkpt lat="46.00084" lon="4.84643">
        <ele>257</ele>
        <time>2018-05-20T08:45:24Z</time>
      </trkpt>
      <trkpt lat="46.00083" lon="4.84636">
        <ele>257</ele>
        <time>2018-05-20T08:45:25Z</time>
      </trkpt>
      <trkpt lat="46.00084" lon="4.84629">
        <ele>257</ele>
        <time>2018-05-20T08:45:26Z</time>
      </trkpt>
      <trkpt lat="46.00083" lon="4.84622">
        <ele>256</ele>
        <time>2018-05-20T08:45:27Z</time>
      </trkpt>
      <trkpt lat="46.00083" lon="4.84615">
        <ele>256</ele>
        <time>2018-05-20T08:45:28Z</time>
      </trkpt>
      <trkpt lat="46.00082" lon="4.84608">
        <ele>256</ele>
        <time>2018-05-20T08:45:29Z</time>
      </trkpt>
      <trkpt lat="46.00082" lon="4.84601">
        <ele>256</ele>
        <time>2018-05-20T08:45:30Z</time>
      </trkpt>
      <trkpt lat="46.00083" lon="4.84594">
        <ele>257</ele>
        <time>2018-05-20T08:45:31Z</time>
      </trkpt>
      <trkpt lat="46.00083" lon="4.84586">
        <ele>257</ele>
        <time>2018-05-20T08:45:32Z</time>
      </trkpt>
      <trkpt lat="46.00083" lon="4.84579">
        <ele>257</ele>
        <time>2018-05-20T08:45:33Z</time>
      </trkpt>
      <trkpt lat="46.00082" lon="4.84571">
        <ele>257</ele>
        <time>2018-05-20T08:45:34Z</time>
      </trkpt>
      <trkpt lat="46.00082" lon="4.84565">
        <ele>257</ele>
        <time>2018-05-20T08:45:35Z</time>
      </trkpt>
      <trkpt lat="46.00081" lon="4.84553">
        <ele>257</ele>
        <time>2018-05-20T08:45:37Z</time>
      </trkpt>
      <trkpt lat="46.00081" lon="4.84547">
        <ele>257</ele>
        <time>2018-05-20T08:45:38Z</time>
      </trkpt>
      <trkpt lat="46.00084" lon="4.84536">
        <ele>258</ele>
        <time>2018-05-20T08:45:40Z</time>
      </trkpt>
      <trkpt lat="46.00085" lon="4.8453">
        <ele>259</ele>
        <time>2018-05-20T08:45:41Z</time>
      </trkpt>
      <trkpt lat="46.00088" lon="4.84519">
        <ele>259</ele>
        <time>2018-05-20T08:45:43Z</time>
      </trkpt>
      <trkpt lat="46.00087" lon="4.84514">
        <ele>259</ele>
        <time>2018-05-20T08:45:44Z</time>
      </trkpt>
      <trkpt lat="46.0009" lon="4.84503">
        <ele>259</ele>
        <time>2018-05-20T08:45:46Z</time>
      </trkpt>
      <trkpt lat="46.0009" lon="4.84497">
        <ele>259</ele>
        <time>2018-05-20T08:45:47Z</time>
      </trkpt>
      <trkpt lat="46.00091" lon="4.84486">
        <ele>259</ele>
        <time>2018-05-20T08:45:49Z</time>
      </trkpt>
      <trkpt lat="46.00092" lon="4.8448">
        <ele>260</ele>
        <time>2018-05-20T08:45:50Z</time>
      </trkpt>
      <trkpt lat="46.00093" lon="4.84469">
        <ele>260</ele>
        <time>2018-05-20T08:45:52Z</time>
      </trkpt>
      <trkpt lat="46.00093" lon="4.84467">
        <ele>260</ele>
        <time>2018-05-20T08:45:53Z</time>
      </trkpt>
      <trkpt lat="46.00095" lon="4.84455">
        <ele>260</ele>
        <time>2018-05-20T08:45:57Z</time>
      </trkpt>
      <trkpt lat="46.00095" lon="4.84452">
        <ele>260</ele>
        <time>2018-05-20T08:45:58Z</time>
      </trkpt>
      <trkpt lat="46.00087" lon="4.84448">
        <ele>260</ele>
        <time>2018-05-20T08:46:04Z</time>
      </trkpt>
      <trkpt lat="46.00086" lon="4.84449">
        <ele>260</ele>
        <time>2018-05-20T08:46:05Z</time>
      </trkpt>
      <trkpt lat="46.0008" lon="4.84455">
        <ele>258</ele>
        <time>2018-05-20T08:48:13Z</time>
      </trkpt>
      <trkpt lat="46.0008" lon="4.84454">
        <ele>258</ele>
        <time>2018-05-20T08:48:14Z</time>
      </trkpt>
      <trkpt lat="46.0008" lon="4.84455">
        <ele>258</ele>
        <time>2018-05-20T08:51:16.627Z</time>
      </trkpt>
      <trkpt lat="46.00081" lon="4.84456">
        <ele>258</ele>
        <time>2018-05-20T08:51:18.759Z</time>
      </trkpt>
      <trkpt lat="46.0008" lon="4.84454">
        <ele>258</ele>
        <time>2018-05-20T08:54:09Z</time>
      </trkpt>
      <trkpt lat="46.0008" lon="4.84454">
        <ele>258</ele>
        <time>2018-05-20T08:54:10Z</time>
      </trkpt>
      <trkpt lat="46.00083" lon="4.84449">
        <ele>258</ele>
        <time>2018-05-20T08:55:11Z</time>
      </trkpt>
      <trkpt lat="46.00083" lon="4.8445">
        <ele>258</ele>
        <time>2018-05-20T08:55:12Z</time>
      </trkpt>
      <trkpt lat="46.00078" lon="4.84455">
        <ele>258</ele>
        <time>2018-05-20T08:57:47Z</time>
      </trkpt>
      <trkpt lat="46.00078" lon="4.84455">
        <ele>258</ele>
        <time>2018-05-20T08:57:48Z</time>
      </trkpt>
      <trkpt lat="46.00078" lon="4.84455">
        <ele>258</ele>
        <time>2018-05-20T08:57:49Z</time>
      </trkpt>
      <trkpt lat="46.00084" lon="4.84464">
        <ele>260</ele>
        <time>2018-05-20T08:58:30Z</time>
      </trkpt>
      <trkpt lat="46.00084" lon="4.84466">
        <ele>260</ele>
        <time>2018-05-20T08:58:31Z</time>
      </trkpt>
      <trkpt lat="46.00085" lon="4.84475">
        <ele>260</ele>
        <time>2018-05-20T08:58:34Z</time>
      </trkpt>
      <trkpt lat="46.00085" lon="4.84479">
        <ele>259</ele>
        <time>2018-05-20T08:58:35Z</time>
      </trkpt>
      <trkpt lat="46.00084" lon="4.84491">
        <ele>259</ele>
        <time>2018-05-20T08:58:38Z</time>
      </trkpt>
      <trkpt lat="46.00083" lon="4.84495">
        <ele>259</ele>
        <time>2018-05-20T08:58:39Z</time>
      </trkpt>
      <trkpt lat="46.00079" lon="4.84505">
        <ele>258</ele>
        <time>2018-05-20T08:58:42Z</time>
      </trkpt>
      <trkpt lat="46.00077" lon="4.84506">
        <ele>258</ele>
        <time>2018-05-20T08:58:43Z</time>
      </trkpt>
      <trkpt lat="46.00074" lon="4.84503">
        <ele>258</ele>
        <time>2018-05-20T08:58:45Z</time>
      </trkpt>
      <trkpt lat="46.00071" lon="4.84492">
        <ele>259</ele>
        <time>2018-05-20T08:58:46Z</time>
      </trkpt>
      <trkpt lat="46.00071" lon="4.84481">
        <ele>258</ele>
        <time>2018-05-20T08:58:48Z</time>
      </trkpt>
      <trkpt lat="46.00071" lon="4.84475">
        <ele>258</ele>
        <time>2018-05-20T08:58:49Z</time>
      </trkpt>
      <trkpt lat="46.0007" lon="4.84464">
        <ele>258</ele>
        <time>2018-05-20T08:58:51Z</time>
      </trkpt>
      <trkpt lat="46.00069" lon="4.84458">
        <ele>258</ele>
        <time>2018-05-20T08:58:52Z</time>
      </trkpt>
      <trkpt lat="46.00068" lon="4.84447">
        <ele>258</ele>
        <time>2018-05-20T08:58:54Z</time>
      </trkpt>
      <trkpt lat="46.00067" lon="4.84441">
        <ele>258</ele>
        <time>2018-05-20T08:58:55Z</time>
      </trkpt>
      <trkpt lat="46.00066" lon="4.8443">
        <ele>258</ele>
        <time>2018-05-20T08:58:57Z</time>
      </trkpt>
      <trkpt lat="46.00065" lon="4.84424">
        <ele>258</ele>
        <time>2018-05-20T08:58:58Z</time>
      </trkpt>
      <trkpt lat="46.00064" lon="4.84412">
        <ele>259</ele>
        <time>2018-05-20T08:59:00Z</time>
      </trkpt>
      <trkpt lat="46.00063" lon="4.84407">
        <ele>259</ele>
        <time>2018-05-20T08:59:01Z</time>
      </trkpt>
      <trkpt lat="46.00061" lon="4.84396">
        <ele>259</ele>
        <time>2018-05-20T08:59:03Z</time>
      </trkpt>
      <trkpt lat="46.0006" lon="4.8439">
        <ele>259</ele>
        <time>2018-05-20T08:59:04Z</time>
      </trkpt>
      <trkpt lat="46.00058" lon="4.84378">
        <ele>259</ele>
        <time>2018-05-20T08:59:06Z</time>
      </trkpt>
      <trkpt lat="46.00057" lon="4.84372">
        <ele>259</ele>
        <time>2018-05-20T08:59:07Z</time>
      </trkpt>
      <trkpt lat="46.00055" lon="4.84361">
        <ele>259</ele>
        <time>2018-05-20T08:59:09Z</time>
      </trkpt>
      <trkpt lat="46.00054" lon="4.84355">
        <ele>259</ele>
        <time>2018-05-20T08:59:10Z</time>
      </trkpt>
      <trkpt lat="46.00053" lon="4.84344">
        <ele>259</ele>
        <time>2018-05-20T08:59:12Z</time>
      </trkpt>
      <trkpt lat="46.00052" lon="4.84339">
        <ele>259</ele>
        <time>2018-05-20T08:59:13Z</time>
      </trkpt>
      <trkpt lat="46.00049" lon="4.84328">
        <ele>260</ele>
        <time>2018-05-20T08:59:15Z</time>
      </trkpt>
      <trkpt lat="46.00047" lon="4.84322">
        <ele>260</ele>
        <time>2018-05-20T08:59:16Z</time>
      </trkpt>
      <trkpt lat="46.00042" lon="4.84312">
        <ele>260</ele>
        <time>2018-05-20T08:59:18Z</time>
      </trkpt>
      <trkpt lat="46.0004" lon="4.84306">
        <ele>259</ele>
        <time>2018-05-20T08:59:19Z</time>
      </trkpt>
      <trkpt lat="46.00038" lon="4.843">
        <ele>259</ele>
        <time>2018-05-20T08:59:20Z</time>
      </trkpt>
      <trkpt lat="46.00036" lon="4.84294">
        <ele>259</ele>
        <time>2018-05-20T08:59:21Z</time>
      </trkpt>
      <trkpt lat="46.00034" lon="4.84288">
        <ele>260</ele>
        <time>2018-05-20T08:59:22Z</time>
      </trkpt>
      <trkpt lat="46.00032" lon="4.84281">
        <ele>260</ele>
        <time>2018-05-20T08:59:23Z</time>
      </trkpt>
      <trkpt lat="46.00029" lon="4.84274">
        <ele>260</ele>
        <time>2018-05-20T08:59:24Z</time>
      </trkpt>
      <trkpt lat="46.00027" lon="4.84268">
        <ele>260</ele>
        <time>2018-05-20T08:59:25Z</time>
      </trkpt>
      <trkpt lat="46.00025" lon="4.84261">
        <ele>260</ele>
        <time>2018-05-20T08:59:26Z</time>
      </trkpt>
      <trkpt lat="46.00023" lon="4.84255">
        <ele>260</ele>
        <time>2018-05-20T08:59:27Z</time>
      </trkpt>
      <trkpt lat="46.00021" lon="4.84247">
        <ele>259</ele>
        <time>2018-05-20T08:59:28Z</time>
      </trkpt>
      <trkpt lat="46.00018" lon="4.84238">
        <ele>259</ele>
        <time>2018-05-20T08:59:29Z</time>
      </trkpt>
      <trkpt lat="46.00015" lon="4.84229">
        <ele>259</ele>
        <time>2018-05-20T08:59:30Z</time>
      </trkpt>
      <trkpt lat="46.00013" lon="4.8422">
        <ele>259</ele>
        <time>2018-05-20T08:59:31Z</time>
      </trkpt>
      <trkpt lat="46.00011" lon="4.84212">
        <ele>259</ele>
        <time>2018-05-20T08:59:32Z</time>
      </trkpt>
      <trkpt lat="46.00009" lon="4.84204">
        <ele>259</ele>
        <time>2018-05-20T08:59:33Z</time>
      </trkpt>
      <trkpt lat="46.00006" lon="4.84196">
        <ele>258</ele>
        <time>2018-05-20T08:59:34Z</time>
      </trkpt>
      <trkpt lat="46.00004" lon="4.84189">
        <ele>258</ele>
        <time>2018-05-20T08:59:35Z</time>
      </trkpt>
      <trkpt lat="46.00002" lon="4.84182">
        <ele>258</ele>
        <time>2018-05-20T08:59:36Z</time>
      </trkpt>
      <trkpt lat="46" lon="4.84174">
        <ele>257</ele>
        <time>2018-05-20T08:59:37Z</time>
      </trkpt>
      <trkpt lat="45.99997" lon="4.84166">
        <ele>257</ele>
        <time>2018-05-20T08:59:38Z</time>
      </trkpt>
      <trkpt lat="45.99995" lon="4.84159">
        <ele>257</ele>
        <time>2018-05-20T08:59:39Z</time>
      </trkpt>
      <trkpt lat="45.99992" lon="4.84152">
        <ele>257</ele>
        <time>2018-05-20T08:59:40Z</time>
      </trkpt>
      <trkpt lat="45.99991" lon="4.84146">
        <ele>257</ele>
        <time>2018-05-20T08:59:41Z</time>
      </trkpt>
      <trkpt lat="45.9999" lon="4.84138">
        <ele>257</ele>
        <time>2018-05-20T08:59:42Z</time>
      </trkpt>
      <trkpt lat="45.99988" lon="4.84131">
        <ele>257</ele>
        <time>2018-05-20T08:59:43Z</time>
      </trkpt>
      <trkpt lat="45.99986" lon="4.84124">
        <ele>257</ele>
        <time>2018-05-20T08:59:44Z</time>
      </trkpt>
      <trkpt lat="45.99984" lon="4.84117">
        <ele>258</ele>
        <time>2018-05-20T08:59:45Z</time>
      </trkpt>
      <trkpt lat="45.99981" lon="4.84108">
        <ele>258</ele>
        <time>2018-05-20T08:59:46Z</time>
      </trkpt>
      <trkpt lat="45.99979" lon="4.841">
        <ele>258</ele>
        <time>2018-05-20T08:59:47Z</time>
      </trkpt>
      <trkpt lat="45.99975" lon="4.84092">
        <ele>258</ele>
        <time>2018-05-20T08:59:48Z</time>
      </trkpt>
      <trkpt lat="45.99973" lon="4.84083">
        <ele>259</ele>
        <time>2018-05-20T08:59:49Z</time>
      </trkpt>
      <trkpt lat="45.99971" lon="4.84075">
        <ele>259</ele>
        <time>2018-05-20T08:59:50Z</time>
      </trkpt>
      <trkpt lat="45.99969" lon="4.84067">
        <ele>259</ele>
        <time>2018-05-20T08:59:51Z</time>
      </trkpt>
      <trkpt lat="45.99967" lon="4.84059">
        <ele>259</ele>
        <time>2018-05-20T08:59:52Z</time>
      </trkpt>
      <trkpt lat="45.99965" lon="4.84051">
        <ele>259</ele>
        <time>2018-05-20T08:59:53Z</time>
      </trkpt>
      <trkpt lat="45.99963" lon="4.84042">
        <ele>259</ele>
        <time>2018-05-20T08:59:54Z</time>
      </trkpt>
      <trkpt lat="45.9996" lon="4.84036">
        <ele>259</ele>
        <time>2018-05-20T08:59:55Z</time>
      </trkpt>
      <trkpt lat="45.99958" lon="4.84027">
        <ele>259</ele>
        <time>2018-05-20T08:59:56Z</time>
      </trkpt>
      <trkpt lat="45.99956" lon="4.8402">
        <ele>259</ele>
        <time>2018-05-20T08:59:57Z</time>
      </trkpt>
      <trkpt lat="45.99954" lon="4.84013">
        <ele>259</ele>
        <time>2018-05-20T08:59:58Z</time>
      </trkpt>
      <trkpt lat="45.99953" lon="4.84005">
        <ele>259</ele>
        <time>2018-05-20T08:59:59Z</time>
      </trkpt>
      <trkpt lat="45.99951" lon="4.83997">
        <ele>259</ele>
        <time>2018-05-20T09:00:00Z</time>
      </trkpt>
      <trkpt lat="45.99948" lon="4.8399">
        <ele>259</ele>
        <time>2018-05-20T09:00:01Z</time>
      </trkpt>
      <trkpt lat="45.99946" lon="4.83982">
        <ele>259</ele>
        <time>2018-05-20T09:00:02Z</time>
      </trkpt>
      <trkpt lat="45.99944" lon="4.83974">
        <ele>259</ele>
        <time>2018-05-20T09:00:03Z</time>
      </trkpt>
      <trkpt lat="45.99942" lon="4.83967">
        <ele>259</ele>
        <time>2018-05-20T09:00:04Z</time>
      </trkpt>
      <trkpt lat="45.99939" lon="4.83959">
        <ele>259</ele>
        <time>2018-05-20T09:00:05Z</time>
      </trkpt>
      <trkpt lat="45.99937" lon="4.83951">
        <ele>259</ele>
        <time>2018-05-20T09:00:06Z</time>
      </trkpt>
      <trkpt lat="45.99934" lon="4.83943">
        <ele>259</ele>
        <time>2018-05-20T09:00:07Z</time>
      </trkpt>
      <trkpt lat="45.99932" lon="4.83935">
        <ele>259</ele>
        <time>2018-05-20T09:00:08Z</time>
      </trkpt>
      <trkpt lat="45.9993" lon="4.83927">
        <ele>259</ele>
        <time>2018-05-20T09:00:09Z</time>
      </trkpt>
      <trkpt lat="45.99927" lon="4.83921">
        <ele>259</ele>
        <time>2018-05-20T09:00:10Z</time>
      </trkpt>
      <trkpt lat="45.99926" lon="4.83913">
        <ele>259</ele>
        <time>2018-05-20T09:00:11Z</time>
      </trkpt>
      <trkpt lat="45.99923" lon="4.83905">
        <ele>259</ele>
        <time>2018-05-20T09:00:12Z</time>
      </trkpt>
      <trkpt lat="45.99921" lon="4.83897">
        <ele>259</ele>
        <time>2018-05-20T09:00:13Z</time>
      </trkpt>
      <trkpt lat="45.99919" lon="4.83889">
        <ele>259</ele>
        <time>2018-05-20T09:00:14Z</time>
      </trkpt>
      <trkpt lat="45.99917" lon="4.83881">
        <ele>259</ele>
        <time>2018-05-20T09:00:15Z</time>
      </trkpt>
      <trkpt lat="45.99915" lon="4.83872">
        <ele>258</ele>
        <time>2018-05-20T09:00:16Z</time>
      </trkpt>
      <trkpt lat="45.99912" lon="4.83864">
        <ele>258</ele>
        <time>2018-05-20T09:00:17Z</time>
      </trkpt>
      <trkpt lat="45.9991" lon="4.83855">
        <ele>258</ele>
        <time>2018-05-20T09:00:18Z</time>
      </trkpt>
      <trkpt lat="45.99907" lon="4.83847">
        <ele>258</ele>
        <time>2018-05-20T09:00:19Z</time>
      </trkpt>
      <trkpt lat="45.99905" lon="4.83839">
        <ele>258</ele>
        <time>2018-05-20T09:00:20Z</time>
      </trkpt>
      <trkpt lat="45.99902" lon="4.83832">
        <ele>257</ele>
        <time>2018-05-20T09:00:21Z</time>
      </trkpt>
      <trkpt lat="45.99901" lon="4.83823">
        <ele>257</ele>
        <time>2018-05-20T09:00:22Z</time>
      </trkpt>
      <trkpt lat="45.99898" lon="4.83816">
        <ele>257</ele>
        <time>2018-05-20T09:00:23Z</time>
      </trkpt>
      <trkpt lat="45.99897" lon="4.83807">
        <ele>257</ele>
        <time>2018-05-20T09:00:24Z</time>
      </trkpt>
      <trkpt lat="45.99895" lon="4.838">
        <ele>257</ele>
        <time>2018-05-20T09:00:25Z</time>
      </trkpt>
      <trkpt lat="45.99893" lon="4.83792">
        <ele>257</ele>
        <time>2018-05-20T09:00:26Z</time>
      </trkpt>
      <trkpt lat="45.99891" lon="4.83785">
        <ele>257</ele>
        <time>2018-05-20T09:00:27Z</time>
      </trkpt>
      <trkpt lat="45.99889" lon="4.83776">
        <ele>257</ele>
        <time>2018-05-20T09:00:28Z</time>
      </trkpt>
      <trkpt lat="45.99886" lon="4.83768">
        <ele>257</ele>
        <time>2018-05-20T09:00:29Z</time>
      </trkpt>
      <trkpt lat="45.99884" lon="4.83761">
        <ele>256</ele>
        <time>2018-05-20T09:00:30Z</time>
      </trkpt>
      <trkpt lat="45.99882" lon="4.83753">
        <ele>256</ele>
        <time>2018-05-20T09:00:31Z</time>
      </trkpt>
      <trkpt lat="45.9988" lon="4.83745">
        <ele>256</ele>
        <time>2018-05-20T09:00:32Z</time>
      </trkpt>
      <trkpt lat="45.99877" lon="4.83737">
        <ele>256</ele>
        <time>2018-05-20T09:00:33Z</time>
      </trkpt>
      <trkpt lat="45.99875" lon="4.83729">
        <ele>256</ele>
        <time>2018-05-20T09:00:34Z</time>
      </trkpt>
      <trkpt lat="45.99873" lon="4.83721">
        <ele>256</ele>
        <time>2018-05-20T09:00:35Z</time>
      </trkpt>
      <trkpt lat="45.99871" lon="4.83713">
        <ele>256</ele>
        <time>2018-05-20T09:00:36Z</time>
      </trkpt>
      <trkpt lat="45.99868" lon="4.83707">
        <ele>256</ele>
        <time>2018-05-20T09:00:37Z</time>
      </trkpt>
      <trkpt lat="45.99867" lon="4.83699">
        <ele>256</ele>
        <time>2018-05-20T09:00:38Z</time>
      </trkpt>
      <trkpt lat="45.99865" lon="4.83693">
        <ele>256</ele>
        <time>2018-05-20T09:00:39Z</time>
      </trkpt>
      <trkpt lat="45.99863" lon="4.83685">
        <ele>256</ele>
        <time>2018-05-20T09:00:40Z</time>
      </trkpt>
      <trkpt lat="45.99861" lon="4.83677">
        <ele>256</ele>
        <time>2018-05-20T09:00:41Z</time>
      </trkpt>
      <trkpt lat="45.9986" lon="4.8367">
        <ele>256</ele>
        <time>2018-05-20T09:00:42Z</time>
      </trkpt>
      <trkpt lat="45.99857" lon="4.83662">
        <ele>257</ele>
        <time>2018-05-20T09:00:43Z</time>
      </trkpt>
      <trkpt lat="45.99856" lon="4.83655">
        <ele>257</ele>
        <time>2018-05-20T09:00:44Z</time>
      </trkpt>
      <trkpt lat="45.99854" lon="4.83649">
        <ele>257</ele>
        <time>2018-05-20T09:00:45Z</time>
      </trkpt>
      <trkpt lat="45.99852" lon="4.83641">
        <ele>257</ele>
        <time>2018-05-20T09:00:46Z</time>
      </trkpt>
      <trkpt lat="45.9985" lon="4.83635">
        <ele>257</ele>
        <time>2018-05-20T09:00:47Z</time>
      </trkpt>
      <trkpt lat="45.99849" lon="4.83627">
        <ele>257</ele>
        <time>2018-05-20T09:00:48Z</time>
      </trkpt>
      <trkpt lat="45.99848" lon="4.8362">
        <ele>257</ele>
        <time>2018-05-20T09:00:49Z</time>
      </trkpt>
      <trkpt lat="45.99846" lon="4.83613">
        <ele>257</ele>
        <time>2018-05-20T09:00:50Z</time>
      </trkpt>
      <trkpt lat="45.99844" lon="4.83605">
        <ele>257</ele>
        <time>2018-05-20T09:00:51Z</time>
      </trkpt>
      <trkpt lat="45.99843" lon="4.83597">
        <ele>257</ele>
        <time>2018-05-20T09:00:52Z</time>
      </trkpt>
      <trkpt lat="45.99841" lon="4.8359">
        <ele>257</ele>
        <time>2018-05-20T09:00:53Z</time>
      </trkpt>
      <trkpt lat="45.9984" lon="4.83583">
        <ele>257</ele>
        <time>2018-05-20T09:00:54Z</time>
      </trkpt>
      <trkpt lat="45.99838" lon="4.83577">
        <ele>257</ele>
        <time>2018-05-20T09:00:55Z</time>
      </trkpt>
      <trkpt lat="45.99836" lon="4.8357">
        <ele>258</ele>
        <time>2018-05-20T09:00:56Z</time>
      </trkpt>
      <trkpt lat="45.99834" lon="4.83563">
        <ele>258</ele>
        <time>2018-05-20T09:00:57Z</time>
      </trkpt>
      <trkpt lat="45.99833" lon="4.83556">
        <ele>258</ele>
        <time>2018-05-20T09:00:58Z</time>
      </trkpt>
      <trkpt lat="45.9983" lon="4.83549">
        <ele>258</ele>
        <time>2018-05-20T09:00:59Z</time>
      </trkpt>
      <trkpt lat="45.99829" lon="4.83543">
        <ele>259</ele>
        <time>2018-05-20T09:01:00Z</time>
      </trkpt>
      <trkpt lat="45.99828" lon="4.83536">
        <ele>259</ele>
        <time>2018-05-20T09:01:01Z</time>
      </trkpt>
      <trkpt lat="45.99827" lon="4.8353">
        <ele>259</ele>
        <time>2018-05-20T09:01:02Z</time>
      </trkpt>
      <trkpt lat="45.99825" lon="4.83523">
        <ele>259</ele>
        <time>2018-05-20T09:01:03Z</time>
      </trkpt>
      <trkpt lat="45.99823" lon="4.83517">
        <ele>259</ele>
        <time>2018-05-20T09:01:04Z</time>
      </trkpt>
      <trkpt lat="45.99822" lon="4.8351">
        <ele>259</ele>
        <time>2018-05-20T09:01:05Z</time>
      </trkpt>
      <trkpt lat="45.99821" lon="4.83503">
        <ele>259</ele>
        <time>2018-05-20T09:01:06Z</time>
      </trkpt>
      <trkpt lat="45.99819" lon="4.83497">
        <ele>260</ele>
        <time>2018-05-20T09:01:07Z</time>
      </trkpt>
      <trkpt lat="45.99818" lon="4.83491">
        <ele>260</ele>
        <time>2018-05-20T09:01:08Z</time>
      </trkpt>
      <trkpt lat="45.99817" lon="4.83485">
        <ele>260</ele>
        <time>2018-05-20T09:01:09Z</time>
      </trkpt>
      <trkpt lat="45.99816" lon="4.83478">
        <ele>260</ele>
        <time>2018-05-20T09:01:10Z</time>
      </trkpt>
      <trkpt lat="45.99812" lon="4.83472">
        <ele>260</ele>
        <time>2018-05-20T09:01:11Z</time>
      </trkpt>
      <trkpt lat="45.9981" lon="4.83465">
        <ele>261</ele>
        <time>2018-05-20T09:01:12Z</time>
      </trkpt>
      <trkpt lat="45.99808" lon="4.83459">
        <ele>261</ele>
        <time>2018-05-20T09:01:13Z</time>
      </trkpt>
      <trkpt lat="45.99806" lon="4.83452">
        <ele>261</ele>
        <time>2018-05-20T09:01:14Z</time>
      </trkpt>
      <trkpt lat="45.99805" lon="4.83447">
        <ele>261</ele>
        <time>2018-05-20T09:01:15Z</time>
      </trkpt>
      <trkpt lat="45.99801" lon="4.83436">
        <ele>261</ele>
        <time>2018-05-20T09:01:17Z</time>
      </trkpt>
      <trkpt lat="45.998" lon="4.8343">
        <ele>261</ele>
        <time>2018-05-20T09:01:18Z</time>
      </trkpt>
      <trkpt lat="45.99797" lon="4.83419">
        <ele>261</ele>
        <time>2018-05-20T09:01:20Z</time>
      </trkpt>
      <trkpt lat="45.99796" lon="4.83413">
        <ele>262</ele>
        <time>2018-05-20T09:01:21Z</time>
      </trkpt>
      <trkpt lat="45.99794" lon="4.83401">
        <ele>262</ele>
        <time>2018-05-20T09:01:23Z</time>
      </trkpt>
      <trkpt lat="45.99793" lon="4.83394">
        <ele>262</ele>
        <time>2018-05-20T09:01:24Z</time>
      </trkpt>
      <trkpt lat="45.9979" lon="4.83383">
        <ele>262</ele>
        <time>2018-05-20T09:01:26Z</time>
      </trkpt>
      <trkpt lat="45.99789" lon="4.83376">
        <ele>262</ele>
        <time>2018-05-20T09:01:27Z</time>
      </trkpt>
      <trkpt lat="45.99786" lon="4.83365">
        <ele>262</ele>
        <time>2018-05-20T09:01:29Z</time>
      </trkpt>
      <trkpt lat="45.99784" lon="4.83359">
        <ele>262</ele>
        <time>2018-05-20T09:01:30Z</time>
      </trkpt>
      <trkpt lat="45.99783" lon="4.83352">
        <ele>262</ele>
        <time>2018-05-20T09:01:31Z</time>
      </trkpt>
      <trkpt lat="45.99781" lon="4.83345">
        <ele>263</ele>
        <time>2018-05-20T09:01:32Z</time>
      </trkpt>
      <trkpt lat="45.9978" lon="4.83339">
        <ele>263</ele>
        <time>2018-05-20T09:01:33Z</time>
      </trkpt>
      <trkpt lat="45.99779" lon="4.83331">
        <ele>264</ele>
        <time>2018-05-20T09:01:34Z</time>
      </trkpt>
      <trkpt lat="45.99778" lon="4.83318">
        <ele>264</ele>
        <time>2018-05-20T09:01:36Z</time>
      </trkpt>
      <trkpt lat="45.99777" lon="4.83312">
        <ele>264</ele>
        <time>2018-05-20T09:01:37Z</time>
      </trkpt>
      <trkpt lat="45.99777" lon="4.83306">
        <ele>264</ele>
        <time>2018-05-20T09:01:38Z</time>
      </trkpt>
      <trkpt lat="45.99776" lon="4.83299">
        <ele>264</ele>
        <time>2018-05-20T09:01:39Z</time>
      </trkpt>
      <trkpt lat="45.99775" lon="4.83294">
        <ele>264</ele>
        <time>2018-05-20T09:01:40Z</time>
      </trkpt>
      <trkpt lat="45.99772" lon="4.83287">
        <ele>264</ele>
        <time>2018-05-20T09:01:41Z</time>
      </trkpt>
      <trkpt lat="45.99771" lon="4.83281">
        <ele>265</ele>
        <time>2018-05-20T09:01:42Z</time>
      </trkpt>
      <trkpt lat="45.9977" lon="4.83273">
        <ele>265</ele>
        <time>2018-05-20T09:01:43Z</time>
      </trkpt>
      <trkpt lat="45.99769" lon="4.83268">
        <ele>265</ele>
        <time>2018-05-20T09:01:44Z</time>
      </trkpt>
      <trkpt lat="45.99767" lon="4.83261">
        <ele>265</ele>
        <time>2018-05-20T09:01:45Z</time>
      </trkpt>
      <trkpt lat="45.99766" lon="4.83255">
        <ele>265</ele>
        <time>2018-05-20T09:01:46Z</time>
      </trkpt>
      <trkpt lat="45.99766" lon="4.83247">
        <ele>267</ele>
        <time>2018-05-20T09:01:47Z</time>
      </trkpt>
      <trkpt lat="45.99765" lon="4.83234">
        <ele>267</ele>
        <time>2018-05-20T09:01:49Z</time>
      </trkpt>
      <trkpt lat="45.99764" lon="4.83228">
        <ele>267</ele>
        <time>2018-05-20T09:01:50Z</time>
      </trkpt>
      <trkpt lat="45.99764" lon="4.83221">
        <ele>268</ele>
        <time>2018-05-20T09:01:51Z</time>
      </trkpt>
      <trkpt lat="45.99763" lon="4.83213">
        <ele>268</ele>
        <time>2018-05-20T09:01:52Z</time>
      </trkpt>
      <trkpt lat="45.99763" lon="4.83201">
        <ele>268</ele>
        <time>2018-05-20T09:01:54Z</time>
      </trkpt>
      <trkpt lat="45.99762" lon="4.83195">
        <ele>269</ele>
        <time>2018-05-20T09:01:55Z</time>
      </trkpt>
      <trkpt lat="45.99762" lon="4.83188">
        <ele>269</ele>
        <time>2018-05-20T09:01:56Z</time>
      </trkpt>
      <trkpt lat="45.99761" lon="4.83181">
        <ele>269</ele>
        <time>2018-05-20T09:01:57Z</time>
      </trkpt>
      <trkpt lat="45.9976" lon="4.83169">
        <ele>269</ele>
        <time>2018-05-20T09:01:59Z</time>
      </trkpt>
      <trkpt lat="45.9976" lon="4.83165">
        <ele>270</ele>
        <time>2018-05-20T09:02:00Z</time>
      </trkpt>
      <trkpt lat="45.99761" lon="4.83154">
        <ele>271</ele>
        <time>2018-05-20T09:02:02Z</time>
      </trkpt>
      <trkpt lat="45.99761" lon="4.83148">
        <ele>271</ele>
        <time>2018-05-20T09:02:03Z</time>
      </trkpt>
      <trkpt lat="45.9976" lon="4.83137">
        <ele>271</ele>
        <time>2018-05-20T09:02:05Z</time>
      </trkpt>
      <trkpt lat="45.9976" lon="4.83131">
        <ele>271</ele>
        <time>2018-05-20T09:02:06Z</time>
      </trkpt>
      <trkpt lat="45.99759" lon="4.8312">
        <ele>271</ele>
        <time>2018-05-20T09:02:08Z</time>
      </trkpt>
      <trkpt lat="45.99759" lon="4.83115">
        <ele>271</ele>
        <time>2018-05-20T09:02:09Z</time>
      </trkpt>
      <trkpt lat="45.99757" lon="4.83105">
        <ele>271</ele>
        <time>2018-05-20T09:02:11Z</time>
      </trkpt>
      <trkpt lat="45.99757" lon="4.831">
        <ele>272</ele>
        <time>2018-05-20T09:02:12Z</time>
      </trkpt>
      <trkpt lat="45.99756" lon="4.83089">
        <ele>272</ele>
        <time>2018-05-20T09:02:15Z</time>
      </trkpt>
      <trkpt lat="45.99756" lon="4.83086">
        <ele>272</ele>
        <time>2018-05-20T09:02:16Z</time>
      </trkpt>
      <trkpt lat="45.99755" lon="4.83076">
        <ele>272</ele>
        <time>2018-05-20T09:02:17Z</time>
      </trkpt>
      <trkpt lat="45.99754" lon="4.83071">
        <ele>272</ele>
        <time>2018-05-20T09:02:18Z</time>
      </trkpt>
      <trkpt lat="45.99753" lon="4.83062">
        <ele>272</ele>
        <time>2018-05-20T09:02:20Z</time>
      </trkpt>
      <trkpt lat="45.99752" lon="4.83054">
        <ele>272</ele>
        <time>2018-05-20T09:02:21Z</time>
      </trkpt>
      <trkpt lat="45.99749" lon="4.83044">
        <ele>271</ele>
        <time>2018-05-20T09:02:23Z</time>
      </trkpt>
      <trkpt lat="45.99748" lon="4.83039">
        <ele>271</ele>
        <time>2018-05-20T09:02:24Z</time>
      </trkpt>
      <trkpt lat="45.99745" lon="4.83029">
        <ele>271</ele>
        <time>2018-05-20T09:02:26Z</time>
      </trkpt>
      <trkpt lat="45.99744" lon="4.83024">
        <ele>271</ele>
        <time>2018-05-20T09:02:27Z</time>
      </trkpt>
      <trkpt lat="45.99741" lon="4.83013">
        <ele>271</ele>
        <time>2018-05-20T09:02:29Z</time>
      </trkpt>
      <trkpt lat="45.9974" lon="4.83007">
        <ele>271</ele>
        <time>2018-05-20T09:02:30Z</time>
      </trkpt>
      <trkpt lat="45.99738" lon="4.83001">
        <ele>271</ele>
        <time>2018-05-20T09:02:31Z</time>
      </trkpt>
      <trkpt lat="45.99736" lon="4.82995">
        <ele>271</ele>
        <time>2018-05-20T09:02:32Z</time>
      </trkpt>
      <trkpt lat="45.99735" lon="4.82989">
        <ele>271</ele>
        <time>2018-05-20T09:02:33Z</time>
      </trkpt>
      <trkpt lat="45.99732" lon="4.82983">
        <ele>271</ele>
        <time>2018-05-20T09:02:34Z</time>
      </trkpt>
      <trkpt lat="45.9973" lon="4.82977">
        <ele>271</ele>
        <time>2018-05-20T09:02:35Z</time>
      </trkpt>
      <trkpt lat="45.99729" lon="4.8297">
        <ele>271</ele>
        <time>2018-05-20T09:02:36Z</time>
      </trkpt>
      <trkpt lat="45.99728" lon="4.82964">
        <ele>271</ele>
        <time>2018-05-20T09:02:37Z</time>
      </trkpt>
      <trkpt lat="45.99725" lon="4.82958">
        <ele>271</ele>
        <time>2018-05-20T09:02:38Z</time>
      </trkpt>
      <trkpt lat="45.99723" lon="4.82951">
        <ele>271</ele>
        <time>2018-05-20T09:02:39Z</time>
      </trkpt>
      <trkpt lat="45.99721" lon="4.82944">
        <ele>271</ele>
        <time>2018-05-20T09:02:40Z</time>
      </trkpt>
      <trkpt lat="45.99718" lon="4.82937">
        <ele>271</ele>
        <time>2018-05-20T09:02:41Z</time>
      </trkpt>
      <trkpt lat="45.99715" lon="4.82929">
        <ele>271</ele>
        <time>2018-05-20T09:02:42Z</time>
      </trkpt>
      <trkpt lat="45.99713" lon="4.82922">
        <ele>271</ele>
        <time>2018-05-20T09:02:43Z</time>
      </trkpt>
      <trkpt lat="45.99711" lon="4.82915">
        <ele>271</ele>
        <time>2018-05-20T09:02:44Z</time>
      </trkpt>
      <trkpt lat="45.99708" lon="4.82907">
        <ele>271</ele>
        <time>2018-05-20T09:02:45Z</time>
      </trkpt>
      <trkpt lat="45.99706" lon="4.82899">
        <ele>271</ele>
        <time>2018-05-20T09:02:46Z</time>
      </trkpt>
      <trkpt lat="45.99704" lon="4.82891">
        <ele>271</ele>
        <time>2018-05-20T09:02:47Z</time>
      </trkpt>
      <trkpt lat="45.99702" lon="4.82883">
        <ele>271</ele>
        <time>2018-05-20T09:02:48Z</time>
      </trkpt>
      <trkpt lat="45.99698" lon="4.82876">
        <ele>271</ele>
        <time>2018-05-20T09:02:49Z</time>
      </trkpt>
      <trkpt lat="45.99696" lon="4.82868">
        <ele>270</ele>
        <time>2018-05-20T09:02:50Z</time>
      </trkpt>
      <trkpt lat="45.99693" lon="4.8286">
        <ele>270</ele>
        <time>2018-05-20T09:02:51Z</time>
      </trkpt>
      <trkpt lat="45.9969" lon="4.82853">
        <ele>270</ele>
        <time>2018-05-20T09:02:52Z</time>
      </trkpt>
      <trkpt lat="45.99688" lon="4.82845">
        <ele>270</ele>
        <time>2018-05-20T09:02:53Z</time>
      </trkpt>
      <trkpt lat="45.99685" lon="4.82837">
        <ele>270</ele>
        <time>2018-05-20T09:02:54Z</time>
      </trkpt>
      <trkpt lat="45.99683" lon="4.8283">
        <ele>270</ele>
        <time>2018-05-20T09:02:55Z</time>
      </trkpt>
      <trkpt lat="45.99681" lon="4.82821">
        <ele>270</ele>
        <time>2018-05-20T09:02:56Z</time>
      </trkpt>
      <trkpt lat="45.9968" lon="4.82814">
        <ele>270</ele>
        <time>2018-05-20T09:02:57Z</time>
      </trkpt>
      <trkpt lat="45.99679" lon="4.82807">
        <ele>270</ele>
        <time>2018-05-20T09:02:58Z</time>
      </trkpt>
      <trkpt lat="45.99677" lon="4.82798">
        <ele>270</ele>
        <time>2018-05-20T09:02:59Z</time>
      </trkpt>
      <trkpt lat="45.99675" lon="4.82789">
        <ele>269</ele>
        <time>2018-05-20T09:03:00Z</time>
      </trkpt>
      <trkpt lat="45.99673" lon="4.8278">
        <ele>269</ele>
        <time>2018-05-20T09:03:01Z</time>
      </trkpt>
      <trkpt lat="45.9967" lon="4.82771">
        <ele>269</ele>
        <time>2018-05-20T09:03:02Z</time>
      </trkpt>
      <trkpt lat="45.99669" lon="4.82762">
        <ele>269</ele>
        <time>2018-05-20T09:03:03Z</time>
      </trkpt>
      <trkpt lat="45.99667" lon="4.82753">
        <ele>269</ele>
        <time>2018-05-20T09:03:04Z</time>
      </trkpt>
      <trkpt lat="45.99666" lon="4.82745">
        <ele>269</ele>
        <time>2018-05-20T09:03:05Z</time>
      </trkpt>
      <trkpt lat="45.99665" lon="4.82736">
        <ele>268</ele>
        <time>2018-05-20T09:03:06Z</time>
      </trkpt>
      <trkpt lat="45.99665" lon="4.82727">
        <ele>268</ele>
        <time>2018-05-20T09:03:07Z</time>
      </trkpt>
      <trkpt lat="45.99665" lon="4.82715">
        <ele>268</ele>
        <time>2018-05-20T09:03:08Z</time>
      </trkpt>
      <trkpt lat="45.99663" lon="4.82706">
        <ele>268</ele>
        <time>2018-05-20T09:03:09Z</time>
      </trkpt>
      <trkpt lat="45.99664" lon="4.82695">
        <ele>268</ele>
        <time>2018-05-20T09:03:10Z</time>
      </trkpt>
      <trkpt lat="45.99662" lon="4.82686">
        <ele>268</ele>
        <time>2018-05-20T09:03:11Z</time>
      </trkpt>
      <trkpt lat="45.99662" lon="4.82678">
        <ele>268</ele>
        <time>2018-05-20T09:03:12Z</time>
      </trkpt>
      <trkpt lat="45.9966" lon="4.82668">
        <ele>269</ele>
        <time>2018-05-20T09:03:13Z</time>
      </trkpt>
      <trkpt lat="45.99659" lon="4.82659">
        <ele>268</ele>
        <time>2018-05-20T09:03:14Z</time>
      </trkpt>
      <trkpt lat="45.99659" lon="4.8265">
        <ele>268</ele>
        <time>2018-05-20T09:03:15Z</time>
      </trkpt>
      <trkpt lat="45.99656" lon="4.82642">
        <ele>267</ele>
        <time>2018-05-20T09:03:16Z</time>
      </trkpt>
      <trkpt lat="45.99653" lon="4.82634">
        <ele>267</ele>
        <time>2018-05-20T09:03:17Z</time>
      </trkpt>
      <trkpt lat="45.99652" lon="4.82624">
        <ele>267</ele>
        <time>2018-05-20T09:03:18Z</time>
      </trkpt>
      <trkpt lat="45.99651" lon="4.82615">
        <ele>267</ele>
        <time>2018-05-20T09:03:19Z</time>
      </trkpt>
      <trkpt lat="45.9965" lon="4.82606">
        <ele>267</ele>
        <time>2018-05-20T09:03:20Z</time>
      </trkpt>
      <trkpt lat="45.99648" lon="4.82598">
        <ele>267</ele>
        <time>2018-05-20T09:03:21Z</time>
      </trkpt>
      <trkpt lat="45.99646" lon="4.82589">
        <ele>267</ele>
        <time>2018-05-20T09:03:22Z</time>
      </trkpt>
      <trkpt lat="45.99645" lon="4.8258">
        <ele>266</ele>
        <time>2018-05-20T09:03:23Z</time>
      </trkpt>
      <trkpt lat="45.99643" lon="4.8257">
        <ele>266</ele>
        <time>2018-05-20T09:03:24Z</time>
      </trkpt>
      <trkpt lat="45.99641" lon="4.82562">
        <ele>266</ele>
        <time>2018-05-20T09:03:25Z</time>
      </trkpt>
      <trkpt lat="45.99639" lon="4.82554">
        <ele>266</ele>
        <time>2018-05-20T09:03:26Z</time>
      </trkpt>
      <trkpt lat="45.99637" lon="4.82544">
        <ele>266</ele>
        <time>2018-05-20T09:03:27Z</time>
      </trkpt>
      <trkpt lat="45.99635" lon="4.82536">
        <ele>266</ele>
        <time>2018-05-20T09:03:28Z</time>
      </trkpt>
      <trkpt lat="45.99634" lon="4.8253">
        <ele>266</ele>
        <time>2018-05-20T09:03:29Z</time>
      </trkpt>
      <trkpt lat="45.99632" lon="4.82521">
        <ele>266</ele>
        <time>2018-05-20T09:03:30Z</time>
      </trkpt>
      <trkpt lat="45.99631" lon="4.82514">
        <ele>266</ele>
        <time>2018-05-20T09:03:31Z</time>
      </trkpt>
      <trkpt lat="45.99629" lon="4.82506">
        <ele>265</ele>
        <time>2018-05-20T09:03:32Z</time>
      </trkpt>
      <trkpt lat="45.99627" lon="4.82498">
        <ele>265</ele>
        <time>2018-05-20T09:03:33Z</time>
      </trkpt>
      <trkpt lat="45.99624" lon="4.8249">
        <ele>265</ele>
        <time>2018-05-20T09:03:34Z</time>
      </trkpt>
      <trkpt lat="45.99621" lon="4.82481">
        <ele>265</ele>
        <time>2018-05-20T09:03:35Z</time>
      </trkpt>
      <trkpt lat="45.99618" lon="4.82473">
        <ele>265</ele>
        <time>2018-05-20T09:03:36Z</time>
      </trkpt>
      <trkpt lat="45.99614" lon="4.82465">
        <ele>265</ele>
        <time>2018-05-20T09:03:37Z</time>
      </trkpt>
      <trkpt lat="45.99609" lon="4.82456">
        <ele>265</ele>
        <time>2018-05-20T09:03:38Z</time>
      </trkpt>
      <trkpt lat="45.99606" lon="4.82447">
        <ele>264</ele>
        <time>2018-05-20T09:03:39Z</time>
      </trkpt>
      <trkpt lat="45.99602" lon="4.82438">
        <ele>264</ele>
        <time>2018-05-20T09:03:40Z</time>
      </trkpt>
      <trkpt lat="45.99599" lon="4.82428">
        <ele>264</ele>
        <time>2018-05-20T09:03:41Z</time>
      </trkpt>
      <trkpt lat="45.99596" lon="4.82419">
        <ele>263</ele>
        <time>2018-05-20T09:03:42Z</time>
      </trkpt>
      <trkpt lat="45.99593" lon="4.82407">
        <ele>263</ele>
        <time>2018-05-20T09:03:43Z</time>
      </trkpt>
      <trkpt lat="45.9959" lon="4.82396">
        <ele>264</ele>
        <time>2018-05-20T09:03:44Z</time>
      </trkpt>
      <trkpt lat="45.99589" lon="4.82384">
        <ele>264</ele>
        <time>2018-05-20T09:03:45Z</time>
      </trkpt>
      <trkpt lat="45.99587" lon="4.82373">
        <ele>264</ele>
        <time>2018-05-20T09:03:46Z</time>
      </trkpt>
      <trkpt lat="45.99586" lon="4.82361">
        <ele>264</ele>
        <time>2018-05-20T09:03:47Z</time>
      </trkpt>
      <trkpt lat="45.99585" lon="4.8235">
        <ele>264</ele>
        <time>2018-05-20T09:03:48Z</time>
      </trkpt>
      <trkpt lat="45.99583" lon="4.82338">
        <ele>262</ele>
        <time>2018-05-20T09:03:49Z</time>
      </trkpt>
      <trkpt lat="45.9958" lon="4.82324">
        <ele>262</ele>
        <time>2018-05-20T09:03:50Z</time>
      </trkpt>
      <trkpt lat="45.99578" lon="4.82311">
        <ele>262</ele>
        <time>2018-05-20T09:03:51Z</time>
      </trkpt>
      <trkpt lat="45.99577" lon="4.82299">
        <ele>262</ele>
        <time>2018-05-20T09:03:52Z</time>
      </trkpt>
      <trkpt lat="45.99574" lon="4.82288">
        <ele>262</ele>
        <time>2018-05-20T09:03:53Z</time>
      </trkpt>
      <trkpt lat="45.99572" lon="4.82276">
        <ele>262</ele>
        <time>2018-05-20T09:03:54Z</time>
      </trkpt>
      <trkpt lat="45.99568" lon="4.82265">
        <ele>262</ele>
        <time>2018-05-20T09:03:55Z</time>
      </trkpt>
      <trkpt lat="45.99565" lon="4.82256">
        <ele>262</ele>
        <time>2018-05-20T09:03:56Z</time>
      </trkpt>
      <trkpt lat="45.99562" lon="4.82246">
        <ele>262</ele>
        <time>2018-05-20T09:03:57Z</time>
      </trkpt>
      <trkpt lat="45.99561" lon="4.82238">
        <ele>262</ele>
        <time>2018-05-20T09:03:58Z</time>
      </trkpt>
      <trkpt lat="45.99558" lon="4.82229">
        <ele>262</ele>
        <time>2018-05-20T09:03:59Z</time>
      </trkpt>
      <trkpt lat="45.99555" lon="4.8222">
        <ele>262</ele>
        <time>2018-05-20T09:04:00Z</time>
      </trkpt>
      <trkpt lat="45.99553" lon="4.82212">
        <ele>262</ele>
        <time>2018-05-20T09:04:01Z</time>
      </trkpt>
      <trkpt lat="45.99551" lon="4.82204">
        <ele>262</ele>
        <time>2018-05-20T09:04:02Z</time>
      </trkpt>
      <trkpt lat="45.99549" lon="4.82195">
        <ele>263</ele>
        <time>2018-05-20T09:04:03Z</time>
      </trkpt>
      <trkpt lat="45.99547" lon="4.82187">
        <ele>263</ele>
        <time>2018-05-20T09:04:04Z</time>
      </trkpt>
      <trkpt lat="45.99545" lon="4.82179">
        <ele>263</ele>
        <time>2018-05-20T09:04:05Z</time>
      </trkpt>
      <trkpt lat="45.99544" lon="4.82171">
        <ele>263</ele>
        <time>2018-05-20T09:04:06Z</time>
      </trkpt>
      <trkpt lat="45.99543" lon="4.82162">
        <ele>263</ele>
        <time>2018-05-20T09:04:07Z</time>
      </trkpt>
      <trkpt lat="45.99541" lon="4.82153">
        <ele>263</ele>
        <time>2018-05-20T09:04:08Z</time>
      </trkpt>
      <trkpt lat="45.99539" lon="4.82145">
        <ele>263</ele>
        <time>2018-05-20T09:04:09Z</time>
      </trkpt>
      <trkpt lat="45.99538" lon="4.82137">
        <ele>263</ele>
        <time>2018-05-20T09:04:10Z</time>
      </trkpt>
      <trkpt lat="45.99535" lon="4.82125">
        <ele>263</ele>
        <time>2018-05-20T09:04:11Z</time>
      </trkpt>
      <trkpt lat="45.99533" lon="4.82117">
        <ele>263</ele>
        <time>2018-05-20T09:04:12Z</time>
      </trkpt>
      <trkpt lat="45.99531" lon="4.82108">
        <ele>263</ele>
        <time>2018-05-20T09:04:13Z</time>
      </trkpt>
      <trkpt lat="45.9953" lon="4.82098">
        <ele>262</ele>
        <time>2018-05-20T09:04:14Z</time>
      </trkpt>
      <trkpt lat="45.99529" lon="4.82088">
        <ele>262</ele>
        <time>2018-05-20T09:04:15Z</time>
      </trkpt>
      <trkpt lat="45.99529" lon="4.82076">
        <ele>262</ele>
        <time>2018-05-20T09:04:16Z</time>
      </trkpt>
      <trkpt lat="45.99529" lon="4.82063">
        <ele>262</ele>
        <time>2018-05-20T09:04:17Z</time>
      </trkpt>
      <trkpt lat="45.99527" lon="4.82054">
        <ele>262</ele>
        <time>2018-05-20T09:04:18Z</time>
      </trkpt>
      <trkpt lat="45.99526" lon="4.82045">
        <ele>262</ele>
        <time>2018-05-20T09:04:19Z</time>
      </trkpt>
      <trkpt lat="45.99526" lon="4.82036">
        <ele>262</ele>
        <time>2018-05-20T09:04:20Z</time>
      </trkpt>
      <trkpt lat="45.99525" lon="4.82026">
        <ele>262</ele>
        <time>2018-05-20T09:04:21Z</time>
      </trkpt>
      <trkpt lat="45.99525" lon="4.82015">
        <ele>261</ele>
        <time>2018-05-20T09:04:22Z</time>
      </trkpt>
      <trkpt lat="45.99524" lon="4.82004">
        <ele>261</ele>
        <time>2018-05-20T09:04:23Z</time>
      </trkpt>
      <trkpt lat="45.99523" lon="4.81993">
        <ele>261</ele>
        <time>2018-05-20T09:04:24Z</time>
      </trkpt>
      <trkpt lat="45.99522" lon="4.81983">
        <ele>261</ele>
        <time>2018-05-20T09:04:25Z</time>
      </trkpt>
      <trkpt lat="45.9952" lon="4.81974">
        <ele>261</ele>
        <time>2018-05-20T09:04:26Z</time>
      </trkpt>
      <trkpt lat="45.99519" lon="4.81966">
        <ele>261</ele>
        <time>2018-05-20T09:04:27Z</time>
      </trkpt>
      <trkpt lat="45.99518" lon="4.81958">
        <ele>261</ele>
        <time>2018-05-20T09:04:28Z</time>
      </trkpt>
      <trkpt lat="45.99517" lon="4.81947">
        <ele>261</ele>
        <time>2018-05-20T09:04:29Z</time>
      </trkpt>
      <trkpt lat="45.99517" lon="4.81938">
        <ele>261</ele>
        <time>2018-05-20T09:04:30Z</time>
      </trkpt>
      <trkpt lat="45.99515" lon="4.8193">
        <ele>260</ele>
        <time>2018-05-20T09:04:31Z</time>
      </trkpt>
      <trkpt lat="45.99515" lon="4.81918">
        <ele>260</ele>
        <time>2018-05-20T09:04:32Z</time>
      </trkpt>
      <trkpt lat="45.99514" lon="4.81909">
        <ele>261</ele>
        <time>2018-05-20T09:04:33Z</time>
      </trkpt>
      <trkpt lat="45.99513" lon="4.819">
        <ele>261</ele>
        <time>2018-05-20T09:04:34Z</time>
      </trkpt>
      <trkpt lat="45.99511" lon="4.81891">
        <ele>261</ele>
        <time>2018-05-20T09:04:35Z</time>
      </trkpt>
      <trkpt lat="45.99509" lon="4.81881">
        <ele>261</ele>
        <time>2018-05-20T09:04:36Z</time>
      </trkpt>
      <trkpt lat="45.99509" lon="4.81872">
        <ele>262</ele>
        <time>2018-05-20T09:04:37Z</time>
      </trkpt>
      <trkpt lat="45.99508" lon="4.81863">
        <ele>262</ele>
        <time>2018-05-20T09:04:38Z</time>
      </trkpt>
      <trkpt lat="45.99506" lon="4.81853">
        <ele>262</ele>
        <time>2018-05-20T09:04:39Z</time>
      </trkpt>
      <trkpt lat="45.99505" lon="4.81846">
        <ele>262</ele>
        <time>2018-05-20T09:04:40Z</time>
      </trkpt>
      <trkpt lat="45.99504" lon="4.81836">
        <ele>262</ele>
        <time>2018-05-20T09:04:41Z</time>
      </trkpt>
      <trkpt lat="45.99504" lon="4.81827">
        <ele>262</ele>
        <time>2018-05-20T09:04:42Z</time>
      </trkpt>
      <trkpt lat="45.99503" lon="4.81817">
        <ele>262</ele>
        <time>2018-05-20T09:04:43Z</time>
      </trkpt>
      <trkpt lat="45.99502" lon="4.81809">
        <ele>262</ele>
        <time>2018-05-20T09:04:44Z</time>
      </trkpt>
      <trkpt lat="45.99502" lon="4.81802">
        <ele>262</ele>
        <time>2018-05-20T09:04:45Z</time>
      </trkpt>
      <trkpt lat="45.995" lon="4.81796">
        <ele>262</ele>
        <time>2018-05-20T09:04:46Z</time>
      </trkpt>
      <trkpt lat="45.99498" lon="4.81789">
        <ele>262</ele>
        <time>2018-05-20T09:04:47Z</time>
      </trkpt>
      <trkpt lat="45.99497" lon="4.81779">
        <ele>262</ele>
        <time>2018-05-20T09:04:48Z</time>
      </trkpt>
      <trkpt lat="45.99496" lon="4.8177">
        <ele>262</ele>
        <time>2018-05-20T09:04:49Z</time>
      </trkpt>
      <trkpt lat="45.99495" lon="4.81762">
        <ele>262</ele>
        <time>2018-05-20T09:04:50Z</time>
      </trkpt>
      <trkpt lat="45.99495" lon="4.81757">
        <ele>262</ele>
        <time>2018-05-20T09:04:51Z</time>
      </trkpt>
      <trkpt lat="45.99495" lon="4.81748">
        <ele>262</ele>
        <time>2018-05-20T09:04:52Z</time>
      </trkpt>
      <trkpt lat="45.99494" lon="4.81739">
        <ele>262</ele>
        <time>2018-05-20T09:04:53Z</time>
      </trkpt>
      <trkpt lat="45.99494" lon="4.8173">
        <ele>261</ele>
        <time>2018-05-20T09:04:54Z</time>
      </trkpt>
      <trkpt lat="45.99492" lon="4.81723">
        <ele>261</ele>
        <time>2018-05-20T09:04:55Z</time>
      </trkpt>
      <trkpt lat="45.9949" lon="4.81714">
        <ele>261</ele>
        <time>2018-05-20T09:04:56Z</time>
      </trkpt>
      <trkpt lat="45.9949" lon="4.81703">
        <ele>261</ele>
        <time>2018-05-20T09:04:57Z</time>
      </trkpt>
      <trkpt lat="45.99489" lon="4.81693">
        <ele>261</ele>
        <time>2018-05-20T09:04:58Z</time>
      </trkpt>
      <trkpt lat="45.99487" lon="4.81683">
        <ele>261</ele>
        <time>2018-05-20T09:04:59Z</time>
      </trkpt>
      <trkpt lat="45.99484" lon="4.81673">
        <ele>260</ele>
        <time>2018-05-20T09:05:00Z</time>
      </trkpt>
      <trkpt lat="45.99483" lon="4.81663">
        <ele>259</ele>
        <time>2018-05-20T09:05:01Z</time>
      </trkpt>
      <trkpt lat="45.99479" lon="4.81655">
        <ele>259</ele>
        <time>2018-05-20T09:05:02Z</time>
      </trkpt>
      <trkpt lat="45.99476" lon="4.81644">
        <ele>259</ele>
        <time>2018-05-20T09:05:03Z</time>
      </trkpt>
      <trkpt lat="45.99475" lon="4.81634">
        <ele>258</ele>
        <time>2018-05-20T09:05:04Z</time>
      </trkpt>
      <trkpt lat="45.99475" lon="4.81624">
        <ele>258</ele>
        <time>2018-05-20T09:05:05Z</time>
      </trkpt>
      <trkpt lat="45.99474" lon="4.81615">
        <ele>258</ele>
        <time>2018-05-20T09:05:06Z</time>
      </trkpt>
      <trkpt lat="45.99473" lon="4.81606">
        <ele>258</ele>
        <time>2018-05-20T09:05:07Z</time>
      </trkpt>
      <trkpt lat="45.99471" lon="4.81596">
        <ele>257</ele>
        <time>2018-05-20T09:05:08Z</time>
      </trkpt>
      <trkpt lat="45.99469" lon="4.81587">
        <ele>257</ele>
        <time>2018-05-20T09:05:09Z</time>
      </trkpt>
      <trkpt lat="45.99468" lon="4.81577">
        <ele>255</ele>
        <time>2018-05-20T09:05:10Z</time>
      </trkpt>
      <trkpt lat="45.99466" lon="4.81568">
        <ele>255</ele>
        <time>2018-05-20T09:05:11Z</time>
      </trkpt>
      <trkpt lat="45.99465" lon="4.81559">
        <ele>255</ele>
        <time>2018-05-20T09:05:12Z</time>
      </trkpt>
      <trkpt lat="45.99464" lon="4.81549">
        <ele>255</ele>
        <time>2018-05-20T09:05:13Z</time>
      </trkpt>
      <trkpt lat="45.99463" lon="4.8154">
        <ele>255</ele>
        <time>2018-05-20T09:05:14Z</time>
      </trkpt>
      <trkpt lat="45.99461" lon="4.81531">
        <ele>255</ele>
        <time>2018-05-20T09:05:15Z</time>
      </trkpt>
      <trkpt lat="45.99459" lon="4.81519">
        <ele>255</ele>
        <time>2018-05-20T09:05:16Z</time>
      </trkpt>
      <trkpt lat="45.99457" lon="4.81508">
        <ele>255</ele>
        <time>2018-05-20T09:05:17Z</time>
      </trkpt>
      <trkpt lat="45.99455" lon="4.81497">
        <ele>254</ele>
        <time>2018-05-20T09:05:18Z</time>
      </trkpt>
      <trkpt lat="45.99453" lon="4.81486">
        <ele>254</ele>
        <time>2018-05-20T09:05:19Z</time>
      </trkpt>
      <trkpt lat="45.99452" lon="4.81476">
        <ele>254</ele>
        <time>2018-05-20T09:05:20Z</time>
      </trkpt>
      <trkpt lat="45.9945" lon="4.81465">
        <ele>254</ele>
        <time>2018-05-20T09:05:21Z</time>
      </trkpt>
      <trkpt lat="45.99448" lon="4.81455">
        <ele>254</ele>
        <time>2018-05-20T09:05:22Z</time>
      </trkpt>
      <trkpt lat="45.99446" lon="4.81445">
        <ele>254</ele>
        <time>2018-05-20T09:05:23Z</time>
      </trkpt>
      <trkpt lat="45.99445" lon="4.81435">
        <ele>254</ele>
        <time>2018-05-20T09:05:24Z</time>
      </trkpt>
      <trkpt lat="45.99443" lon="4.81425">
        <ele>254</ele>
        <time>2018-05-20T09:05:25Z</time>
      </trkpt>
      <trkpt lat="45.99442" lon="4.81415">
        <ele>254</ele>
        <time>2018-05-20T09:05:26Z</time>
      </trkpt>
      <trkpt lat="45.9944" lon="4.81404">
        <ele>254</ele>
        <time>2018-05-20T09:05:27Z</time>
      </trkpt>
      <trkpt lat="45.99437" lon="4.81396">
        <ele>254</ele>
        <time>2018-05-20T09:05:28Z</time>
      </trkpt>
      <trkpt lat="45.99436" lon="4.81386">
        <ele>254</ele>
        <time>2018-05-20T09:05:29Z</time>
      </trkpt>
      <trkpt lat="45.99437" lon="4.81374">
        <ele>254</ele>
        <time>2018-05-20T09:05:30Z</time>
      </trkpt>
      <trkpt lat="45.99436" lon="4.81365">
        <ele>254</ele>
        <time>2018-05-20T09:05:31Z</time>
      </trkpt>
      <trkpt lat="45.99434" lon="4.81354">
        <ele>254</ele>
        <time>2018-05-20T09:05:32Z</time>
      </trkpt>
      <trkpt lat="45.99433" lon="4.81344">
        <ele>254</ele>
        <time>2018-05-20T09:05:33Z</time>
      </trkpt>
      <trkpt lat="45.99431" lon="4.81335">
        <ele>254</ele>
        <time>2018-05-20T09:05:34Z</time>
      </trkpt>
      <trkpt lat="45.9943" lon="4.81325">
        <ele>254</ele>
        <time>2018-05-20T09:05:35Z</time>
      </trkpt>
      <trkpt lat="45.99429" lon="4.81316">
        <ele>254</ele>
        <time>2018-05-20T09:05:36Z</time>
      </trkpt>
      <trkpt lat="45.99429" lon="4.81307">
        <ele>253</ele>
        <time>2018-05-20T09:05:37Z</time>
      </trkpt>
      <trkpt lat="45.99428" lon="4.81296">
        <ele>253</ele>
        <time>2018-05-20T09:05:38Z</time>
      </trkpt>
      <trkpt lat="45.99426" lon="4.81287">
        <ele>253</ele>
        <time>2018-05-20T09:05:39Z</time>
      </trkpt>
      <trkpt lat="45.99425" lon="4.81278">
        <ele>253</ele>
        <time>2018-05-20T09:05:40Z</time>
      </trkpt>
      <trkpt lat="45.99422" lon="4.81271">
        <ele>253</ele>
        <time>2018-05-20T09:05:41Z</time>
      </trkpt>
      <trkpt lat="45.99421" lon="4.81261">
        <ele>252</ele>
        <time>2018-05-20T09:05:42Z</time>
      </trkpt>
      <trkpt lat="45.9942" lon="4.81252">
        <ele>252</ele>
        <time>2018-05-20T09:05:43Z</time>
      </trkpt>
      <trkpt lat="45.99419" lon="4.81243">
        <ele>252</ele>
        <time>2018-05-20T09:05:44Z</time>
      </trkpt>
      <trkpt lat="45.99417" lon="4.81233">
        <ele>252</ele>
        <time>2018-05-20T09:05:45Z</time>
      </trkpt>
      <trkpt lat="45.99415" lon="4.81223">
        <ele>252</ele>
        <time>2018-05-20T09:05:46Z</time>
      </trkpt>
      <trkpt lat="45.99414" lon="4.81213">
        <ele>252</ele>
        <time>2018-05-20T09:05:47Z</time>
      </trkpt>
      <trkpt lat="45.99413" lon="4.81203">
        <ele>252</ele>
        <time>2018-05-20T09:05:48Z</time>
      </trkpt>
      <trkpt lat="45.99411" lon="4.81192">
        <ele>252</ele>
        <time>2018-05-20T09:05:49Z</time>
      </trkpt>
      <trkpt lat="45.9941" lon="4.81182">
        <ele>251</ele>
        <time>2018-05-20T09:05:50Z</time>
      </trkpt>
      <trkpt lat="45.99408" lon="4.81171">
        <ele>251</ele>
        <time>2018-05-20T09:05:51Z</time>
      </trkpt>
      <trkpt lat="45.99405" lon="4.8116">
        <ele>251</ele>
        <time>2018-05-20T09:05:52Z</time>
      </trkpt>
      <trkpt lat="45.99405" lon="4.81147">
        <ele>251</ele>
        <time>2018-05-20T09:05:53Z</time>
      </trkpt>
      <trkpt lat="45.99403" lon="4.81137">
        <ele>251</ele>
        <time>2018-05-20T09:05:54Z</time>
      </trkpt>
      <trkpt lat="45.99401" lon="4.81127">
        <ele>251</ele>
        <time>2018-05-20T09:05:55Z</time>
      </trkpt>
      <trkpt lat="45.99399" lon="4.81116">
        <ele>251</ele>
        <time>2018-05-20T09:05:56Z</time>
      </trkpt>
      <trkpt lat="45.99398" lon="4.81104">
        <ele>251</ele>
        <time>2018-05-20T09:05:57Z</time>
      </trkpt>
      <trkpt lat="45.99397" lon="4.81093">
        <ele>251</ele>
        <time>2018-05-20T09:05:58Z</time>
      </trkpt>
      <trkpt lat="45.99395" lon="4.81083">
        <ele>251</ele>
        <time>2018-05-20T09:05:59Z</time>
      </trkpt>
      <trkpt lat="45.99394" lon="4.81073">
        <ele>251</ele>
        <time>2018-05-20T09:06:00Z</time>
      </trkpt>
      <trkpt lat="45.99394" lon="4.81063">
        <ele>251</ele>
        <time>2018-05-20T09:06:01Z</time>
      </trkpt>
      <trkpt lat="45.99392" lon="4.81052">
        <ele>251</ele>
        <time>2018-05-20T09:06:02Z</time>
      </trkpt>
      <trkpt lat="45.99391" lon="4.81042">
        <ele>251</ele>
        <time>2018-05-20T09:06:03Z</time>
      </trkpt>
      <trkpt lat="45.99389" lon="4.81031">
        <ele>251</ele>
        <time>2018-05-20T09:06:04Z</time>
      </trkpt>
      <trkpt lat="45.99388" lon="4.8102">
        <ele>251</ele>
        <time>2018-05-20T09:06:05Z</time>
      </trkpt>
      <trkpt lat="45.99387" lon="4.81009">
        <ele>251</ele>
        <time>2018-05-20T09:06:06Z</time>
      </trkpt>
      <trkpt lat="45.99385" lon="4.80997">
        <ele>250</ele>
        <time>2018-05-20T09:06:07Z</time>
      </trkpt>
      <trkpt lat="45.99383" lon="4.80986">
        <ele>250</ele>
        <time>2018-05-20T09:06:08Z</time>
      </trkpt>
      <trkpt lat="45.99382" lon="4.80975">
        <ele>250</ele>
        <time>2018-05-20T09:06:09Z</time>
      </trkpt>
      <trkpt lat="45.9938" lon="4.80965">
        <ele>250</ele>
        <time>2018-05-20T09:06:10Z</time>
      </trkpt>
      <trkpt lat="45.99378" lon="4.80954">
        <ele>250</ele>
        <time>2018-05-20T09:06:11Z</time>
      </trkpt>
      <trkpt lat="45.99375" lon="4.80944">
        <ele>250</ele>
        <time>2018-05-20T09:06:12Z</time>
      </trkpt>
      <trkpt lat="45.99374" lon="4.80934">
        <ele>250</ele>
        <time>2018-05-20T09:06:13Z</time>
      </trkpt>
      <trkpt lat="45.99372" lon="4.80923">
        <ele>250</ele>
        <time>2018-05-20T09:06:14Z</time>
      </trkpt>
      <trkpt lat="45.99372" lon="4.80914">
        <ele>248</ele>
        <time>2018-05-20T09:06:15Z</time>
      </trkpt>
      <trkpt lat="45.99371" lon="4.80904">
        <ele>248</ele>
        <time>2018-05-20T09:06:16Z</time>
      </trkpt>
      <trkpt lat="45.9937" lon="4.80893">
        <ele>248</ele>
        <time>2018-05-20T09:06:17Z</time>
      </trkpt>
      <trkpt lat="45.99368" lon="4.80882">
        <ele>248</ele>
        <time>2018-05-20T09:06:18Z</time>
      </trkpt>
      <trkpt lat="45.99367" lon="4.8087">
        <ele>248</ele>
        <time>2018-05-20T09:06:19Z</time>
      </trkpt>
      <trkpt lat="45.99364" lon="4.80859">
        <ele>248</ele>
        <time>2018-05-20T09:06:20Z</time>
      </trkpt>
      <trkpt lat="45.99363" lon="4.80847">
        <ele>247</ele>
        <time>2018-05-20T09:06:21Z</time>
      </trkpt>
      <trkpt lat="45.99361" lon="4.80835">
        <ele>247</ele>
        <time>2018-05-20T09:06:22Z</time>
      </trkpt>
      <trkpt lat="45.9936" lon="4.80824">
        <ele>246</ele>
        <time>2018-05-20T09:06:23Z</time>
      </trkpt>
      <trkpt lat="45.99358" lon="4.80811">
        <ele>246</ele>
        <time>2018-05-20T09:06:24Z</time>
      </trkpt>
      <trkpt lat="45.99358" lon="4.80801">
        <ele>246</ele>
        <time>2018-05-20T09:06:25Z</time>
      </trkpt>
      <trkpt lat="45.99357" lon="4.80789">
        <ele>246</ele>
        <time>2018-05-20T09:06:26Z</time>
      </trkpt>
      <trkpt lat="45.99355" lon="4.80778">
        <ele>245</ele>
        <time>2018-05-20T09:06:27Z</time>
      </trkpt>
      <trkpt lat="45.99353" lon="4.80766">
        <ele>245</ele>
        <time>2018-05-20T09:06:28Z</time>
      </trkpt>
      <trkpt lat="45.9935" lon="4.80756">
        <ele>245</ele>
        <time>2018-05-20T09:06:29Z</time>
      </trkpt>
      <trkpt lat="45.99349" lon="4.80744">
        <ele>245</ele>
        <time>2018-05-20T09:06:30Z</time>
      </trkpt>
      <trkpt lat="45.99347" lon="4.80732">
        <ele>245</ele>
        <time>2018-05-20T09:06:31Z</time>
      </trkpt>
      <trkpt lat="45.99346" lon="4.8072">
        <ele>244</ele>
        <time>2018-05-20T09:06:32Z</time>
      </trkpt>
      <trkpt lat="45.99344" lon="4.80709">
        <ele>244</ele>
        <time>2018-05-20T09:06:33Z</time>
      </trkpt>
      <trkpt lat="45.99342" lon="4.80698">
        <ele>244</ele>
        <time>2018-05-20T09:06:34Z</time>
      </trkpt>
      <trkpt lat="45.99341" lon="4.80686">
        <ele>244</ele>
        <time>2018-05-20T09:06:35Z</time>
      </trkpt>
      <trkpt lat="45.99339" lon="4.80675">
        <ele>244</ele>
        <time>2018-05-20T09:06:36Z</time>
      </trkpt>
      <trkpt lat="45.99338" lon="4.80664">
        <ele>244</ele>
        <time>2018-05-20T09:06:37Z</time>
      </trkpt>
      <trkpt lat="45.99337" lon="4.80652">
        <ele>244</ele>
        <time>2018-05-20T09:06:38Z</time>
      </trkpt>
      <trkpt lat="45.99336" lon="4.80642">
        <ele>244</ele>
        <time>2018-05-20T09:06:39Z</time>
      </trkpt>
      <trkpt lat="45.99334" lon="4.80631">
        <ele>243</ele>
        <time>2018-05-20T09:06:40Z</time>
      </trkpt>
      <trkpt lat="45.99332" lon="4.80619">
        <ele>243</ele>
        <time>2018-05-20T09:06:41Z</time>
      </trkpt>
      <trkpt lat="45.99332" lon="4.80608">
        <ele>243</ele>
        <time>2018-05-20T09:06:42Z</time>
      </trkpt>
      <trkpt lat="45.99331" lon="4.80598">
        <ele>242</ele>
        <time>2018-05-20T09:06:43Z</time>
      </trkpt>
      <trkpt lat="45.99328" lon="4.80587">
        <ele>242</ele>
        <time>2018-05-20T09:06:44Z</time>
      </trkpt>
      <trkpt lat="45.99327" lon="4.80577">
        <ele>242</ele>
        <time>2018-05-20T09:06:45Z</time>
      </trkpt>
      <trkpt lat="45.99327" lon="4.80567">
        <ele>242</ele>
        <time>2018-05-20T09:06:46Z</time>
      </trkpt>
      <trkpt lat="45.99326" lon="4.80557">
        <ele>242</ele>
        <time>2018-05-20T09:06:47Z</time>
      </trkpt>
      <trkpt lat="45.99324" lon="4.80548">
        <ele>241</ele>
        <time>2018-05-20T09:06:48Z</time>
      </trkpt>
      <trkpt lat="45.99323" lon="4.8054">
        <ele>241</ele>
        <time>2018-05-20T09:06:49Z</time>
      </trkpt>
      <trkpt lat="45.99322" lon="4.80531">
        <ele>241</ele>
        <time>2018-05-20T09:06:50Z</time>
      </trkpt>
      <trkpt lat="45.9932" lon="4.80522">
        <ele>241</ele>
        <time>2018-05-20T09:06:51Z</time>
      </trkpt>
      <trkpt lat="45.99319" lon="4.80513">
        <ele>241</ele>
        <time>2018-05-20T09:06:52Z</time>
      </trkpt>
      <trkpt lat="45.99317" lon="4.80506">
        <ele>241</ele>
        <time>2018-05-20T09:06:53Z</time>
      </trkpt>
      <trkpt lat="45.99319" lon="4.80499">
        <ele>241</ele>
        <time>2018-05-20T09:06:54Z</time>
      </trkpt>
      <trkpt lat="45.99318" lon="4.80492">
        <ele>241</ele>
        <time>2018-05-20T09:06:55Z</time>
      </trkpt>
      <trkpt lat="45.99317" lon="4.80484">
        <ele>241</ele>
        <time>2018-05-20T09:06:56Z</time>
      </trkpt>
      <trkpt lat="45.99316" lon="4.80476">
        <ele>241</ele>
        <time>2018-05-20T09:06:57Z</time>
      </trkpt>
      <trkpt lat="45.99315" lon="4.80466">
        <ele>241</ele>
        <time>2018-05-20T09:06:58Z</time>
      </trkpt>
      <trkpt lat="45.99314" lon="4.80458">
        <ele>241</ele>
        <time>2018-05-20T09:06:59Z</time>
      </trkpt>
      <trkpt lat="45.99313" lon="4.80451">
        <ele>241</ele>
        <time>2018-05-20T09:07:00Z</time>
      </trkpt>
      <trkpt lat="45.99313" lon="4.80444">
        <ele>241</ele>
        <time>2018-05-20T09:07:01Z</time>
      </trkpt>
      <trkpt lat="45.99315" lon="4.80437">
        <ele>241</ele>
        <time>2018-05-20T09:07:02Z</time>
      </trkpt>
      <trkpt lat="45.99317" lon="4.8043">
        <ele>241</ele>
        <time>2018-05-20T09:07:03Z</time>
      </trkpt>
      <trkpt lat="45.9932" lon="4.80423">
        <ele>241</ele>
        <time>2018-05-20T09:07:04Z</time>
      </trkpt>
      <trkpt lat="45.99322" lon="4.80414">
        <ele>242</ele>
        <time>2018-05-20T09:07:05Z</time>
      </trkpt>
      <trkpt lat="45.99323" lon="4.80407">
        <ele>242</ele>
        <time>2018-05-20T09:07:06Z</time>
      </trkpt>
      <trkpt lat="45.99323" lon="4.804">
        <ele>242</ele>
        <time>2018-05-20T09:07:07Z</time>
      </trkpt>
      <trkpt lat="45.9932" lon="4.80393">
        <ele>242</ele>
        <time>2018-05-20T09:07:08Z</time>
      </trkpt>
      <trkpt lat="45.99316" lon="4.80389">
        <ele>242</ele>
        <time>2018-05-20T09:07:09Z</time>
      </trkpt>
      <trkpt lat="45.99311" lon="4.80386">
        <ele>242</ele>
        <time>2018-05-20T09:07:10Z</time>
      </trkpt>
      <trkpt lat="45.99305" lon="4.80384">
        <ele>242</ele>
        <time>2018-05-20T09:07:11Z</time>
      </trkpt>
      <trkpt lat="45.993" lon="4.80383">
        <ele>242</ele>
        <time>2018-05-20T09:07:12Z</time>
      </trkpt>
      <trkpt lat="45.99294" lon="4.80383">
        <ele>242</ele>
        <time>2018-05-20T09:07:13Z</time>
      </trkpt>
      <trkpt lat="45.99288" lon="4.8038">
        <ele>242</ele>
        <time>2018-05-20T09:07:14Z</time>
      </trkpt>
      <trkpt lat="45.99282" lon="4.80378">
        <ele>242</ele>
        <time>2018-05-20T09:07:15Z</time>
      </trkpt>
      <trkpt lat="45.99275" lon="4.80375">
        <ele>243</ele>
        <time>2018-05-20T09:07:16Z</time>
      </trkpt>
      <trkpt lat="45.99269" lon="4.8037">
        <ele>243</ele>
        <time>2018-05-20T09:07:17Z</time>
      </trkpt>
      <trkpt lat="45.99264" lon="4.80363">
        <ele>243</ele>
        <time>2018-05-20T09:07:18Z</time>
      </trkpt>
      <trkpt lat="45.99259" lon="4.80355">
        <ele>243</ele>
        <time>2018-05-20T09:07:19Z</time>
      </trkpt>
      <trkpt lat="45.99254" lon="4.80349">
        <ele>243</ele>
        <time>2018-05-20T09:07:20Z</time>
      </trkpt>
      <trkpt lat="45.9925" lon="4.80341">
        <ele>243</ele>
        <time>2018-05-20T09:07:21Z</time>
      </trkpt>
      <trkpt lat="45.99245" lon="4.80333">
        <ele>243</ele>
        <time>2018-05-20T09:07:22Z</time>
      </trkpt>
      <trkpt lat="45.99241" lon="4.80325">
        <ele>243</ele>
        <time>2018-05-20T09:07:23Z</time>
      </trkpt>
      <trkpt lat="45.99237" lon="4.80318">
        <ele>243</ele>
        <time>2018-05-20T09:07:24Z</time>
      </trkpt>
      <trkpt lat="45.99232" lon="4.80311">
        <ele>243</ele>
        <time>2018-05-20T09:07:25Z</time>
      </trkpt>
      <trkpt lat="45.99228" lon="4.80305">
        <ele>242</ele>
        <time>2018-05-20T09:07:26Z</time>
      </trkpt>
      <trkpt lat="45.99222" lon="4.80298">
        <ele>242</ele>
        <time>2018-05-20T09:07:27Z</time>
      </trkpt>
      <trkpt lat="45.99216" lon="4.80292">
        <ele>242</ele>
        <time>2018-05-20T09:07:28Z</time>
      </trkpt>
      <trkpt lat="45.99211" lon="4.80283">
        <ele>242</ele>
        <time>2018-05-20T09:07:29Z</time>
      </trkpt>
      <trkpt lat="45.99207" lon="4.80276">
        <ele>242</ele>
        <time>2018-05-20T09:07:30Z</time>
      </trkpt>
      <trkpt lat="45.99201" lon="4.80269">
        <ele>242</ele>
        <time>2018-05-20T09:07:31Z</time>
      </trkpt>
      <trkpt lat="45.99196" lon="4.80263">
        <ele>242</ele>
        <time>2018-05-20T09:07:32Z</time>
      </trkpt>
      <trkpt lat="45.99191" lon="4.80256">
        <ele>242</ele>
        <time>2018-05-20T09:07:33Z</time>
      </trkpt>
      <trkpt lat="45.99187" lon="4.8025">
        <ele>242</ele>
        <time>2018-05-20T09:07:34Z</time>
      </trkpt>
      <trkpt lat="45.99182" lon="4.80245">
        <ele>242</ele>
        <time>2018-05-20T09:07:35Z</time>
      </trkpt>
      <trkpt lat="45.99177" lon="4.80239">
        <ele>242</ele>
        <time>2018-05-20T09:07:36Z</time>
      </trkpt>
      <trkpt lat="45.99172" lon="4.80233">
        <ele>242</ele>
        <time>2018-05-20T09:07:37Z</time>
      </trkpt>
      <trkpt lat="45.99166" lon="4.80227">
        <ele>241</ele>
        <time>2018-05-20T09:07:38Z</time>
      </trkpt>
      <trkpt lat="45.99161" lon="4.8022">
        <ele>241</ele>
        <time>2018-05-20T09:07:39Z</time>
      </trkpt>
      <trkpt lat="45.99156" lon="4.80214">
        <ele>242</ele>
        <time>2018-05-20T09:07:40Z</time>
      </trkpt>
      <trkpt lat="45.99151" lon="4.80208">
        <ele>242</ele>
        <time>2018-05-20T09:07:41Z</time>
      </trkpt>
      <trkpt lat="45.99145" lon="4.80203">
        <ele>242</ele>
        <time>2018-05-20T09:07:42Z</time>
      </trkpt>
      <trkpt lat="45.9914" lon="4.80196">
        <ele>242</ele>
        <time>2018-05-20T09:07:43Z</time>
      </trkpt>
      <trkpt lat="45.99134" lon="4.8019">
        <ele>242</ele>
        <time>2018-05-20T09:07:44Z</time>
      </trkpt>
      <trkpt lat="45.99129" lon="4.80185">
        <ele>242</ele>
        <time>2018-05-20T09:07:45Z</time>
      </trkpt>
      <trkpt lat="45.99124" lon="4.80178">
        <ele>242</ele>
        <time>2018-05-20T09:07:46Z</time>
      </trkpt>
      <trkpt lat="45.99119" lon="4.80172">
        <ele>242</ele>
        <time>2018-05-20T09:07:47Z</time>
      </trkpt>
      <trkpt lat="45.99113" lon="4.80165">
        <ele>243</ele>
        <time>2018-05-20T09:07:48Z</time>
      </trkpt>
      <trkpt lat="45.99107" lon="4.80158">
        <ele>243</ele>
        <time>2018-05-20T09:07:49Z</time>
      </trkpt>
      <trkpt lat="45.99102" lon="4.80151">
        <ele>243</ele>
        <time>2018-05-20T09:07:50Z</time>
      </trkpt>
      <trkpt lat="45.99097" lon="4.80144">
        <ele>243</ele>
        <time>2018-05-20T09:07:51Z</time>
      </trkpt>
      <trkpt lat="45.99092" lon="4.80139">
        <ele>243</ele>
        <time>2018-05-20T09:07:52Z</time>
      </trkpt>
      <trkpt lat="45.99086" lon="4.80132">
        <ele>243</ele>
        <time>2018-05-20T09:07:53Z</time>
      </trkpt>
      <trkpt lat="45.99081" lon="4.80125">
        <ele>242</ele>
        <time>2018-05-20T09:07:54Z</time>
      </trkpt>
      <trkpt lat="45.99075" lon="4.80119">
        <ele>242</ele>
        <time>2018-05-20T09:07:55Z</time>
      </trkpt>
      <trkpt lat="45.9907" lon="4.80113">
        <ele>242</ele>
        <time>2018-05-20T09:07:56Z</time>
      </trkpt>
      <trkpt lat="45.99065" lon="4.80106">
        <ele>242</ele>
        <time>2018-05-20T09:07:57Z</time>
      </trkpt>
      <trkpt lat="45.9906" lon="4.801">
        <ele>242</ele>
        <time>2018-05-20T09:07:58Z</time>
      </trkpt>
      <trkpt lat="45.99055" lon="4.80094">
        <ele>242</ele>
        <time>2018-05-20T09:07:59Z</time>
      </trkpt>
      <trkpt lat="45.99049" lon="4.8009">
        <ele>242</ele>
        <time>2018-05-20T09:08:00Z</time>
      </trkpt>
      <trkpt lat="45.99045" lon="4.80084">
        <ele>242</ele>
        <time>2018-05-20T09:08:01Z</time>
      </trkpt>
      <trkpt lat="45.9904" lon="4.80077">
        <ele>244</ele>
        <time>2018-05-20T09:08:02Z</time>
      </trkpt>
      <trkpt lat="45.99034" lon="4.80071">
        <ele>244</ele>
        <time>2018-05-20T09:08:03Z</time>
      </trkpt>
      <trkpt lat="45.99029" lon="4.80064">
        <ele>243</ele>
        <time>2018-05-20T09:08:04Z</time>
      </trkpt>
      <trkpt lat="45.99023" lon="4.80058">
        <ele>244</ele>
        <time>2018-05-20T09:08:05Z</time>
      </trkpt>
      <trkpt lat="45.99018" lon="4.80051">
        <ele>244</ele>
        <time>2018-05-20T09:08:06Z</time>
      </trkpt>
      <trkpt lat="45.99012" lon="4.80045">
        <ele>244</ele>
        <time>2018-05-20T09:08:07Z</time>
      </trkpt>
      <trkpt lat="45.99007" lon="4.80039">
        <ele>244</ele>
        <time>2018-05-20T09:08:08Z</time>
      </trkpt>
      <trkpt lat="45.99001" lon="4.80033">
        <ele>244</ele>
        <time>2018-05-20T09:08:09Z</time>
      </trkpt>
      <trkpt lat="45.98996" lon="4.80026">
        <ele>243</ele>
        <time>2018-05-20T09:08:10Z</time>
      </trkpt>
      <trkpt lat="45.98991" lon="4.8002">
        <ele>243</ele>
        <time>2018-05-20T09:08:11Z</time>
      </trkpt>
      <trkpt lat="45.98986" lon="4.80014">
        <ele>243</ele>
        <time>2018-05-20T09:08:12Z</time>
      </trkpt>
      <trkpt lat="45.9898" lon="4.80008">
        <ele>243</ele>
        <time>2018-05-20T09:08:13Z</time>
      </trkpt>
      <trkpt lat="45.98974" lon="4.80002">
        <ele>243</ele>
        <time>2018-05-20T09:08:14Z</time>
      </trkpt>
      <trkpt lat="45.98969" lon="4.79995">
        <ele>245</ele>
        <time>2018-05-20T09:08:15Z</time>
      </trkpt>
      <trkpt lat="45.98963" lon="4.79989">
        <ele>245</ele>
        <time>2018-05-20T09:08:16Z</time>
      </trkpt>
      <trkpt lat="45.98958" lon="4.79982">
        <ele>245</ele>
        <time>2018-05-20T09:08:17Z</time>
      </trkpt>
      <trkpt lat="45.98953" lon="4.79976">
        <ele>245</ele>
        <time>2018-05-20T09:08:18Z</time>
      </trkpt>
      <trkpt lat="45.98947" lon="4.7997">
        <ele>245</ele>
        <time>2018-05-20T09:08:19Z</time>
      </trkpt>
      <trkpt lat="45.98942" lon="4.79964">
        <ele>245</ele>
        <time>2018-05-20T09:08:20Z</time>
      </trkpt>
      <trkpt lat="45.98937" lon="4.79958">
        <ele>245</ele>
        <time>2018-05-20T09:08:21Z</time>
      </trkpt>
      <trkpt lat="45.98931" lon="4.79953">
        <ele>245</ele>
        <time>2018-05-20T09:08:22Z</time>
      </trkpt>
      <trkpt lat="45.98925" lon="4.79945">
        <ele>245</ele>
        <time>2018-05-20T09:08:23Z</time>
      </trkpt>
      <trkpt lat="45.98921" lon="4.79941">
        <ele>245</ele>
        <time>2018-05-20T09:08:24Z</time>
      </trkpt>
      <trkpt lat="45.98916" lon="4.79935">
        <ele>244</ele>
        <time>2018-05-20T09:08:25Z</time>
      </trkpt>
      <trkpt lat="45.9891" lon="4.7993">
        <ele>244</ele>
        <time>2018-05-20T09:08:26Z</time>
      </trkpt>
      <trkpt lat="45.98905" lon="4.79924">
        <ele>244</ele>
        <time>2018-05-20T09:08:27Z</time>
      </trkpt>
      <trkpt lat="45.98899" lon="4.79918">
        <ele>244</ele>
        <time>2018-05-20T09:08:28Z</time>
      </trkpt>
      <trkpt lat="45.98894" lon="4.79912">
        <ele>244</ele>
        <time>2018-05-20T09:08:29Z</time>
      </trkpt>
      <trkpt lat="45.98888" lon="4.79906">
        <ele>244</ele>
        <time>2018-05-20T09:08:30Z</time>
      </trkpt>
      <trkpt lat="45.98883" lon="4.79899">
        <ele>244</ele>
        <time>2018-05-20T09:08:31Z</time>
      </trkpt>
      <trkpt lat="45.98878" lon="4.79893">
        <ele>244</ele>
        <time>2018-05-20T09:08:32Z</time>
      </trkpt>
      <trkpt lat="45.98872" lon="4.79888">
        <ele>244</ele>
        <time>2018-05-20T09:08:33Z</time>
      </trkpt>
      <trkpt lat="45.98867" lon="4.79882">
        <ele>244</ele>
        <time>2018-05-20T09:08:34Z</time>
      </trkpt>
      <trkpt lat="45.98862" lon="4.79875">
        <ele>244</ele>
        <time>2018-05-20T09:08:35Z</time>
      </trkpt>
      <trkpt lat="45.98857" lon="4.79869">
        <ele>244</ele>
        <time>2018-05-20T09:08:36Z</time>
      </trkpt>
      <trkpt lat="45.98852" lon="4.79863">
        <ele>244</ele>
        <time>2018-05-20T09:08:37Z</time>
      </trkpt>
      <trkpt lat="45.98847" lon="4.79857">
        <ele>244</ele>
        <time>2018-05-20T09:08:38Z</time>
      </trkpt>
      <trkpt lat="45.98841" lon="4.79851">
        <ele>244</ele>
        <time>2018-05-20T09:08:39Z</time>
      </trkpt>
      <trkpt lat="45.98837" lon="4.79845">
        <ele>244</ele>
        <time>2018-05-20T09:08:40Z</time>
      </trkpt>
      <trkpt lat="45.98831" lon="4.79839">
        <ele>244</ele>
        <time>2018-05-20T09:08:41Z</time>
      </trkpt>
      <trkpt lat="45.98826" lon="4.79833">
        <ele>244</ele>
        <time>2018-05-20T09:08:42Z</time>
      </trkpt>
      <trkpt lat="45.98822" lon="4.79828">
        <ele>244</ele>
        <time>2018-05-20T09:08:43Z</time>
      </trkpt>
      <trkpt lat="45.98817" lon="4.79821">
        <ele>245</ele>
        <time>2018-05-20T09:08:44Z</time>
      </trkpt>
      <trkpt lat="45.98812" lon="4.79815">
        <ele>245</ele>
        <time>2018-05-20T09:08:45Z</time>
      </trkpt>
      <trkpt lat="45.98807" lon="4.7981">
        <ele>245</ele>
        <time>2018-05-20T09:08:46Z</time>
      </trkpt>
      <trkpt lat="45.98801" lon="4.79804">
        <ele>245</ele>
        <time>2018-05-20T09:08:47Z</time>
      </trkpt>
      <trkpt lat="45.98797" lon="4.79798">
        <ele>245</ele>
        <time>2018-05-20T09:08:48Z</time>
      </trkpt>
      <trkpt lat="45.98793" lon="4.79793">
        <ele>245</ele>
        <time>2018-05-20T09:08:49Z</time>
      </trkpt>
      <trkpt lat="45.98787" lon="4.79788">
        <ele>245</ele>
        <time>2018-05-20T09:08:50Z</time>
      </trkpt>
      <trkpt lat="45.98783" lon="4.79783">
        <ele>245</ele>
        <time>2018-05-20T09:08:51Z</time>
      </trkpt>
      <trkpt lat="45.98778" lon="4.79777">
        <ele>245</ele>
        <time>2018-05-20T09:08:52Z</time>
      </trkpt>
      <trkpt lat="45.98773" lon="4.79772">
        <ele>245</ele>
        <time>2018-05-20T09:08:53Z</time>
      </trkpt>
      <trkpt lat="45.98769" lon="4.79767">
        <ele>245</ele>
        <time>2018-05-20T09:08:54Z</time>
      </trkpt>
      <trkpt lat="45.98765" lon="4.79763">
        <ele>245</ele>
        <time>2018-05-20T09:08:55Z</time>
      </trkpt>
      <trkpt lat="45.98761" lon="4.79758">
        <ele>245</ele>
        <time>2018-05-20T09:08:56Z</time>
      </trkpt>
      <trkpt lat="45.98756" lon="4.79754">
        <ele>245</ele>
        <time>2018-05-20T09:08:57Z</time>
      </trkpt>
      <trkpt lat="45.98751" lon="4.79749">
        <ele>245</ele>
        <time>2018-05-20T09:08:58Z</time>
      </trkpt>
      <trkpt lat="45.98746" lon="4.79745">
        <ele>245</ele>
        <time>2018-05-20T09:08:59Z</time>
      </trkpt>
      <trkpt lat="45.98741" lon="4.79742">
        <ele>245</ele>
        <time>2018-05-20T09:09:00Z</time>
      </trkpt>
      <trkpt lat="45.98736" lon="4.79738">
        <ele>245</ele>
        <time>2018-05-20T09:09:01Z</time>
      </trkpt>
      <trkpt lat="45.98731" lon="4.79734">
        <ele>245</ele>
        <time>2018-05-20T09:09:02Z</time>
      </trkpt>
      <trkpt lat="45.98725" lon="4.7973">
        <ele>245</ele>
        <time>2018-05-20T09:09:03Z</time>
      </trkpt>
      <trkpt lat="45.9872" lon="4.79726">
        <ele>245</ele>
        <time>2018-05-20T09:09:04Z</time>
      </trkpt>
      <trkpt lat="45.98715" lon="4.79723">
        <ele>245</ele>
        <time>2018-05-20T09:09:05Z</time>
      </trkpt>
      <trkpt lat="45.9871" lon="4.79721">
        <ele>245</ele>
        <time>2018-05-20T09:09:06Z</time>
      </trkpt>
      <trkpt lat="45.98705" lon="4.79718">
        <ele>245</ele>
        <time>2018-05-20T09:09:07Z</time>
      </trkpt>
      <trkpt lat="45.98699" lon="4.79717">
        <ele>245</ele>
        <time>2018-05-20T09:09:08Z</time>
      </trkpt>
      <trkpt lat="45.98693" lon="4.79714">
        <ele>245</ele>
        <time>2018-05-20T09:09:09Z</time>
      </trkpt>
      <trkpt lat="45.98687" lon="4.7971">
        <ele>245</ele>
        <time>2018-05-20T09:09:10Z</time>
      </trkpt>
      <trkpt lat="45.98682" lon="4.79707">
        <ele>245</ele>
        <time>2018-05-20T09:09:11Z</time>
      </trkpt>
      <trkpt lat="45.98675" lon="4.79704">
        <ele>245</ele>
        <time>2018-05-20T09:09:12Z</time>
      </trkpt>
      <trkpt lat="45.98669" lon="4.797">
        <ele>245</ele>
        <time>2018-05-20T09:09:13Z</time>
      </trkpt>
      <trkpt lat="45.98664" lon="4.79696">
        <ele>245</ele>
        <time>2018-05-20T09:09:14Z</time>
      </trkpt>
      <trkpt lat="45.98659" lon="4.7969">
        <ele>245</ele>
        <time>2018-05-20T09:09:15Z</time>
      </trkpt>
      <trkpt lat="45.98655" lon="4.79684">
        <ele>245</ele>
        <time>2018-05-20T09:09:16Z</time>
      </trkpt>
      <trkpt lat="45.98651" lon="4.79678">
        <ele>245</ele>
        <time>2018-05-20T09:09:17Z</time>
      </trkpt>
      <trkpt lat="45.98647" lon="4.79672">
        <ele>245</ele>
        <time>2018-05-20T09:09:18Z</time>
      </trkpt>
      <trkpt lat="45.98644" lon="4.79665">
        <ele>245</ele>
        <time>2018-05-20T09:09:19Z</time>
      </trkpt>
      <trkpt lat="45.9864" lon="4.79658">
        <ele>245</ele>
        <time>2018-05-20T09:09:20Z</time>
      </trkpt>
      <trkpt lat="45.98637" lon="4.79652">
        <ele>245</ele>
        <time>2018-05-20T09:09:21Z</time>
      </trkpt>
      <trkpt lat="45.98635" lon="4.79645">
        <ele>245</ele>
        <time>2018-05-20T09:09:22Z</time>
      </trkpt>
      <trkpt lat="45.98632" lon="4.79638">
        <ele>245</ele>
        <time>2018-05-20T09:09:23Z</time>
      </trkpt>
      <trkpt lat="45.9863" lon="4.79631">
        <ele>245</ele>
        <time>2018-05-20T09:09:24Z</time>
      </trkpt>
      <trkpt lat="45.98628" lon="4.79623">
        <ele>245</ele>
        <time>2018-05-20T09:09:25Z</time>
      </trkpt>
      <trkpt lat="45.98628" lon="4.79615">
        <ele>245</ele>
        <time>2018-05-20T09:09:26Z</time>
      </trkpt>
      <trkpt lat="45.98627" lon="4.79607">
        <ele>245</ele>
        <time>2018-05-20T09:09:27Z</time>
      </trkpt>
      <trkpt lat="45.98625" lon="4.796">
        <ele>245</ele>
        <time>2018-05-20T09:09:28Z</time>
      </trkpt>
      <trkpt lat="45.98622" lon="4.79593">
        <ele>245</ele>
        <time>2018-05-20T09:09:29Z</time>
      </trkpt>
      <trkpt lat="45.98617" lon="4.79587">
        <ele>245</ele>
        <time>2018-05-20T09:09:30Z</time>
      </trkpt>
      <trkpt lat="45.98612" lon="4.79583">
        <ele>245</ele>
        <time>2018-05-20T09:09:31Z</time>
      </trkpt>
      <trkpt lat="45.98606" lon="4.79581">
        <ele>245</ele>
        <time>2018-05-20T09:09:32Z</time>
      </trkpt>
      <trkpt lat="45.986" lon="4.79581">
        <ele>245</ele>
        <time>2018-05-20T09:09:33Z</time>
      </trkpt>
      <trkpt lat="45.98593" lon="4.79582">
        <ele>245</ele>
        <time>2018-05-20T09:09:34Z</time>
      </trkpt>
      <trkpt lat="45.98587" lon="4.79584">
        <ele>245</ele>
        <time>2018-05-20T09:09:35Z</time>
      </trkpt>
      <trkpt lat="45.98581" lon="4.79583">
        <ele>245</ele>
        <time>2018-05-20T09:09:36Z</time>
      </trkpt>
      <trkpt lat="45.98575" lon="4.7958">
        <ele>245</ele>
        <time>2018-05-20T09:09:37Z</time>
      </trkpt>
      <trkpt lat="45.98569" lon="4.79576">
        <ele>245</ele>
        <time>2018-05-20T09:09:38Z</time>
      </trkpt>
      <trkpt lat="45.98564" lon="4.79572">
        <ele>244</ele>
        <time>2018-05-20T09:09:39Z</time>
      </trkpt>
      <trkpt lat="45.98559" lon="4.79567">
        <ele>244</ele>
        <time>2018-05-20T09:09:40Z</time>
      </trkpt>
      <trkpt lat="45.98554" lon="4.79561">
        <ele>244</ele>
        <time>2018-05-20T09:09:41Z</time>
      </trkpt>
      <trkpt lat="45.98548" lon="4.79554">
        <ele>244</ele>
        <time>2018-05-20T09:09:42Z</time>
      </trkpt>
      <trkpt lat="45.98544" lon="4.79547">
        <ele>244</ele>
        <time>2018-05-20T09:09:43Z</time>
      </trkpt>
      <trkpt lat="45.9854" lon="4.79539">
        <ele>244</ele>
        <time>2018-05-20T09:09:44Z</time>
      </trkpt>
      <trkpt lat="45.98537" lon="4.7953">
        <ele>244</ele>
        <time>2018-05-20T09:09:45Z</time>
      </trkpt>
      <trkpt lat="45.98533" lon="4.79521">
        <ele>244</ele>
        <time>2018-05-20T09:09:46Z</time>
      </trkpt>
      <trkpt lat="45.98531" lon="4.79512">
        <ele>244</ele>
        <time>2018-05-20T09:09:47Z</time>
      </trkpt>
      <trkpt lat="45.98529" lon="4.79502">
        <ele>244</ele>
        <time>2018-05-20T09:09:48Z</time>
      </trkpt>
      <trkpt lat="45.98527" lon="4.79492">
        <ele>244</ele>
        <time>2018-05-20T09:09:49Z</time>
      </trkpt>
      <trkpt lat="45.98526" lon="4.79483">
        <ele>244</ele>
        <time>2018-05-20T09:09:50Z</time>
      </trkpt>
      <trkpt lat="45.98525" lon="4.79474">
        <ele>244</ele>
        <time>2018-05-20T09:09:51Z</time>
      </trkpt>
      <trkpt lat="45.98525" lon="4.79465">
        <ele>244</ele>
        <time>2018-05-20T09:09:52Z</time>
      </trkpt>
      <trkpt lat="45.98525" lon="4.79456">
        <ele>244</ele>
        <time>2018-05-20T09:09:53Z</time>
      </trkpt>
      <trkpt lat="45.98525" lon="4.79447">
        <ele>244</ele>
        <time>2018-05-20T09:09:54Z</time>
      </trkpt>
      <trkpt lat="45.98525" lon="4.79438">
        <ele>244</ele>
        <time>2018-05-20T09:09:55Z</time>
      </trkpt>
      <trkpt lat="45.98523" lon="4.79429">
        <ele>244</ele>
        <time>2018-05-20T09:09:56Z</time>
      </trkpt>
      <trkpt lat="45.98523" lon="4.7942">
        <ele>244</ele>
        <time>2018-05-20T09:09:57Z</time>
      </trkpt>
      <trkpt lat="45.98522" lon="4.79411">
        <ele>244</ele>
        <time>2018-05-20T09:09:58Z</time>
      </trkpt>
      <trkpt lat="45.9852" lon="4.79403">
        <ele>244</ele>
        <time>2018-05-20T09:09:59Z</time>
      </trkpt>
      <trkpt lat="45.98518" lon="4.79393">
        <ele>244</ele>
        <time>2018-05-20T09:10:00Z</time>
      </trkpt>
      <trkpt lat="45.98517" lon="4.79384">
        <ele>244</ele>
        <time>2018-05-20T09:10:01Z</time>
      </trkpt>
      <trkpt lat="45.98515" lon="4.79374">
        <ele>243</ele>
        <time>2018-05-20T09:10:02Z</time>
      </trkpt>
      <trkpt lat="45.98513" lon="4.79364">
        <ele>243</ele>
        <time>2018-05-20T09:10:03Z</time>
      </trkpt>
      <trkpt lat="45.98511" lon="4.79355">
        <ele>243</ele>
        <time>2018-05-20T09:10:04Z</time>
      </trkpt>
      <trkpt lat="45.98508" lon="4.79346">
        <ele>243</ele>
        <time>2018-05-20T09:10:05Z</time>
      </trkpt>
      <trkpt lat="45.98506" lon="4.79337">
        <ele>243</ele>
        <time>2018-05-20T09:10:06Z</time>
      </trkpt>
      <trkpt lat="45.98503" lon="4.79328">
        <ele>243</ele>
        <time>2018-05-20T09:10:07Z</time>
      </trkpt>
      <trkpt lat="45.985" lon="4.79321">
        <ele>243</ele>
        <time>2018-05-20T09:10:08Z</time>
      </trkpt>
      <trkpt lat="45.98495" lon="4.79313">
        <ele>243</ele>
        <time>2018-05-20T09:10:09Z</time>
      </trkpt>
      <trkpt lat="45.98493" lon="4.79306">
        <ele>243</ele>
        <time>2018-05-20T09:10:10Z</time>
      </trkpt>
      <trkpt lat="45.98489" lon="4.79297">
        <ele>243</ele>
        <time>2018-05-20T09:10:11Z</time>
      </trkpt>
      <trkpt lat="45.98486" lon="4.79289">
        <ele>243</ele>
        <time>2018-05-20T09:10:12Z</time>
      </trkpt>
      <trkpt lat="45.98484" lon="4.79282">
        <ele>243</ele>
        <time>2018-05-20T09:10:13Z</time>
      </trkpt>
      <trkpt lat="45.9848" lon="4.79274">
        <ele>243</ele>
        <time>2018-05-20T09:10:14Z</time>
      </trkpt>
      <trkpt lat="45.98476" lon="4.79267">
        <ele>243</ele>
        <time>2018-05-20T09:10:15Z</time>
      </trkpt>
      <trkpt lat="45.98472" lon="4.79259">
        <ele>243</ele>
        <time>2018-05-20T09:10:16Z</time>
      </trkpt>
      <trkpt lat="45.98469" lon="4.79251">
        <ele>243</ele>
        <time>2018-05-20T09:10:17Z</time>
      </trkpt>
      <trkpt lat="45.98464" lon="4.79245">
        <ele>243</ele>
        <time>2018-05-20T09:10:18Z</time>
      </trkpt>
      <trkpt lat="45.9846" lon="4.79238">
        <ele>243</ele>
        <time>2018-05-20T09:10:19Z</time>
      </trkpt>
      <trkpt lat="45.98457" lon="4.7923">
        <ele>243</ele>
        <time>2018-05-20T09:10:20Z</time>
      </trkpt>
      <trkpt lat="45.98452" lon="4.79225">
        <ele>243</ele>
        <time>2018-05-20T09:10:21Z</time>
      </trkpt>
      <trkpt lat="45.98448" lon="4.79218">
        <ele>242</ele>
        <time>2018-05-20T09:10:22Z</time>
      </trkpt>
      <trkpt lat="45.98444" lon="4.79211">
        <ele>242</ele>
        <time>2018-05-20T09:10:23Z</time>
      </trkpt>
      <trkpt lat="45.98441" lon="4.79205">
        <ele>242</ele>
        <time>2018-05-20T09:10:24Z</time>
      </trkpt>
      <trkpt lat="45.98437" lon="4.79198">
        <ele>242</ele>
        <time>2018-05-20T09:10:25Z</time>
      </trkpt>
      <trkpt lat="45.98433" lon="4.79191">
        <ele>242</ele>
        <time>2018-05-20T09:10:26Z</time>
      </trkpt>
      <trkpt lat="45.9843" lon="4.79182">
        <ele>242</ele>
        <time>2018-05-20T09:10:27Z</time>
      </trkpt>
      <trkpt lat="45.98423" lon="4.79175">
        <ele>242</ele>
        <time>2018-05-20T09:10:28Z</time>
      </trkpt>
      <trkpt lat="45.9842" lon="4.79167">
        <ele>242</ele>
        <time>2018-05-20T09:10:29Z</time>
      </trkpt>
      <trkpt lat="45.98415" lon="4.7916">
        <ele>242</ele>
        <time>2018-05-20T09:10:30Z</time>
      </trkpt>
      <trkpt lat="45.98411" lon="4.79153">
        <ele>242</ele>
        <time>2018-05-20T09:10:31Z</time>
      </trkpt>
      <trkpt lat="45.98408" lon="4.79146">
        <ele>242</ele>
        <time>2018-05-20T09:10:32Z</time>
      </trkpt>
      <trkpt lat="45.98404" lon="4.79139">
        <ele>242</ele>
        <time>2018-05-20T09:10:33Z</time>
      </trkpt>
      <trkpt lat="45.98401" lon="4.79132">
        <ele>242</ele>
        <time>2018-05-20T09:10:34Z</time>
      </trkpt>
      <trkpt lat="45.98398" lon="4.79125">
        <ele>242</ele>
        <time>2018-05-20T09:10:35Z</time>
      </trkpt>
      <trkpt lat="45.98394" lon="4.79118">
        <ele>242</ele>
        <time>2018-05-20T09:10:36Z</time>
      </trkpt>
      <trkpt lat="45.98391" lon="4.79111">
        <ele>242</ele>
        <time>2018-05-20T09:10:37Z</time>
      </trkpt>
      <trkpt lat="45.98388" lon="4.79103">
        <ele>242</ele>
        <time>2018-05-20T09:10:38Z</time>
      </trkpt>
      <trkpt lat="45.98384" lon="4.79095">
        <ele>242</ele>
        <time>2018-05-20T09:10:39Z</time>
      </trkpt>
      <trkpt lat="45.98381" lon="4.79087">
        <ele>242</ele>
        <time>2018-05-20T09:10:40Z</time>
      </trkpt>
      <trkpt lat="45.98378" lon="4.7908">
        <ele>242</ele>
        <time>2018-05-20T09:10:41Z</time>
      </trkpt>
      <trkpt lat="45.98373" lon="4.79074">
        <ele>242</ele>
        <time>2018-05-20T09:10:42Z</time>
      </trkpt>
      <trkpt lat="45.98371" lon="4.79066">
        <ele>242</ele>
        <time>2018-05-20T09:10:43Z</time>
      </trkpt>
      <trkpt lat="45.98366" lon="4.79061">
        <ele>242</ele>
        <time>2018-05-20T09:10:44Z</time>
      </trkpt>
      <trkpt lat="45.98362" lon="4.79054">
        <ele>242</ele>
        <time>2018-05-20T09:10:45Z</time>
      </trkpt>
      <trkpt lat="45.98359" lon="4.79047">
        <ele>242</ele>
        <time>2018-05-20T09:10:46Z</time>
      </trkpt>
      <trkpt lat="45.98355" lon="4.7904">
        <ele>242</ele>
        <time>2018-05-20T09:10:47Z</time>
      </trkpt>
      <trkpt lat="45.98351" lon="4.79034">
        <ele>242</ele>
        <time>2018-05-20T09:10:48Z</time>
      </trkpt>
      <trkpt lat="45.98347" lon="4.79027">
        <ele>242</ele>
        <time>2018-05-20T09:10:49Z</time>
      </trkpt>
      <trkpt lat="45.98341" lon="4.79021">
        <ele>242</ele>
        <time>2018-05-20T09:10:50Z</time>
      </trkpt>
      <trkpt lat="45.98336" lon="4.79015">
        <ele>242</ele>
        <time>2018-05-20T09:10:51Z</time>
      </trkpt>
      <trkpt lat="45.9833" lon="4.79009">
        <ele>242</ele>
        <time>2018-05-20T09:10:52Z</time>
      </trkpt>
      <trkpt lat="45.98324" lon="4.79005">
        <ele>242</ele>
        <time>2018-05-20T09:10:53Z</time>
      </trkpt>
      <trkpt lat="45.98319" lon="4.79001">
        <ele>242</ele>
        <time>2018-05-20T09:10:54Z</time>
      </trkpt>
      <trkpt lat="45.98312" lon="4.78997">
        <ele>241</ele>
        <time>2018-05-20T09:10:55Z</time>
      </trkpt>
      <trkpt lat="45.98304" lon="4.78994">
        <ele>241</ele>
        <time>2018-05-20T09:10:56Z</time>
      </trkpt>
      <trkpt lat="45.98297" lon="4.7899">
        <ele>241</ele>
        <time>2018-05-20T09:10:57Z</time>
      </trkpt>
      <trkpt lat="45.98291" lon="4.78985">
        <ele>241</ele>
        <time>2018-05-20T09:10:58Z</time>
      </trkpt>
      <trkpt lat="45.98284" lon="4.78982">
        <ele>241</ele>
        <time>2018-05-20T09:10:59Z</time>
      </trkpt>
      <trkpt lat="45.98279" lon="4.78978">
        <ele>241</ele>
        <time>2018-05-20T09:11:00Z</time>
      </trkpt>
      <trkpt lat="45.98272" lon="4.78975">
        <ele>241</ele>
        <time>2018-05-20T09:11:01Z</time>
      </trkpt>
      <trkpt lat="45.98265" lon="4.78972">
        <ele>241</ele>
        <time>2018-05-20T09:11:02Z</time>
      </trkpt>
      <trkpt lat="45.98258" lon="4.78968">
        <ele>241</ele>
        <time>2018-05-20T09:11:03Z</time>
      </trkpt>
      <trkpt lat="45.98252" lon="4.78963">
        <ele>241</ele>
        <time>2018-05-20T09:11:04Z</time>
      </trkpt>
      <trkpt lat="45.98246" lon="4.78959">
        <ele>241</ele>
        <time>2018-05-20T09:11:05Z</time>
      </trkpt>
      <trkpt lat="45.9824" lon="4.78956">
        <ele>241</ele>
        <time>2018-05-20T09:11:06Z</time>
      </trkpt>
      <trkpt lat="45.98235" lon="4.78952">
        <ele>241</ele>
        <time>2018-05-20T09:11:07Z</time>
      </trkpt>
      <trkpt lat="45.98229" lon="4.78948">
        <ele>241</ele>
        <time>2018-05-20T09:11:08Z</time>
      </trkpt>
      <trkpt lat="45.98224" lon="4.78946">
        <ele>241</ele>
        <time>2018-05-20T09:11:09Z</time>
      </trkpt>
      <trkpt lat="45.98218" lon="4.78942">
        <ele>241</ele>
        <time>2018-05-20T09:11:10Z</time>
      </trkpt>
      <trkpt lat="45.98213" lon="4.78939">
        <ele>241</ele>
        <time>2018-05-20T09:11:11Z</time>
      </trkpt>
      <trkpt lat="45.98206" lon="4.78937">
        <ele>241</ele>
        <time>2018-05-20T09:11:12Z</time>
      </trkpt>
      <trkpt lat="45.982" lon="4.78932">
        <ele>241</ele>
        <time>2018-05-20T09:11:13Z</time>
      </trkpt>
      <trkpt lat="45.98197" lon="4.78928">
        <ele>241</ele>
        <time>2018-05-20T09:11:14Z</time>
      </trkpt>
      <trkpt lat="45.98191" lon="4.78927">
        <ele>241</ele>
        <time>2018-05-20T09:11:15Z</time>
      </trkpt>
      <trkpt lat="45.98187" lon="4.78925">
        <ele>241</ele>
        <time>2018-05-20T09:11:16Z</time>
      </trkpt>
      <trkpt lat="45.98181" lon="4.7892">
        <ele>240</ele>
        <time>2018-05-20T09:11:17Z</time>
      </trkpt>
      <trkpt lat="45.98172" lon="4.78917">
        <ele>240</ele>
        <time>2018-05-20T09:11:18Z</time>
      </trkpt>
      <trkpt lat="45.98166" lon="4.78914">
        <ele>240</ele>
        <time>2018-05-20T09:11:19Z</time>
      </trkpt>
      <trkpt lat="45.9816" lon="4.7891">
        <ele>240</ele>
        <time>2018-05-20T09:11:20Z</time>
      </trkpt>
      <trkpt lat="45.98153" lon="4.78905">
        <ele>240</ele>
        <time>2018-05-20T09:11:21Z</time>
      </trkpt>
      <trkpt lat="45.98147" lon="4.78903">
        <ele>240</ele>
        <time>2018-05-20T09:11:22Z</time>
      </trkpt>
      <trkpt lat="45.98141" lon="4.78899">
        <ele>240</ele>
        <time>2018-05-20T09:11:23Z</time>
      </trkpt>
      <trkpt lat="45.98131" lon="4.78896">
        <ele>240</ele>
        <time>2018-05-20T09:11:24Z</time>
      </trkpt>
      <trkpt lat="45.98125" lon="4.78891">
        <ele>240</ele>
        <time>2018-05-20T09:11:25Z</time>
      </trkpt>
      <trkpt lat="45.98119" lon="4.78888">
        <ele>240</ele>
        <time>2018-05-20T09:11:26Z</time>
      </trkpt>
      <trkpt lat="45.98112" lon="4.78883">
        <ele>240</ele>
        <time>2018-05-20T09:11:27Z</time>
      </trkpt>
      <trkpt lat="45.98104" lon="4.7888">
        <ele>240</ele>
        <time>2018-05-20T09:11:28Z</time>
      </trkpt>
      <trkpt lat="45.98098" lon="4.78876">
        <ele>240</ele>
        <time>2018-05-20T09:11:29Z</time>
      </trkpt>
      <trkpt lat="45.98093" lon="4.78874">
        <ele>239</ele>
        <time>2018-05-20T09:11:30Z</time>
      </trkpt>
      <trkpt lat="45.98087" lon="4.7887">
        <ele>239</ele>
        <time>2018-05-20T09:11:31Z</time>
      </trkpt>
      <trkpt lat="45.98082" lon="4.78864">
        <ele>239</ele>
        <time>2018-05-20T09:11:32Z</time>
      </trkpt>
      <trkpt lat="45.98076" lon="4.78858">
        <ele>239</ele>
        <time>2018-05-20T09:11:33Z</time>
      </trkpt>
      <trkpt lat="45.98069" lon="4.78853">
        <ele>239</ele>
        <time>2018-05-20T09:11:34Z</time>
      </trkpt>
      <trkpt lat="45.98062" lon="4.78848">
        <ele>239</ele>
        <time>2018-05-20T09:11:35Z</time>
      </trkpt>
      <trkpt lat="45.98054" lon="4.78844">
        <ele>239</ele>
        <time>2018-05-20T09:11:36Z</time>
      </trkpt>
      <trkpt lat="45.98047" lon="4.7884">
        <ele>238</ele>
        <time>2018-05-20T09:11:37Z</time>
      </trkpt>
      <trkpt lat="45.9804" lon="4.78837">
        <ele>238</ele>
        <time>2018-05-20T09:11:38Z</time>
      </trkpt>
      <trkpt lat="45.98033" lon="4.78833">
        <ele>238</ele>
        <time>2018-05-20T09:11:39Z</time>
      </trkpt>
      <trkpt lat="45.98026" lon="4.78827">
        <ele>238</ele>
        <time>2018-05-20T09:11:40Z</time>
      </trkpt>
      <trkpt lat="45.98018" lon="4.78821">
        <ele>238</ele>
        <time>2018-05-20T09:11:41Z</time>
      </trkpt>
      <trkpt lat="45.98009" lon="4.78816">
        <ele>238</ele>
        <time>2018-05-20T09:11:42Z</time>
      </trkpt>
      <trkpt lat="45.98003" lon="4.78812">
        <ele>238</ele>
        <time>2018-05-20T09:11:43Z</time>
      </trkpt>
      <trkpt lat="45.97997" lon="4.78807">
        <ele>238</ele>
        <time>2018-05-20T09:11:44Z</time>
      </trkpt>
      <trkpt lat="45.9799" lon="4.78802">
        <ele>238</ele>
        <time>2018-05-20T09:11:45Z</time>
      </trkpt>
      <trkpt lat="45.97981" lon="4.78797">
        <ele>238</ele>
        <time>2018-05-20T09:11:46Z</time>
      </trkpt>
      <trkpt lat="45.97975" lon="4.78792">
        <ele>238</ele>
        <time>2018-05-20T09:11:47Z</time>
      </trkpt>
      <trkpt lat="45.97968" lon="4.78788">
        <ele>238</ele>
        <time>2018-05-20T09:11:48Z</time>
      </trkpt>
      <trkpt lat="45.97963" lon="4.78783">
        <ele>238</ele>
        <time>2018-05-20T09:11:49Z</time>
      </trkpt>
      <trkpt lat="45.97957" lon="4.78779">
        <ele>238</ele>
        <time>2018-05-20T09:11:50Z</time>
      </trkpt>
      <trkpt lat="45.97949" lon="4.78774">
        <ele>238</ele>
        <time>2018-05-20T09:11:51Z</time>
      </trkpt>
      <trkpt lat="45.97943" lon="4.78769">
        <ele>238</ele>
        <time>2018-05-20T09:11:52Z</time>
      </trkpt>
      <trkpt lat="45.97937" lon="4.78764">
        <ele>238</ele>
        <time>2018-05-20T09:11:53Z</time>
      </trkpt>
      <trkpt lat="45.97927" lon="4.78761">
        <ele>237</ele>
        <time>2018-05-20T09:11:54Z</time>
      </trkpt>
      <trkpt lat="45.97921" lon="4.78757">
        <ele>237</ele>
        <time>2018-05-20T09:11:55Z</time>
      </trkpt>
      <trkpt lat="45.97913" lon="4.78753">
        <ele>237</ele>
        <time>2018-05-20T09:11:56Z</time>
      </trkpt>
      <trkpt lat="45.9791" lon="4.78748">
        <ele>237</ele>
        <time>2018-05-20T09:11:57Z</time>
      </trkpt>
      <trkpt lat="45.97904" lon="4.78743">
        <ele>237</ele>
        <time>2018-05-20T09:11:58Z</time>
      </trkpt>
      <trkpt lat="45.97899" lon="4.78739">
        <ele>237</ele>
        <time>2018-05-20T09:11:59Z</time>
      </trkpt>
      <trkpt lat="45.97893" lon="4.78735">
        <ele>237</ele>
        <time>2018-05-20T09:12:00Z</time>
      </trkpt>
      <trkpt lat="45.97887" lon="4.7873">
        <ele>236</ele>
        <time>2018-05-20T09:12:01Z</time>
      </trkpt>
      <trkpt lat="45.9788" lon="4.78725">
        <ele>236</ele>
        <time>2018-05-20T09:12:02Z</time>
      </trkpt>
      <trkpt lat="45.97874" lon="4.7872">
        <ele>236</ele>
        <time>2018-05-20T09:12:03Z</time>
      </trkpt>
      <trkpt lat="45.97868" lon="4.78716">
        <ele>236</ele>
        <time>2018-05-20T09:12:04Z</time>
      </trkpt>
      <trkpt lat="45.97861" lon="4.78712">
        <ele>236</ele>
        <time>2018-05-20T09:12:05Z</time>
      </trkpt>
      <trkpt lat="45.97856" lon="4.78707">
        <ele>236</ele>
        <time>2018-05-20T09:12:06Z</time>
      </trkpt>
      <trkpt lat="45.97851" lon="4.78702">
        <ele>236</ele>
        <time>2018-05-20T09:12:07Z</time>
      </trkpt>
      <trkpt lat="45.97843" lon="4.78698">
        <ele>236</ele>
        <time>2018-05-20T09:12:08Z</time>
      </trkpt>
      <trkpt lat="45.97837" lon="4.78697">
        <ele>236</ele>
        <time>2018-05-20T09:12:09Z</time>
      </trkpt>
      <trkpt lat="45.97831" lon="4.78693">
        <ele>235</ele>
        <time>2018-05-20T09:12:10Z</time>
      </trkpt>
      <trkpt lat="45.97825" lon="4.78691">
        <ele>235</ele>
        <time>2018-05-20T09:12:11Z</time>
      </trkpt>
      <trkpt lat="45.97819" lon="4.78688">
        <ele>235</ele>
        <time>2018-05-20T09:12:12Z</time>
      </trkpt>
      <trkpt lat="45.97815" lon="4.78684">
        <ele>235</ele>
        <time>2018-05-20T09:12:13Z</time>
      </trkpt>
      <trkpt lat="45.97809" lon="4.78681">
        <ele>235</ele>
        <time>2018-05-20T09:12:14Z</time>
      </trkpt>
      <trkpt lat="45.97803" lon="4.78678">
        <ele>235</ele>
        <time>2018-05-20T09:12:15Z</time>
      </trkpt>
      <trkpt lat="45.97795" lon="4.78676">
        <ele>235</ele>
        <time>2018-05-20T09:12:16Z</time>
      </trkpt>
      <trkpt lat="45.97788" lon="4.78673">
        <ele>235</ele>
        <time>2018-05-20T09:12:17Z</time>
      </trkpt>
      <trkpt lat="45.97781" lon="4.7867">
        <ele>235</ele>
        <time>2018-05-20T09:12:18Z</time>
      </trkpt>
      <trkpt lat="45.97773" lon="4.78667">
        <ele>235</ele>
        <time>2018-05-20T09:12:19Z</time>
      </trkpt>
      <trkpt lat="45.97766" lon="4.78662">
        <ele>235</ele>
        <time>2018-05-20T09:12:20Z</time>
      </trkpt>
      <trkpt lat="45.9776" lon="4.78659">
        <ele>235</ele>
        <time>2018-05-20T09:12:21Z</time>
      </trkpt>
      <trkpt lat="45.97752" lon="4.78655">
        <ele>235</ele>
        <time>2018-05-20T09:12:22Z</time>
      </trkpt>
      <trkpt lat="45.97745" lon="4.78651">
        <ele>234</ele>
        <time>2018-05-20T09:12:23Z</time>
      </trkpt>
      <trkpt lat="45.97737" lon="4.78647">
        <ele>234</ele>
        <time>2018-05-20T09:12:24Z</time>
      </trkpt>
      <trkpt lat="45.97729" lon="4.78644">
        <ele>234</ele>
        <time>2018-05-20T09:12:25Z</time>
      </trkpt>
      <trkpt lat="45.97723" lon="4.78642">
        <ele>234</ele>
        <time>2018-05-20T09:12:26Z</time>
      </trkpt>
      <trkpt lat="45.97716" lon="4.78638">
        <ele>234</ele>
        <time>2018-05-20T09:12:27Z</time>
      </trkpt>
      <trkpt lat="45.97709" lon="4.78636">
        <ele>234</ele>
        <time>2018-05-20T09:12:28Z</time>
      </trkpt>
      <trkpt lat="45.97703" lon="4.78632">
        <ele>234</ele>
        <time>2018-05-20T09:12:29Z</time>
      </trkpt>
      <trkpt lat="45.97696" lon="4.7863">
        <ele>234</ele>
        <time>2018-05-20T09:12:30Z</time>
      </trkpt>
      <trkpt lat="45.9769" lon="4.78625">
        <ele>234</ele>
        <time>2018-05-20T09:12:31Z</time>
      </trkpt>
      <trkpt lat="45.97683" lon="4.78622">
        <ele>234</ele>
        <time>2018-05-20T09:12:32Z</time>
      </trkpt>
      <trkpt lat="45.97676" lon="4.78619">
        <ele>234</ele>
        <time>2018-05-20T09:12:33Z</time>
      </trkpt>
      <trkpt lat="45.97669" lon="4.78617">
        <ele>234</ele>
        <time>2018-05-20T09:12:34Z</time>
      </trkpt>
      <trkpt lat="45.97664" lon="4.78614">
        <ele>233</ele>
        <time>2018-05-20T09:12:35Z</time>
      </trkpt>
      <trkpt lat="45.97658" lon="4.78611">
        <ele>233</ele>
        <time>2018-05-20T09:12:36Z</time>
      </trkpt>
      <trkpt lat="45.97651" lon="4.78608">
        <ele>233</ele>
        <time>2018-05-20T09:12:37Z</time>
      </trkpt>
      <trkpt lat="45.97645" lon="4.78605">
        <ele>233</ele>
        <time>2018-05-20T09:12:38Z</time>
      </trkpt>
      <trkpt lat="45.97638" lon="4.78602">
        <ele>233</ele>
        <time>2018-05-20T09:12:39Z</time>
      </trkpt>
      <trkpt lat="45.97632" lon="4.786">
        <ele>233</ele>
        <time>2018-05-20T09:12:40Z</time>
      </trkpt>
      <trkpt lat="45.97625" lon="4.78597">
        <ele>233</ele>
        <time>2018-05-20T09:12:41Z</time>
      </trkpt>
      <trkpt lat="45.97619" lon="4.78594">
        <ele>233</ele>
        <time>2018-05-20T09:12:42Z</time>
      </trkpt>
      <trkpt lat="45.97612" lon="4.78591">
        <ele>233</ele>
        <time>2018-05-20T09:12:43Z</time>
      </trkpt>
      <trkpt lat="45.97605" lon="4.78588">
        <ele>233</ele>
        <time>2018-05-20T09:12:44Z</time>
      </trkpt>
      <trkpt lat="45.97597" lon="4.78586">
        <ele>233</ele>
        <time>2018-05-20T09:12:45Z</time>
      </trkpt>
      <trkpt lat="45.97589" lon="4.78584">
        <ele>233</ele>
        <time>2018-05-20T09:12:46Z</time>
      </trkpt>
      <trkpt lat="45.97583" lon="4.78581">
        <ele>233</ele>
        <time>2018-05-20T09:12:47Z</time>
      </trkpt>
      <trkpt lat="45.97577" lon="4.78577">
        <ele>233</ele>
        <time>2018-05-20T09:12:48Z</time>
      </trkpt>
      <trkpt lat="45.9757" lon="4.78574">
        <ele>233</ele>
        <time>2018-05-20T09:12:49Z</time>
      </trkpt>
      <trkpt lat="45.97563" lon="4.78572">
        <ele>233</ele>
        <time>2018-05-20T09:12:50Z</time>
      </trkpt>
      <trkpt lat="45.97556" lon="4.7857">
        <ele>234</ele>
        <time>2018-05-20T09:12:51Z</time>
      </trkpt>
      <trkpt lat="45.97549" lon="4.78567">
        <ele>234</ele>
        <time>2018-05-20T09:12:52Z</time>
      </trkpt>
      <trkpt lat="45.97544" lon="4.78564">
        <ele>234</ele>
        <time>2018-05-20T09:12:53Z</time>
      </trkpt>
      <trkpt lat="45.97539" lon="4.78562">
        <ele>234</ele>
        <time>2018-05-20T09:12:54Z</time>
      </trkpt>
      <trkpt lat="45.97533" lon="4.78559">
        <ele>234</ele>
        <time>2018-05-20T09:12:55Z</time>
      </trkpt>
      <trkpt lat="45.97527" lon="4.78557">
        <ele>234</ele>
        <time>2018-05-20T09:12:56Z</time>
      </trkpt>
      <trkpt lat="45.97521" lon="4.78553">
        <ele>234</ele>
        <time>2018-05-20T09:12:57Z</time>
      </trkpt>
      <trkpt lat="45.97514" lon="4.7855">
        <ele>234</ele>
        <time>2018-05-20T09:12:58Z</time>
      </trkpt>
      <trkpt lat="45.97509" lon="4.78546">
        <ele>234</ele>
        <time>2018-05-20T09:12:59Z</time>
      </trkpt>
      <trkpt lat="45.97503" lon="4.78542">
        <ele>234</ele>
        <time>2018-05-20T09:13:00Z</time>
      </trkpt>
      <trkpt lat="45.97497" lon="4.78537">
        <ele>233</ele>
        <time>2018-05-20T09:13:01Z</time>
      </trkpt>
      <trkpt lat="45.97491" lon="4.78534">
        <ele>233</ele>
        <time>2018-05-20T09:13:02Z</time>
      </trkpt>
      <trkpt lat="45.97486" lon="4.78529">
        <ele>233</ele>
        <time>2018-05-20T09:13:03Z</time>
      </trkpt>
      <trkpt lat="45.97479" lon="4.78525">
        <ele>233</ele>
        <time>2018-05-20T09:13:04Z</time>
      </trkpt>
      <trkpt lat="45.97474" lon="4.78521">
        <ele>233</ele>
        <time>2018-05-20T09:13:05Z</time>
      </trkpt>
      <trkpt lat="45.97469" lon="4.78517">
        <ele>233</ele>
        <time>2018-05-20T09:13:06Z</time>
      </trkpt>
      <trkpt lat="45.97465" lon="4.78511">
        <ele>234</ele>
        <time>2018-05-20T09:13:07Z</time>
      </trkpt>
      <trkpt lat="45.97459" lon="4.78508">
        <ele>234</ele>
        <time>2018-05-20T09:13:08Z</time>
      </trkpt>
      <trkpt lat="45.97455" lon="4.78503">
        <ele>234</ele>
        <time>2018-05-20T09:13:09Z</time>
      </trkpt>
      <trkpt lat="45.9745" lon="4.78499">
        <ele>234</ele>
        <time>2018-05-20T09:13:10Z</time>
      </trkpt>
      <trkpt lat="45.97445" lon="4.78494">
        <ele>234</ele>
        <time>2018-05-20T09:13:11Z</time>
      </trkpt>
      <trkpt lat="45.9744" lon="4.78489">
        <ele>234</ele>
        <time>2018-05-20T09:13:12Z</time>
      </trkpt>
      <trkpt lat="45.97435" lon="4.78485">
        <ele>234</ele>
        <time>2018-05-20T09:13:13Z</time>
      </trkpt>
      <trkpt lat="45.9743" lon="4.78481">
        <ele>234</ele>
        <time>2018-05-20T09:13:14Z</time>
      </trkpt>
      <trkpt lat="45.97425" lon="4.78476">
        <ele>234</ele>
        <time>2018-05-20T09:13:15Z</time>
      </trkpt>
      <trkpt lat="45.9742" lon="4.78472">
        <ele>234</ele>
        <time>2018-05-20T09:13:16Z</time>
      </trkpt>
      <trkpt lat="45.97416" lon="4.78467">
        <ele>233</ele>
        <time>2018-05-20T09:13:17Z</time>
      </trkpt>
      <trkpt lat="45.97412" lon="4.78463">
        <ele>233</ele>
        <time>2018-05-20T09:13:18Z</time>
      </trkpt>
      <trkpt lat="45.97407" lon="4.78457">
        <ele>233</ele>
        <time>2018-05-20T09:13:19Z</time>
      </trkpt>
      <trkpt lat="45.97401" lon="4.78451">
        <ele>233</ele>
        <time>2018-05-20T09:13:20Z</time>
      </trkpt>
      <trkpt lat="45.97395" lon="4.78446">
        <ele>233</ele>
        <time>2018-05-20T09:13:21Z</time>
      </trkpt>
      <trkpt lat="45.97391" lon="4.78441">
        <ele>233</ele>
        <time>2018-05-20T09:13:22Z</time>
      </trkpt>
      <trkpt lat="45.97386" lon="4.78435">
        <ele>233</ele>
        <time>2018-05-20T09:13:23Z</time>
      </trkpt>
      <trkpt lat="45.97381" lon="4.78431">
        <ele>233</ele>
        <time>2018-05-20T09:13:24Z</time>
      </trkpt>
      <trkpt lat="45.97375" lon="4.78426">
        <ele>233</ele>
        <time>2018-05-20T09:13:25Z</time>
      </trkpt>
      <trkpt lat="45.9737" lon="4.78421">
        <ele>233</ele>
        <time>2018-05-20T09:13:26Z</time>
      </trkpt>
      <trkpt lat="45.97363" lon="4.78418">
        <ele>233</ele>
        <time>2018-05-20T09:13:27Z</time>
      </trkpt>
      <trkpt lat="45.97359" lon="4.78414">
        <ele>233</ele>
        <time>2018-05-20T09:13:28Z</time>
      </trkpt>
      <trkpt lat="45.97354" lon="4.78409">
        <ele>232</ele>
        <time>2018-05-20T09:13:29Z</time>
      </trkpt>
      <trkpt lat="45.97349" lon="4.78404">
        <ele>232</ele>
        <time>2018-05-20T09:13:30Z</time>
      </trkpt>
      <trkpt lat="45.97343" lon="4.78397">
        <ele>232</ele>
        <time>2018-05-20T09:13:31Z</time>
      </trkpt>
      <trkpt lat="45.97338" lon="4.78391">
        <ele>233</ele>
        <time>2018-05-20T09:13:32Z</time>
      </trkpt>
      <trkpt lat="45.97333" lon="4.78384">
        <ele>232</ele>
        <time>2018-05-20T09:13:33Z</time>
      </trkpt>
      <trkpt lat="45.97327" lon="4.78377">
        <ele>232</ele>
        <time>2018-05-20T09:13:34Z</time>
      </trkpt>
      <trkpt lat="45.97321" lon="4.78371">
        <ele>232</ele>
        <time>2018-05-20T09:13:35Z</time>
      </trkpt>
      <trkpt lat="45.97315" lon="4.78365">
        <ele>232</ele>
        <time>2018-05-20T09:13:36Z</time>
      </trkpt>
      <trkpt lat="45.97309" lon="4.78358">
        <ele>232</ele>
        <time>2018-05-20T09:13:37Z</time>
      </trkpt>
      <trkpt lat="45.97304" lon="4.7835">
        <ele>232</ele>
        <time>2018-05-20T09:13:38Z</time>
      </trkpt>
      <trkpt lat="45.97298" lon="4.78343">
        <ele>232</ele>
        <time>2018-05-20T09:13:39Z</time>
      </trkpt>
      <trkpt lat="45.97293" lon="4.78335">
        <ele>232</ele>
        <time>2018-05-20T09:13:40Z</time>
      </trkpt>
      <trkpt lat="45.97287" lon="4.78328">
        <ele>232</ele>
        <time>2018-05-20T09:13:41Z</time>
      </trkpt>
      <trkpt lat="45.97282" lon="4.7832">
        <ele>232</ele>
        <time>2018-05-20T09:13:42Z</time>
      </trkpt>
      <trkpt lat="45.97276" lon="4.78313">
        <ele>232</ele>
        <time>2018-05-20T09:13:43Z</time>
      </trkpt>
      <trkpt lat="45.97271" lon="4.78306">
        <ele>232</ele>
        <time>2018-05-20T09:13:44Z</time>
      </trkpt>
      <trkpt lat="45.97265" lon="4.78299">
        <ele>232</ele>
        <time>2018-05-20T09:13:45Z</time>
      </trkpt>
      <trkpt lat="45.97259" lon="4.78292">
        <ele>232</ele>
        <time>2018-05-20T09:13:46Z</time>
      </trkpt>
      <trkpt lat="45.97254" lon="4.78285">
        <ele>232</ele>
        <time>2018-05-20T09:13:47Z</time>
      </trkpt>
      <trkpt lat="45.97249" lon="4.78277">
        <ele>231</ele>
        <time>2018-05-20T09:13:48Z</time>
      </trkpt>
      <trkpt lat="45.97245" lon="4.78269">
        <ele>231</ele>
        <time>2018-05-20T09:13:49Z</time>
      </trkpt>
      <trkpt lat="45.9724" lon="4.78262">
        <ele>231</ele>
        <time>2018-05-20T09:13:50Z</time>
      </trkpt>
      <trkpt lat="45.97235" lon="4.78255">
        <ele>231</ele>
        <time>2018-05-20T09:13:51Z</time>
      </trkpt>
      <trkpt lat="45.97231" lon="4.78249">
        <ele>231</ele>
        <time>2018-05-20T09:13:52Z</time>
      </trkpt>
      <trkpt lat="45.97226" lon="4.78244">
        <ele>231</ele>
        <time>2018-05-20T09:13:53Z</time>
      </trkpt>
      <trkpt lat="45.97221" lon="4.78237">
        <ele>231</ele>
        <time>2018-05-20T09:13:54Z</time>
      </trkpt>
      <trkpt lat="45.97218" lon="4.7823">
        <ele>231</ele>
        <time>2018-05-20T09:13:55Z</time>
      </trkpt>
      <trkpt lat="45.97213" lon="4.78223">
        <ele>231</ele>
        <time>2018-05-20T09:13:56Z</time>
      </trkpt>
      <trkpt lat="45.97209" lon="4.78215">
        <ele>231</ele>
        <time>2018-05-20T09:13:57Z</time>
      </trkpt>
      <trkpt lat="45.97205" lon="4.78207">
        <ele>231</ele>
        <time>2018-05-20T09:13:58Z</time>
      </trkpt>
      <trkpt lat="45.97201" lon="4.782">
        <ele>231</ele>
        <time>2018-05-20T09:13:59Z</time>
      </trkpt>
      <trkpt lat="45.97197" lon="4.78191">
        <ele>231</ele>
        <time>2018-05-20T09:14:00Z</time>
      </trkpt>
      <trkpt lat="45.97193" lon="4.78184">
        <ele>231</ele>
        <time>2018-05-20T09:14:01Z</time>
      </trkpt>
      <trkpt lat="45.97189" lon="4.78176">
        <ele>231</ele>
        <time>2018-05-20T09:14:02Z</time>
      </trkpt>
      <trkpt lat="45.97184" lon="4.78168">
        <ele>231</ele>
        <time>2018-05-20T09:14:03Z</time>
      </trkpt>
      <trkpt lat="45.9718" lon="4.7816">
        <ele>231</ele>
        <time>2018-05-20T09:14:04Z</time>
      </trkpt>
      <trkpt lat="45.97175" lon="4.78152">
        <ele>231</ele>
        <time>2018-05-20T09:14:05Z</time>
      </trkpt>
      <trkpt lat="45.97171" lon="4.78143">
        <ele>231</ele>
        <time>2018-05-20T09:14:06Z</time>
      </trkpt>
      <trkpt lat="45.97168" lon="4.78134">
        <ele>231</ele>
        <time>2018-05-20T09:14:07Z</time>
      </trkpt>
      <trkpt lat="45.97164" lon="4.78127">
        <ele>230</ele>
        <time>2018-05-20T09:14:08Z</time>
      </trkpt>
      <trkpt lat="45.9716" lon="4.78119">
        <ele>230</ele>
        <time>2018-05-20T09:14:09Z</time>
      </trkpt>
      <trkpt lat="45.97156" lon="4.78112">
        <ele>230</ele>
        <time>2018-05-20T09:14:10Z</time>
      </trkpt>
      <trkpt lat="45.97152" lon="4.78106">
        <ele>230</ele>
        <time>2018-05-20T09:14:11Z</time>
      </trkpt>
      <trkpt lat="45.97148" lon="4.78098">
        <ele>230</ele>
        <time>2018-05-20T09:14:12Z</time>
      </trkpt>
      <trkpt lat="45.97144" lon="4.7809">
        <ele>230</ele>
        <time>2018-05-20T09:14:13Z</time>
      </trkpt>
      <trkpt lat="45.9714" lon="4.78082">
        <ele>230</ele>
        <time>2018-05-20T09:14:14Z</time>
      </trkpt>
      <trkpt lat="45.97135" lon="4.78074">
        <ele>230</ele>
        <time>2018-05-20T09:14:15Z</time>
      </trkpt>
      <trkpt lat="45.97128" lon="4.78068">
        <ele>230</ele>
        <time>2018-05-20T09:14:16Z</time>
      </trkpt>
      <trkpt lat="45.97122" lon="4.78061">
        <ele>229</ele>
        <time>2018-05-20T09:14:17Z</time>
      </trkpt>
      <trkpt lat="45.97116" lon="4.78054">
        <ele>229</ele>
        <time>2018-05-20T09:14:18Z</time>
      </trkpt>
      <trkpt lat="45.9711" lon="4.78048">
        <ele>229</ele>
        <time>2018-05-20T09:14:19Z</time>
      </trkpt>
      <trkpt lat="45.97105" lon="4.78042">
        <ele>229</ele>
        <time>2018-05-20T09:14:20Z</time>
      </trkpt>
      <trkpt lat="45.97099" lon="4.78033">
        <ele>229</ele>
        <time>2018-05-20T09:14:21Z</time>
      </trkpt>
      <trkpt lat="45.97092" lon="4.78029">
        <ele>229</ele>
        <time>2018-05-20T09:14:22Z</time>
      </trkpt>
      <trkpt lat="45.97086" lon="4.78023">
        <ele>229</ele>
        <time>2018-05-20T09:14:23Z</time>
      </trkpt>
      <trkpt lat="45.97078" lon="4.78017">
        <ele>229</ele>
        <time>2018-05-20T09:14:24Z</time>
      </trkpt>
      <trkpt lat="45.97071" lon="4.78013">
        <ele>229</ele>
        <time>2018-05-20T09:14:25Z</time>
      </trkpt>
      <trkpt lat="45.97065" lon="4.78007">
        <ele>229</ele>
        <time>2018-05-20T09:14:26Z</time>
      </trkpt>
      <trkpt lat="45.97058" lon="4.78001">
        <ele>229</ele>
        <time>2018-05-20T09:14:27Z</time>
      </trkpt>
      <trkpt lat="45.97053" lon="4.77995">
        <ele>229</ele>
        <time>2018-05-20T09:14:28Z</time>
      </trkpt>
      <trkpt lat="45.97047" lon="4.77988">
        <ele>229</ele>
        <time>2018-05-20T09:14:29Z</time>
      </trkpt>
      <trkpt lat="45.97041" lon="4.77982">
        <ele>229</ele>
        <time>2018-05-20T09:14:30Z</time>
      </trkpt>
      <trkpt lat="45.97037" lon="4.77976">
        <ele>229</ele>
        <time>2018-05-20T09:14:31Z</time>
      </trkpt>
      <trkpt lat="45.97031" lon="4.7797">
        <ele>229</ele>
        <time>2018-05-20T09:14:32Z</time>
      </trkpt>
      <trkpt lat="45.97026" lon="4.77963">
        <ele>228</ele>
        <time>2018-05-20T09:14:33Z</time>
      </trkpt>
      <trkpt lat="45.97021" lon="4.77957">
        <ele>228</ele>
        <time>2018-05-20T09:14:34Z</time>
      </trkpt>
      <trkpt lat="45.97014" lon="4.77951">
        <ele>228</ele>
        <time>2018-05-20T09:14:35Z</time>
      </trkpt>
      <trkpt lat="45.97008" lon="4.77944">
        <ele>228</ele>
        <time>2018-05-20T09:14:36Z</time>
      </trkpt>
      <trkpt lat="45.97003" lon="4.77938">
        <ele>228</ele>
        <time>2018-05-20T09:14:37Z</time>
      </trkpt>
      <trkpt lat="45.96998" lon="4.7793">
        <ele>227</ele>
        <time>2018-05-20T09:14:38Z</time>
      </trkpt>
      <trkpt lat="45.96992" lon="4.77924">
        <ele>227</ele>
        <time>2018-05-20T09:14:39Z</time>
      </trkpt>
      <trkpt lat="45.96987" lon="4.77915">
        <ele>227</ele>
        <time>2018-05-20T09:14:40Z</time>
      </trkpt>
      <trkpt lat="45.9698" lon="4.77908">
        <ele>227</ele>
        <time>2018-05-20T09:14:41Z</time>
      </trkpt>
      <trkpt lat="45.96974" lon="4.77901">
        <ele>228</ele>
        <time>2018-05-20T09:14:42Z</time>
      </trkpt>
      <trkpt lat="45.96969" lon="4.77895">
        <ele>228</ele>
        <time>2018-05-20T09:14:43Z</time>
      </trkpt>
      <trkpt lat="45.96963" lon="4.77887">
        <ele>228</ele>
        <time>2018-05-20T09:14:44Z</time>
      </trkpt>
      <trkpt lat="45.96957" lon="4.77882">
        <ele>228</ele>
        <time>2018-05-20T09:14:45Z</time>
      </trkpt>
      <trkpt lat="45.96952" lon="4.77875">
        <ele>228</ele>
        <time>2018-05-20T09:14:46Z</time>
      </trkpt>
      <trkpt lat="45.96946" lon="4.77869">
        <ele>228</ele>
        <time>2018-05-20T09:14:47Z</time>
      </trkpt>
      <trkpt lat="45.9694" lon="4.77862">
        <ele>228</ele>
        <time>2018-05-20T09:14:48Z</time>
      </trkpt>
      <trkpt lat="45.96934" lon="4.77855">
        <ele>228</ele>
        <time>2018-05-20T09:14:49Z</time>
      </trkpt>
      <trkpt lat="45.96929" lon="4.77849">
        <ele>228</ele>
        <time>2018-05-20T09:14:50Z</time>
      </trkpt>
      <trkpt lat="45.96924" lon="4.77842">
        <ele>228</ele>
        <time>2018-05-20T09:14:51Z</time>
      </trkpt>
      <trkpt lat="45.96919" lon="4.77837">
        <ele>228</ele>
        <time>2018-05-20T09:14:52Z</time>
      </trkpt>
      <trkpt lat="45.96913" lon="4.77831">
        <ele>228</ele>
        <time>2018-05-20T09:14:53Z</time>
      </trkpt>
      <trkpt lat="45.96907" lon="4.77825">
        <ele>228</ele>
        <time>2018-05-20T09:14:54Z</time>
      </trkpt>
      <trkpt lat="45.96902" lon="4.77819">
        <ele>228</ele>
        <time>2018-05-20T09:14:55Z</time>
      </trkpt>
      <trkpt lat="45.96896" lon="4.77812">
        <ele>228</ele>
        <time>2018-05-20T09:14:56Z</time>
      </trkpt>
      <trkpt lat="45.96891" lon="4.77806">
        <ele>228</ele>
        <time>2018-05-20T09:14:57Z</time>
      </trkpt>
      <trkpt lat="45.96885" lon="4.77801">
        <ele>228</ele>
        <time>2018-05-20T09:14:58Z</time>
      </trkpt>
      <trkpt lat="45.9688" lon="4.77795">
        <ele>228</ele>
        <time>2018-05-20T09:14:59Z</time>
      </trkpt>
      <trkpt lat="45.96875" lon="4.77789">
        <ele>228</ele>
        <time>2018-05-20T09:15:00Z</time>
      </trkpt>
      <trkpt lat="45.96867" lon="4.77786">
        <ele>228</ele>
        <time>2018-05-20T09:15:01Z</time>
      </trkpt>
      <trkpt lat="45.96862" lon="4.77782">
        <ele>228</ele>
        <time>2018-05-20T09:15:02Z</time>
      </trkpt>
      <trkpt lat="45.96858" lon="4.77776">
        <ele>228</ele>
        <time>2018-05-20T09:15:03Z</time>
      </trkpt>
      <trkpt lat="45.96853" lon="4.77771">
        <ele>228</ele>
        <time>2018-05-20T09:15:04Z</time>
      </trkpt>
      <trkpt lat="45.96848" lon="4.77765">
        <ele>228</ele>
        <time>2018-05-20T09:15:05Z</time>
      </trkpt>
      <trkpt lat="45.96843" lon="4.77758">
        <ele>228</ele>
        <time>2018-05-20T09:15:06Z</time>
      </trkpt>
      <trkpt lat="45.96838" lon="4.77753">
        <ele>228</ele>
        <time>2018-05-20T09:15:07Z</time>
      </trkpt>
      <trkpt lat="45.96832" lon="4.77748">
        <ele>228</ele>
        <time>2018-05-20T09:15:08Z</time>
      </trkpt>
      <trkpt lat="45.96827" lon="4.77742">
        <ele>228</ele>
        <time>2018-05-20T09:15:09Z</time>
      </trkpt>
      <trkpt lat="45.96821" lon="4.77737">
        <ele>228</ele>
        <time>2018-05-20T09:15:10Z</time>
      </trkpt>
      <trkpt lat="45.96817" lon="4.77731">
        <ele>228</ele>
        <time>2018-05-20T09:15:11Z</time>
      </trkpt>
      <trkpt lat="45.96813" lon="4.77724">
        <ele>228</ele>
        <time>2018-05-20T09:15:12Z</time>
      </trkpt>
      <trkpt lat="45.96807" lon="4.77718">
        <ele>228</ele>
        <time>2018-05-20T09:15:13Z</time>
      </trkpt>
      <trkpt lat="45.96801" lon="4.77712">
        <ele>228</ele>
        <time>2018-05-20T09:15:14Z</time>
      </trkpt>
      <trkpt lat="45.96796" lon="4.77707">
        <ele>228</ele>
        <time>2018-05-20T09:15:15Z</time>
      </trkpt>
      <trkpt lat="45.96791" lon="4.77701">
        <ele>227</ele>
        <time>2018-05-20T09:15:16Z</time>
      </trkpt>
      <trkpt lat="45.96786" lon="4.77694">
        <ele>227</ele>
        <time>2018-05-20T09:15:17Z</time>
      </trkpt>
      <trkpt lat="45.96781" lon="4.77689">
        <ele>227</ele>
        <time>2018-05-20T09:15:18Z</time>
      </trkpt>
      <trkpt lat="45.96777" lon="4.77683">
        <ele>227</ele>
        <time>2018-05-20T09:15:19Z</time>
      </trkpt>
      <trkpt lat="45.96771" lon="4.77677">
        <ele>227</ele>
        <time>2018-05-20T09:15:20Z</time>
      </trkpt>
      <trkpt lat="45.96766" lon="4.7767">
        <ele>227</ele>
        <time>2018-05-20T09:15:21Z</time>
      </trkpt>
      <trkpt lat="45.9676" lon="4.77663">
        <ele>227</ele>
        <time>2018-05-20T09:15:22Z</time>
      </trkpt>
      <trkpt lat="45.96755" lon="4.77656">
        <ele>227</ele>
        <time>2018-05-20T09:15:23Z</time>
      </trkpt>
      <trkpt lat="45.96748" lon="4.7765">
        <ele>227</ele>
        <time>2018-05-20T09:15:24Z</time>
      </trkpt>
      <trkpt lat="45.96742" lon="4.77642">
        <ele>227</ele>
        <time>2018-05-20T09:15:25Z</time>
      </trkpt>
      <trkpt lat="45.96737" lon="4.77635">
        <ele>227</ele>
        <time>2018-05-20T09:15:26Z</time>
      </trkpt>
      <trkpt lat="45.96733" lon="4.77629">
        <ele>226</ele>
        <time>2018-05-20T09:15:27Z</time>
      </trkpt>
      <trkpt lat="45.96728" lon="4.77623">
        <ele>226</ele>
        <time>2018-05-20T09:15:28Z</time>
      </trkpt>
      <trkpt lat="45.96723" lon="4.77617">
        <ele>226</ele>
        <time>2018-05-20T09:15:29Z</time>
      </trkpt>
      <trkpt lat="45.96717" lon="4.7761">
        <ele>226</ele>
        <time>2018-05-20T09:15:30Z</time>
      </trkpt>
      <trkpt lat="45.96712" lon="4.77605">
        <ele>226</ele>
        <time>2018-05-20T09:15:31Z</time>
      </trkpt>
      <trkpt lat="45.96707" lon="4.77599">
        <ele>226</ele>
        <time>2018-05-20T09:15:32Z</time>
      </trkpt>
      <trkpt lat="45.96702" lon="4.77593">
        <ele>226</ele>
        <time>2018-05-20T09:15:33Z</time>
      </trkpt>
      <trkpt lat="45.96696" lon="4.77586">
        <ele>226</ele>
        <time>2018-05-20T09:15:34Z</time>
      </trkpt>
      <trkpt lat="45.96691" lon="4.7758">
        <ele>225</ele>
        <time>2018-05-20T09:15:35Z</time>
      </trkpt>
      <trkpt lat="45.96685" lon="4.77574">
        <ele>225</ele>
        <time>2018-05-20T09:15:36Z</time>
      </trkpt>
      <trkpt lat="45.9668" lon="4.77569">
        <ele>225</ele>
        <time>2018-05-20T09:15:37Z</time>
      </trkpt>
      <trkpt lat="45.96674" lon="4.77565">
        <ele>225</ele>
        <time>2018-05-20T09:15:38Z</time>
      </trkpt>
      <trkpt lat="45.96667" lon="4.77561">
        <ele>225</ele>
        <time>2018-05-20T09:15:39Z</time>
      </trkpt>
      <trkpt lat="45.96661" lon="4.77558">
        <ele>224</ele>
        <time>2018-05-20T09:15:40Z</time>
      </trkpt>
      <trkpt lat="45.96654" lon="4.77554">
        <ele>224</ele>
        <time>2018-05-20T09:15:41Z</time>
      </trkpt>
      <trkpt lat="45.96647" lon="4.77548">
        <ele>224</ele>
        <time>2018-05-20T09:15:42Z</time>
      </trkpt>
      <trkpt lat="45.96638" lon="4.77545">
        <ele>224</ele>
        <time>2018-05-20T09:15:43Z</time>
      </trkpt>
      <trkpt lat="45.96632" lon="4.77542">
        <ele>224</ele>
        <time>2018-05-20T09:15:44Z</time>
      </trkpt>
      <trkpt lat="45.96626" lon="4.77538">
        <ele>224</ele>
        <time>2018-05-20T09:15:45Z</time>
      </trkpt>
      <trkpt lat="45.96619" lon="4.77533">
        <ele>224</ele>
        <time>2018-05-20T09:15:46Z</time>
      </trkpt>
      <trkpt lat="45.96612" lon="4.7753">
        <ele>224</ele>
        <time>2018-05-20T09:15:47Z</time>
      </trkpt>
      <trkpt lat="45.96605" lon="4.77526">
        <ele>224</ele>
        <time>2018-05-20T09:15:48Z</time>
      </trkpt>
      <trkpt lat="45.96597" lon="4.7752">
        <ele>224</ele>
        <time>2018-05-20T09:15:49Z</time>
      </trkpt>
      <trkpt lat="45.96589" lon="4.77516">
        <ele>224</ele>
        <time>2018-05-20T09:15:50Z</time>
      </trkpt>
      <trkpt lat="45.96582" lon="4.77511">
        <ele>224</ele>
        <time>2018-05-20T09:15:51Z</time>
      </trkpt>
      <trkpt lat="45.96576" lon="4.77506">
        <ele>224</ele>
        <time>2018-05-20T09:15:52Z</time>
      </trkpt>
      <trkpt lat="45.96569" lon="4.77501">
        <ele>223</ele>
        <time>2018-05-20T09:15:53Z</time>
      </trkpt>
      <trkpt lat="45.96562" lon="4.77497">
        <ele>224</ele>
        <time>2018-05-20T09:15:54Z</time>
      </trkpt>
      <trkpt lat="45.96555" lon="4.77492">
        <ele>223</ele>
        <time>2018-05-20T09:15:55Z</time>
      </trkpt>
      <trkpt lat="45.96549" lon="4.77487">
        <ele>223</ele>
        <time>2018-05-20T09:15:56Z</time>
      </trkpt>
      <trkpt lat="45.96543" lon="4.77483">
        <ele>223</ele>
        <time>2018-05-20T09:15:57Z</time>
      </trkpt>
      <trkpt lat="45.96536" lon="4.77478">
        <ele>223</ele>
        <time>2018-05-20T09:15:58Z</time>
      </trkpt>
      <trkpt lat="45.96529" lon="4.77473">
        <ele>223</ele>
        <time>2018-05-20T09:15:59Z</time>
      </trkpt>
      <trkpt lat="45.96523" lon="4.77468">
        <ele>223</ele>
        <time>2018-05-20T09:16:00Z</time>
      </trkpt>
      <trkpt lat="45.96517" lon="4.77461">
        <ele>223</ele>
        <time>2018-05-20T09:16:01Z</time>
      </trkpt>
      <trkpt lat="45.96511" lon="4.77455">
        <ele>223</ele>
        <time>2018-05-20T09:16:02Z</time>
      </trkpt>
      <trkpt lat="45.96502" lon="4.77452">
        <ele>223</ele>
        <time>2018-05-20T09:16:03Z</time>
      </trkpt>
      <trkpt lat="45.96494" lon="4.77447">
        <ele>221</ele>
        <time>2018-05-20T09:16:04Z</time>
      </trkpt>
      <trkpt lat="45.96487" lon="4.77442">
        <ele>221</ele>
        <time>2018-05-20T09:16:05Z</time>
      </trkpt>
      <trkpt lat="45.96479" lon="4.77437">
        <ele>221</ele>
        <time>2018-05-20T09:16:06Z</time>
      </trkpt>
      <trkpt lat="45.96473" lon="4.77433">
        <ele>221</ele>
        <time>2018-05-20T09:16:07Z</time>
      </trkpt>
      <trkpt lat="45.96466" lon="4.77427">
        <ele>221</ele>
        <time>2018-05-20T09:16:08Z</time>
      </trkpt>
      <trkpt lat="45.96458" lon="4.77422">
        <ele>221</ele>
        <time>2018-05-20T09:16:09Z</time>
      </trkpt>
      <trkpt lat="45.9645" lon="4.77417">
        <ele>221</ele>
        <time>2018-05-20T09:16:10Z</time>
      </trkpt>
      <trkpt lat="45.96443" lon="4.77412">
        <ele>222</ele>
        <time>2018-05-20T09:16:11Z</time>
      </trkpt>
      <trkpt lat="45.96435" lon="4.77407">
        <ele>222</ele>
        <time>2018-05-20T09:16:12Z</time>
      </trkpt>
      <trkpt lat="45.96426" lon="4.77403">
        <ele>222</ele>
        <time>2018-05-20T09:16:13Z</time>
      </trkpt>
      <trkpt lat="45.96419" lon="4.77399">
        <ele>222</ele>
        <time>2018-05-20T09:16:14Z</time>
      </trkpt>
      <trkpt lat="45.96411" lon="4.77393">
        <ele>220</ele>
        <time>2018-05-20T09:16:15Z</time>
      </trkpt>
      <trkpt lat="45.96402" lon="4.77389">
        <ele>220</ele>
        <time>2018-05-20T09:16:16Z</time>
      </trkpt>
      <trkpt lat="45.96395" lon="4.77384">
        <ele>220</ele>
        <time>2018-05-20T09:16:17Z</time>
      </trkpt>
      <trkpt lat="45.96387" lon="4.77379">
        <ele>220</ele>
        <time>2018-05-20T09:16:18Z</time>
      </trkpt>
      <trkpt lat="45.9638" lon="4.77375">
        <ele>220</ele>
        <time>2018-05-20T09:16:19Z</time>
      </trkpt>
      <trkpt lat="45.96373" lon="4.7737">
        <ele>220</ele>
        <time>2018-05-20T09:16:20Z</time>
      </trkpt>
      <trkpt lat="45.96367" lon="4.77365">
        <ele>220</ele>
        <time>2018-05-20T09:16:21Z</time>
      </trkpt>
      <trkpt lat="45.96359" lon="4.77361">
        <ele>219</ele>
        <time>2018-05-20T09:16:22Z</time>
      </trkpt>
      <trkpt lat="45.96353" lon="4.77356">
        <ele>220</ele>
        <time>2018-05-20T09:16:23Z</time>
      </trkpt>
      <trkpt lat="45.96346" lon="4.77352">
        <ele>220</ele>
        <time>2018-05-20T09:16:24Z</time>
      </trkpt>
      <trkpt lat="45.96339" lon="4.77348">
        <ele>220</ele>
        <time>2018-05-20T09:16:25Z</time>
      </trkpt>
      <trkpt lat="45.9633" lon="4.77346">
        <ele>218</ele>
        <time>2018-05-20T09:16:26Z</time>
      </trkpt>
      <trkpt lat="45.96323" lon="4.77341">
        <ele>218</ele>
        <time>2018-05-20T09:16:27Z</time>
      </trkpt>
      <trkpt lat="45.96317" lon="4.77336">
        <ele>218</ele>
        <time>2018-05-20T09:16:28Z</time>
      </trkpt>
      <trkpt lat="45.9631" lon="4.77331">
        <ele>219</ele>
        <time>2018-05-20T09:16:29Z</time>
      </trkpt>
      <trkpt lat="45.96305" lon="4.77324">
        <ele>219</ele>
        <time>2018-05-20T09:16:30Z</time>
      </trkpt>
      <trkpt lat="45.96297" lon="4.77321">
        <ele>219</ele>
        <time>2018-05-20T09:16:31Z</time>
      </trkpt>
      <trkpt lat="45.96289" lon="4.77318">
        <ele>219</ele>
        <time>2018-05-20T09:16:32Z</time>
      </trkpt>
      <trkpt lat="45.96282" lon="4.77314">
        <ele>219</ele>
        <time>2018-05-20T09:16:33Z</time>
      </trkpt>
      <trkpt lat="45.96275" lon="4.77309">
        <ele>219</ele>
        <time>2018-05-20T09:16:34Z</time>
      </trkpt>
      <trkpt lat="45.96264" lon="4.77306">
        <ele>219</ele>
        <time>2018-05-20T09:16:35Z</time>
      </trkpt>
      <trkpt lat="45.96258" lon="4.77302">
        <ele>219</ele>
        <time>2018-05-20T09:16:36Z</time>
      </trkpt>
      <trkpt lat="45.9625" lon="4.77298">
        <ele>217</ele>
        <time>2018-05-20T09:16:37Z</time>
      </trkpt>
      <trkpt lat="45.96241" lon="4.77296">
        <ele>217</ele>
        <time>2018-05-20T09:16:38Z</time>
      </trkpt>
      <trkpt lat="45.96234" lon="4.77292">
        <ele>217</ele>
        <time>2018-05-20T09:16:39Z</time>
      </trkpt>
      <trkpt lat="45.96227" lon="4.77288">
        <ele>217</ele>
        <time>2018-05-20T09:16:40Z</time>
      </trkpt>
      <trkpt lat="45.96221" lon="4.77284">
        <ele>217</ele>
        <time>2018-05-20T09:16:41Z</time>
      </trkpt>
      <trkpt lat="45.96215" lon="4.7728">
        <ele>217</ele>
        <time>2018-05-20T09:16:42Z</time>
      </trkpt>
      <trkpt lat="45.96208" lon="4.77275">
        <ele>217</ele>
        <time>2018-05-20T09:16:43Z</time>
      </trkpt>
      <trkpt lat="45.962" lon="4.7727">
        <ele>217</ele>
        <time>2018-05-20T09:16:44Z</time>
      </trkpt>
      <trkpt lat="45.96193" lon="4.77265">
        <ele>216</ele>
        <time>2018-05-20T09:16:45Z</time>
      </trkpt>
      <trkpt lat="45.96186" lon="4.77262">
        <ele>216</ele>
        <time>2018-05-20T09:16:46Z</time>
      </trkpt>
      <trkpt lat="45.96179" lon="4.77257">
        <ele>216</ele>
        <time>2018-05-20T09:16:47Z</time>
      </trkpt>
      <trkpt lat="45.96172" lon="4.77254">
        <ele>216</ele>
        <time>2018-05-20T09:16:48Z</time>
      </trkpt>
      <trkpt lat="45.96167" lon="4.77249">
        <ele>216</ele>
        <time>2018-05-20T09:16:49Z</time>
      </trkpt>
      <trkpt lat="45.9616" lon="4.77245">
        <ele>216</ele>
        <time>2018-05-20T09:16:50Z</time>
      </trkpt>
      <trkpt lat="45.96152" lon="4.77243">
        <ele>215</ele>
        <time>2018-05-20T09:16:51Z</time>
      </trkpt>
      <trkpt lat="45.96144" lon="4.7724">
        <ele>215</ele>
        <time>2018-05-20T09:16:52Z</time>
      </trkpt>
      <trkpt lat="45.96136" lon="4.77237">
        <ele>215</ele>
        <time>2018-05-20T09:16:53Z</time>
      </trkpt>
      <trkpt lat="45.96129" lon="4.77236">
        <ele>215</ele>
        <time>2018-05-20T09:16:54Z</time>
      </trkpt>
      <trkpt lat="45.9612" lon="4.77237">
        <ele>214</ele>
        <time>2018-05-20T09:16:55Z</time>
      </trkpt>
      <trkpt lat="45.96112" lon="4.77237">
        <ele>214</ele>
        <time>2018-05-20T09:16:56Z</time>
      </trkpt>
      <trkpt lat="45.96105" lon="4.77236">
        <ele>213</ele>
        <time>2018-05-20T09:16:57Z</time>
      </trkpt>
      <trkpt lat="45.96096" lon="4.77238">
        <ele>213</ele>
        <time>2018-05-20T09:16:58Z</time>
      </trkpt>
      <trkpt lat="45.96085" lon="4.77237">
        <ele>212</ele>
        <time>2018-05-20T09:16:59Z</time>
      </trkpt>
      <trkpt lat="45.96077" lon="4.77237">
        <ele>210</ele>
        <time>2018-05-20T09:17:00Z</time>
      </trkpt>
      <trkpt lat="45.96068" lon="4.77238">
        <ele>210</ele>
        <time>2018-05-20T09:17:01Z</time>
      </trkpt>
      <trkpt lat="45.96059" lon="4.77238">
        <ele>209</ele>
        <time>2018-05-20T09:17:02Z</time>
      </trkpt>
      <trkpt lat="45.96049" lon="4.77244">
        <ele>209</ele>
        <time>2018-05-20T09:17:03Z</time>
      </trkpt>
      <trkpt lat="45.9604" lon="4.77244">
        <ele>208</ele>
        <time>2018-05-20T09:17:04Z</time>
      </trkpt>
      <trkpt lat="45.9603" lon="4.77246">
        <ele>207</ele>
        <time>2018-05-20T09:17:05Z</time>
      </trkpt>
      <trkpt lat="45.96021" lon="4.77246">
        <ele>207</ele>
        <time>2018-05-20T09:17:06Z</time>
      </trkpt>
      <trkpt lat="45.96012" lon="4.77246">
        <ele>206</ele>
        <time>2018-05-20T09:17:07Z</time>
      </trkpt>
      <trkpt lat="45.96003" lon="4.77245">
        <ele>204</ele>
        <time>2018-05-20T09:17:08Z</time>
      </trkpt>
      <trkpt lat="45.95995" lon="4.77242">
        <ele>203</ele>
        <time>2018-05-20T09:17:09Z</time>
      </trkpt>
      <trkpt lat="45.95985" lon="4.7724">
        <ele>202</ele>
        <time>2018-05-20T09:17:10Z</time>
      </trkpt>
      <trkpt lat="45.95976" lon="4.77233">
        <ele>202</ele>
        <time>2018-05-20T09:17:11Z</time>
      </trkpt>
      <trkpt lat="45.95968" lon="4.77224">
        <ele>202</ele>
        <time>2018-05-20T09:17:12Z</time>
      </trkpt>
      <trkpt lat="45.95961" lon="4.77214">
        <ele>201</ele>
        <time>2018-05-20T09:17:13Z</time>
      </trkpt>
      <trkpt lat="45.95955" lon="4.77201">
        <ele>201</ele>
        <time>2018-05-20T09:17:14Z</time>
      </trkpt>
      <trkpt lat="45.95951" lon="4.77189">
        <ele>201</ele>
        <time>2018-05-20T09:17:15Z</time>
      </trkpt>
      <trkpt lat="45.95948" lon="4.77174">
        <ele>201</ele>
        <time>2018-05-20T09:17:16Z</time>
      </trkpt>
      <trkpt lat="45.95947" lon="4.7716">
        <ele>201</ele>
        <time>2018-05-20T09:17:17Z</time>
      </trkpt>
      <trkpt lat="45.95946" lon="4.77145">
        <ele>201</ele>
        <time>2018-05-20T09:17:18Z</time>
      </trkpt>
      <trkpt lat="45.95945" lon="4.7713">
        <ele>202</ele>
        <time>2018-05-20T09:17:19Z</time>
      </trkpt>
      <trkpt lat="45.95945" lon="4.77116">
        <ele>202</ele>
        <time>2018-05-20T09:17:20Z</time>
      </trkpt>
      <trkpt lat="45.95947" lon="4.77101">
        <ele>201</ele>
        <time>2018-05-20T09:17:21Z</time>
      </trkpt>
      <trkpt lat="45.95949" lon="4.77086">
        <ele>202</ele>
        <time>2018-05-20T09:17:22Z</time>
      </trkpt>
      <trkpt lat="45.95953" lon="4.77073">
        <ele>200</ele>
        <time>2018-05-20T09:17:23Z</time>
      </trkpt>
      <trkpt lat="45.95957" lon="4.77059">
        <ele>200</ele>
        <time>2018-05-20T09:17:24Z</time>
      </trkpt>
      <trkpt lat="45.9596" lon="4.77045">
        <ele>200</ele>
        <time>2018-05-20T09:17:25Z</time>
      </trkpt>
      <trkpt lat="45.95965" lon="4.77033">
        <ele>200</ele>
        <time>2018-05-20T09:17:26Z</time>
      </trkpt>
      <trkpt lat="45.9597" lon="4.7702">
        <ele>200</ele>
        <time>2018-05-20T09:17:27Z</time>
      </trkpt>
      <trkpt lat="45.95975" lon="4.77007">
        <ele>200</ele>
        <time>2018-05-20T09:17:28Z</time>
      </trkpt>
      <trkpt lat="45.95979" lon="4.76995">
        <ele>198</ele>
        <time>2018-05-20T09:17:29Z</time>
      </trkpt>
      <trkpt lat="45.95983" lon="4.76982">
        <ele>197</ele>
        <time>2018-05-20T09:17:30Z</time>
      </trkpt>
      <trkpt lat="45.95981" lon="4.76968">
        <ele>197</ele>
        <time>2018-05-20T09:17:31Z</time>
      </trkpt>
      <trkpt lat="45.95982" lon="4.76955">
        <ele>196</ele>
        <time>2018-05-20T09:17:32Z</time>
      </trkpt>
      <trkpt lat="45.95975" lon="4.76943">
        <ele>196</ele>
        <time>2018-05-20T09:17:33Z</time>
      </trkpt>
      <trkpt lat="45.95968" lon="4.76932">
        <ele>195</ele>
        <time>2018-05-20T09:17:34Z</time>
      </trkpt>
      <trkpt lat="45.9596" lon="4.76922">
        <ele>195</ele>
        <time>2018-05-20T09:17:35Z</time>
      </trkpt>
      <trkpt lat="45.95951" lon="4.76913">
        <ele>193</ele>
        <time>2018-05-20T09:17:36Z</time>
      </trkpt>
      <trkpt lat="45.95943" lon="4.76905">
        <ele>192</ele>
        <time>2018-05-20T09:17:37Z</time>
      </trkpt>
      <trkpt lat="45.95935" lon="4.76896">
        <ele>192</ele>
        <time>2018-05-20T09:17:38Z</time>
      </trkpt>
      <trkpt lat="45.95927" lon="4.76887">
        <ele>192</ele>
        <time>2018-05-20T09:17:39Z</time>
      </trkpt>
      <trkpt lat="45.95918" lon="4.76878">
        <ele>192</ele>
        <time>2018-05-20T09:17:40Z</time>
      </trkpt>
      <trkpt lat="45.95911" lon="4.76868">
        <ele>191</ele>
        <time>2018-05-20T09:17:41Z</time>
      </trkpt>
      <trkpt lat="45.95902" lon="4.7686">
        <ele>191</ele>
        <time>2018-05-20T09:17:42Z</time>
      </trkpt>
      <trkpt lat="45.95893" lon="4.76851">
        <ele>191</ele>
        <time>2018-05-20T09:17:43Z</time>
      </trkpt>
      <trkpt lat="45.95884" lon="4.76842">
        <ele>191</ele>
        <time>2018-05-20T09:17:44Z</time>
      </trkpt>
      <trkpt lat="45.95876" lon="4.76833">
        <ele>191</ele>
        <time>2018-05-20T09:17:45Z</time>
      </trkpt>
      <trkpt lat="45.95869" lon="4.76824">
        <ele>191</ele>
        <time>2018-05-20T09:17:46Z</time>
      </trkpt>
      <trkpt lat="45.95861" lon="4.76817">
        <ele>191</ele>
        <time>2018-05-20T09:17:47Z</time>
      </trkpt>
      <trkpt lat="45.95853" lon="4.76809">
        <ele>191</ele>
        <time>2018-05-20T09:17:48Z</time>
      </trkpt>
      <trkpt lat="45.95846" lon="4.76801">
        <ele>191</ele>
        <time>2018-05-20T09:17:49Z</time>
      </trkpt>
      <trkpt lat="45.9584" lon="4.76792">
        <ele>191</ele>
        <time>2018-05-20T09:17:50Z</time>
      </trkpt>
      <trkpt lat="45.95834" lon="4.76783">
        <ele>191</ele>
        <time>2018-05-20T09:17:51Z</time>
      </trkpt>
      <trkpt lat="45.95831" lon="4.76773">
        <ele>190</ele>
        <time>2018-05-20T09:17:52Z</time>
      </trkpt>
      <trkpt lat="45.95826" lon="4.76763">
        <ele>190</ele>
        <time>2018-05-20T09:17:53Z</time>
      </trkpt>
      <trkpt lat="45.95824" lon="4.76751">
        <ele>191</ele>
        <time>2018-05-20T09:17:54Z</time>
      </trkpt>
      <trkpt lat="45.95822" lon="4.76739">
        <ele>190</ele>
        <time>2018-05-20T09:17:55Z</time>
      </trkpt>
      <trkpt lat="45.95822" lon="4.76726">
        <ele>190</ele>
        <time>2018-05-20T09:17:56Z</time>
      </trkpt>
      <trkpt lat="45.95821" lon="4.76714">
        <ele>189</ele>
        <time>2018-05-20T09:17:57Z</time>
      </trkpt>
      <trkpt lat="45.95819" lon="4.76704">
        <ele>189</ele>
        <time>2018-05-20T09:17:58Z</time>
      </trkpt>
      <trkpt lat="45.95817" lon="4.76694">
        <ele>189</ele>
        <time>2018-05-20T09:17:59Z</time>
      </trkpt>
      <trkpt lat="45.95815" lon="4.76683">
        <ele>189</ele>
        <time>2018-05-20T09:18:00Z</time>
      </trkpt>
      <trkpt lat="45.95813" lon="4.76674">
        <ele>189</ele>
        <time>2018-05-20T09:18:01Z</time>
      </trkpt>
      <trkpt lat="45.95812" lon="4.76664">
        <ele>188</ele>
        <time>2018-05-20T09:18:02Z</time>
      </trkpt>
      <trkpt lat="45.95811" lon="4.76655">
        <ele>188</ele>
        <time>2018-05-20T09:18:03Z</time>
      </trkpt>
      <trkpt lat="45.9581" lon="4.76646">
        <ele>188</ele>
        <time>2018-05-20T09:18:04Z</time>
      </trkpt>
      <trkpt lat="45.95809" lon="4.76634">
        <ele>188</ele>
        <time>2018-05-20T09:18:05Z</time>
      </trkpt>
      <trkpt lat="45.95808" lon="4.76625">
        <ele>188</ele>
        <time>2018-05-20T09:18:06Z</time>
      </trkpt>
      <trkpt lat="45.95807" lon="4.76614">
        <ele>188</ele>
        <time>2018-05-20T09:18:07Z</time>
      </trkpt>
      <trkpt lat="45.95806" lon="4.76605">
        <ele>188</ele>
        <time>2018-05-20T09:18:08Z</time>
      </trkpt>
      <trkpt lat="45.95804" lon="4.76594">
        <ele>188</ele>
        <time>2018-05-20T09:18:09Z</time>
      </trkpt>
      <trkpt lat="45.95802" lon="4.76584">
        <ele>187</ele>
        <time>2018-05-20T09:18:10Z</time>
      </trkpt>
      <trkpt lat="45.958" lon="4.76576">
        <ele>187</ele>
        <time>2018-05-20T09:18:11Z</time>
      </trkpt>
      <trkpt lat="45.95799" lon="4.76566">
        <ele>187</ele>
        <time>2018-05-20T09:18:12Z</time>
      </trkpt>
      <trkpt lat="45.95798" lon="4.76556">
        <ele>187</ele>
        <time>2018-05-20T09:18:13Z</time>
      </trkpt>
      <trkpt lat="45.95796" lon="4.76545">
        <ele>187</ele>
        <time>2018-05-20T09:18:14Z</time>
      </trkpt>
      <trkpt lat="45.95794" lon="4.76535">
        <ele>187</ele>
        <time>2018-05-20T09:18:15Z</time>
      </trkpt>
      <trkpt lat="45.95793" lon="4.76525">
        <ele>187</ele>
        <time>2018-05-20T09:18:16Z</time>
      </trkpt>
      <trkpt lat="45.95792" lon="4.76515">
        <ele>187</ele>
        <time>2018-05-20T09:18:17Z</time>
      </trkpt>
      <trkpt lat="45.9579" lon="4.76504">
        <ele>187</ele>
        <time>2018-05-20T09:18:18Z</time>
      </trkpt>
      <trkpt lat="45.95789" lon="4.76493">
        <ele>186</ele>
        <time>2018-05-20T09:18:19Z</time>
      </trkpt>
      <trkpt lat="45.95787" lon="4.76484">
        <ele>186</ele>
        <time>2018-05-20T09:18:20Z</time>
      </trkpt>
      <trkpt lat="45.95786" lon="4.76474">
        <ele>186</ele>
        <time>2018-05-20T09:18:21Z</time>
      </trkpt>
      <trkpt lat="45.95783" lon="4.76463">
        <ele>186</ele>
        <time>2018-05-20T09:18:22Z</time>
      </trkpt>
      <trkpt lat="45.95782" lon="4.76453">
        <ele>186</ele>
        <time>2018-05-20T09:18:23Z</time>
      </trkpt>
      <trkpt lat="45.95781" lon="4.76443">
        <ele>186</ele>
        <time>2018-05-20T09:18:24Z</time>
      </trkpt>
      <trkpt lat="45.95779" lon="4.76432">
        <ele>186</ele>
        <time>2018-05-20T09:18:25Z</time>
      </trkpt>
      <trkpt lat="45.95779" lon="4.76423">
        <ele>186</ele>
        <time>2018-05-20T09:18:26Z</time>
      </trkpt>
      <trkpt lat="45.95778" lon="4.76414">
        <ele>186</ele>
        <time>2018-05-20T09:18:27Z</time>
      </trkpt>
      <trkpt lat="45.95777" lon="4.76404">
        <ele>186</ele>
        <time>2018-05-20T09:18:28Z</time>
      </trkpt>
      <trkpt lat="45.95777" lon="4.76393">
        <ele>186</ele>
        <time>2018-05-20T09:18:29Z</time>
      </trkpt>
      <trkpt lat="45.95776" lon="4.76384">
        <ele>186</ele>
        <time>2018-05-20T09:18:30Z</time>
      </trkpt>
      <trkpt lat="45.95776" lon="4.76374">
        <ele>186</ele>
        <time>2018-05-20T09:18:31Z</time>
      </trkpt>
      <trkpt lat="45.95776" lon="4.76365">
        <ele>186</ele>
        <time>2018-05-20T09:18:32Z</time>
      </trkpt>
      <trkpt lat="45.95775" lon="4.76356">
        <ele>186</ele>
        <time>2018-05-20T09:18:33Z</time>
      </trkpt>
      <trkpt lat="45.95774" lon="4.76346">
        <ele>186</ele>
        <time>2018-05-20T09:18:34Z</time>
      </trkpt>
      <trkpt lat="45.95773" lon="4.76339">
        <ele>186</ele>
        <time>2018-05-20T09:18:35Z</time>
      </trkpt>
      <trkpt lat="45.95773" lon="4.7633">
        <ele>185</ele>
        <time>2018-05-20T09:18:36Z</time>
      </trkpt>
      <trkpt lat="45.95772" lon="4.76321">
        <ele>185</ele>
        <time>2018-05-20T09:18:37Z</time>
      </trkpt>
      <trkpt lat="45.95771" lon="4.76312">
        <ele>186</ele>
        <time>2018-05-20T09:18:38Z</time>
      </trkpt>
      <trkpt lat="45.9577" lon="4.76302">
        <ele>186</ele>
        <time>2018-05-20T09:18:39Z</time>
      </trkpt>
      <trkpt lat="45.95769" lon="4.76292">
        <ele>186</ele>
        <time>2018-05-20T09:18:40Z</time>
      </trkpt>
      <trkpt lat="45.95768" lon="4.76282">
        <ele>186</ele>
        <time>2018-05-20T09:18:41Z</time>
      </trkpt>
      <trkpt lat="45.95767" lon="4.76273">
        <ele>186</ele>
        <time>2018-05-20T09:18:42Z</time>
      </trkpt>
      <trkpt lat="45.95766" lon="4.76263">
        <ele>185</ele>
        <time>2018-05-20T09:18:43Z</time>
      </trkpt>
      <trkpt lat="45.95766" lon="4.76252">
        <ele>185</ele>
        <time>2018-05-20T09:18:44Z</time>
      </trkpt>
      <trkpt lat="45.95765" lon="4.76242">
        <ele>186</ele>
        <time>2018-05-20T09:18:45Z</time>
      </trkpt>
      <trkpt lat="45.95764" lon="4.76233">
        <ele>186</ele>
        <time>2018-05-20T09:18:46Z</time>
      </trkpt>
      <trkpt lat="45.95763" lon="4.76223">
        <ele>186</ele>
        <time>2018-05-20T09:18:47Z</time>
      </trkpt>
      <trkpt lat="45.95762" lon="4.76212">
        <ele>186</ele>
        <time>2018-05-20T09:18:48Z</time>
      </trkpt>
      <trkpt lat="45.95763" lon="4.76201">
        <ele>186</ele>
        <time>2018-05-20T09:18:49Z</time>
      </trkpt>
      <trkpt lat="45.95762" lon="4.76191">
        <ele>186</ele>
        <time>2018-05-20T09:18:50Z</time>
      </trkpt>
      <trkpt lat="45.95761" lon="4.7618">
        <ele>186</ele>
        <time>2018-05-20T09:18:51Z</time>
      </trkpt>
      <trkpt lat="45.9576" lon="4.76171">
        <ele>185</ele>
        <time>2018-05-20T09:18:52Z</time>
      </trkpt>
      <trkpt lat="45.95762" lon="4.76159">
        <ele>186</ele>
        <time>2018-05-20T09:18:53Z</time>
      </trkpt>
      <trkpt lat="45.95761" lon="4.7615">
        <ele>186</ele>
        <time>2018-05-20T09:18:54Z</time>
      </trkpt>
      <trkpt lat="45.9576" lon="4.7614">
        <ele>186</ele>
        <time>2018-05-20T09:18:55Z</time>
      </trkpt>
      <trkpt lat="45.9576" lon="4.76131">
        <ele>186</ele>
        <time>2018-05-20T09:18:56Z</time>
      </trkpt>
      <trkpt lat="45.95758" lon="4.76121">
        <ele>186</ele>
        <time>2018-05-20T09:18:57Z</time>
      </trkpt>
      <trkpt lat="45.95756" lon="4.76113">
        <ele>186</ele>
        <time>2018-05-20T09:18:58Z</time>
      </trkpt>
      <trkpt lat="45.95756" lon="4.76105">
        <ele>186</ele>
        <time>2018-05-20T09:18:59Z</time>
      </trkpt>
      <trkpt lat="45.95754" lon="4.76097">
        <ele>186</ele>
        <time>2018-05-20T09:19:00Z</time>
      </trkpt>
      <trkpt lat="45.9575" lon="4.76088">
        <ele>185</ele>
        <time>2018-05-20T09:19:01Z</time>
      </trkpt>
      <trkpt lat="45.95747" lon="4.76079">
        <ele>185</ele>
        <time>2018-05-20T09:19:02Z</time>
      </trkpt>
      <trkpt lat="45.95744" lon="4.76071">
        <ele>185</ele>
        <time>2018-05-20T09:19:03Z</time>
      </trkpt>
      <trkpt lat="45.95741" lon="4.76062">
        <ele>184</ele>
        <time>2018-05-20T09:19:04Z</time>
      </trkpt>
      <trkpt lat="45.95738" lon="4.76054">
        <ele>184</ele>
        <time>2018-05-20T09:19:05Z</time>
      </trkpt>
      <trkpt lat="45.95734" lon="4.76046">
        <ele>184</ele>
        <time>2018-05-20T09:19:06Z</time>
      </trkpt>
      <trkpt lat="45.95731" lon="4.76038">
        <ele>184</ele>
        <time>2018-05-20T09:19:07Z</time>
      </trkpt>
      <trkpt lat="45.95727" lon="4.76031">
        <ele>184</ele>
        <time>2018-05-20T09:19:08Z</time>
      </trkpt>
      <trkpt lat="45.95723" lon="4.76022">
        <ele>184</ele>
        <time>2018-05-20T09:19:09Z</time>
      </trkpt>
      <trkpt lat="45.95719" lon="4.76014">
        <ele>184</ele>
        <time>2018-05-20T09:19:10Z</time>
      </trkpt>
      <trkpt lat="45.95716" lon="4.76006">
        <ele>184</ele>
        <time>2018-05-20T09:19:11Z</time>
      </trkpt>
      <trkpt lat="45.95712" lon="4.75998">
        <ele>185</ele>
        <time>2018-05-20T09:19:12Z</time>
      </trkpt>
      <trkpt lat="45.95708" lon="4.75991">
        <ele>185</ele>
        <time>2018-05-20T09:19:13Z</time>
      </trkpt>
      <trkpt lat="45.95703" lon="4.75983">
        <ele>185</ele>
        <time>2018-05-20T09:19:14Z</time>
      </trkpt>
      <trkpt lat="45.95699" lon="4.75975">
        <ele>185</ele>
        <time>2018-05-20T09:19:15Z</time>
      </trkpt>
      <trkpt lat="45.95696" lon="4.75966">
        <ele>185</ele>
        <time>2018-05-20T09:19:16Z</time>
      </trkpt>
      <trkpt lat="45.95691" lon="4.7596">
        <ele>185</ele>
        <time>2018-05-20T09:19:17Z</time>
      </trkpt>
      <trkpt lat="45.95687" lon="4.75951">
        <ele>185</ele>
        <time>2018-05-20T09:19:18Z</time>
      </trkpt>
      <trkpt lat="45.95683" lon="4.75943">
        <ele>185</ele>
        <time>2018-05-20T09:19:19Z</time>
      </trkpt>
      <trkpt lat="45.9568" lon="4.75935">
        <ele>185</ele>
        <time>2018-05-20T09:19:20Z</time>
      </trkpt>
      <trkpt lat="45.95676" lon="4.75927">
        <ele>185</ele>
        <time>2018-05-20T09:19:21Z</time>
      </trkpt>
      <trkpt lat="45.95673" lon="4.75918">
        <ele>184</ele>
        <time>2018-05-20T09:19:22Z</time>
      </trkpt>
      <trkpt lat="45.9567" lon="4.7591">
        <ele>185</ele>
        <time>2018-05-20T09:19:23Z</time>
      </trkpt>
      <trkpt lat="45.95667" lon="4.75901">
        <ele>185</ele>
        <time>2018-05-20T09:19:24Z</time>
      </trkpt>
      <trkpt lat="45.95665" lon="4.75893">
        <ele>184</ele>
        <time>2018-05-20T09:19:25Z</time>
      </trkpt>
      <trkpt lat="45.95662" lon="4.75885">
        <ele>184</ele>
        <time>2018-05-20T09:19:26Z</time>
      </trkpt>
      <trkpt lat="45.95659" lon="4.75877">
        <ele>184</ele>
        <time>2018-05-20T09:19:27Z</time>
      </trkpt>
      <trkpt lat="45.95657" lon="4.75869">
        <ele>184</ele>
        <time>2018-05-20T09:19:28Z</time>
      </trkpt>
      <trkpt lat="45.95654" lon="4.75861">
        <ele>184</ele>
        <time>2018-05-20T09:19:29Z</time>
      </trkpt>
      <trkpt lat="45.95652" lon="4.75854">
        <ele>184</ele>
        <time>2018-05-20T09:19:30Z</time>
      </trkpt>
      <trkpt lat="45.9565" lon="4.75845">
        <ele>185</ele>
        <time>2018-05-20T09:19:31Z</time>
      </trkpt>
      <trkpt lat="45.95649" lon="4.75837">
        <ele>185</ele>
        <time>2018-05-20T09:19:32Z</time>
      </trkpt>
      <trkpt lat="45.95648" lon="4.75829">
        <ele>185</ele>
        <time>2018-05-20T09:19:33Z</time>
      </trkpt>
      <trkpt lat="45.95646" lon="4.75821">
        <ele>185</ele>
        <time>2018-05-20T09:19:34Z</time>
      </trkpt>
      <trkpt lat="45.95645" lon="4.75813">
        <ele>185</ele>
        <time>2018-05-20T09:19:35Z</time>
      </trkpt>
      <trkpt lat="45.95644" lon="4.75805">
        <ele>185</ele>
        <time>2018-05-20T09:19:36Z</time>
      </trkpt>
      <trkpt lat="45.95642" lon="4.75797">
        <ele>185</ele>
        <time>2018-05-20T09:19:37Z</time>
      </trkpt>
      <trkpt lat="45.9564" lon="4.75789">
        <ele>185</ele>
        <time>2018-05-20T09:19:38Z</time>
      </trkpt>
      <trkpt lat="45.9564" lon="4.75781">
        <ele>185</ele>
        <time>2018-05-20T09:19:39Z</time>
      </trkpt>
      <trkpt lat="45.95638" lon="4.75775">
        <ele>186</ele>
        <time>2018-05-20T09:19:40Z</time>
      </trkpt>
      <trkpt lat="45.95637" lon="4.75767">
        <ele>186</ele>
        <time>2018-05-20T09:19:41Z</time>
      </trkpt>
      <trkpt lat="45.95636" lon="4.75759">
        <ele>186</ele>
        <time>2018-05-20T09:19:42Z</time>
      </trkpt>
      <trkpt lat="45.95634" lon="4.75751">
        <ele>186</ele>
        <time>2018-05-20T09:19:43Z</time>
      </trkpt>
      <trkpt lat="45.95634" lon="4.75743">
        <ele>187</ele>
        <time>2018-05-20T09:19:44Z</time>
      </trkpt>
      <trkpt lat="45.95632" lon="4.75734">
        <ele>187</ele>
        <time>2018-05-20T09:19:45Z</time>
      </trkpt>
      <trkpt lat="45.95631" lon="4.75726">
        <ele>187</ele>
        <time>2018-05-20T09:19:46Z</time>
      </trkpt>
      <trkpt lat="45.9563" lon="4.75718">
        <ele>187</ele>
        <time>2018-05-20T09:19:47Z</time>
      </trkpt>
      <trkpt lat="45.95629" lon="4.7571">
        <ele>187</ele>
        <time>2018-05-20T09:19:48Z</time>
      </trkpt>
      <trkpt lat="45.95628" lon="4.75703">
        <ele>187</ele>
        <time>2018-05-20T09:19:49Z</time>
      </trkpt>
      <trkpt lat="45.95627" lon="4.75695">
        <ele>187</ele>
        <time>2018-05-20T09:19:50Z</time>
      </trkpt>
      <trkpt lat="45.95626" lon="4.75687">
        <ele>187</ele>
        <time>2018-05-20T09:19:51Z</time>
      </trkpt>
      <trkpt lat="45.95624" lon="4.75679">
        <ele>187</ele>
        <time>2018-05-20T09:19:52Z</time>
      </trkpt>
      <trkpt lat="45.95623" lon="4.7567">
        <ele>187</ele>
        <time>2018-05-20T09:19:53Z</time>
      </trkpt>
      <trkpt lat="45.95621" lon="4.75662">
        <ele>188</ele>
        <time>2018-05-20T09:19:54Z</time>
      </trkpt>
      <trkpt lat="45.95619" lon="4.75655">
        <ele>188</ele>
        <time>2018-05-20T09:19:55Z</time>
      </trkpt>
      <trkpt lat="45.95617" lon="4.75646">
        <ele>188</ele>
        <time>2018-05-20T09:19:56Z</time>
      </trkpt>
      <trkpt lat="45.95615" lon="4.75638">
        <ele>188</ele>
        <time>2018-05-20T09:19:57Z</time>
      </trkpt>
      <trkpt lat="45.95612" lon="4.75631">
        <ele>188</ele>
        <time>2018-05-20T09:19:58Z</time>
      </trkpt>
      <trkpt lat="45.9561" lon="4.75622">
        <ele>188</ele>
        <time>2018-05-20T09:19:59Z</time>
      </trkpt>
      <trkpt lat="45.95607" lon="4.75614">
        <ele>188</ele>
        <time>2018-05-20T09:20:00Z</time>
      </trkpt>
      <trkpt lat="45.95604" lon="4.75607">
        <ele>187</ele>
        <time>2018-05-20T09:20:01Z</time>
      </trkpt>
      <trkpt lat="45.95601" lon="4.756">
        <ele>187</ele>
        <time>2018-05-20T09:20:02Z</time>
      </trkpt>
      <trkpt lat="45.95599" lon="4.75592">
        <ele>187</ele>
        <time>2018-05-20T09:20:03Z</time>
      </trkpt>
      <trkpt lat="45.95595" lon="4.75585">
        <ele>187</ele>
        <time>2018-05-20T09:20:04Z</time>
      </trkpt>
      <trkpt lat="45.95592" lon="4.75577">
        <ele>187</ele>
        <time>2018-05-20T09:20:05Z</time>
      </trkpt>
      <trkpt lat="45.95588" lon="4.75569">
        <ele>188</ele>
        <time>2018-05-20T09:20:06Z</time>
      </trkpt>
      <trkpt lat="45.95584" lon="4.75563">
        <ele>188</ele>
        <time>2018-05-20T09:20:07Z</time>
      </trkpt>
      <trkpt lat="45.9558" lon="4.75556">
        <ele>186</ele>
        <time>2018-05-20T09:20:08Z</time>
      </trkpt>
      <trkpt lat="45.95575" lon="4.75549">
        <ele>186</ele>
        <time>2018-05-20T09:20:09Z</time>
      </trkpt>
      <trkpt lat="45.95571" lon="4.75544">
        <ele>186</ele>
        <time>2018-05-20T09:20:10Z</time>
      </trkpt>
      <trkpt lat="45.95566" lon="4.75538">
        <ele>186</ele>
        <time>2018-05-20T09:20:11Z</time>
      </trkpt>
      <trkpt lat="45.95562" lon="4.75531">
        <ele>186</ele>
        <time>2018-05-20T09:20:12Z</time>
      </trkpt>
      <trkpt lat="45.95557" lon="4.75526">
        <ele>186</ele>
        <time>2018-05-20T09:20:13Z</time>
      </trkpt>
      <trkpt lat="45.95552" lon="4.75521">
        <ele>186</ele>
        <time>2018-05-20T09:20:14Z</time>
      </trkpt>
      <trkpt lat="45.95548" lon="4.75515">
        <ele>186</ele>
        <time>2018-05-20T09:20:15Z</time>
      </trkpt>
      <trkpt lat="45.95543" lon="4.75508">
        <ele>186</ele>
        <time>2018-05-20T09:20:16Z</time>
      </trkpt>
      <trkpt lat="45.9554" lon="4.75501">
        <ele>186</ele>
        <time>2018-05-20T09:20:17Z</time>
      </trkpt>
      <trkpt lat="45.95538" lon="4.75492">
        <ele>187</ele>
        <time>2018-05-20T09:20:18Z</time>
      </trkpt>
      <trkpt lat="45.95537" lon="4.75485">
        <ele>187</ele>
        <time>2018-05-20T09:20:19Z</time>
      </trkpt>
      <trkpt lat="45.95538" lon="4.75476">
        <ele>187</ele>
        <time>2018-05-20T09:20:20Z</time>
      </trkpt>
      <trkpt lat="45.95537" lon="4.75469">
        <ele>187</ele>
        <time>2018-05-20T09:20:21Z</time>
      </trkpt>
      <trkpt lat="45.95535" lon="4.7546">
        <ele>187</ele>
        <time>2018-05-20T09:20:22Z</time>
      </trkpt>
      <trkpt lat="45.95532" lon="4.75453">
        <ele>187</ele>
        <time>2018-05-20T09:20:23Z</time>
      </trkpt>
      <trkpt lat="45.95528" lon="4.75447">
        <ele>187</ele>
        <time>2018-05-20T09:20:24Z</time>
      </trkpt>
      <trkpt lat="45.95524" lon="4.75441">
        <ele>187</ele>
        <time>2018-05-20T09:20:25Z</time>
      </trkpt>
      <trkpt lat="45.9552" lon="4.75434">
        <ele>187</ele>
        <time>2018-05-20T09:20:26Z</time>
      </trkpt>
      <trkpt lat="45.95516" lon="4.75427">
        <ele>186</ele>
        <time>2018-05-20T09:20:27Z</time>
      </trkpt>
      <trkpt lat="45.95512" lon="4.7542">
        <ele>186</ele>
        <time>2018-05-20T09:20:28Z</time>
      </trkpt>
      <trkpt lat="45.95512" lon="4.75413">
        <ele>187</ele>
        <time>2018-05-20T09:20:29Z</time>
      </trkpt>
      <trkpt lat="45.9551" lon="4.75406">
        <ele>187</ele>
        <time>2018-05-20T09:20:30Z</time>
      </trkpt>
      <trkpt lat="45.95506" lon="4.75399">
        <ele>187</ele>
        <time>2018-05-20T09:20:31Z</time>
      </trkpt>
      <trkpt lat="45.95503" lon="4.75392">
        <ele>188</ele>
        <time>2018-05-20T09:20:32Z</time>
      </trkpt>
      <trkpt lat="45.955" lon="4.75386">
        <ele>185</ele>
        <time>2018-05-20T09:20:33Z</time>
      </trkpt>
      <trkpt lat="45.95497" lon="4.7538">
        <ele>185</ele>
        <time>2018-05-20T09:20:34Z</time>
      </trkpt>
      <trkpt lat="45.95492" lon="4.75374">
        <ele>185</ele>
        <time>2018-05-20T09:20:35Z</time>
      </trkpt>
      <trkpt lat="45.95489" lon="4.75368">
        <ele>186</ele>
        <time>2018-05-20T09:20:36Z</time>
      </trkpt>
      <trkpt lat="45.95486" lon="4.75362">
        <ele>186</ele>
        <time>2018-05-20T09:20:37Z</time>
      </trkpt>
      <trkpt lat="45.95484" lon="4.75355">
        <ele>186</ele>
        <time>2018-05-20T09:20:38Z</time>
      </trkpt>
      <trkpt lat="45.95481" lon="4.75349">
        <ele>186</ele>
        <time>2018-05-20T09:20:39Z</time>
      </trkpt>
      <trkpt lat="45.95478" lon="4.75343">
        <ele>186</ele>
        <time>2018-05-20T09:20:40Z</time>
      </trkpt>
      <trkpt lat="45.95475" lon="4.75337">
        <ele>186</ele>
        <time>2018-05-20T09:20:41Z</time>
      </trkpt>
      <trkpt lat="45.9547" lon="4.75326">
        <ele>188</ele>
        <time>2018-05-20T09:20:43Z</time>
      </trkpt>
      <trkpt lat="45.95468" lon="4.75321">
        <ele>188</ele>
        <time>2018-05-20T09:20:44Z</time>
      </trkpt>
      <trkpt lat="45.95466" lon="4.75315">
        <ele>188</ele>
        <time>2018-05-20T09:20:45Z</time>
      </trkpt>
      <trkpt lat="45.95463" lon="4.75309">
        <ele>188</ele>
        <time>2018-05-20T09:20:46Z</time>
      </trkpt>
      <trkpt lat="45.9546" lon="4.75303">
        <ele>188</ele>
        <time>2018-05-20T09:20:47Z</time>
      </trkpt>
      <trkpt lat="45.95457" lon="4.75298">
        <ele>188</ele>
        <time>2018-05-20T09:20:48Z</time>
      </trkpt>
      <trkpt lat="45.95454" lon="4.75293">
        <ele>188</ele>
        <time>2018-05-20T09:20:49Z</time>
      </trkpt>
      <trkpt lat="45.95451" lon="4.75287">
        <ele>188</ele>
        <time>2018-05-20T09:20:50Z</time>
      </trkpt>
      <trkpt lat="45.95448" lon="4.75282">
        <ele>188</ele>
        <time>2018-05-20T09:20:51Z</time>
      </trkpt>
      <trkpt lat="45.95444" lon="4.75276">
        <ele>189</ele>
        <time>2018-05-20T09:20:52Z</time>
      </trkpt>
      <trkpt lat="45.95441" lon="4.75269">
        <ele>189</ele>
        <time>2018-05-20T09:20:53Z</time>
      </trkpt>
      <trkpt lat="45.95438" lon="4.75263">
        <ele>189</ele>
        <time>2018-05-20T09:20:54Z</time>
      </trkpt>
      <trkpt lat="45.95434" lon="4.75258">
        <ele>189</ele>
        <time>2018-05-20T09:20:55Z</time>
      </trkpt>
      <trkpt lat="45.95432" lon="4.75253">
        <ele>189</ele>
        <time>2018-05-20T09:20:56Z</time>
      </trkpt>
      <trkpt lat="45.95428" lon="4.75247">
        <ele>190</ele>
        <time>2018-05-20T09:20:57Z</time>
      </trkpt>
      <trkpt lat="45.95423" lon="4.75242">
        <ele>190</ele>
        <time>2018-05-20T09:20:58Z</time>
      </trkpt>
      <trkpt lat="45.95417" lon="4.75233">
        <ele>190</ele>
        <time>2018-05-20T09:21:00Z</time>
      </trkpt>
      <trkpt lat="45.95415" lon="4.75227">
        <ele>189</ele>
        <time>2018-05-20T09:21:01Z</time>
      </trkpt>
      <trkpt lat="45.95411" lon="4.75222">
        <ele>189</ele>
        <time>2018-05-20T09:21:02Z</time>
      </trkpt>
      <trkpt lat="45.95408" lon="4.75217">
        <ele>189</ele>
        <time>2018-05-20T09:21:03Z</time>
      </trkpt>
      <trkpt lat="45.95405" lon="4.75212">
        <ele>189</ele>
        <time>2018-05-20T09:21:04Z</time>
      </trkpt>
      <trkpt lat="45.95401" lon="4.75208">
        <ele>189</ele>
        <time>2018-05-20T09:21:05Z</time>
      </trkpt>
      <trkpt lat="45.95398" lon="4.75202">
        <ele>189</ele>
        <time>2018-05-20T09:21:06Z</time>
      </trkpt>
      <trkpt lat="45.95394" lon="4.75196">
        <ele>189</ele>
        <time>2018-05-20T09:21:07Z</time>
      </trkpt>
      <trkpt lat="45.95391" lon="4.75184">
        <ele>189</ele>
        <time>2018-05-20T09:21:09Z</time>
      </trkpt>
      <trkpt lat="45.95388" lon="4.75179">
        <ele>189</ele>
        <time>2018-05-20T09:21:10Z</time>
      </trkpt>
      <trkpt lat="45.95384" lon="4.75172">
        <ele>189</ele>
        <time>2018-05-20T09:21:11Z</time>
      </trkpt>
      <trkpt lat="45.95382" lon="4.75168">
        <ele>189</ele>
        <time>2018-05-20T09:21:12Z</time>
      </trkpt>
      <trkpt lat="45.95378" lon="4.75163">
        <ele>191</ele>
        <time>2018-05-20T09:21:13Z</time>
      </trkpt>
      <trkpt lat="45.95375" lon="4.75156">
        <ele>191</ele>
        <time>2018-05-20T09:21:14Z</time>
      </trkpt>
      <trkpt lat="45.95373" lon="4.7515">
        <ele>191</ele>
        <time>2018-05-20T09:21:15Z</time>
      </trkpt>
      <trkpt lat="45.9537" lon="4.75145">
        <ele>191</ele>
        <time>2018-05-20T09:21:16Z</time>
      </trkpt>
      <trkpt lat="45.95367" lon="4.75139">
        <ele>191</ele>
        <time>2018-05-20T09:21:17Z</time>
      </trkpt>
      <trkpt lat="45.95365" lon="4.75133">
        <ele>191</ele>
        <time>2018-05-20T09:21:18Z</time>
      </trkpt>
      <trkpt lat="45.95361" lon="4.75127">
        <ele>191</ele>
        <time>2018-05-20T09:21:19Z</time>
      </trkpt>
      <trkpt lat="45.95358" lon="4.75121">
        <ele>191</ele>
        <time>2018-05-20T09:21:20Z</time>
      </trkpt>
      <trkpt lat="45.95354" lon="4.75115">
        <ele>192</ele>
        <time>2018-05-20T09:21:21Z</time>
      </trkpt>
      <trkpt lat="45.95351" lon="4.7511">
        <ele>192</ele>
        <time>2018-05-20T09:21:22Z</time>
      </trkpt>
      <trkpt lat="45.95347" lon="4.75104">
        <ele>192</ele>
        <time>2018-05-20T09:21:23Z</time>
      </trkpt>
      <trkpt lat="45.95344" lon="4.75097">
        <ele>192</ele>
        <time>2018-05-20T09:21:24Z</time>
      </trkpt>
      <trkpt lat="45.9534" lon="4.75091">
        <ele>192</ele>
        <time>2018-05-20T09:21:25Z</time>
      </trkpt>
      <trkpt lat="45.95336" lon="4.75085">
        <ele>193</ele>
        <time>2018-05-20T09:21:26Z</time>
      </trkpt>
      <trkpt lat="45.95332" lon="4.75079">
        <ele>193</ele>
        <time>2018-05-20T09:21:27Z</time>
      </trkpt>
      <trkpt lat="45.95328" lon="4.75074">
        <ele>192</ele>
        <time>2018-05-20T09:21:28Z</time>
      </trkpt>
      <trkpt lat="45.95325" lon="4.75068">
        <ele>192</ele>
        <time>2018-05-20T09:21:29Z</time>
      </trkpt>
      <trkpt lat="45.95322" lon="4.75063">
        <ele>192</ele>
        <time>2018-05-20T09:21:30Z</time>
      </trkpt>
      <trkpt lat="45.95318" lon="4.75059">
        <ele>192</ele>
        <time>2018-05-20T09:21:31Z</time>
      </trkpt>
      <trkpt lat="45.95314" lon="4.75054">
        <ele>192</ele>
        <time>2018-05-20T09:21:32Z</time>
      </trkpt>
      <trkpt lat="45.95309" lon="4.75048">
        <ele>192</ele>
        <time>2018-05-20T09:21:33Z</time>
      </trkpt>
      <trkpt lat="45.95305" lon="4.75041">
        <ele>192</ele>
        <time>2018-05-20T09:21:34Z</time>
      </trkpt>
      <trkpt lat="45.95301" lon="4.75036">
        <ele>191</ele>
        <time>2018-05-20T09:21:35Z</time>
      </trkpt>
      <trkpt lat="45.95298" lon="4.75031">
        <ele>191</ele>
        <time>2018-05-20T09:21:36Z</time>
      </trkpt>
      <trkpt lat="45.95292" lon="4.75021">
        <ele>191</ele>
        <time>2018-05-20T09:21:38Z</time>
      </trkpt>
      <trkpt lat="45.95288" lon="4.75015">
        <ele>191</ele>
        <time>2018-05-20T09:21:39Z</time>
      </trkpt>
      <trkpt lat="45.95284" lon="4.75009">
        <ele>191</ele>
        <time>2018-05-20T09:21:40Z</time>
      </trkpt>
      <trkpt lat="45.95282" lon="4.75004">
        <ele>191</ele>
        <time>2018-05-20T09:21:41Z</time>
      </trkpt>
      <trkpt lat="45.95279" lon="4.74999">
        <ele>192</ele>
        <time>2018-05-20T09:21:42Z</time>
      </trkpt>
      <trkpt lat="45.95275" lon="4.74993">
        <ele>192</ele>
        <time>2018-05-20T09:21:43Z</time>
      </trkpt>
      <trkpt lat="45.9527" lon="4.74987">
        <ele>192</ele>
        <time>2018-05-20T09:21:44Z</time>
      </trkpt>
      <trkpt lat="45.95266" lon="4.74982">
        <ele>192</ele>
        <time>2018-05-20T09:21:45Z</time>
      </trkpt>
      <trkpt lat="45.95262" lon="4.74976">
        <ele>192</ele>
        <time>2018-05-20T09:21:46Z</time>
      </trkpt>
      <trkpt lat="45.95258" lon="4.74972">
        <ele>192</ele>
        <time>2018-05-20T09:21:47Z</time>
      </trkpt>
      <trkpt lat="45.95254" lon="4.74966">
        <ele>192</ele>
        <time>2018-05-20T09:21:48Z</time>
      </trkpt>
      <trkpt lat="45.9525" lon="4.74961">
        <ele>191</ele>
        <time>2018-05-20T09:21:49Z</time>
      </trkpt>
      <trkpt lat="45.95246" lon="4.74955">
        <ele>192</ele>
        <time>2018-05-20T09:21:50Z</time>
      </trkpt>
      <trkpt lat="45.95242" lon="4.7495">
        <ele>192</ele>
        <time>2018-05-20T09:21:51Z</time>
      </trkpt>
      <trkpt lat="45.95239" lon="4.74944">
        <ele>192</ele>
        <time>2018-05-20T09:21:52Z</time>
      </trkpt>
      <trkpt lat="45.95236" lon="4.74938">
        <ele>192</ele>
        <time>2018-05-20T09:21:53Z</time>
      </trkpt>
      <trkpt lat="45.95232" lon="4.74933">
        <ele>192</ele>
        <time>2018-05-20T09:21:54Z</time>
      </trkpt>
      <trkpt lat="45.95229" lon="4.74925">
        <ele>192</ele>
        <time>2018-05-20T09:21:55Z</time>
      </trkpt>
      <trkpt lat="45.95225" lon="4.74919">
        <ele>192</ele>
        <time>2018-05-20T09:21:56Z</time>
      </trkpt>
      <trkpt lat="45.95222" lon="4.74913">
        <ele>193</ele>
        <time>2018-05-20T09:21:57Z</time>
      </trkpt>
      <trkpt lat="45.95219" lon="4.74907">
        <ele>193</ele>
        <time>2018-05-20T09:21:58Z</time>
      </trkpt>
      <trkpt lat="45.95215" lon="4.749">
        <ele>193</ele>
        <time>2018-05-20T09:21:59Z</time>
      </trkpt>
      <trkpt lat="45.95212" lon="4.74893">
        <ele>193</ele>
        <time>2018-05-20T09:22:00Z</time>
      </trkpt>
      <trkpt lat="45.95209" lon="4.74887">
        <ele>193</ele>
        <time>2018-05-20T09:22:01Z</time>
      </trkpt>
      <trkpt lat="45.95205" lon="4.7488">
        <ele>194</ele>
        <time>2018-05-20T09:22:02Z</time>
      </trkpt>
      <trkpt lat="45.95201" lon="4.74875">
        <ele>194</ele>
        <time>2018-05-20T09:22:03Z</time>
      </trkpt>
      <trkpt lat="45.95196" lon="4.74869">
        <ele>194</ele>
        <time>2018-05-20T09:22:04Z</time>
      </trkpt>
      <trkpt lat="45.95192" lon="4.74863">
        <ele>194</ele>
        <time>2018-05-20T09:22:05Z</time>
      </trkpt>
      <trkpt lat="45.95189" lon="4.74857">
        <ele>194</ele>
        <time>2018-05-20T09:22:06Z</time>
      </trkpt>
      <trkpt lat="45.95186" lon="4.74851">
        <ele>194</ele>
        <time>2018-05-20T09:22:07Z</time>
      </trkpt>
      <trkpt lat="45.95182" lon="4.74846">
        <ele>194</ele>
        <time>2018-05-20T09:22:08Z</time>
      </trkpt>
      <trkpt lat="45.95178" lon="4.74839">
        <ele>194</ele>
        <time>2018-05-20T09:22:09Z</time>
      </trkpt>
      <trkpt lat="45.95175" lon="4.74833">
        <ele>194</ele>
        <time>2018-05-20T09:22:10Z</time>
      </trkpt>
      <trkpt lat="45.95172" lon="4.74827">
        <ele>194</ele>
        <time>2018-05-20T09:22:11Z</time>
      </trkpt>
      <trkpt lat="45.95168" lon="4.7482">
        <ele>194</ele>
        <time>2018-05-20T09:22:12Z</time>
      </trkpt>
      <trkpt lat="45.95164" lon="4.74816">
        <ele>194</ele>
        <time>2018-05-20T09:22:13Z</time>
      </trkpt>
      <trkpt lat="45.9516" lon="4.74809">
        <ele>194</ele>
        <time>2018-05-20T09:22:14Z</time>
      </trkpt>
      <trkpt lat="45.95155" lon="4.74804">
        <ele>194</ele>
        <time>2018-05-20T09:22:15Z</time>
      </trkpt>
      <trkpt lat="45.95151" lon="4.74798">
        <ele>194</ele>
        <time>2018-05-20T09:22:16Z</time>
      </trkpt>
      <trkpt lat="45.95147" lon="4.74791">
        <ele>194</ele>
        <time>2018-05-20T09:22:17Z</time>
      </trkpt>
      <trkpt lat="45.95143" lon="4.74785">
        <ele>194</ele>
        <time>2018-05-20T09:22:18Z</time>
      </trkpt>
      <trkpt lat="45.9514" lon="4.74779">
        <ele>194</ele>
        <time>2018-05-20T09:22:19Z</time>
      </trkpt>
      <trkpt lat="45.95136" lon="4.74772">
        <ele>194</ele>
        <time>2018-05-20T09:22:20Z</time>
      </trkpt>
      <trkpt lat="45.95132" lon="4.74766">
        <ele>194</ele>
        <time>2018-05-20T09:22:21Z</time>
      </trkpt>
      <trkpt lat="45.95127" lon="4.7476">
        <ele>194</ele>
        <time>2018-05-20T09:22:22Z</time>
      </trkpt>
      <trkpt lat="45.95123" lon="4.74754">
        <ele>194</ele>
        <time>2018-05-20T09:22:23Z</time>
      </trkpt>
      <trkpt lat="45.9512" lon="4.74747">
        <ele>194</ele>
        <time>2018-05-20T09:22:24Z</time>
      </trkpt>
      <trkpt lat="45.95117" lon="4.7474">
        <ele>194</ele>
        <time>2018-05-20T09:22:25Z</time>
      </trkpt>
      <trkpt lat="45.95114" lon="4.74734">
        <ele>194</ele>
        <time>2018-05-20T09:22:26Z</time>
      </trkpt>
      <trkpt lat="45.95111" lon="4.74727">
        <ele>194</ele>
        <time>2018-05-20T09:22:27Z</time>
      </trkpt>
      <trkpt lat="45.95107" lon="4.7472">
        <ele>194</ele>
        <time>2018-05-20T09:22:28Z</time>
      </trkpt>
      <trkpt lat="45.95104" lon="4.74713">
        <ele>194</ele>
        <time>2018-05-20T09:22:29Z</time>
      </trkpt>
      <trkpt lat="45.951" lon="4.74707">
        <ele>194</ele>
        <time>2018-05-20T09:22:30Z</time>
      </trkpt>
      <trkpt lat="45.95096" lon="4.74701">
        <ele>194</ele>
        <time>2018-05-20T09:22:31Z</time>
      </trkpt>
      <trkpt lat="45.95092" lon="4.74695">
        <ele>194</ele>
        <time>2018-05-20T09:22:32Z</time>
      </trkpt>
      <trkpt lat="45.95087" lon="4.7469">
        <ele>195</ele>
        <time>2018-05-20T09:22:33Z</time>
      </trkpt>
      <trkpt lat="45.95083" lon="4.74683">
        <ele>194</ele>
        <time>2018-05-20T09:22:34Z</time>
      </trkpt>
      <trkpt lat="45.95078" lon="4.74676">
        <ele>194</ele>
        <time>2018-05-20T09:22:35Z</time>
      </trkpt>
      <trkpt lat="45.95075" lon="4.74668">
        <ele>195</ele>
        <time>2018-05-20T09:22:36Z</time>
      </trkpt>
      <trkpt lat="45.95072" lon="4.74661">
        <ele>195</ele>
        <time>2018-05-20T09:22:37Z</time>
      </trkpt>
      <trkpt lat="45.95067" lon="4.74654">
        <ele>195</ele>
        <time>2018-05-20T09:22:38Z</time>
      </trkpt>
      <trkpt lat="45.95064" lon="4.74647">
        <ele>195</ele>
        <time>2018-05-20T09:22:39Z</time>
      </trkpt>
      <trkpt lat="45.95059" lon="4.7464">
        <ele>194</ele>
        <time>2018-05-20T09:22:40Z</time>
      </trkpt>
      <trkpt lat="45.95056" lon="4.74631">
        <ele>194</ele>
        <time>2018-05-20T09:22:41Z</time>
      </trkpt>
      <trkpt lat="45.95052" lon="4.74623">
        <ele>194</ele>
        <time>2018-05-20T09:22:42Z</time>
      </trkpt>
      <trkpt lat="45.95048" lon="4.74616">
        <ele>194</ele>
        <time>2018-05-20T09:22:43Z</time>
      </trkpt>
      <trkpt lat="45.95044" lon="4.74609">
        <ele>194</ele>
        <time>2018-05-20T09:22:44Z</time>
      </trkpt>
      <trkpt lat="45.9504" lon="4.74601">
        <ele>194</ele>
        <time>2018-05-20T09:22:45Z</time>
      </trkpt>
      <trkpt lat="45.95036" lon="4.74593">
        <ele>194</ele>
        <time>2018-05-20T09:22:46Z</time>
      </trkpt>
      <trkpt lat="45.95031" lon="4.74585">
        <ele>194</ele>
        <time>2018-05-20T09:22:47Z</time>
      </trkpt>
      <trkpt lat="45.95027" lon="4.74577">
        <ele>194</ele>
        <time>2018-05-20T09:22:48Z</time>
      </trkpt>
      <trkpt lat="45.95022" lon="4.74569">
        <ele>194</ele>
        <time>2018-05-20T09:22:49Z</time>
      </trkpt>
      <trkpt lat="45.95018" lon="4.74561">
        <ele>194</ele>
        <time>2018-05-20T09:22:50Z</time>
      </trkpt>
      <trkpt lat="45.95014" lon="4.74553">
        <ele>194</ele>
        <time>2018-05-20T09:22:51Z</time>
      </trkpt>
      <trkpt lat="45.95009" lon="4.74546">
        <ele>194</ele>
        <time>2018-05-20T09:22:52Z</time>
      </trkpt>
      <trkpt lat="45.95005" lon="4.74539">
        <ele>194</ele>
        <time>2018-05-20T09:22:53Z</time>
      </trkpt>
      <trkpt lat="45.95" lon="4.7453">
        <ele>194</ele>
        <time>2018-05-20T09:22:54Z</time>
      </trkpt>
      <trkpt lat="45.94995" lon="4.74523">
        <ele>193</ele>
        <time>2018-05-20T09:22:55Z</time>
      </trkpt>
      <trkpt lat="45.94988" lon="4.74517">
        <ele>193</ele>
        <time>2018-05-20T09:22:56Z</time>
      </trkpt>
      <trkpt lat="45.94983" lon="4.74508">
        <ele>193</ele>
        <time>2018-05-20T09:22:57Z</time>
      </trkpt>
      <trkpt lat="45.9498" lon="4.74498">
        <ele>193</ele>
        <time>2018-05-20T09:22:58Z</time>
      </trkpt>
      <trkpt lat="45.94974" lon="4.7449">
        <ele>193</ele>
        <time>2018-05-20T09:22:59Z</time>
      </trkpt>
      <trkpt lat="45.94969" lon="4.74482">
        <ele>193</ele>
        <time>2018-05-20T09:23:00Z</time>
      </trkpt>
      <trkpt lat="45.94964" lon="4.74472">
        <ele>193</ele>
        <time>2018-05-20T09:23:01Z</time>
      </trkpt>
      <trkpt lat="45.9496" lon="4.74463">
        <ele>193</ele>
        <time>2018-05-20T09:23:02Z</time>
      </trkpt>
      <trkpt lat="45.94956" lon="4.74455">
        <ele>192</ele>
        <time>2018-05-20T09:23:03Z</time>
      </trkpt>
      <trkpt lat="45.94951" lon="4.74445">
        <ele>192</ele>
        <time>2018-05-20T09:23:04Z</time>
      </trkpt>
      <trkpt lat="45.94947" lon="4.74435">
        <ele>192</ele>
        <time>2018-05-20T09:23:05Z</time>
      </trkpt>
      <trkpt lat="45.94942" lon="4.74427">
        <ele>192</ele>
        <time>2018-05-20T09:23:06Z</time>
      </trkpt>
      <trkpt lat="45.94937" lon="4.74418">
        <ele>192</ele>
        <time>2018-05-20T09:23:07Z</time>
      </trkpt>
      <trkpt lat="45.94932" lon="4.74408">
        <ele>192</ele>
        <time>2018-05-20T09:23:08Z</time>
      </trkpt>
      <trkpt lat="45.94927" lon="4.74399">
        <ele>192</ele>
        <time>2018-05-20T09:23:09Z</time>
      </trkpt>
      <trkpt lat="45.94923" lon="4.7439">
        <ele>192</ele>
        <time>2018-05-20T09:23:10Z</time>
      </trkpt>
      <trkpt lat="45.94917" lon="4.74381">
        <ele>192</ele>
        <time>2018-05-20T09:23:11Z</time>
      </trkpt>
      <trkpt lat="45.94912" lon="4.74372">
        <ele>191</ele>
        <time>2018-05-20T09:23:12Z</time>
      </trkpt>
      <trkpt lat="45.94908" lon="4.74361">
        <ele>191</ele>
        <time>2018-05-20T09:23:13Z</time>
      </trkpt>
      <trkpt lat="45.94904" lon="4.74352">
        <ele>191</ele>
        <time>2018-05-20T09:23:14Z</time>
      </trkpt>
      <trkpt lat="45.94899" lon="4.74341">
        <ele>191</ele>
        <time>2018-05-20T09:23:15Z</time>
      </trkpt>
      <trkpt lat="45.94894" lon="4.74332">
        <ele>191</ele>
        <time>2018-05-20T09:23:16Z</time>
      </trkpt>
      <trkpt lat="45.94888" lon="4.74323">
        <ele>191</ele>
        <time>2018-05-20T09:23:17Z</time>
      </trkpt>
      <trkpt lat="45.94884" lon="4.74314">
        <ele>191</ele>
        <time>2018-05-20T09:23:18Z</time>
      </trkpt>
      <trkpt lat="45.94879" lon="4.74304">
        <ele>191</ele>
        <time>2018-05-20T09:23:19Z</time>
      </trkpt>
      <trkpt lat="45.94874" lon="4.74295">
        <ele>191</ele>
        <time>2018-05-20T09:23:20Z</time>
      </trkpt>
      <trkpt lat="45.9487" lon="4.74286">
        <ele>191</ele>
        <time>2018-05-20T09:23:21Z</time>
      </trkpt>
      <trkpt lat="45.94865" lon="4.74277">
        <ele>191</ele>
        <time>2018-05-20T09:23:22Z</time>
      </trkpt>
      <trkpt lat="45.94861" lon="4.74269">
        <ele>190</ele>
        <time>2018-05-20T09:23:23Z</time>
      </trkpt>
      <trkpt lat="45.94857" lon="4.7426">
        <ele>190</ele>
        <time>2018-05-20T09:23:24Z</time>
      </trkpt>
      <trkpt lat="45.94852" lon="4.74251">
        <ele>190</ele>
        <time>2018-05-20T09:23:25Z</time>
      </trkpt>
      <trkpt lat="45.94848" lon="4.74241">
        <ele>190</ele>
        <time>2018-05-20T09:23:26Z</time>
      </trkpt>
      <trkpt lat="45.94846" lon="4.74233">
        <ele>190</ele>
        <time>2018-05-20T09:23:27Z</time>
      </trkpt>
      <trkpt lat="45.94841" lon="4.74224">
        <ele>190</ele>
        <time>2018-05-20T09:23:28Z</time>
      </trkpt>
      <trkpt lat="45.94836" lon="4.74216">
        <ele>190</ele>
        <time>2018-05-20T09:23:29Z</time>
      </trkpt>
      <trkpt lat="45.94832" lon="4.74208">
        <ele>189</ele>
        <time>2018-05-20T09:23:30Z</time>
      </trkpt>
      <trkpt lat="45.94827" lon="4.74201">
        <ele>189</ele>
        <time>2018-05-20T09:23:31Z</time>
      </trkpt>
      <trkpt lat="45.94822" lon="4.74193">
        <ele>189</ele>
        <time>2018-05-20T09:23:32Z</time>
      </trkpt>
      <trkpt lat="45.94818" lon="4.74186">
        <ele>189</ele>
        <time>2018-05-20T09:23:33Z</time>
      </trkpt>
      <trkpt lat="45.94813" lon="4.74177">
        <ele>189</ele>
        <time>2018-05-20T09:23:34Z</time>
      </trkpt>
      <trkpt lat="45.94809" lon="4.74169">
        <ele>189</ele>
        <time>2018-05-20T09:23:35Z</time>
      </trkpt>
      <trkpt lat="45.94805" lon="4.7416">
        <ele>189</ele>
        <time>2018-05-20T09:23:36Z</time>
      </trkpt>
      <trkpt lat="45.94801" lon="4.74152">
        <ele>189</ele>
        <time>2018-05-20T09:23:37Z</time>
      </trkpt>
      <trkpt lat="45.94796" lon="4.74143">
        <ele>189</ele>
        <time>2018-05-20T09:23:38Z</time>
      </trkpt>
      <trkpt lat="45.94791" lon="4.74135">
        <ele>189</ele>
        <time>2018-05-20T09:23:39Z</time>
      </trkpt>
      <trkpt lat="45.94786" lon="4.74127">
        <ele>189</ele>
        <time>2018-05-20T09:23:40Z</time>
      </trkpt>
      <trkpt lat="45.9478" lon="4.7412">
        <ele>189</ele>
        <time>2018-05-20T09:23:41Z</time>
      </trkpt>
      <trkpt lat="45.94775" lon="4.74113">
        <ele>189</ele>
        <time>2018-05-20T09:23:42Z</time>
      </trkpt>
      <trkpt lat="45.9477" lon="4.74105">
        <ele>189</ele>
        <time>2018-05-20T09:23:43Z</time>
      </trkpt>
      <trkpt lat="45.94764" lon="4.74099">
        <ele>189</ele>
        <time>2018-05-20T09:23:44Z</time>
      </trkpt>
      <trkpt lat="45.94759" lon="4.74093">
        <ele>189</ele>
        <time>2018-05-20T09:23:45Z</time>
      </trkpt>
      <trkpt lat="45.94754" lon="4.74086">
        <ele>189</ele>
        <time>2018-05-20T09:23:46Z</time>
      </trkpt>
      <trkpt lat="45.9475" lon="4.7408">
        <ele>189</ele>
        <time>2018-05-20T09:23:47Z</time>
      </trkpt>
      <trkpt lat="45.94744" lon="4.74075">
        <ele>188</ele>
        <time>2018-05-20T09:23:48Z</time>
      </trkpt>
      <trkpt lat="45.94739" lon="4.74068">
        <ele>188</ele>
        <time>2018-05-20T09:23:49Z</time>
      </trkpt>
      <trkpt lat="45.94734" lon="4.74061">
        <ele>188</ele>
        <time>2018-05-20T09:23:50Z</time>
      </trkpt>
      <trkpt lat="45.94729" lon="4.74054">
        <ele>188</ele>
        <time>2018-05-20T09:23:51Z</time>
      </trkpt>
      <trkpt lat="45.94725" lon="4.74049">
        <ele>188</ele>
        <time>2018-05-20T09:23:52Z</time>
      </trkpt>
      <trkpt lat="45.94721" lon="4.74043">
        <ele>187</ele>
        <time>2018-05-20T09:23:53Z</time>
      </trkpt>
      <trkpt lat="45.94716" lon="4.74037">
        <ele>187</ele>
        <time>2018-05-20T09:23:54Z</time>
      </trkpt>
      <trkpt lat="45.94712" lon="4.7403">
        <ele>187</ele>
        <time>2018-05-20T09:23:55Z</time>
      </trkpt>
      <trkpt lat="45.94708" lon="4.74025">
        <ele>187</ele>
        <time>2018-05-20T09:23:56Z</time>
      </trkpt>
      <trkpt lat="45.94705" lon="4.74019">
        <ele>187</ele>
        <time>2018-05-20T09:23:57Z</time>
      </trkpt>
      <trkpt lat="45.947" lon="4.74013">
        <ele>187</ele>
        <time>2018-05-20T09:23:58Z</time>
      </trkpt>
      <trkpt lat="45.94696" lon="4.74007">
        <ele>187</ele>
        <time>2018-05-20T09:23:59Z</time>
      </trkpt>
      <trkpt lat="45.94692" lon="4.74001">
        <ele>187</ele>
        <time>2018-05-20T09:24:00Z</time>
      </trkpt>
      <trkpt lat="45.94686" lon="4.73995">
        <ele>187</ele>
        <time>2018-05-20T09:24:01Z</time>
      </trkpt>
      <trkpt lat="45.94681" lon="4.73989">
        <ele>187</ele>
        <time>2018-05-20T09:24:02Z</time>
      </trkpt>
      <trkpt lat="45.94676" lon="4.73982">
        <ele>187</ele>
        <time>2018-05-20T09:24:03Z</time>
      </trkpt>
      <trkpt lat="45.94672" lon="4.73975">
        <ele>187</ele>
        <time>2018-05-20T09:24:04Z</time>
      </trkpt>
      <trkpt lat="45.94667" lon="4.73969">
        <ele>187</ele>
        <time>2018-05-20T09:24:05Z</time>
      </trkpt>
      <trkpt lat="45.94662" lon="4.73962">
        <ele>187</ele>
        <time>2018-05-20T09:24:06Z</time>
      </trkpt>
      <trkpt lat="45.94659" lon="4.73956">
        <ele>187</ele>
        <time>2018-05-20T09:24:07Z</time>
      </trkpt>
      <trkpt lat="45.94655" lon="4.73948">
        <ele>187</ele>
        <time>2018-05-20T09:24:08Z</time>
      </trkpt>
      <trkpt lat="45.94649" lon="4.73942">
        <ele>187</ele>
        <time>2018-05-20T09:24:09Z</time>
      </trkpt>
      <trkpt lat="45.94644" lon="4.73937">
        <ele>187</ele>
        <time>2018-05-20T09:24:10Z</time>
      </trkpt>
      <trkpt lat="45.94639" lon="4.73931">
        <ele>187</ele>
        <time>2018-05-20T09:24:11Z</time>
      </trkpt>
      <trkpt lat="45.94633" lon="4.73924">
        <ele>187</ele>
        <time>2018-05-20T09:24:12Z</time>
      </trkpt>
      <trkpt lat="45.94628" lon="4.73918">
        <ele>187</ele>
        <time>2018-05-20T09:24:13Z</time>
      </trkpt>
      <trkpt lat="45.94624" lon="4.73912">
        <ele>187</ele>
        <time>2018-05-20T09:24:14Z</time>
      </trkpt>
      <trkpt lat="45.94619" lon="4.73906">
        <ele>187</ele>
        <time>2018-05-20T09:24:15Z</time>
      </trkpt>
      <trkpt lat="45.94614" lon="4.739">
        <ele>187</ele>
        <time>2018-05-20T09:24:16Z</time>
      </trkpt>
      <trkpt lat="45.94608" lon="4.73894">
        <ele>187</ele>
        <time>2018-05-20T09:24:17Z</time>
      </trkpt>
      <trkpt lat="45.94604" lon="4.73889">
        <ele>187</ele>
        <time>2018-05-20T09:24:18Z</time>
      </trkpt>
      <trkpt lat="45.94599" lon="4.73882">
        <ele>187</ele>
        <time>2018-05-20T09:24:19Z</time>
      </trkpt>
      <trkpt lat="45.94593" lon="4.73876">
        <ele>187</ele>
        <time>2018-05-20T09:24:20Z</time>
      </trkpt>
      <trkpt lat="45.94588" lon="4.7387">
        <ele>187</ele>
        <time>2018-05-20T09:24:21Z</time>
      </trkpt>
      <trkpt lat="45.94583" lon="4.73866">
        <ele>186</ele>
        <time>2018-05-20T09:24:22Z</time>
      </trkpt>
      <trkpt lat="45.94578" lon="4.7386">
        <ele>186</ele>
        <time>2018-05-20T09:24:23Z</time>
      </trkpt>
      <trkpt lat="45.94573" lon="4.73855">
        <ele>186</ele>
        <time>2018-05-20T09:24:24Z</time>
      </trkpt>
      <trkpt lat="45.94568" lon="4.73849">
        <ele>186</ele>
        <time>2018-05-20T09:24:25Z</time>
      </trkpt>
      <trkpt lat="45.94563" lon="4.73844">
        <ele>186</ele>
        <time>2018-05-20T09:24:26Z</time>
      </trkpt>
      <trkpt lat="45.94558" lon="4.7384">
        <ele>186</ele>
        <time>2018-05-20T09:24:27Z</time>
      </trkpt>
      <trkpt lat="45.94552" lon="4.73834">
        <ele>186</ele>
        <time>2018-05-20T09:24:28Z</time>
      </trkpt>
      <trkpt lat="45.94547" lon="4.73828">
        <ele>186</ele>
        <time>2018-05-20T09:24:29Z</time>
      </trkpt>
      <trkpt lat="45.94542" lon="4.73824">
        <ele>186</ele>
        <time>2018-05-20T09:24:30Z</time>
      </trkpt>
      <trkpt lat="45.94537" lon="4.73819">
        <ele>186</ele>
        <time>2018-05-20T09:24:31Z</time>
      </trkpt>
      <trkpt lat="45.94531" lon="4.73814">
        <ele>186</ele>
        <time>2018-05-20T09:24:32Z</time>
      </trkpt>
      <trkpt lat="45.94527" lon="4.73809">
        <ele>186</ele>
        <time>2018-05-20T09:24:33Z</time>
      </trkpt>
      <trkpt lat="45.94523" lon="4.73803">
        <ele>186</ele>
        <time>2018-05-20T09:24:34Z</time>
      </trkpt>
      <trkpt lat="45.94518" lon="4.73798">
        <ele>186</ele>
        <time>2018-05-20T09:24:35Z</time>
      </trkpt>
      <trkpt lat="45.94513" lon="4.73792">
        <ele>186</ele>
        <time>2018-05-20T09:24:36Z</time>
      </trkpt>
      <trkpt lat="45.94509" lon="4.73787">
        <ele>186</ele>
        <time>2018-05-20T09:24:37Z</time>
      </trkpt>
      <trkpt lat="45.94504" lon="4.7378">
        <ele>186</ele>
        <time>2018-05-20T09:24:38Z</time>
      </trkpt>
      <trkpt lat="45.945" lon="4.73774">
        <ele>186</ele>
        <time>2018-05-20T09:24:39Z</time>
      </trkpt>
      <trkpt lat="45.94495" lon="4.73769">
        <ele>186</ele>
        <time>2018-05-20T09:24:40Z</time>
      </trkpt>
      <trkpt lat="45.9449" lon="4.73764">
        <ele>186</ele>
        <time>2018-05-20T09:24:41Z</time>
      </trkpt>
      <trkpt lat="45.94489" lon="4.73755">
        <ele>186</ele>
        <time>2018-05-20T09:24:42Z</time>
      </trkpt>
      <trkpt lat="45.94488" lon="4.73748">
        <ele>186</ele>
        <time>2018-05-20T09:24:43Z</time>
      </trkpt>
      <trkpt lat="45.94487" lon="4.7374">
        <ele>186</ele>
        <time>2018-05-20T09:24:44Z</time>
      </trkpt>
      <trkpt lat="45.94487" lon="4.73732">
        <ele>186</ele>
        <time>2018-05-20T09:24:45Z</time>
      </trkpt>
      <trkpt lat="45.9449" lon="4.73724">
        <ele>186</ele>
        <time>2018-05-20T09:24:46Z</time>
      </trkpt>
      <trkpt lat="45.94489" lon="4.73716">
        <ele>186</ele>
        <time>2018-05-20T09:24:47Z</time>
      </trkpt>
      <trkpt lat="45.9449" lon="4.73707">
        <ele>186</ele>
        <time>2018-05-20T09:24:48Z</time>
      </trkpt>
      <trkpt lat="45.94491" lon="4.73698">
        <ele>186</ele>
        <time>2018-05-20T09:24:49Z</time>
      </trkpt>
      <trkpt lat="45.94493" lon="4.73689">
        <ele>186</ele>
        <time>2018-05-20T09:24:50Z</time>
      </trkpt>
      <trkpt lat="45.94494" lon="4.73681">
        <ele>185</ele>
        <time>2018-05-20T09:24:51Z</time>
      </trkpt>
      <trkpt lat="45.94496" lon="4.73673">
        <ele>185</ele>
        <time>2018-05-20T09:24:52Z</time>
      </trkpt>
      <trkpt lat="45.94498" lon="4.73661">
        <ele>185</ele>
        <time>2018-05-20T09:24:53Z</time>
      </trkpt>
      <trkpt lat="45.94499" lon="4.73651">
        <ele>185</ele>
        <time>2018-05-20T09:24:54Z</time>
      </trkpt>
      <trkpt lat="45.94499" lon="4.73641">
        <ele>186</ele>
        <time>2018-05-20T09:24:55Z</time>
      </trkpt>
      <trkpt lat="45.945" lon="4.73632">
        <ele>184</ele>
        <time>2018-05-20T09:24:56Z</time>
      </trkpt>
      <trkpt lat="45.94501" lon="4.73622">
        <ele>184</ele>
        <time>2018-05-20T09:24:57Z</time>
      </trkpt>
      <trkpt lat="45.94502" lon="4.73613">
        <ele>184</ele>
        <time>2018-05-20T09:24:58Z</time>
      </trkpt>
      <trkpt lat="45.94503" lon="4.73604">
        <ele>184</ele>
        <time>2018-05-20T09:24:59Z</time>
      </trkpt>
      <trkpt lat="45.94503" lon="4.73595">
        <ele>184</ele>
        <time>2018-05-20T09:25:00Z</time>
      </trkpt>
      <trkpt lat="45.94503" lon="4.73588">
        <ele>185</ele>
        <time>2018-05-20T09:25:01Z</time>
      </trkpt>
      <trkpt lat="45.94503" lon="4.73577">
        <ele>184</ele>
        <time>2018-05-20T09:25:02Z</time>
      </trkpt>
      <trkpt lat="45.94503" lon="4.73568">
        <ele>184</ele>
        <time>2018-05-20T09:25:03Z</time>
      </trkpt>
      <trkpt lat="45.94503" lon="4.73559">
        <ele>184</ele>
        <time>2018-05-20T09:25:04Z</time>
      </trkpt>
      <trkpt lat="45.94504" lon="4.73549">
        <ele>183</ele>
        <time>2018-05-20T09:25:05Z</time>
      </trkpt>
      <trkpt lat="45.94505" lon="4.7354">
        <ele>183</ele>
        <time>2018-05-20T09:25:06Z</time>
      </trkpt>
      <trkpt lat="45.94506" lon="4.7353">
        <ele>183</ele>
        <time>2018-05-20T09:25:07Z</time>
      </trkpt>
      <trkpt lat="45.94506" lon="4.73521">
        <ele>183</ele>
        <time>2018-05-20T09:25:08Z</time>
      </trkpt>
      <trkpt lat="45.94507" lon="4.73509">
        <ele>183</ele>
        <time>2018-05-20T09:25:09Z</time>
      </trkpt>
      <trkpt lat="45.94507" lon="4.73499">
        <ele>183</ele>
        <time>2018-05-20T09:25:10Z</time>
      </trkpt>
      <trkpt lat="45.94508" lon="4.73488">
        <ele>182</ele>
        <time>2018-05-20T09:25:11Z</time>
      </trkpt>
      <trkpt lat="45.94507" lon="4.73477">
        <ele>182</ele>
        <time>2018-05-20T09:25:12Z</time>
      </trkpt>
      <trkpt lat="45.94508" lon="4.73465">
        <ele>181</ele>
        <time>2018-05-20T09:25:13Z</time>
      </trkpt>
      <trkpt lat="45.94508" lon="4.73454">
        <ele>181</ele>
        <time>2018-05-20T09:25:14Z</time>
      </trkpt>
      <trkpt lat="45.94508" lon="4.73442">
        <ele>181</ele>
        <time>2018-05-20T09:25:15Z</time>
      </trkpt>
      <trkpt lat="45.94508" lon="4.73432">
        <ele>181</ele>
        <time>2018-05-20T09:25:16Z</time>
      </trkpt>
      <trkpt lat="45.94508" lon="4.73421">
        <ele>180</ele>
        <time>2018-05-20T09:25:17Z</time>
      </trkpt>
      <trkpt lat="45.94508" lon="4.73409">
        <ele>179</ele>
        <time>2018-05-20T09:25:18Z</time>
      </trkpt>
      <trkpt lat="45.94507" lon="4.73398">
        <ele>179</ele>
        <time>2018-05-20T09:25:19Z</time>
      </trkpt>
      <trkpt lat="45.94507" lon="4.73386">
        <ele>179</ele>
        <time>2018-05-20T09:25:20Z</time>
      </trkpt>
      <trkpt lat="45.94506" lon="4.73376">
        <ele>178</ele>
        <time>2018-05-20T09:25:21Z</time>
      </trkpt>
      <trkpt lat="45.94505" lon="4.73363">
        <ele>178</ele>
        <time>2018-05-20T09:25:22Z</time>
      </trkpt>
      <trkpt lat="45.94503" lon="4.7335">
        <ele>178</ele>
        <time>2018-05-20T09:25:23Z</time>
      </trkpt>
      <trkpt lat="45.94503" lon="4.7334">
        <ele>177</ele>
        <time>2018-05-20T09:25:24Z</time>
      </trkpt>
      <trkpt lat="45.945" lon="4.73328">
        <ele>177</ele>
        <time>2018-05-20T09:25:25Z</time>
      </trkpt>
      <trkpt lat="45.94499" lon="4.73317">
        <ele>177</ele>
        <time>2018-05-20T09:25:26Z</time>
      </trkpt>
      <trkpt lat="45.94497" lon="4.73305">
        <ele>177</ele>
        <time>2018-05-20T09:25:27Z</time>
      </trkpt>
      <trkpt lat="45.94495" lon="4.73292">
        <ele>177</ele>
        <time>2018-05-20T09:25:28Z</time>
      </trkpt>
      <trkpt lat="45.94493" lon="4.7328">
        <ele>177</ele>
        <time>2018-05-20T09:25:29Z</time>
      </trkpt>
      <trkpt lat="45.94492" lon="4.73269">
        <ele>177</ele>
        <time>2018-05-20T09:25:30Z</time>
      </trkpt>
      <trkpt lat="45.9449" lon="4.73256">
        <ele>176</ele>
        <time>2018-05-20T09:25:31Z</time>
      </trkpt>
      <trkpt lat="45.94489" lon="4.73244">
        <ele>175</ele>
        <time>2018-05-20T09:25:32Z</time>
      </trkpt>
      <trkpt lat="45.94487" lon="4.73232">
        <ele>175</ele>
        <time>2018-05-20T09:25:33Z</time>
      </trkpt>
      <trkpt lat="45.94485" lon="4.73217">
        <ele>175</ele>
        <time>2018-05-20T09:25:34Z</time>
      </trkpt>
      <trkpt lat="45.94482" lon="4.73205">
        <ele>175</ele>
        <time>2018-05-20T09:25:35Z</time>
      </trkpt>
      <trkpt lat="45.94478" lon="4.73195">
        <ele>174</ele>
        <time>2018-05-20T09:25:36Z</time>
      </trkpt>
      <trkpt lat="45.94476" lon="4.73182">
        <ele>174</ele>
        <time>2018-05-20T09:25:37Z</time>
      </trkpt>
      <trkpt lat="45.94475" lon="4.73169">
        <ele>174</ele>
        <time>2018-05-20T09:25:38Z</time>
      </trkpt>
      <trkpt lat="45.94474" lon="4.73157">
        <ele>173</ele>
        <time>2018-05-20T09:25:39Z</time>
      </trkpt>
      <trkpt lat="45.94474" lon="4.73146">
        <ele>172</ele>
        <time>2018-05-20T09:25:40Z</time>
      </trkpt>
      <trkpt lat="45.94471" lon="4.73135">
        <ele>172</ele>
        <time>2018-05-20T09:25:41Z</time>
      </trkpt>
      <trkpt lat="45.94469" lon="4.73124">
        <ele>172</ele>
        <time>2018-05-20T09:25:42Z</time>
      </trkpt>
      <trkpt lat="45.94468" lon="4.73113">
        <ele>172</ele>
        <time>2018-05-20T09:25:43Z</time>
      </trkpt>
      <trkpt lat="45.94466" lon="4.73103">
        <ele>172</ele>
        <time>2018-05-20T09:25:44Z</time>
      </trkpt>
      <trkpt lat="45.94465" lon="4.73093">
        <ele>171</ele>
        <time>2018-05-20T09:25:45Z</time>
      </trkpt>
      <trkpt lat="45.94464" lon="4.73083">
        <ele>170</ele>
        <time>2018-05-20T09:25:46Z</time>
      </trkpt>
      <trkpt lat="45.94462" lon="4.73072">
        <ele>170</ele>
        <time>2018-05-20T09:25:47Z</time>
      </trkpt>
      <trkpt lat="45.94461" lon="4.73062">
        <ele>170</ele>
        <time>2018-05-20T09:25:48Z</time>
      </trkpt>
      <trkpt lat="45.9446" lon="4.73053">
        <ele>170</ele>
        <time>2018-05-20T09:25:49Z</time>
      </trkpt>
      <trkpt lat="45.94459" lon="4.73045">
        <ele>170</ele>
        <time>2018-05-20T09:25:50Z</time>
      </trkpt>
      <trkpt lat="45.94457" lon="4.73036">
        <ele>169</ele>
        <time>2018-05-20T09:25:51Z</time>
      </trkpt>
      <trkpt lat="45.94456" lon="4.73028">
        <ele>169</ele>
        <time>2018-05-20T09:25:52Z</time>
      </trkpt>
      <trkpt lat="45.94455" lon="4.7302">
        <ele>169</ele>
        <time>2018-05-20T09:25:53Z</time>
      </trkpt>
      <trkpt lat="45.94454" lon="4.73014">
        <ele>169</ele>
        <time>2018-05-20T09:25:54Z</time>
      </trkpt>
      <trkpt lat="45.94452" lon="4.73006">
        <ele>169</ele>
        <time>2018-05-20T09:25:55Z</time>
      </trkpt>
      <trkpt lat="45.94451" lon="4.72999">
        <ele>167</ele>
        <time>2018-05-20T09:25:56Z</time>
      </trkpt>
      <trkpt lat="45.9445" lon="4.7299">
        <ele>167</ele>
        <time>2018-05-20T09:25:57Z</time>
      </trkpt>
      <trkpt lat="45.94448" lon="4.72982">
        <ele>167</ele>
        <time>2018-05-20T09:25:58Z</time>
      </trkpt>
      <trkpt lat="45.94447" lon="4.72974">
        <ele>167</ele>
        <time>2018-05-20T09:25:59Z</time>
      </trkpt>
      <trkpt lat="45.94445" lon="4.72967">
        <ele>167</ele>
        <time>2018-05-20T09:26:00Z</time>
      </trkpt>
      <trkpt lat="45.94445" lon="4.72958">
        <ele>167</ele>
        <time>2018-05-20T09:26:01Z</time>
      </trkpt>
      <trkpt lat="45.94444" lon="4.72951">
        <ele>167</ele>
        <time>2018-05-20T09:26:02Z</time>
      </trkpt>
      <trkpt lat="45.94443" lon="4.72943">
        <ele>167</ele>
        <time>2018-05-20T09:26:03Z</time>
      </trkpt>
      <trkpt lat="45.94442" lon="4.72935">
        <ele>167</ele>
        <time>2018-05-20T09:26:04Z</time>
      </trkpt>
      <trkpt lat="45.9444" lon="4.72928">
        <ele>167</ele>
        <time>2018-05-20T09:26:05Z</time>
      </trkpt>
      <trkpt lat="45.9444" lon="4.7292">
        <ele>167</ele>
        <time>2018-05-20T09:26:06Z</time>
      </trkpt>
      <trkpt lat="45.94439" lon="4.7291">
        <ele>166</ele>
        <time>2018-05-20T09:26:07Z</time>
      </trkpt>
      <trkpt lat="45.94437" lon="4.72899">
        <ele>166</ele>
        <time>2018-05-20T09:26:08Z</time>
      </trkpt>
      <trkpt lat="45.94435" lon="4.72891">
        <ele>166</ele>
        <time>2018-05-20T09:26:09Z</time>
      </trkpt>
      <trkpt lat="45.94434" lon="4.72883">
        <ele>166</ele>
        <time>2018-05-20T09:26:10Z</time>
      </trkpt>
      <trkpt lat="45.94433" lon="4.72873">
        <ele>166</ele>
        <time>2018-05-20T09:26:11Z</time>
      </trkpt>
      <trkpt lat="45.9443" lon="4.72863">
        <ele>166</ele>
        <time>2018-05-20T09:26:12Z</time>
      </trkpt>
      <trkpt lat="45.94429" lon="4.72853">
        <ele>166</ele>
        <time>2018-05-20T09:26:13Z</time>
      </trkpt>
      <trkpt lat="45.94428" lon="4.72844">
        <ele>166</ele>
        <time>2018-05-20T09:26:14Z</time>
      </trkpt>
      <trkpt lat="45.94427" lon="4.72833">
        <ele>166</ele>
        <time>2018-05-20T09:26:15Z</time>
      </trkpt>
      <trkpt lat="45.94426" lon="4.72822">
        <ele>167</ele>
        <time>2018-05-20T09:26:16Z</time>
      </trkpt>
      <trkpt lat="45.94425" lon="4.72811">
        <ele>167</ele>
        <time>2018-05-20T09:26:17Z</time>
      </trkpt>
      <trkpt lat="45.94423" lon="4.728">
        <ele>167</ele>
        <time>2018-05-20T09:26:18Z</time>
      </trkpt>
      <trkpt lat="45.94421" lon="4.72788">
        <ele>168</ele>
        <time>2018-05-20T09:26:19Z</time>
      </trkpt>
      <trkpt lat="45.9442" lon="4.72776">
        <ele>168</ele>
        <time>2018-05-20T09:26:20Z</time>
      </trkpt>
      <trkpt lat="45.94419" lon="4.72764">
        <ele>169</ele>
        <time>2018-05-20T09:26:21Z</time>
      </trkpt>
      <trkpt lat="45.94419" lon="4.72753">
        <ele>170</ele>
        <time>2018-05-20T09:26:22Z</time>
      </trkpt>
      <trkpt lat="45.94418" lon="4.72741">
        <ele>171</ele>
        <time>2018-05-20T09:26:23Z</time>
      </trkpt>
      <trkpt lat="45.94416" lon="4.72728">
        <ele>172</ele>
        <time>2018-05-20T09:26:24Z</time>
      </trkpt>
      <trkpt lat="45.94415" lon="4.72718">
        <ele>172</ele>
        <time>2018-05-20T09:26:25Z</time>
      </trkpt>
      <trkpt lat="45.94414" lon="4.72707">
        <ele>172</ele>
        <time>2018-05-20T09:26:26Z</time>
      </trkpt>
      <trkpt lat="45.94413" lon="4.72697">
        <ele>173</ele>
        <time>2018-05-20T09:26:27Z</time>
      </trkpt>
      <trkpt lat="45.94412" lon="4.72685">
        <ele>173</ele>
        <time>2018-05-20T09:26:28Z</time>
      </trkpt>
      <trkpt lat="45.94411" lon="4.72673">
        <ele>173</ele>
        <time>2018-05-20T09:26:29Z</time>
      </trkpt>
      <trkpt lat="45.94411" lon="4.72661">
        <ele>174</ele>
        <time>2018-05-20T09:26:30Z</time>
      </trkpt>
      <trkpt lat="45.94409" lon="4.72651">
        <ele>174</ele>
        <time>2018-05-20T09:26:31Z</time>
      </trkpt>
      <trkpt lat="45.94408" lon="4.72641">
        <ele>174</ele>
        <time>2018-05-20T09:26:32Z</time>
      </trkpt>
      <trkpt lat="45.94407" lon="4.7263">
        <ele>174</ele>
        <time>2018-05-20T09:26:33Z</time>
      </trkpt>
      <trkpt lat="45.94407" lon="4.72619">
        <ele>173</ele>
        <time>2018-05-20T09:26:34Z</time>
      </trkpt>
      <trkpt lat="45.94403" lon="4.72608">
        <ele>173</ele>
        <time>2018-05-20T09:26:35Z</time>
      </trkpt>
      <trkpt lat="45.94402" lon="4.72598">
        <ele>173</ele>
        <time>2018-05-20T09:26:36Z</time>
      </trkpt>
      <trkpt lat="45.944" lon="4.72587">
        <ele>173</ele>
        <time>2018-05-20T09:26:37Z</time>
      </trkpt>
      <trkpt lat="45.94399" lon="4.72579">
        <ele>173</ele>
        <time>2018-05-20T09:26:38Z</time>
      </trkpt>
      <trkpt lat="45.94398" lon="4.7257">
        <ele>173</ele>
        <time>2018-05-20T09:26:39Z</time>
      </trkpt>
      <trkpt lat="45.94397" lon="4.72562">
        <ele>173</ele>
        <time>2018-05-20T09:26:40Z</time>
      </trkpt>
      <trkpt lat="45.94395" lon="4.72554">
        <ele>173</ele>
        <time>2018-05-20T09:26:41Z</time>
      </trkpt>
      <trkpt lat="45.94393" lon="4.72546">
        <ele>173</ele>
        <time>2018-05-20T09:26:42Z</time>
      </trkpt>
      <trkpt lat="45.94391" lon="4.72537">
        <ele>174</ele>
        <time>2018-05-20T09:26:43Z</time>
      </trkpt>
      <trkpt lat="45.9439" lon="4.72529">
        <ele>174</ele>
        <time>2018-05-20T09:26:44Z</time>
      </trkpt>
      <trkpt lat="45.94388" lon="4.72521">
        <ele>174</ele>
        <time>2018-05-20T09:26:45Z</time>
      </trkpt>
      <trkpt lat="45.94385" lon="4.72513">
        <ele>174</ele>
        <time>2018-05-20T09:26:46Z</time>
      </trkpt>
      <trkpt lat="45.94383" lon="4.72505">
        <ele>174</ele>
        <time>2018-05-20T09:26:47Z</time>
      </trkpt>
      <trkpt lat="45.94382" lon="4.72498">
        <ele>173</ele>
        <time>2018-05-20T09:26:48Z</time>
      </trkpt>
      <trkpt lat="45.94379" lon="4.72489">
        <ele>173</ele>
        <time>2018-05-20T09:26:49Z</time>
      </trkpt>
      <trkpt lat="45.94376" lon="4.72482">
        <ele>173</ele>
        <time>2018-05-20T09:26:50Z</time>
      </trkpt>
      <trkpt lat="45.94373" lon="4.72476">
        <ele>173</ele>
        <time>2018-05-20T09:26:51Z</time>
      </trkpt>
      <trkpt lat="45.94369" lon="4.7247">
        <ele>173</ele>
        <time>2018-05-20T09:26:52Z</time>
      </trkpt>
      <trkpt lat="45.94366" lon="4.7246">
        <ele>173</ele>
        <time>2018-05-20T09:26:53Z</time>
      </trkpt>
      <trkpt lat="45.94363" lon="4.72454">
        <ele>173</ele>
        <time>2018-05-20T09:26:54Z</time>
      </trkpt>
      <trkpt lat="45.9436" lon="4.72445">
        <ele>173</ele>
        <time>2018-05-20T09:26:55Z</time>
      </trkpt>
      <trkpt lat="45.94356" lon="4.72438">
        <ele>173</ele>
        <time>2018-05-20T09:26:56Z</time>
      </trkpt>
      <trkpt lat="45.94352" lon="4.72431">
        <ele>173</ele>
        <time>2018-05-20T09:26:57Z</time>
      </trkpt>
      <trkpt lat="45.94354" lon="4.72419">
        <ele>173</ele>
        <time>2018-05-20T09:26:58Z</time>
      </trkpt>
      <trkpt lat="45.94349" lon="4.72412">
        <ele>173</ele>
        <time>2018-05-20T09:26:59Z</time>
      </trkpt>
      <trkpt lat="45.94346" lon="4.72405">
        <ele>173</ele>
        <time>2018-05-20T09:27:00Z</time>
      </trkpt>
      <trkpt lat="45.94343" lon="4.72399">
        <ele>172</ele>
        <time>2018-05-20T09:27:01Z</time>
      </trkpt>
      <trkpt lat="45.9434" lon="4.72392">
        <ele>172</ele>
        <time>2018-05-20T09:27:02Z</time>
      </trkpt>
      <trkpt lat="45.94336" lon="4.72385">
        <ele>172</ele>
        <time>2018-05-20T09:27:03Z</time>
      </trkpt>
      <trkpt lat="45.94332" lon="4.72378">
        <ele>172</ele>
        <time>2018-05-20T09:27:04Z</time>
      </trkpt>
      <trkpt lat="45.94329" lon="4.72371">
        <ele>172</ele>
        <time>2018-05-20T09:27:05Z</time>
      </trkpt>
      <trkpt lat="45.94326" lon="4.72362">
        <ele>172</ele>
        <time>2018-05-20T09:27:06Z</time>
      </trkpt>
      <trkpt lat="45.94322" lon="4.72356">
        <ele>172</ele>
        <time>2018-05-20T09:27:07Z</time>
      </trkpt>
      <trkpt lat="45.94319" lon="4.72348">
        <ele>172</ele>
        <time>2018-05-20T09:27:08Z</time>
      </trkpt>
      <trkpt lat="45.94311" lon="4.72343">
        <ele>172</ele>
        <time>2018-05-20T09:27:09Z</time>
      </trkpt>
      <trkpt lat="45.94308" lon="4.72336">
        <ele>172</ele>
        <time>2018-05-20T09:27:10Z</time>
      </trkpt>
      <trkpt lat="45.94303" lon="4.7233">
        <ele>171</ele>
        <time>2018-05-20T09:27:11Z</time>
      </trkpt>
      <trkpt lat="45.94299" lon="4.72324">
        <ele>171</ele>
        <time>2018-05-20T09:27:12Z</time>
      </trkpt>
      <trkpt lat="45.94296" lon="4.72318">
        <ele>171</ele>
        <time>2018-05-20T09:27:13Z</time>
      </trkpt>
      <trkpt lat="45.94292" lon="4.72312">
        <ele>171</ele>
        <time>2018-05-20T09:27:14Z</time>
      </trkpt>
      <trkpt lat="45.9429" lon="4.72304">
        <ele>171</ele>
        <time>2018-05-20T09:27:15Z</time>
      </trkpt>
      <trkpt lat="45.94286" lon="4.72295">
        <ele>171</ele>
        <time>2018-05-20T09:27:16Z</time>
      </trkpt>
      <trkpt lat="45.94283" lon="4.72287">
        <ele>171</ele>
        <time>2018-05-20T09:27:17Z</time>
      </trkpt>
      <trkpt lat="45.94279" lon="4.7228">
        <ele>171</ele>
        <time>2018-05-20T09:27:18Z</time>
      </trkpt>
      <trkpt lat="45.94276" lon="4.72274">
        <ele>171</ele>
        <time>2018-05-20T09:27:19Z</time>
      </trkpt>
      <trkpt lat="45.94272" lon="4.7227">
        <ele>171</ele>
        <time>2018-05-20T09:27:20Z</time>
      </trkpt>
      <trkpt lat="45.94267" lon="4.72267">
        <ele>171</ele>
        <time>2018-05-20T09:27:21Z</time>
      </trkpt>
      <trkpt lat="45.94261" lon="4.72269">
        <ele>171</ele>
        <time>2018-05-20T09:27:22Z</time>
      </trkpt>
      <trkpt lat="45.94256" lon="4.72271">
        <ele>171</ele>
        <time>2018-05-20T09:27:23Z</time>
      </trkpt>
      <trkpt lat="45.9425" lon="4.72274">
        <ele>171</ele>
        <time>2018-05-20T09:27:24Z</time>
      </trkpt>
      <trkpt lat="45.94245" lon="4.72276">
        <ele>171</ele>
        <time>2018-05-20T09:27:25Z</time>
      </trkpt>
      <trkpt lat="45.94239" lon="4.7228">
        <ele>171</ele>
        <time>2018-05-20T09:27:26Z</time>
      </trkpt>
      <trkpt lat="45.94232" lon="4.72283">
        <ele>171</ele>
        <time>2018-05-20T09:27:27Z</time>
      </trkpt>
      <trkpt lat="45.94226" lon="4.72285">
        <ele>171</ele>
        <time>2018-05-20T09:27:28Z</time>
      </trkpt>
      <trkpt lat="45.9422" lon="4.72287">
        <ele>171</ele>
        <time>2018-05-20T09:27:29Z</time>
      </trkpt>
      <trkpt lat="45.94214" lon="4.72288">
        <ele>171</ele>
        <time>2018-05-20T09:27:30Z</time>
      </trkpt>
      <trkpt lat="45.94208" lon="4.72288">
        <ele>171</ele>
        <time>2018-05-20T09:27:31Z</time>
      </trkpt>
      <trkpt lat="45.94202" lon="4.72288">
        <ele>171</ele>
        <time>2018-05-20T09:27:32Z</time>
      </trkpt>
      <trkpt lat="45.94196" lon="4.72288">
        <ele>171</ele>
        <time>2018-05-20T09:27:33Z</time>
      </trkpt>
      <trkpt lat="45.94189" lon="4.72288">
        <ele>171</ele>
        <time>2018-05-20T09:27:34Z</time>
      </trkpt>
      <trkpt lat="45.94184" lon="4.72288">
        <ele>171</ele>
        <time>2018-05-20T09:27:35Z</time>
      </trkpt>
      <trkpt lat="45.94177" lon="4.72286">
        <ele>171</ele>
        <time>2018-05-20T09:27:36Z</time>
      </trkpt>
      <trkpt lat="45.94172" lon="4.72286">
        <ele>171</ele>
        <time>2018-05-20T09:27:37Z</time>
      </trkpt>
      <trkpt lat="45.94165" lon="4.72286">
        <ele>171</ele>
        <time>2018-05-20T09:27:38Z</time>
      </trkpt>
      <trkpt lat="45.94159" lon="4.72284">
        <ele>171</ele>
        <time>2018-05-20T09:27:39Z</time>
      </trkpt>
      <trkpt lat="45.94152" lon="4.72282">
        <ele>171</ele>
        <time>2018-05-20T09:27:40Z</time>
      </trkpt>
      <trkpt lat="45.94146" lon="4.72282">
        <ele>171</ele>
        <time>2018-05-20T09:27:41Z</time>
      </trkpt>
      <trkpt lat="45.9414" lon="4.72279">
        <ele>171</ele>
        <time>2018-05-20T09:27:42Z</time>
      </trkpt>
      <trkpt lat="45.94134" lon="4.72276">
        <ele>171</ele>
        <time>2018-05-20T09:27:43Z</time>
      </trkpt>
      <trkpt lat="45.94129" lon="4.72271">
        <ele>171</ele>
        <time>2018-05-20T09:27:44Z</time>
      </trkpt>
      <trkpt lat="45.94126" lon="4.72267">
        <ele>171</ele>
        <time>2018-05-20T09:27:45Z</time>
      </trkpt>
      <trkpt lat="45.94121" lon="4.72265">
        <ele>171</ele>
        <time>2018-05-20T09:27:46Z</time>
      </trkpt>
      <trkpt lat="45.94115" lon="4.72263">
        <ele>171</ele>
        <time>2018-05-20T09:27:47Z</time>
      </trkpt>
      <trkpt lat="45.94111" lon="4.72262">
        <ele>171</ele>
        <time>2018-05-20T09:27:48Z</time>
      </trkpt>
      <trkpt lat="45.94105" lon="4.72263">
        <ele>171</ele>
        <time>2018-05-20T09:27:49Z</time>
      </trkpt>
      <trkpt lat="45.94098" lon="4.72263">
        <ele>171</ele>
        <time>2018-05-20T09:27:50Z</time>
      </trkpt>
      <trkpt lat="45.94094" lon="4.72263">
        <ele>171</ele>
        <time>2018-05-20T09:27:51Z</time>
      </trkpt>
      <trkpt lat="45.94089" lon="4.72264">
        <ele>171</ele>
        <time>2018-05-20T09:27:52Z</time>
      </trkpt>
      <trkpt lat="45.94082" lon="4.72268">
        <ele>171</ele>
        <time>2018-05-20T09:27:53Z</time>
      </trkpt>
      <trkpt lat="45.94077" lon="4.7227">
        <ele>171</ele>
        <time>2018-05-20T09:27:54Z</time>
      </trkpt>
      <trkpt lat="45.94071" lon="4.72274">
        <ele>171</ele>
        <time>2018-05-20T09:27:55Z</time>
      </trkpt>
      <trkpt lat="45.94067" lon="4.72278">
        <ele>171</ele>
        <time>2018-05-20T09:27:56Z</time>
      </trkpt>
      <trkpt lat="45.94062" lon="4.72284">
        <ele>171</ele>
        <time>2018-05-20T09:27:57Z</time>
      </trkpt>
      <trkpt lat="45.94058" lon="4.72289">
        <ele>171</ele>
        <time>2018-05-20T09:27:58Z</time>
      </trkpt>
      <trkpt lat="45.94053" lon="4.72295">
        <ele>171</ele>
        <time>2018-05-20T09:27:59Z</time>
      </trkpt>
      <trkpt lat="45.94049" lon="4.723">
        <ele>171</ele>
        <time>2018-05-20T09:28:00Z</time>
      </trkpt>
      <trkpt lat="45.94044" lon="4.72306">
        <ele>171</ele>
        <time>2018-05-20T09:28:01Z</time>
      </trkpt>
      <trkpt lat="45.9404" lon="4.72314">
        <ele>171</ele>
        <time>2018-05-20T09:28:02Z</time>
      </trkpt>
      <trkpt lat="45.94035" lon="4.72318">
        <ele>171</ele>
        <time>2018-05-20T09:28:03Z</time>
      </trkpt>
      <trkpt lat="45.9403" lon="4.72321">
        <ele>171</ele>
        <time>2018-05-20T09:28:04Z</time>
      </trkpt>
      <trkpt lat="45.94026" lon="4.72327">
        <ele>171</ele>
        <time>2018-05-20T09:28:05Z</time>
      </trkpt>
      <trkpt lat="45.94021" lon="4.72334">
        <ele>171</ele>
        <time>2018-05-20T09:28:06Z</time>
      </trkpt>
      <trkpt lat="45.94015" lon="4.72339">
        <ele>171</ele>
        <time>2018-05-20T09:28:07Z</time>
      </trkpt>
      <trkpt lat="45.94011" lon="4.72346">
        <ele>171</ele>
        <time>2018-05-20T09:28:08Z</time>
      </trkpt>
      <trkpt lat="45.94006" lon="4.72352">
        <ele>171</ele>
        <time>2018-05-20T09:28:09Z</time>
      </trkpt>
      <trkpt lat="45.94003" lon="4.72359">
        <ele>171</ele>
        <time>2018-05-20T09:28:10Z</time>
      </trkpt>
      <trkpt lat="45.93998" lon="4.72365">
        <ele>171</ele>
        <time>2018-05-20T09:28:11Z</time>
      </trkpt>
      <trkpt lat="45.93993" lon="4.72372">
        <ele>171</ele>
        <time>2018-05-20T09:28:12Z</time>
      </trkpt>
      <trkpt lat="45.93989" lon="4.72379">
        <ele>171</ele>
        <time>2018-05-20T09:28:13Z</time>
      </trkpt>
      <trkpt lat="45.93984" lon="4.72384">
        <ele>171</ele>
        <time>2018-05-20T09:28:14Z</time>
      </trkpt>
      <trkpt lat="45.93979" lon="4.7239">
        <ele>171</ele>
        <time>2018-05-20T09:28:15Z</time>
      </trkpt>
      <trkpt lat="45.93974" lon="4.72397">
        <ele>171</ele>
        <time>2018-05-20T09:28:16Z</time>
      </trkpt>
      <trkpt lat="45.93968" lon="4.72403">
        <ele>171</ele>
        <time>2018-05-20T09:28:17Z</time>
      </trkpt>
      <trkpt lat="45.93964" lon="4.7241">
        <ele>171</ele>
        <time>2018-05-20T09:28:18Z</time>
      </trkpt>
      <trkpt lat="45.93959" lon="4.72416">
        <ele>171</ele>
        <time>2018-05-20T09:28:19Z</time>
      </trkpt>
      <trkpt lat="45.93954" lon="4.72423">
        <ele>171</ele>
        <time>2018-05-20T09:28:20Z</time>
      </trkpt>
      <trkpt lat="45.93947" lon="4.72425">
        <ele>171</ele>
        <time>2018-05-20T09:28:21Z</time>
      </trkpt>
      <trkpt lat="45.93941" lon="4.72431">
        <ele>171</ele>
        <time>2018-05-20T09:28:22Z</time>
      </trkpt>
      <trkpt lat="45.93936" lon="4.72437">
        <ele>171</ele>
        <time>2018-05-20T09:28:23Z</time>
      </trkpt>
      <trkpt lat="45.93932" lon="4.72444">
        <ele>171</ele>
        <time>2018-05-20T09:28:24Z</time>
      </trkpt>
      <trkpt lat="45.93927" lon="4.72449">
        <ele>171</ele>
        <time>2018-05-20T09:28:25Z</time>
      </trkpt>
      <trkpt lat="45.93922" lon="4.72456">
        <ele>171</ele>
        <time>2018-05-20T09:28:26Z</time>
      </trkpt>
      <trkpt lat="45.93917" lon="4.72461">
        <ele>171</ele>
        <time>2018-05-20T09:28:27Z</time>
      </trkpt>
      <trkpt lat="45.93912" lon="4.72466">
        <ele>172</ele>
        <time>2018-05-20T09:28:28Z</time>
      </trkpt>
      <trkpt lat="45.93907" lon="4.72471">
        <ele>172</ele>
        <time>2018-05-20T09:28:29Z</time>
      </trkpt>
      <trkpt lat="45.93903" lon="4.72479">
        <ele>172</ele>
        <time>2018-05-20T09:28:30Z</time>
      </trkpt>
      <trkpt lat="45.93899" lon="4.72484">
        <ele>172</ele>
        <time>2018-05-20T09:28:31Z</time>
      </trkpt>
      <trkpt lat="45.93894" lon="4.72487">
        <ele>172</ele>
        <time>2018-05-20T09:28:32Z</time>
      </trkpt>
      <trkpt lat="45.93889" lon="4.72494">
        <ele>172</ele>
        <time>2018-05-20T09:28:33Z</time>
      </trkpt>
      <trkpt lat="45.93884" lon="4.72501">
        <ele>173</ele>
        <time>2018-05-20T09:28:34Z</time>
      </trkpt>
      <trkpt lat="45.93881" lon="4.72506">
        <ele>173</ele>
        <time>2018-05-20T09:28:35Z</time>
      </trkpt>
      <trkpt lat="45.93876" lon="4.72509">
        <ele>173</ele>
        <time>2018-05-20T09:28:36Z</time>
      </trkpt>
      <trkpt lat="45.93871" lon="4.72511">
        <ele>173</ele>
        <time>2018-05-20T09:28:37Z</time>
      </trkpt>
      <trkpt lat="45.93865" lon="4.72511">
        <ele>173</ele>
        <time>2018-05-20T09:28:38Z</time>
      </trkpt>
      <trkpt lat="45.93861" lon="4.72508">
        <ele>173</ele>
        <time>2018-05-20T09:28:39Z</time>
      </trkpt>
      <trkpt lat="45.93824" lon="4.72472">
        <ele>172</ele>
        <time>2018-05-20T09:28:47Z</time>
      </trkpt>
      <trkpt lat="45.93817" lon="4.7247">
        <ele>172</ele>
        <time>2018-05-20T09:28:48Z</time>
      </trkpt>
      <trkpt lat="45.93813" lon="4.72464">
        <ele>172</ele>
        <time>2018-05-20T09:28:49Z</time>
      </trkpt>
      <trkpt lat="45.93808" lon="4.72456">
        <ele>172</ele>
        <time>2018-05-20T09:28:50Z</time>
      </trkpt>
      <trkpt lat="45.93803" lon="4.72453">
        <ele>172</ele>
        <time>2018-05-20T09:28:51Z</time>
      </trkpt>
      <trkpt lat="45.93797" lon="4.72445">
        <ele>172</ele>
        <time>2018-05-20T09:28:53Z</time>
      </trkpt>
      <trkpt lat="45.93792" lon="4.72442">
        <ele>172</ele>
        <time>2018-05-20T09:28:54Z</time>
      </trkpt>
      <trkpt lat="45.93789" lon="4.72437">
        <ele>172</ele>
        <time>2018-05-20T09:28:55Z</time>
      </trkpt>
      <trkpt lat="45.93785" lon="4.72432">
        <ele>172</ele>
        <time>2018-05-20T09:28:56Z</time>
      </trkpt>
      <trkpt lat="45.93781" lon="4.72429">
        <ele>172</ele>
        <time>2018-05-20T09:28:57Z</time>
      </trkpt>
      <trkpt lat="45.93776" lon="4.72425">
        <ele>171</ele>
        <time>2018-05-20T09:28:58Z</time>
      </trkpt>
      <trkpt lat="45.93772" lon="4.7242">
        <ele>171</ele>
        <time>2018-05-20T09:28:59Z</time>
      </trkpt>
      <trkpt lat="45.93767" lon="4.72416">
        <ele>171</ele>
        <time>2018-05-20T09:29:00Z</time>
      </trkpt>
      <trkpt lat="45.93763" lon="4.72412">
        <ele>171</ele>
        <time>2018-05-20T09:29:01Z</time>
      </trkpt>
      <trkpt lat="45.93759" lon="4.72409">
        <ele>171</ele>
        <time>2018-05-20T09:29:02Z</time>
      </trkpt>
      <trkpt lat="45.93755" lon="4.72404">
        <ele>171</ele>
        <time>2018-05-20T09:29:03Z</time>
      </trkpt>
      <trkpt lat="45.9375" lon="4.724">
        <ele>171</ele>
        <time>2018-05-20T09:29:04Z</time>
      </trkpt>
      <trkpt lat="45.93743" lon="4.72394">
        <ele>171</ele>
        <time>2018-05-20T09:29:06Z</time>
      </trkpt>
      <trkpt lat="45.9374" lon="4.72389">
        <ele>171</ele>
        <time>2018-05-20T09:29:07Z</time>
      </trkpt>
      <trkpt lat="45.93737" lon="4.72385">
        <ele>171</ele>
        <time>2018-05-20T09:29:08Z</time>
      </trkpt>
      <trkpt lat="45.93732" lon="4.72382">
        <ele>171</ele>
        <time>2018-05-20T09:29:09Z</time>
      </trkpt>
      <trkpt lat="45.93726" lon="4.7238">
        <ele>171</ele>
        <time>2018-05-20T09:29:10Z</time>
      </trkpt>
      <trkpt lat="45.93723" lon="4.72377">
        <ele>171</ele>
        <time>2018-05-20T09:29:11Z</time>
      </trkpt>
      <trkpt lat="45.93716" lon="4.7237">
        <ele>172</ele>
        <time>2018-05-20T09:29:13Z</time>
      </trkpt>
      <trkpt lat="45.93713" lon="4.72367">
        <ele>172</ele>
        <time>2018-05-20T09:29:14Z</time>
      </trkpt>
      <trkpt lat="45.93707" lon="4.72359">
        <ele>171</ele>
        <time>2018-05-20T09:29:18Z</time>
      </trkpt>
      <trkpt lat="45.93705" lon="4.72357">
        <ele>171</ele>
        <time>2018-05-20T09:29:19Z</time>
      </trkpt>
      <trkpt lat="45.93699" lon="4.72352">
        <ele>171</ele>
        <time>2018-05-20T09:29:23Z</time>
      </trkpt>
      <trkpt lat="45.93697" lon="4.7235">
        <ele>171</ele>
        <time>2018-05-20T09:29:24Z</time>
      </trkpt>
      <trkpt lat="45.9369" lon="4.72344">
        <ele>171</ele>
        <time>2018-05-20T09:29:26Z</time>
      </trkpt>
      <trkpt lat="45.93689" lon="4.72342">
        <ele>171</ele>
        <time>2018-05-20T09:29:27Z</time>
      </trkpt>
      <trkpt lat="45.93682" lon="4.72333">
        <ele>171</ele>
        <time>2018-05-20T09:29:32Z</time>
      </trkpt>
      <trkpt lat="45.93682" lon="4.72333">
        <ele>171</ele>
        <time>2018-05-20T09:29:33Z</time>
      </trkpt>
      <trkpt lat="45.93675" lon="4.72327">
        <ele>171</ele>
        <time>2018-05-20T09:29:37Z</time>
      </trkpt>
      <trkpt lat="45.93673" lon="4.72325">
        <ele>171</ele>
        <time>2018-05-20T09:29:38Z</time>
      </trkpt>
      <trkpt lat="45.9367" lon="4.72323">
        <ele>171</ele>
        <time>2018-05-20T09:29:39Z</time>
      </trkpt>
      <trkpt lat="45.93662" lon="4.72315">
        <ele>172</ele>
        <time>2018-05-20T09:29:40Z</time>
      </trkpt>
      <trkpt lat="45.93655" lon="4.72308">
        <ele>172</ele>
        <time>2018-05-20T09:29:42Z</time>
      </trkpt>
      <trkpt lat="45.93651" lon="4.72305">
        <ele>172</ele>
        <time>2018-05-20T09:29:43Z</time>
      </trkpt>
      <trkpt lat="45.93644" lon="4.72303">
        <ele>172</ele>
        <time>2018-05-20T09:29:44Z</time>
      </trkpt>
      <trkpt lat="45.9364" lon="4.72299">
        <ele>172</ele>
        <time>2018-05-20T09:29:45Z</time>
      </trkpt>
      <trkpt lat="45.93636" lon="4.72294">
        <ele>172</ele>
        <time>2018-05-20T09:29:46Z</time>
      </trkpt>
      <trkpt lat="45.93632" lon="4.72289">
        <ele>172</ele>
        <time>2018-05-20T09:29:47Z</time>
      </trkpt>
      <trkpt lat="45.93627" lon="4.72285">
        <ele>172</ele>
        <time>2018-05-20T09:29:48Z</time>
      </trkpt>
      <trkpt lat="45.93623" lon="4.7228">
        <ele>172</ele>
        <time>2018-05-20T09:29:49Z</time>
      </trkpt>
      <trkpt lat="45.93616" lon="4.72274">
        <ele>172</ele>
        <time>2018-05-20T09:29:51Z</time>
      </trkpt>
      <trkpt lat="45.93613" lon="4.7227">
        <ele>172</ele>
        <time>2018-05-20T09:29:52Z</time>
      </trkpt>
      <trkpt lat="45.93605" lon="4.72262">
        <ele>173</ele>
        <time>2018-05-20T09:29:54Z</time>
      </trkpt>
      <trkpt lat="45.936" lon="4.72258">
        <ele>173</ele>
        <time>2018-05-20T09:29:55Z</time>
      </trkpt>
      <trkpt lat="45.93596" lon="4.72255">
        <ele>173</ele>
        <time>2018-05-20T09:29:56Z</time>
      </trkpt>
      <trkpt lat="45.93592" lon="4.72251">
        <ele>173</ele>
        <time>2018-05-20T09:29:57Z</time>
      </trkpt>
      <trkpt lat="45.93587" lon="4.72247">
        <ele>173</ele>
        <time>2018-05-20T09:29:58Z</time>
      </trkpt>
      <trkpt lat="45.93583" lon="4.72243">
        <ele>173</ele>
        <time>2018-05-20T09:29:59Z</time>
      </trkpt>
      <trkpt lat="45.93579" lon="4.72238">
        <ele>173</ele>
        <time>2018-05-20T09:30:00Z</time>
      </trkpt>
      <trkpt lat="45.93574" lon="4.72235">
        <ele>173</ele>
        <time>2018-05-20T09:30:01Z</time>
      </trkpt>
      <trkpt lat="45.93567" lon="4.72229">
        <ele>173</ele>
        <time>2018-05-20T09:30:03Z</time>
      </trkpt>
      <trkpt lat="45.93566" lon="4.72228">
        <ele>173</ele>
        <time>2018-05-20T09:30:04Z</time>
      </trkpt>
      <trkpt lat="45.93557" lon="4.72225">
        <ele>173</ele>
        <time>2018-05-20T09:30:08Z</time>
      </trkpt>
      <trkpt lat="45.93555" lon="4.72224">
        <ele>173</ele>
        <time>2018-05-20T09:30:09Z</time>
      </trkpt>
      <trkpt lat="45.93548" lon="4.72222">
        <ele>172</ele>
        <time>2018-05-20T09:30:12Z</time>
      </trkpt>
      <trkpt lat="45.93546" lon="4.72224">
        <ele>172</ele>
        <time>2018-05-20T09:30:13Z</time>
      </trkpt>
      <trkpt lat="45.93544" lon="4.72227">
        <ele>172</ele>
        <time>2018-05-20T09:30:14Z</time>
      </trkpt>
      <trkpt lat="45.93539" lon="4.72236">
        <ele>172</ele>
        <time>2018-05-20T09:30:15Z</time>
      </trkpt>
      <trkpt lat="45.93536" lon="4.72245">
        <ele>172</ele>
        <time>2018-05-20T09:30:17Z</time>
      </trkpt>
      <trkpt lat="45.93534" lon="4.72251">
        <ele>172</ele>
        <time>2018-05-20T09:30:18Z</time>
      </trkpt>
      <trkpt lat="45.9353" lon="4.7226">
        <ele>172</ele>
        <time>2018-05-20T09:30:20Z</time>
      </trkpt>
      <trkpt lat="45.93528" lon="4.72264">
        <ele>172</ele>
        <time>2018-05-20T09:30:21Z</time>
      </trkpt>
      <trkpt lat="45.93526" lon="4.7227">
        <ele>172</ele>
        <time>2018-05-20T09:30:22Z</time>
      </trkpt>
      <trkpt lat="45.93524" lon="4.72277">
        <ele>172</ele>
        <time>2018-05-20T09:30:23Z</time>
      </trkpt>
      <trkpt lat="45.93518" lon="4.72285">
        <ele>172</ele>
        <time>2018-05-20T09:30:25Z</time>
      </trkpt>
      <trkpt lat="45.93515" lon="4.7229">
        <ele>172</ele>
        <time>2018-05-20T09:30:26Z</time>
      </trkpt>
      <trkpt lat="45.93512" lon="4.72299">
        <ele>172</ele>
        <time>2018-05-20T09:30:27Z</time>
      </trkpt>
      <trkpt lat="45.93508" lon="4.72305">
        <ele>173</ele>
        <time>2018-05-20T09:30:28Z</time>
      </trkpt>
      <trkpt lat="45.93504" lon="4.72311">
        <ele>173</ele>
        <time>2018-05-20T09:30:29Z</time>
      </trkpt>
      <trkpt lat="45.935" lon="4.72317">
        <ele>173</ele>
        <time>2018-05-20T09:30:30Z</time>
      </trkpt>
      <trkpt lat="45.93496" lon="4.72325">
        <ele>173</ele>
        <time>2018-05-20T09:30:31Z</time>
      </trkpt>
      <trkpt lat="45.93491" lon="4.72328">
        <ele>173</ele>
        <time>2018-05-20T09:30:32Z</time>
      </trkpt>
      <trkpt lat="45.93487" lon="4.72334">
        <ele>173</ele>
        <time>2018-05-20T09:30:33Z</time>
      </trkpt>
      <trkpt lat="45.93482" lon="4.72339">
        <ele>173</ele>
        <time>2018-05-20T09:30:34Z</time>
      </trkpt>
      <trkpt lat="45.93475" lon="4.72346">
        <ele>173</ele>
        <time>2018-05-20T09:30:35Z</time>
      </trkpt>
      <trkpt lat="45.93471" lon="4.72353">
        <ele>173</ele>
        <time>2018-05-20T09:30:36Z</time>
      </trkpt>
      <trkpt lat="45.93467" lon="4.72359">
        <ele>173</ele>
        <time>2018-05-20T09:30:37Z</time>
      </trkpt>
      <trkpt lat="45.93463" lon="4.72365">
        <ele>173</ele>
        <time>2018-05-20T09:30:38Z</time>
      </trkpt>
      <trkpt lat="45.93458" lon="4.7237">
        <ele>173</ele>
        <time>2018-05-20T09:30:39Z</time>
      </trkpt>
      <trkpt lat="45.93454" lon="4.72376">
        <ele>173</ele>
        <time>2018-05-20T09:30:40Z</time>
      </trkpt>
      <trkpt lat="45.9345" lon="4.72382">
        <ele>173</ele>
        <time>2018-05-20T09:30:41Z</time>
      </trkpt>
      <trkpt lat="45.93445" lon="4.72385">
        <ele>173</ele>
        <time>2018-05-20T09:30:42Z</time>
      </trkpt>
      <trkpt lat="45.9344" lon="4.7239">
        <ele>173</ele>
        <time>2018-05-20T09:30:43Z</time>
      </trkpt>
      <trkpt lat="45.93435" lon="4.72395">
        <ele>173</ele>
        <time>2018-05-20T09:30:44Z</time>
      </trkpt>
      <trkpt lat="45.9343" lon="4.72398">
        <ele>174</ele>
        <time>2018-05-20T09:30:45Z</time>
      </trkpt>
      <trkpt lat="45.93425" lon="4.724">
        <ele>174</ele>
        <time>2018-05-20T09:30:46Z</time>
      </trkpt>
      <trkpt lat="45.9342" lon="4.72402">
        <ele>174</ele>
        <time>2018-05-20T09:30:47Z</time>
      </trkpt>
      <trkpt lat="45.93415" lon="4.72403">
        <ele>174</ele>
        <time>2018-05-20T09:30:48Z</time>
      </trkpt>
      <trkpt lat="45.9341" lon="4.72404">
        <ele>174</ele>
        <time>2018-05-20T09:30:49Z</time>
      </trkpt>
      <trkpt lat="45.93406" lon="4.72405">
        <ele>174</ele>
        <time>2018-05-20T09:30:50Z</time>
      </trkpt>
      <trkpt lat="45.93402" lon="4.72405">
        <ele>174</ele>
        <time>2018-05-20T09:30:51Z</time>
      </trkpt>
      <trkpt lat="45.93397" lon="4.72403">
        <ele>174</ele>
        <time>2018-05-20T09:30:52Z</time>
      </trkpt>
      <trkpt lat="45.93392" lon="4.72404">
        <ele>174</ele>
        <time>2018-05-20T09:30:53Z</time>
      </trkpt>
      <trkpt lat="45.93388" lon="4.72407">
        <ele>174</ele>
        <time>2018-05-20T09:30:54Z</time>
      </trkpt>
      <trkpt lat="45.93385" lon="4.72413">
        <ele>174</ele>
        <time>2018-05-20T09:30:55Z</time>
      </trkpt>
      <trkpt lat="45.93383" lon="4.7242">
        <ele>173</ele>
        <time>2018-05-20T09:30:56Z</time>
      </trkpt>
      <trkpt lat="45.93384" lon="4.72428">
        <ele>173</ele>
        <time>2018-05-20T09:30:57Z</time>
      </trkpt>
      <trkpt lat="45.93386" lon="4.72435">
        <ele>173</ele>
        <time>2018-05-20T09:30:58Z</time>
      </trkpt>
      <trkpt lat="45.93388" lon="4.72441">
        <ele>173</ele>
        <time>2018-05-20T09:30:59Z</time>
      </trkpt>
      <trkpt lat="45.9339" lon="4.72448">
        <ele>173</ele>
        <time>2018-05-20T09:31:00Z</time>
      </trkpt>
      <trkpt lat="45.93391" lon="4.72456">
        <ele>173</ele>
        <time>2018-05-20T09:31:01Z</time>
      </trkpt>
      <trkpt lat="45.93389" lon="4.72464">
        <ele>173</ele>
        <time>2018-05-20T09:31:02Z</time>
      </trkpt>
      <trkpt lat="45.93386" lon="4.7247">
        <ele>173</ele>
        <time>2018-05-20T09:31:03Z</time>
      </trkpt>
      <trkpt lat="45.93382" lon="4.72476">
        <ele>173</ele>
        <time>2018-05-20T09:31:04Z</time>
      </trkpt>
      <trkpt lat="45.93378" lon="4.7248">
        <ele>173</ele>
        <time>2018-05-20T09:31:05Z</time>
      </trkpt>
      <trkpt lat="45.93373" lon="4.72485">
        <ele>173</ele>
        <time>2018-05-20T09:31:06Z</time>
      </trkpt>
      <trkpt lat="45.93366" lon="4.72491">
        <ele>173</ele>
        <time>2018-05-20T09:31:08Z</time>
      </trkpt>
      <trkpt lat="45.93362" lon="4.72497">
        <ele>173</ele>
        <time>2018-05-20T09:31:09Z</time>
      </trkpt>
      <trkpt lat="45.93355" lon="4.72502">
        <ele>172</ele>
        <time>2018-05-20T09:31:10Z</time>
      </trkpt>
      <trkpt lat="45.9335" lon="4.72507">
        <ele>172</ele>
        <time>2018-05-20T09:31:11Z</time>
      </trkpt>
      <trkpt lat="45.93346" lon="4.72513">
        <ele>172</ele>
        <time>2018-05-20T09:31:12Z</time>
      </trkpt>
      <trkpt lat="45.93341" lon="4.72518">
        <ele>172</ele>
        <time>2018-05-20T09:31:13Z</time>
      </trkpt>
      <trkpt lat="45.93336" lon="4.72523">
        <ele>172</ele>
        <time>2018-05-20T09:31:14Z</time>
      </trkpt>
      <trkpt lat="45.93333" lon="4.72529">
        <ele>172</ele>
        <time>2018-05-20T09:31:15Z</time>
      </trkpt>
      <trkpt lat="45.93328" lon="4.72534">
        <ele>172</ele>
        <time>2018-05-20T09:31:16Z</time>
      </trkpt>
      <trkpt lat="45.93322" lon="4.72539">
        <ele>172</ele>
        <time>2018-05-20T09:31:17Z</time>
      </trkpt>
      <trkpt lat="45.93318" lon="4.72543">
        <ele>172</ele>
        <time>2018-05-20T09:31:18Z</time>
      </trkpt>
      <trkpt lat="45.93315" lon="4.72548">
        <ele>172</ele>
        <time>2018-05-20T09:31:19Z</time>
      </trkpt>
      <trkpt lat="45.93309" lon="4.72552">
        <ele>172</ele>
        <time>2018-05-20T09:31:20Z</time>
      </trkpt>
      <trkpt lat="45.93305" lon="4.72556">
        <ele>172</ele>
        <time>2018-05-20T09:31:21Z</time>
      </trkpt>
      <trkpt lat="45.93301" lon="4.72562">
        <ele>172</ele>
        <time>2018-05-20T09:31:22Z</time>
      </trkpt>
      <trkpt lat="45.93295" lon="4.72567">
        <ele>172</ele>
        <time>2018-05-20T09:31:23Z</time>
      </trkpt>
      <trkpt lat="45.93289" lon="4.72572">
        <ele>172</ele>
        <time>2018-05-20T09:31:24Z</time>
      </trkpt>
      <trkpt lat="45.93285" lon="4.72578">
        <ele>172</ele>
        <time>2018-05-20T09:31:25Z</time>
      </trkpt>
      <trkpt lat="45.9328" lon="4.72582">
        <ele>171</ele>
        <time>2018-05-20T09:31:26Z</time>
      </trkpt>
      <trkpt lat="45.93275" lon="4.72589">
        <ele>170</ele>
        <time>2018-05-20T09:31:27Z</time>
      </trkpt>
      <trkpt lat="45.93269" lon="4.72593">
        <ele>170</ele>
        <time>2018-05-20T09:31:28Z</time>
      </trkpt>
      <trkpt lat="45.93265" lon="4.72596">
        <ele>170</ele>
        <time>2018-05-20T09:31:29Z</time>
      </trkpt>
      <trkpt lat="45.93261" lon="4.72602">
        <ele>170</ele>
        <time>2018-05-20T09:31:30Z</time>
      </trkpt>
      <trkpt lat="45.93257" lon="4.72609">
        <ele>170</ele>
        <time>2018-05-20T09:31:31Z</time>
      </trkpt>
      <trkpt lat="45.93254" lon="4.72615">
        <ele>170</ele>
        <time>2018-05-20T09:31:32Z</time>
      </trkpt>
      <trkpt lat="45.93249" lon="4.7262">
        <ele>170</ele>
        <time>2018-05-20T09:31:33Z</time>
      </trkpt>
      <trkpt lat="45.93243" lon="4.72627">
        <ele>170</ele>
        <time>2018-05-20T09:31:34Z</time>
      </trkpt>
      <trkpt lat="45.93238" lon="4.72632">
        <ele>170</ele>
        <time>2018-05-20T09:31:35Z</time>
      </trkpt>
      <trkpt lat="45.93233" lon="4.72635">
        <ele>170</ele>
        <time>2018-05-20T09:31:36Z</time>
      </trkpt>
      <trkpt lat="45.93228" lon="4.72642">
        <ele>170</ele>
        <time>2018-05-20T09:31:37Z</time>
      </trkpt>
      <trkpt lat="45.93224" lon="4.72647">
        <ele>170</ele>
        <time>2018-05-20T09:31:38Z</time>
      </trkpt>
      <trkpt lat="45.9322" lon="4.72653">
        <ele>170</ele>
        <time>2018-05-20T09:31:39Z</time>
      </trkpt>
      <trkpt lat="45.93216" lon="4.72659">
        <ele>170</ele>
        <time>2018-05-20T09:31:40Z</time>
      </trkpt>
      <trkpt lat="45.93212" lon="4.72664">
        <ele>170</ele>
        <time>2018-05-20T09:31:41Z</time>
      </trkpt>
      <trkpt lat="45.93207" lon="4.72669">
        <ele>169</ele>
        <time>2018-05-20T09:31:42Z</time>
      </trkpt>
      <trkpt lat="45.93201" lon="4.72675">
        <ele>169</ele>
        <time>2018-05-20T09:31:43Z</time>
      </trkpt>
      <trkpt lat="45.93197" lon="4.72682">
        <ele>169</ele>
        <time>2018-05-20T09:31:44Z</time>
      </trkpt>
      <trkpt lat="45.93192" lon="4.72688">
        <ele>169</ele>
        <time>2018-05-20T09:31:45Z</time>
      </trkpt>
      <trkpt lat="45.93188" lon="4.72695">
        <ele>169</ele>
        <time>2018-05-20T09:31:46Z</time>
      </trkpt>
      <trkpt lat="45.93184" lon="4.72699">
        <ele>169</ele>
        <time>2018-05-20T09:31:47Z</time>
      </trkpt>
      <trkpt lat="45.93179" lon="4.72705">
        <ele>169</ele>
        <time>2018-05-20T09:31:48Z</time>
      </trkpt>
      <trkpt lat="45.93175" lon="4.7271">
        <ele>170</ele>
        <time>2018-05-20T09:31:49Z</time>
      </trkpt>
      <trkpt lat="45.9317" lon="4.72715">
        <ele>170</ele>
        <time>2018-05-20T09:31:50Z</time>
      </trkpt>
      <trkpt lat="45.93165" lon="4.72721">
        <ele>170</ele>
        <time>2018-05-20T09:31:51Z</time>
      </trkpt>
      <trkpt lat="45.9316" lon="4.72726">
        <ele>170</ele>
        <time>2018-05-20T09:31:52Z</time>
      </trkpt>
      <trkpt lat="45.93155" lon="4.72731">
        <ele>170</ele>
        <time>2018-05-20T09:31:53Z</time>
      </trkpt>
      <trkpt lat="45.9315" lon="4.72736">
        <ele>170</ele>
        <time>2018-05-20T09:31:54Z</time>
      </trkpt>
      <trkpt lat="45.93146" lon="4.72742">
        <ele>170</ele>
        <time>2018-05-20T09:31:55Z</time>
      </trkpt>
      <trkpt lat="45.93142" lon="4.72747">
        <ele>170</ele>
        <time>2018-05-20T09:31:56Z</time>
      </trkpt>
      <trkpt lat="45.93137" lon="4.72753">
        <ele>171</ele>
        <time>2018-05-20T09:31:57Z</time>
      </trkpt>
      <trkpt lat="45.93132" lon="4.72759">
        <ele>171</ele>
        <time>2018-05-20T09:31:58Z</time>
      </trkpt>
      <trkpt lat="45.93127" lon="4.72765">
        <ele>171</ele>
        <time>2018-05-20T09:31:59Z</time>
      </trkpt>
      <trkpt lat="45.93122" lon="4.7277">
        <ele>171</ele>
        <time>2018-05-20T09:32:00Z</time>
      </trkpt>
      <trkpt lat="45.93117" lon="4.72776">
        <ele>171</ele>
        <time>2018-05-20T09:32:01Z</time>
      </trkpt>
      <trkpt lat="45.93112" lon="4.72781">
        <ele>171</ele>
        <time>2018-05-20T09:32:02Z</time>
      </trkpt>
      <trkpt lat="45.93108" lon="4.72786">
        <ele>171</ele>
        <time>2018-05-20T09:32:03Z</time>
      </trkpt>
      <trkpt lat="45.93103" lon="4.72791">
        <ele>171</ele>
        <time>2018-05-20T09:32:04Z</time>
      </trkpt>
      <trkpt lat="45.93098" lon="4.72797">
        <ele>171</ele>
        <time>2018-05-20T09:32:05Z</time>
      </trkpt>
      <trkpt lat="45.93094" lon="4.72802">
        <ele>171</ele>
        <time>2018-05-20T09:32:06Z</time>
      </trkpt>
      <trkpt lat="45.93089" lon="4.72807">
        <ele>172</ele>
        <time>2018-05-20T09:32:07Z</time>
      </trkpt>
      <trkpt lat="45.93084" lon="4.72813">
        <ele>172</ele>
        <time>2018-05-20T09:32:08Z</time>
      </trkpt>
      <trkpt lat="45.9308" lon="4.72818">
        <ele>172</ele>
        <time>2018-05-20T09:32:09Z</time>
      </trkpt>
      <trkpt lat="45.93075" lon="4.72823">
        <ele>173</ele>
        <time>2018-05-20T09:32:10Z</time>
      </trkpt>
      <trkpt lat="45.93071" lon="4.72827">
        <ele>173</ele>
        <time>2018-05-20T09:32:11Z</time>
      </trkpt>
      <trkpt lat="45.93049" lon="4.72851">
        <ele>172</ele>
        <time>2018-05-20T09:32:16Z</time>
      </trkpt>
      <trkpt lat="45.93043" lon="4.72861">
        <ele>172</ele>
        <time>2018-05-20T09:32:17Z</time>
      </trkpt>
      <trkpt lat="45.93041" lon="4.72865">
        <ele>172</ele>
        <time>2018-05-20T09:32:18Z</time>
      </trkpt>
      <trkpt lat="45.93036" lon="4.72871">
        <ele>172</ele>
        <time>2018-05-20T09:32:19Z</time>
      </trkpt>
      <trkpt lat="45.93031" lon="4.72877">
        <ele>172</ele>
        <time>2018-05-20T09:32:20Z</time>
      </trkpt>
      <trkpt lat="45.93026" lon="4.72883">
        <ele>172</ele>
        <time>2018-05-20T09:32:21Z</time>
      </trkpt>
      <trkpt lat="45.93021" lon="4.72889">
        <ele>172</ele>
        <time>2018-05-20T09:32:22Z</time>
      </trkpt>
      <trkpt lat="45.93016" lon="4.72893">
        <ele>172</ele>
        <time>2018-05-20T09:32:23Z</time>
      </trkpt>
      <trkpt lat="45.93012" lon="4.72898">
        <ele>172</ele>
        <time>2018-05-20T09:32:24Z</time>
      </trkpt>
      <trkpt lat="45.93007" lon="4.72903">
        <ele>171</ele>
        <time>2018-05-20T09:32:25Z</time>
      </trkpt>
      <trkpt lat="45.93002" lon="4.72908">
        <ele>171</ele>
        <time>2018-05-20T09:32:26Z</time>
      </trkpt>
      <trkpt lat="45.92998" lon="4.72912">
        <ele>171</ele>
        <time>2018-05-20T09:32:27Z</time>
      </trkpt>
      <trkpt lat="45.92993" lon="4.72918">
        <ele>171</ele>
        <time>2018-05-20T09:32:28Z</time>
      </trkpt>
      <trkpt lat="45.92989" lon="4.72925">
        <ele>171</ele>
        <time>2018-05-20T09:32:29Z</time>
      </trkpt>
      <trkpt lat="45.92985" lon="4.72931">
        <ele>171</ele>
        <time>2018-05-20T09:32:30Z</time>
      </trkpt>
      <trkpt lat="45.92981" lon="4.72939">
        <ele>171</ele>
        <time>2018-05-20T09:32:31Z</time>
      </trkpt>
      <trkpt lat="45.92977" lon="4.72944">
        <ele>171</ele>
        <time>2018-05-20T09:32:32Z</time>
      </trkpt>
      <trkpt lat="45.92973" lon="4.72949">
        <ele>171</ele>
        <time>2018-05-20T09:32:33Z</time>
      </trkpt>
      <trkpt lat="45.9297" lon="4.72955">
        <ele>171</ele>
        <time>2018-05-20T09:32:34Z</time>
      </trkpt>
      <trkpt lat="45.92965" lon="4.72958">
        <ele>171</ele>
        <time>2018-05-20T09:32:35Z</time>
      </trkpt>
      <trkpt lat="45.9296" lon="4.72963">
        <ele>171</ele>
        <time>2018-05-20T09:32:36Z</time>
      </trkpt>
      <trkpt lat="45.92957" lon="4.7297">
        <ele>171</ele>
        <time>2018-05-20T09:32:37Z</time>
      </trkpt>
      <trkpt lat="45.92953" lon="4.72976">
        <ele>171</ele>
        <time>2018-05-20T09:32:38Z</time>
      </trkpt>
      <trkpt lat="45.92948" lon="4.7298">
        <ele>171</ele>
        <time>2018-05-20T09:32:39Z</time>
      </trkpt>
      <trkpt lat="45.92943" lon="4.72986">
        <ele>171</ele>
        <time>2018-05-20T09:32:40Z</time>
      </trkpt>
      <trkpt lat="45.92939" lon="4.72991">
        <ele>171</ele>
        <time>2018-05-20T09:32:41Z</time>
      </trkpt>
      <trkpt lat="45.92934" lon="4.72997">
        <ele>172</ele>
        <time>2018-05-20T09:32:42Z</time>
      </trkpt>
      <trkpt lat="45.92929" lon="4.73002">
        <ele>172</ele>
        <time>2018-05-20T09:32:43Z</time>
      </trkpt>
      <trkpt lat="45.92925" lon="4.73009">
        <ele>172</ele>
        <time>2018-05-20T09:32:44Z</time>
      </trkpt>
      <trkpt lat="45.92921" lon="4.73013">
        <ele>172</ele>
        <time>2018-05-20T09:32:45Z</time>
      </trkpt>
      <trkpt lat="45.92916" lon="4.73019">
        <ele>172</ele>
        <time>2018-05-20T09:32:46Z</time>
      </trkpt>
      <trkpt lat="45.92912" lon="4.73024">
        <ele>172</ele>
        <time>2018-05-20T09:32:47Z</time>
      </trkpt>
      <trkpt lat="45.92908" lon="4.73029">
        <ele>172</ele>
        <time>2018-05-20T09:32:48Z</time>
      </trkpt>
      <trkpt lat="45.92904" lon="4.73036">
        <ele>172</ele>
        <time>2018-05-20T09:32:49Z</time>
      </trkpt>
      <trkpt lat="45.929" lon="4.73042">
        <ele>172</ele>
        <time>2018-05-20T09:32:50Z</time>
      </trkpt>
      <trkpt lat="45.92896" lon="4.73048">
        <ele>172</ele>
        <time>2018-05-20T09:32:51Z</time>
      </trkpt>
      <trkpt lat="45.92891" lon="4.73054">
        <ele>172</ele>
        <time>2018-05-20T09:32:52Z</time>
      </trkpt>
      <trkpt lat="45.92888" lon="4.7306">
        <ele>172</ele>
        <time>2018-05-20T09:32:53Z</time>
      </trkpt>
      <trkpt lat="45.92884" lon="4.73067">
        <ele>172</ele>
        <time>2018-05-20T09:32:54Z</time>
      </trkpt>
      <trkpt lat="45.92881" lon="4.73075">
        <ele>172</ele>
        <time>2018-05-20T09:32:55Z</time>
      </trkpt>
      <trkpt lat="45.92878" lon="4.73084">
        <ele>172</ele>
        <time>2018-05-20T09:32:56Z</time>
      </trkpt>
      <trkpt lat="45.92875" lon="4.73092">
        <ele>172</ele>
        <time>2018-05-20T09:32:57Z</time>
      </trkpt>
      <trkpt lat="45.92872" lon="4.731">
        <ele>172</ele>
        <time>2018-05-20T09:32:58Z</time>
      </trkpt>
      <trkpt lat="45.92871" lon="4.73109">
        <ele>172</ele>
        <time>2018-05-20T09:32:59Z</time>
      </trkpt>
      <trkpt lat="45.92869" lon="4.73118">
        <ele>171</ele>
        <time>2018-05-20T09:33:00Z</time>
      </trkpt>
      <trkpt lat="45.92867" lon="4.73127">
        <ele>171</ele>
        <time>2018-05-20T09:33:01Z</time>
      </trkpt>
      <trkpt lat="45.92865" lon="4.73136">
        <ele>171</ele>
        <time>2018-05-20T09:33:02Z</time>
      </trkpt>
      <trkpt lat="45.92864" lon="4.73145">
        <ele>171</ele>
        <time>2018-05-20T09:33:03Z</time>
      </trkpt>
      <trkpt lat="45.92863" lon="4.73154">
        <ele>171</ele>
        <time>2018-05-20T09:33:04Z</time>
      </trkpt>
      <trkpt lat="45.92862" lon="4.73165">
        <ele>171</ele>
        <time>2018-05-20T09:33:05Z</time>
      </trkpt>
      <trkpt lat="45.92862" lon="4.73179">
        <ele>171</ele>
        <time>2018-05-20T09:33:06Z</time>
      </trkpt>
      <trkpt lat="45.92862" lon="4.73188">
        <ele>171</ele>
        <time>2018-05-20T09:33:07Z</time>
      </trkpt>
      <trkpt lat="45.92862" lon="4.73197">
        <ele>171</ele>
        <time>2018-05-20T09:33:08Z</time>
      </trkpt>
      <trkpt lat="45.92861" lon="4.73204">
        <ele>171</ele>
        <time>2018-05-20T09:33:09Z</time>
      </trkpt>
      <trkpt lat="45.9286" lon="4.73212">
        <ele>171</ele>
        <time>2018-05-20T09:33:10Z</time>
      </trkpt>
      <trkpt lat="45.92858" lon="4.73221">
        <ele>171</ele>
        <time>2018-05-20T09:33:11Z</time>
      </trkpt>
      <trkpt lat="45.92857" lon="4.7323">
        <ele>171</ele>
        <time>2018-05-20T09:33:12Z</time>
      </trkpt>
      <trkpt lat="45.92859" lon="4.73239">
        <ele>171</ele>
        <time>2018-05-20T09:33:13Z</time>
      </trkpt>
      <trkpt lat="45.92858" lon="4.73248">
        <ele>171</ele>
        <time>2018-05-20T09:33:14Z</time>
      </trkpt>
      <trkpt lat="45.92857" lon="4.73257">
        <ele>171</ele>
        <time>2018-05-20T09:33:15Z</time>
      </trkpt>
      <trkpt lat="45.92856" lon="4.73265">
        <ele>171</ele>
        <time>2018-05-20T09:33:16Z</time>
      </trkpt>
      <trkpt lat="45.92855" lon="4.73274">
        <ele>171</ele>
        <time>2018-05-20T09:33:17Z</time>
      </trkpt>
      <trkpt lat="45.92854" lon="4.73283">
        <ele>171</ele>
        <time>2018-05-20T09:33:18Z</time>
      </trkpt>
      <trkpt lat="45.92853" lon="4.73292">
        <ele>171</ele>
        <time>2018-05-20T09:33:19Z</time>
      </trkpt>
      <trkpt lat="45.92851" lon="4.73299">
        <ele>171</ele>
        <time>2018-05-20T09:33:20Z</time>
      </trkpt>
      <trkpt lat="45.9285" lon="4.73308">
        <ele>171</ele>
        <time>2018-05-20T09:33:21Z</time>
      </trkpt>
      <trkpt lat="45.92849" lon="4.73317">
        <ele>171</ele>
        <time>2018-05-20T09:33:22Z</time>
      </trkpt>
      <trkpt lat="45.92847" lon="4.73325">
        <ele>171</ele>
        <time>2018-05-20T09:33:23Z</time>
      </trkpt>
      <trkpt lat="45.92846" lon="4.73333">
        <ele>171</ele>
        <time>2018-05-20T09:33:24Z</time>
      </trkpt>
      <trkpt lat="45.92845" lon="4.73343">
        <ele>171</ele>
        <time>2018-05-20T09:33:25Z</time>
      </trkpt>
      <trkpt lat="45.92845" lon="4.73352">
        <ele>171</ele>
        <time>2018-05-20T09:33:26Z</time>
      </trkpt>
      <trkpt lat="45.92844" lon="4.7336">
        <ele>171</ele>
        <time>2018-05-20T09:33:27Z</time>
      </trkpt>
      <trkpt lat="45.92842" lon="4.7337">
        <ele>171</ele>
        <time>2018-05-20T09:33:28Z</time>
      </trkpt>
      <trkpt lat="45.9284" lon="4.73377">
        <ele>172</ele>
        <time>2018-05-20T09:33:29Z</time>
      </trkpt>
      <trkpt lat="45.92838" lon="4.73385">
        <ele>172</ele>
        <time>2018-05-20T09:33:30Z</time>
      </trkpt>
      <trkpt lat="45.92837" lon="4.73394">
        <ele>172</ele>
        <time>2018-05-20T09:33:31Z</time>
      </trkpt>
      <trkpt lat="45.92836" lon="4.73403">
        <ele>172</ele>
        <time>2018-05-20T09:33:32Z</time>
      </trkpt>
      <trkpt lat="45.92834" lon="4.73412">
        <ele>172</ele>
        <time>2018-05-20T09:33:33Z</time>
      </trkpt>
      <trkpt lat="45.92833" lon="4.73422">
        <ele>172</ele>
        <time>2018-05-20T09:33:34Z</time>
      </trkpt>
      <trkpt lat="45.92834" lon="4.7343">
        <ele>172</ele>
        <time>2018-05-20T09:33:35Z</time>
      </trkpt>
      <trkpt lat="45.92833" lon="4.73438">
        <ele>172</ele>
        <time>2018-05-20T09:33:36Z</time>
      </trkpt>
      <trkpt lat="45.92832" lon="4.73446">
        <ele>172</ele>
        <time>2018-05-20T09:33:37Z</time>
      </trkpt>
      <trkpt lat="45.92831" lon="4.73454">
        <ele>172</ele>
        <time>2018-05-20T09:33:38Z</time>
      </trkpt>
      <trkpt lat="45.9283" lon="4.73462">
        <ele>172</ele>
        <time>2018-05-20T09:33:39Z</time>
      </trkpt>
      <trkpt lat="45.92828" lon="4.73471">
        <ele>172</ele>
        <time>2018-05-20T09:33:40Z</time>
      </trkpt>
      <trkpt lat="45.92827" lon="4.73479">
        <ele>172</ele>
        <time>2018-05-20T09:33:41Z</time>
      </trkpt>
      <trkpt lat="45.92827" lon="4.73487">
        <ele>172</ele>
        <time>2018-05-20T09:33:42Z</time>
      </trkpt>
      <trkpt lat="45.92826" lon="4.73494">
        <ele>172</ele>
        <time>2018-05-20T09:33:43Z</time>
      </trkpt>
      <trkpt lat="45.92825" lon="4.73502">
        <ele>172</ele>
        <time>2018-05-20T09:33:44Z</time>
      </trkpt>
      <trkpt lat="45.92824" lon="4.73509">
        <ele>172</ele>
        <time>2018-05-20T09:33:45Z</time>
      </trkpt>
      <trkpt lat="45.92823" lon="4.73517">
        <ele>172</ele>
        <time>2018-05-20T09:33:46Z</time>
      </trkpt>
      <trkpt lat="45.92822" lon="4.73526">
        <ele>172</ele>
        <time>2018-05-20T09:33:47Z</time>
      </trkpt>
      <trkpt lat="45.9282" lon="4.73533">
        <ele>172</ele>
        <time>2018-05-20T09:33:48Z</time>
      </trkpt>
      <trkpt lat="45.9282" lon="4.73541">
        <ele>172</ele>
        <time>2018-05-20T09:33:49Z</time>
      </trkpt>
      <trkpt lat="45.92819" lon="4.73551">
        <ele>171</ele>
        <time>2018-05-20T09:33:50Z</time>
      </trkpt>
      <trkpt lat="45.92819" lon="4.73558">
        <ele>171</ele>
        <time>2018-05-20T09:33:51Z</time>
      </trkpt>
      <trkpt lat="45.92818" lon="4.73566">
        <ele>171</ele>
        <time>2018-05-20T09:33:52Z</time>
      </trkpt>
      <trkpt lat="45.92818" lon="4.73573">
        <ele>171</ele>
        <time>2018-05-20T09:33:53Z</time>
      </trkpt>
      <trkpt lat="45.92818" lon="4.7358">
        <ele>171</ele>
        <time>2018-05-20T09:33:54Z</time>
      </trkpt>
      <trkpt lat="45.92817" lon="4.73588">
        <ele>171</ele>
        <time>2018-05-20T09:33:55Z</time>
      </trkpt>
      <trkpt lat="45.92818" lon="4.73596">
        <ele>171</ele>
        <time>2018-05-20T09:33:56Z</time>
      </trkpt>
      <trkpt lat="45.92818" lon="4.73605">
        <ele>171</ele>
        <time>2018-05-20T09:33:57Z</time>
      </trkpt>
      <trkpt lat="45.92819" lon="4.73612">
        <ele>172</ele>
        <time>2018-05-20T09:33:58Z</time>
      </trkpt>
      <trkpt lat="45.92817" lon="4.73619">
        <ele>172</ele>
        <time>2018-05-20T09:33:59Z</time>
      </trkpt>
      <trkpt lat="45.92815" lon="4.73626">
        <ele>172</ele>
        <time>2018-05-20T09:34:00Z</time>
      </trkpt>
      <trkpt lat="45.9281" lon="4.73632">
        <ele>172</ele>
        <time>2018-05-20T09:34:01Z</time>
      </trkpt>
      <trkpt lat="45.92807" lon="4.73639">
        <ele>172</ele>
        <time>2018-05-20T09:34:02Z</time>
      </trkpt>
      <trkpt lat="45.92804" lon="4.73645">
        <ele>172</ele>
        <time>2018-05-20T09:34:03Z</time>
      </trkpt>
      <trkpt lat="45.92801" lon="4.73651">
        <ele>172</ele>
        <time>2018-05-20T09:34:04Z</time>
      </trkpt>
      <trkpt lat="45.92799" lon="4.73659">
        <ele>172</ele>
        <time>2018-05-20T09:34:05Z</time>
      </trkpt>
      <trkpt lat="45.92798" lon="4.73664">
        <ele>172</ele>
        <time>2018-05-20T09:34:06Z</time>
      </trkpt>
      <trkpt lat="45.92797" lon="4.73672">
        <ele>172</ele>
        <time>2018-05-20T09:34:07Z</time>
      </trkpt>
      <trkpt lat="45.92795" lon="4.73677">
        <ele>172</ele>
        <time>2018-05-20T09:34:08Z</time>
      </trkpt>
      <trkpt lat="45.92791" lon="4.73685">
        <ele>172</ele>
        <time>2018-05-20T09:34:10Z</time>
      </trkpt>
      <trkpt lat="45.92789" lon="4.73692">
        <ele>172</ele>
        <time>2018-05-20T09:34:11Z</time>
      </trkpt>
      <trkpt lat="45.92787" lon="4.73698">
        <ele>172</ele>
        <time>2018-05-20T09:34:12Z</time>
      </trkpt>
      <trkpt lat="45.92785" lon="4.73705">
        <ele>172</ele>
        <time>2018-05-20T09:34:13Z</time>
      </trkpt>
      <trkpt lat="45.92784" lon="4.73717">
        <ele>172</ele>
        <time>2018-05-20T09:34:15Z</time>
      </trkpt>
      <trkpt lat="45.92783" lon="4.73722">
        <ele>172</ele>
        <time>2018-05-20T09:34:16Z</time>
      </trkpt>
      <trkpt lat="45.92777" lon="4.73727">
        <ele>172</ele>
        <time>2018-05-20T09:34:18Z</time>
      </trkpt>
      <trkpt lat="45.92774" lon="4.73729">
        <ele>172</ele>
        <time>2018-05-20T09:34:19Z</time>
      </trkpt>
      <trkpt lat="45.92768" lon="4.73728">
        <ele>172</ele>
        <time>2018-05-20T09:34:21Z</time>
      </trkpt>
      <trkpt lat="45.92764" lon="4.73727">
        <ele>172</ele>
        <time>2018-05-20T09:34:22Z</time>
      </trkpt>
      <trkpt lat="45.92756" lon="4.73722">
        <ele>172</ele>
        <time>2018-05-20T09:34:24Z</time>
      </trkpt>
      <trkpt lat="45.92752" lon="4.73721">
        <ele>172</ele>
        <time>2018-05-20T09:34:25Z</time>
      </trkpt>
      <trkpt lat="45.92749" lon="4.73719">
        <ele>173</ele>
        <time>2018-05-20T09:34:26Z</time>
      </trkpt>
      <trkpt lat="45.92742" lon="4.73718">
        <ele>173</ele>
        <time>2018-05-20T09:34:27Z</time>
      </trkpt>
      <trkpt lat="45.92736" lon="4.73716">
        <ele>173</ele>
        <time>2018-05-20T09:34:28Z</time>
      </trkpt>
      <trkpt lat="45.92731" lon="4.73715">
        <ele>173</ele>
        <time>2018-05-20T09:34:29Z</time>
      </trkpt>
      <trkpt lat="45.92725" lon="4.73713">
        <ele>173</ele>
        <time>2018-05-20T09:34:30Z</time>
      </trkpt>
      <trkpt lat="45.92721" lon="4.73713">
        <ele>173</ele>
        <time>2018-05-20T09:34:31Z</time>
      </trkpt>
      <trkpt lat="45.92715" lon="4.7371">
        <ele>173</ele>
        <time>2018-05-20T09:34:32Z</time>
      </trkpt>
      <trkpt lat="45.92708" lon="4.7371">
        <ele>173</ele>
        <time>2018-05-20T09:34:33Z</time>
      </trkpt>
      <trkpt lat="45.92702" lon="4.73709">
        <ele>173</ele>
        <time>2018-05-20T09:34:34Z</time>
      </trkpt>
      <trkpt lat="45.92696" lon="4.73708">
        <ele>173</ele>
        <time>2018-05-20T09:34:35Z</time>
      </trkpt>
      <trkpt lat="45.9269" lon="4.73707">
        <ele>173</ele>
        <time>2018-05-20T09:34:36Z</time>
      </trkpt>
      <trkpt lat="45.92686" lon="4.73704">
        <ele>173</ele>
        <time>2018-05-20T09:34:37Z</time>
      </trkpt>
      <trkpt lat="45.92681" lon="4.73703">
        <ele>173</ele>
        <time>2018-05-20T09:34:38Z</time>
      </trkpt>
      <trkpt lat="45.92675" lon="4.73701">
        <ele>174</ele>
        <time>2018-05-20T09:34:39Z</time>
      </trkpt>
      <trkpt lat="45.92669" lon="4.737">
        <ele>174</ele>
        <time>2018-05-20T09:34:40Z</time>
      </trkpt>
      <trkpt lat="45.92664" lon="4.73696">
        <ele>173</ele>
        <time>2018-05-20T09:34:41Z</time>
      </trkpt>
      <trkpt lat="45.92657" lon="4.7369">
        <ele>173</ele>
        <time>2018-05-20T09:34:43Z</time>
      </trkpt>
      <trkpt lat="45.92652" lon="4.73686">
        <ele>173</ele>
        <time>2018-05-20T09:34:44Z</time>
      </trkpt>
      <trkpt lat="45.92649" lon="4.7368">
        <ele>173</ele>
        <time>2018-05-20T09:34:45Z</time>
      </trkpt>
      <trkpt lat="45.92644" lon="4.73674">
        <ele>173</ele>
        <time>2018-05-20T09:34:46Z</time>
      </trkpt>
      <trkpt lat="45.9264" lon="4.73669">
        <ele>173</ele>
        <time>2018-05-20T09:34:47Z</time>
      </trkpt>
      <trkpt lat="45.92637" lon="4.73664">
        <ele>173</ele>
        <time>2018-05-20T09:34:48Z</time>
      </trkpt>
      <trkpt lat="45.92633" lon="4.73659">
        <ele>173</ele>
        <time>2018-05-20T09:34:49Z</time>
      </trkpt>
      <trkpt lat="45.9263" lon="4.73652">
        <ele>173</ele>
        <time>2018-05-20T09:34:50Z</time>
      </trkpt>
      <trkpt lat="45.92628" lon="4.73643">
        <ele>173</ele>
        <time>2018-05-20T09:34:51Z</time>
      </trkpt>
      <trkpt lat="45.92625" lon="4.73637">
        <ele>173</ele>
        <time>2018-05-20T09:34:52Z</time>
      </trkpt>
      <trkpt lat="45.92623" lon="4.7363">
        <ele>173</ele>
        <time>2018-05-20T09:34:53Z</time>
      </trkpt>
      <trkpt lat="45.9262" lon="4.73626">
        <ele>173</ele>
        <time>2018-05-20T09:34:54Z</time>
      </trkpt>
      <trkpt lat="45.92615" lon="4.73621">
        <ele>173</ele>
        <time>2018-05-20T09:34:55Z</time>
      </trkpt>
      <trkpt lat="45.9261" lon="4.73619">
        <ele>173</ele>
        <time>2018-05-20T09:34:56Z</time>
      </trkpt>
      <trkpt lat="45.92605" lon="4.73617">
        <ele>173</ele>
        <time>2018-05-20T09:34:57Z</time>
      </trkpt>
      <trkpt lat="45.92599" lon="4.73618">
        <ele>173</ele>
        <time>2018-05-20T09:34:58Z</time>
      </trkpt>
      <trkpt lat="45.92594" lon="4.73618">
        <ele>173</ele>
        <time>2018-05-20T09:34:59Z</time>
      </trkpt>
      <trkpt lat="45.92589" lon="4.73619">
        <ele>173</ele>
        <time>2018-05-20T09:35:00Z</time>
      </trkpt>
      <trkpt lat="45.92584" lon="4.73619">
        <ele>173</ele>
        <time>2018-05-20T09:35:01Z</time>
      </trkpt>
      <trkpt lat="45.92579" lon="4.7362">
        <ele>173</ele>
        <time>2018-05-20T09:35:02Z</time>
      </trkpt>
      <trkpt lat="45.92572" lon="4.73622">
        <ele>173</ele>
        <time>2018-05-20T09:35:04Z</time>
      </trkpt>
      <trkpt lat="45.92565" lon="4.73624">
        <ele>173</ele>
        <time>2018-05-20T09:35:05Z</time>
      </trkpt>
      <trkpt lat="45.92558" lon="4.73625">
        <ele>173</ele>
        <time>2018-05-20T09:35:06Z</time>
      </trkpt>
      <trkpt lat="45.92553" lon="4.73626">
        <ele>173</ele>
        <time>2018-05-20T09:35:07Z</time>
      </trkpt>
      <trkpt lat="45.92547" lon="4.7363">
        <ele>173</ele>
        <time>2018-05-20T09:35:08Z</time>
      </trkpt>
      <trkpt lat="45.92542" lon="4.73632">
        <ele>173</ele>
        <time>2018-05-20T09:35:09Z</time>
      </trkpt>
      <trkpt lat="45.92536" lon="4.73631">
        <ele>173</ele>
        <time>2018-05-20T09:35:10Z</time>
      </trkpt>
      <trkpt lat="45.9253" lon="4.73632">
        <ele>173</ele>
        <time>2018-05-20T09:35:11Z</time>
      </trkpt>
      <trkpt lat="45.92526" lon="4.73632">
        <ele>173</ele>
        <time>2018-05-20T09:35:12Z</time>
      </trkpt>
      <trkpt lat="45.92521" lon="4.73632">
        <ele>173</ele>
        <time>2018-05-20T09:35:13Z</time>
      </trkpt>
      <trkpt lat="45.92514" lon="4.73634">
        <ele>173</ele>
        <time>2018-05-20T09:35:14Z</time>
      </trkpt>
      <trkpt lat="45.92508" lon="4.73636">
        <ele>174</ele>
        <time>2018-05-20T09:35:15Z</time>
      </trkpt>
      <trkpt lat="45.92504" lon="4.73636">
        <ele>174</ele>
        <time>2018-05-20T09:35:16Z</time>
      </trkpt>
      <trkpt lat="45.92498" lon="4.73636">
        <ele>174</ele>
        <time>2018-05-20T09:35:17Z</time>
      </trkpt>
      <trkpt lat="45.92493" lon="4.73636">
        <ele>174</ele>
        <time>2018-05-20T09:35:18Z</time>
      </trkpt>
      <trkpt lat="45.92488" lon="4.73635">
        <ele>174</ele>
        <time>2018-05-20T09:35:19Z</time>
      </trkpt>
      <trkpt lat="45.9248" lon="4.73635">
        <ele>174</ele>
        <time>2018-05-20T09:35:22Z</time>
      </trkpt>
      <trkpt lat="45.92475" lon="4.73639">
        <ele>174</ele>
        <time>2018-05-20T09:35:23Z</time>
      </trkpt>
      <trkpt lat="45.92471" lon="4.73649">
        <ele>174</ele>
        <time>2018-05-20T09:35:25Z</time>
      </trkpt>
      <trkpt lat="45.9247" lon="4.73655">
        <ele>174</ele>
        <time>2018-05-20T09:35:26Z</time>
      </trkpt>
      <trkpt lat="45.92469" lon="4.73667">
        <ele>174</ele>
        <time>2018-05-20T09:35:28Z</time>
      </trkpt>
      <trkpt lat="45.9247" lon="4.73674">
        <ele>174</ele>
        <time>2018-05-20T09:35:29Z</time>
      </trkpt>
      <trkpt lat="45.92469" lon="4.73685">
        <ele>174</ele>
        <time>2018-05-20T09:35:31Z</time>
      </trkpt>
      <trkpt lat="45.92468" lon="4.73691">
        <ele>174</ele>
        <time>2018-05-20T09:35:32Z</time>
      </trkpt>
      <trkpt lat="45.92465" lon="4.73702">
        <ele>174</ele>
        <time>2018-05-20T09:35:44Z</time>
      </trkpt>
      <trkpt lat="45.92464" lon="4.73702">
        <ele>174</ele>
        <time>2018-05-20T09:35:45Z</time>
      </trkpt>
      <trkpt lat="45.92463" lon="4.73708">
        <ele>174</ele>
        <time>2018-05-20T09:36:49.735Z</time>
      </trkpt>
    </trkseg>
  </trk>
</gpx>